<?xml version="1.0" encoding="UTF-8" standalone="no" ?>
<gpx xmlns="http://www.topografix.com/GPX/1/1" xmlns:xsi="http://www.w3.org/2001/XMLSchema-instance" xsi:schemaLocation="http://www.topografix.com/GPX/1/1 http://www.topografix.com/GPX/1/1/gpx.xsd" version="1.1" creator="VisuGPX - https://www.visugpx.com">
  <metadata>
    <name>LGT : Laniscat</name>
    <desc><![CDATA[Au départ de Bon Repos, une balade en version courte dans les Landes de Liscuis. D'une longueur d'environ 11 km, le circuit emprunté vous emmènera dans un décor somptueux et magique d'ajoncs, de fougères, de bruyères sur des sentiers empruntant des crêtes rocheuses saillantes. Après avoir découvert les allées couvertes, vous reviendrez à votre point de départ en longeant les gorges du Daoulas puis en empruntant la voie verte, ancien voie ferrée. Un magnifique circuit mais au profil exigeant.]]></desc>
  </metadata>
  <trk>
    <name><![CDATA[LGT : Laniscat_1]]></name>
    <trkseg>
      <trkpt lat="48.21345" lon="-3.12805">
        <ele>262</ele>
        <time>2016-03-07T08:33:01Z</time>
      </trkpt>
      <trkpt lat="48.21344" lon="-3.12806">
        <ele>262</ele>
        <time>2016-03-07T08:33:03Z</time>
      </trkpt>
      <trkpt lat="48.21341" lon="-3.12808">
        <ele>262</ele>
        <time>2016-03-07T08:33:06Z</time>
      </trkpt>
      <trkpt lat="48.2134" lon="-3.1281">
        <ele>263</ele>
        <time>2016-03-07T08:33:08Z</time>
      </trkpt>
      <trkpt lat="48.21337" lon="-3.12813">
        <ele>262</ele>
        <time>2016-03-07T08:33:11Z</time>
      </trkpt>
      <trkpt lat="48.21336" lon="-3.12815">
        <ele>262</ele>
        <time>2016-03-07T08:33:13Z</time>
      </trkpt>
      <trkpt lat="48.21333" lon="-3.12819">
        <ele>262</ele>
        <time>2016-03-07T08:33:16Z</time>
      </trkpt>
      <trkpt lat="48.2133" lon="-3.12822">
        <ele>262</ele>
        <time>2016-03-07T08:33:19Z</time>
      </trkpt>
      <trkpt lat="48.21328" lon="-3.12824">
        <ele>262</ele>
        <time>2016-03-07T08:33:21Z</time>
      </trkpt>
      <trkpt lat="48.21326" lon="-3.12826">
        <ele>262</ele>
        <time>2016-03-07T08:33:24Z</time>
      </trkpt>
      <trkpt lat="48.21325" lon="-3.12828">
        <ele>262</ele>
        <time>2016-03-07T08:33:26Z</time>
      </trkpt>
      <trkpt lat="48.21322" lon="-3.12829">
        <ele>262</ele>
        <time>2016-03-07T08:33:29Z</time>
      </trkpt>
      <trkpt lat="48.2132" lon="-3.1283">
        <ele>262</ele>
        <time>2016-03-07T08:33:32Z</time>
      </trkpt>
      <trkpt lat="48.2132" lon="-3.1283">
        <ele>262</ele>
        <time>2016-03-07T08:33:34Z</time>
      </trkpt>
      <trkpt lat="48.21318" lon="-3.12831">
        <ele>262</ele>
        <time>2016-03-07T08:33:37Z</time>
      </trkpt>
      <trkpt lat="48.21316" lon="-3.12833">
        <ele>262</ele>
        <time>2016-03-07T08:33:39Z</time>
      </trkpt>
      <trkpt lat="48.21314" lon="-3.12837">
        <ele>262</ele>
        <time>2016-03-07T08:33:42Z</time>
      </trkpt>
      <trkpt lat="48.21312" lon="-3.1284">
        <ele>262</ele>
        <time>2016-03-07T08:33:45Z</time>
      </trkpt>
      <trkpt lat="48.2131" lon="-3.1284">
        <ele>262</ele>
        <time>2016-03-07T08:33:47Z</time>
      </trkpt>
      <trkpt lat="48.21307" lon="-3.12842">
        <ele>262</ele>
        <time>2016-03-07T08:33:50Z</time>
      </trkpt>
      <trkpt lat="48.21306" lon="-3.12843">
        <ele>262</ele>
        <time>2016-03-07T08:33:52Z</time>
      </trkpt>
      <trkpt lat="48.21303" lon="-3.12845">
        <ele>262</ele>
        <time>2016-03-07T08:33:55Z</time>
      </trkpt>
      <trkpt lat="48.213" lon="-3.12846">
        <ele>262</ele>
        <time>2016-03-07T08:33:58Z</time>
      </trkpt>
      <trkpt lat="48.21298" lon="-3.12847">
        <ele>262</ele>
        <time>2016-03-07T08:34:00Z</time>
      </trkpt>
      <trkpt lat="48.21296" lon="-3.12848">
        <ele>262</ele>
        <time>2016-03-07T08:34:03Z</time>
      </trkpt>
      <trkpt lat="48.21294" lon="-3.1285">
        <ele>262</ele>
        <time>2016-03-07T08:34:05Z</time>
      </trkpt>
      <trkpt lat="48.21291" lon="-3.12852">
        <ele>262</ele>
        <time>2016-03-07T08:34:08Z</time>
      </trkpt>
      <trkpt lat="48.21289" lon="-3.12854">
        <ele>261</ele>
        <time>2016-03-07T08:34:10Z</time>
      </trkpt>
      <trkpt lat="48.21286" lon="-3.12855">
        <ele>261</ele>
        <time>2016-03-07T08:34:13Z</time>
      </trkpt>
      <trkpt lat="48.21283" lon="-3.12857">
        <ele>261</ele>
        <time>2016-03-07T08:34:16Z</time>
      </trkpt>
      <trkpt lat="48.21282" lon="-3.1286">
        <ele>261</ele>
        <time>2016-03-07T08:34:18Z</time>
      </trkpt>
      <trkpt lat="48.21279" lon="-3.12862">
        <ele>262</ele>
        <time>2016-03-07T08:34:21Z</time>
      </trkpt>
      <trkpt lat="48.21277" lon="-3.12864">
        <ele>262</ele>
        <time>2016-03-07T08:34:24Z</time>
      </trkpt>
      <trkpt lat="48.21275" lon="-3.12866">
        <ele>262</ele>
        <time>2016-03-07T08:34:26Z</time>
      </trkpt>
      <trkpt lat="48.21273" lon="-3.12869">
        <ele>262</ele>
        <time>2016-03-07T08:34:29Z</time>
      </trkpt>
      <trkpt lat="48.21272" lon="-3.12871">
        <ele>262</ele>
        <time>2016-03-07T08:34:31Z</time>
      </trkpt>
      <trkpt lat="48.2127" lon="-3.12874">
        <ele>262</ele>
        <time>2016-03-07T08:34:34Z</time>
      </trkpt>
      <trkpt lat="48.21267" lon="-3.12877">
        <ele>262</ele>
        <time>2016-03-07T08:34:37Z</time>
      </trkpt>
      <trkpt lat="48.21266" lon="-3.12879">
        <ele>262</ele>
        <time>2016-03-07T08:34:39Z</time>
      </trkpt>
      <trkpt lat="48.21264" lon="-3.12882">
        <ele>262</ele>
        <time>2016-03-07T08:34:42Z</time>
      </trkpt>
      <trkpt lat="48.21262" lon="-3.12885">
        <ele>262</ele>
        <time>2016-03-07T08:34:44Z</time>
      </trkpt>
      <trkpt lat="48.2126" lon="-3.12887">
        <ele>262</ele>
        <time>2016-03-07T08:34:47Z</time>
      </trkpt>
      <trkpt lat="48.21257" lon="-3.12888">
        <ele>262</ele>
        <time>2016-03-07T08:34:49Z</time>
      </trkpt>
      <trkpt lat="48.21255" lon="-3.12891">
        <ele>261</ele>
        <time>2016-03-07T08:34:52Z</time>
      </trkpt>
      <trkpt lat="48.21252" lon="-3.12893">
        <ele>261</ele>
        <time>2016-03-07T08:34:55Z</time>
      </trkpt>
      <trkpt lat="48.2125" lon="-3.12895">
        <ele>261</ele>
        <time>2016-03-07T08:34:57Z</time>
      </trkpt>
      <trkpt lat="48.21247" lon="-3.12898">
        <ele>262</ele>
        <time>2016-03-07T08:35:00Z</time>
      </trkpt>
      <trkpt lat="48.21246" lon="-3.129">
        <ele>262</ele>
        <time>2016-03-07T08:35:02Z</time>
      </trkpt>
      <trkpt lat="48.21243" lon="-3.12903">
        <ele>261</ele>
        <time>2016-03-07T08:35:05Z</time>
      </trkpt>
      <trkpt lat="48.21241" lon="-3.12907">
        <ele>262</ele>
        <time>2016-03-07T08:35:08Z</time>
      </trkpt>
      <trkpt lat="48.21238" lon="-3.12911">
        <ele>262</ele>
        <time>2016-03-07T08:35:11Z</time>
      </trkpt>
      <trkpt lat="48.21236" lon="-3.12916">
        <ele>262</ele>
        <time>2016-03-07T08:35:14Z</time>
      </trkpt>
      <trkpt lat="48.21235" lon="-3.1292">
        <ele>262</ele>
        <time>2016-03-07T08:35:16Z</time>
      </trkpt>
      <trkpt lat="48.21233" lon="-3.12922">
        <ele>262</ele>
        <time>2016-03-07T08:35:18Z</time>
      </trkpt>
      <trkpt lat="48.21231" lon="-3.12925">
        <ele>262</ele>
        <time>2016-03-07T08:35:21Z</time>
      </trkpt>
      <trkpt lat="48.21229" lon="-3.1293">
        <ele>262</ele>
        <time>2016-03-07T08:35:24Z</time>
      </trkpt>
      <trkpt lat="48.21228" lon="-3.12932">
        <ele>263</ele>
        <time>2016-03-07T08:35:26Z</time>
      </trkpt>
      <trkpt lat="48.21226" lon="-3.12936">
        <ele>263</ele>
        <time>2016-03-07T08:35:29Z</time>
      </trkpt>
      <trkpt lat="48.21225" lon="-3.1294">
        <ele>263</ele>
        <time>2016-03-07T08:35:32Z</time>
      </trkpt>
      <trkpt lat="48.21222" lon="-3.12944">
        <ele>262</ele>
        <time>2016-03-07T08:35:35Z</time>
      </trkpt>
      <trkpt lat="48.21221" lon="-3.12951">
        <ele>262</ele>
        <time>2016-03-07T08:35:38Z</time>
      </trkpt>
      <trkpt lat="48.2122" lon="-3.12954">
        <ele>262</ele>
        <time>2016-03-07T08:35:40Z</time>
      </trkpt>
      <trkpt lat="48.21218" lon="-3.12957">
        <ele>263</ele>
        <time>2016-03-07T08:35:42Z</time>
      </trkpt>
      <trkpt lat="48.21216" lon="-3.12961">
        <ele>263</ele>
        <time>2016-03-07T08:35:45Z</time>
      </trkpt>
      <trkpt lat="48.21215" lon="-3.12966">
        <ele>263</ele>
        <time>2016-03-07T08:35:48Z</time>
      </trkpt>
      <trkpt lat="48.21212" lon="-3.1297">
        <ele>263</ele>
        <time>2016-03-07T08:35:51Z</time>
      </trkpt>
      <trkpt lat="48.21209" lon="-3.12973">
        <ele>263</ele>
        <time>2016-03-07T08:35:54Z</time>
      </trkpt>
      <trkpt lat="48.21209" lon="-3.12974">
        <ele>263</ele>
        <time>2016-03-07T08:35:56Z</time>
      </trkpt>
      <trkpt lat="48.21207" lon="-3.12977">
        <ele>263</ele>
        <time>2016-03-07T08:35:59Z</time>
      </trkpt>
      <trkpt lat="48.21206" lon="-3.12978">
        <ele>263</ele>
        <time>2016-03-07T08:36:01Z</time>
      </trkpt>
      <trkpt lat="48.21205" lon="-3.12981">
        <ele>263</ele>
        <time>2016-03-07T08:36:04Z</time>
      </trkpt>
      <trkpt lat="48.21204" lon="-3.12985">
        <ele>263</ele>
        <time>2016-03-07T08:36:06Z</time>
      </trkpt>
      <trkpt lat="48.21204" lon="-3.12986">
        <ele>263</ele>
        <time>2016-03-07T08:36:08Z</time>
      </trkpt>
      <trkpt lat="48.21202" lon="-3.12987">
        <ele>263</ele>
        <time>2016-03-07T08:36:11Z</time>
      </trkpt>
      <trkpt lat="48.21201" lon="-3.12988">
        <ele>264</ele>
        <time>2016-03-07T08:36:13Z</time>
      </trkpt>
      <trkpt lat="48.21198" lon="-3.12991">
        <ele>263</ele>
        <time>2016-03-07T08:36:16Z</time>
      </trkpt>
      <trkpt lat="48.21197" lon="-3.12995">
        <ele>263</ele>
        <time>2016-03-07T08:36:18Z</time>
      </trkpt>
      <trkpt lat="48.21197" lon="-3.12996">
        <ele>263</ele>
        <time>2016-03-07T08:36:20Z</time>
      </trkpt>
      <trkpt lat="48.21194" lon="-3.12995">
        <ele>263</ele>
        <time>2016-03-07T08:36:23Z</time>
      </trkpt>
      <trkpt lat="48.21194" lon="-3.12992">
        <ele>263</ele>
        <time>2016-03-07T08:36:26Z</time>
      </trkpt>
      <trkpt lat="48.21194" lon="-3.12992">
        <ele>263</ele>
        <time>2016-03-07T08:36:28Z</time>
      </trkpt>
      <trkpt lat="48.21194" lon="-3.12992">
        <ele>263</ele>
        <time>2016-03-07T08:36:31Z</time>
      </trkpt>
      <trkpt lat="48.21196" lon="-3.12993">
        <ele>263</ele>
        <time>2016-03-07T08:36:33Z</time>
      </trkpt>
      <trkpt lat="48.21198" lon="-3.12995">
        <ele>263</ele>
        <time>2016-03-07T08:36:35Z</time>
      </trkpt>
      <trkpt lat="48.212" lon="-3.12997">
        <ele>263</ele>
        <time>2016-03-07T08:36:38Z</time>
      </trkpt>
      <trkpt lat="48.21201" lon="-3.12998">
        <ele>263</ele>
        <time>2016-03-07T08:36:40Z</time>
      </trkpt>
      <trkpt lat="48.21203" lon="-3.13001">
        <ele>262</ele>
        <time>2016-03-07T08:36:43Z</time>
      </trkpt>
      <trkpt lat="48.21204" lon="-3.13004">
        <ele>263</ele>
        <time>2016-03-07T08:36:46Z</time>
      </trkpt>
      <trkpt lat="48.21205" lon="-3.13007">
        <ele>262</ele>
        <time>2016-03-07T08:36:49Z</time>
      </trkpt>
      <trkpt lat="48.21204" lon="-3.13008">
        <ele>262</ele>
        <time>2016-03-07T08:36:52Z</time>
      </trkpt>
      <trkpt lat="48.21204" lon="-3.13009">
        <ele>262</ele>
        <time>2016-03-07T08:36:55Z</time>
      </trkpt>
      <trkpt lat="48.21204" lon="-3.13012">
        <ele>262</ele>
        <time>2016-03-07T08:36:58Z</time>
      </trkpt>
      <trkpt lat="48.21204" lon="-3.13013">
        <ele>263</ele>
        <time>2016-03-07T08:37:00Z</time>
      </trkpt>
      <trkpt lat="48.21204" lon="-3.13013">
        <ele>263</ele>
        <time>2016-03-07T08:37:03Z</time>
      </trkpt>
      <trkpt lat="48.21204" lon="-3.13013">
        <ele>263</ele>
        <time>2016-03-07T08:37:06Z</time>
      </trkpt>
      <trkpt lat="48.21204" lon="-3.13013">
        <ele>263</ele>
        <time>2016-03-07T08:37:08Z</time>
      </trkpt>
      <trkpt lat="48.21205" lon="-3.13012">
        <ele>263</ele>
        <time>2016-03-07T08:37:11Z</time>
      </trkpt>
      <trkpt lat="48.21204" lon="-3.13012">
        <ele>264</ele>
        <time>2016-03-07T08:37:13Z</time>
      </trkpt>
      <trkpt lat="48.21204" lon="-3.13012">
        <ele>264</ele>
        <time>2016-03-07T08:37:16Z</time>
      </trkpt>
      <trkpt lat="48.21204" lon="-3.13008">
        <ele>264</ele>
        <time>2016-03-07T08:37:19Z</time>
      </trkpt>
      <trkpt lat="48.21203" lon="-3.13005">
        <ele>263</ele>
        <time>2016-03-07T08:37:21Z</time>
      </trkpt>
      <trkpt lat="48.21204" lon="-3.13001">
        <ele>263</ele>
        <time>2016-03-07T08:37:24Z</time>
      </trkpt>
      <trkpt lat="48.21202" lon="-3.12999">
        <ele>263</ele>
        <time>2016-03-07T08:37:26Z</time>
      </trkpt>
      <trkpt lat="48.21201" lon="-3.12995">
        <ele>263</ele>
        <time>2016-03-07T08:37:29Z</time>
      </trkpt>
      <trkpt lat="48.21201" lon="-3.12995">
        <ele>263</ele>
        <time>2016-03-07T08:37:32Z</time>
      </trkpt>
      <trkpt lat="48.21202" lon="-3.12995">
        <ele>263</ele>
        <time>2016-03-07T08:37:35Z</time>
      </trkpt>
      <trkpt lat="48.21202" lon="-3.12995">
        <ele>263</ele>
        <time>2016-03-07T08:37:38Z</time>
      </trkpt>
      <trkpt lat="48.21202" lon="-3.12995">
        <ele>263</ele>
        <time>2016-03-07T08:37:40Z</time>
      </trkpt>
      <trkpt lat="48.21202" lon="-3.12995">
        <ele>263</ele>
        <time>2016-03-07T08:37:43Z</time>
      </trkpt>
      <trkpt lat="48.21202" lon="-3.12995">
        <ele>263</ele>
        <time>2016-03-07T08:37:45Z</time>
      </trkpt>
      <trkpt lat="48.21203" lon="-3.12996">
        <ele>263</ele>
        <time>2016-03-07T08:37:48Z</time>
      </trkpt>
      <trkpt lat="48.21204" lon="-3.12997">
        <ele>263</ele>
        <time>2016-03-07T08:37:50Z</time>
      </trkpt>
      <trkpt lat="48.21205" lon="-3.12997">
        <ele>263</ele>
        <time>2016-03-07T08:37:53Z</time>
      </trkpt>
      <trkpt lat="48.21205" lon="-3.12998">
        <ele>262</ele>
        <time>2016-03-07T08:37:56Z</time>
      </trkpt>
      <trkpt lat="48.21206" lon="-3.13">
        <ele>262</ele>
        <time>2016-03-07T08:37:59Z</time>
      </trkpt>
      <trkpt lat="48.21207" lon="-3.13001">
        <ele>262</ele>
        <time>2016-03-07T08:38:02Z</time>
      </trkpt>
      <trkpt lat="48.21208" lon="-3.13003">
        <ele>262</ele>
        <time>2016-03-07T08:38:05Z</time>
      </trkpt>
      <trkpt lat="48.21209" lon="-3.13004">
        <ele>262</ele>
        <time>2016-03-07T08:38:08Z</time>
      </trkpt>
      <trkpt lat="48.21211" lon="-3.13006">
        <ele>263</ele>
        <time>2016-03-07T08:38:11Z</time>
      </trkpt>
      <trkpt lat="48.21212" lon="-3.13007">
        <ele>263</ele>
        <time>2016-03-07T08:38:13Z</time>
      </trkpt>
      <trkpt lat="48.21213" lon="-3.13008">
        <ele>263</ele>
        <time>2016-03-07T08:38:16Z</time>
      </trkpt>
      <trkpt lat="48.21213" lon="-3.13008">
        <ele>263</ele>
        <time>2016-03-07T08:38:19Z</time>
      </trkpt>
      <trkpt lat="48.21215" lon="-3.13009">
        <ele>262</ele>
        <time>2016-03-07T08:38:22Z</time>
      </trkpt>
      <trkpt lat="48.21215" lon="-3.1301">
        <ele>263</ele>
        <time>2016-03-07T08:38:27Z</time>
      </trkpt>
      <trkpt lat="48.21215" lon="-3.1301">
        <ele>263</ele>
        <time>2016-03-07T08:38:30Z</time>
      </trkpt>
      <trkpt lat="48.21215" lon="-3.13009">
        <ele>263</ele>
        <time>2016-03-07T08:38:33Z</time>
      </trkpt>
      <trkpt lat="48.21214" lon="-3.13008">
        <ele>263</ele>
        <time>2016-03-07T08:38:36Z</time>
      </trkpt>
      <trkpt lat="48.21214" lon="-3.13007">
        <ele>262</ele>
        <time>2016-03-07T08:38:39Z</time>
      </trkpt>
      <trkpt lat="48.21214" lon="-3.13006">
        <ele>262</ele>
        <time>2016-03-07T08:38:42Z</time>
      </trkpt>
      <trkpt lat="48.21214" lon="-3.13006">
        <ele>262</ele>
        <time>2016-03-07T08:38:44Z</time>
      </trkpt>
      <trkpt lat="48.21213" lon="-3.13006">
        <ele>262</ele>
        <time>2016-03-07T08:38:46Z</time>
      </trkpt>
      <trkpt lat="48.21213" lon="-3.13006">
        <ele>262</ele>
        <time>2016-03-07T08:38:49Z</time>
      </trkpt>
      <trkpt lat="48.21212" lon="-3.13006">
        <ele>262</ele>
        <time>2016-03-07T08:38:51Z</time>
      </trkpt>
      <trkpt lat="48.21212" lon="-3.13005">
        <ele>262</ele>
        <time>2016-03-07T08:38:54Z</time>
      </trkpt>
      <trkpt lat="48.21212" lon="-3.13005">
        <ele>262</ele>
        <time>2016-03-07T08:38:57Z</time>
      </trkpt>
      <trkpt lat="48.21212" lon="-3.13005">
        <ele>262</ele>
        <time>2016-03-07T08:38:59Z</time>
      </trkpt>
      <trkpt lat="48.21212" lon="-3.13005">
        <ele>262</ele>
        <time>2016-03-07T08:39:03Z</time>
      </trkpt>
      <trkpt lat="48.21212" lon="-3.13006">
        <ele>263</ele>
        <time>2016-03-07T08:39:05Z</time>
      </trkpt>
      <trkpt lat="48.21212" lon="-3.13007">
        <ele>263</ele>
        <time>2016-03-07T08:39:07Z</time>
      </trkpt>
      <trkpt lat="48.21213" lon="-3.13007">
        <ele>262</ele>
        <time>2016-03-07T08:39:10Z</time>
      </trkpt>
      <trkpt lat="48.21213" lon="-3.13008">
        <ele>262</ele>
        <time>2016-03-07T08:39:12Z</time>
      </trkpt>
      <trkpt lat="48.21212" lon="-3.13007">
        <ele>262</ele>
        <time>2016-03-07T08:39:15Z</time>
      </trkpt>
      <trkpt lat="48.21212" lon="-3.13007">
        <ele>262</ele>
        <time>2016-03-07T08:39:17Z</time>
      </trkpt>
      <trkpt lat="48.21212" lon="-3.13007">
        <ele>262</ele>
        <time>2016-03-07T08:39:19Z</time>
      </trkpt>
      <trkpt lat="48.21211" lon="-3.13005">
        <ele>262</ele>
        <time>2016-03-07T08:39:22Z</time>
      </trkpt>
      <trkpt lat="48.2121" lon="-3.13005">
        <ele>262</ele>
        <time>2016-03-07T08:39:26Z</time>
      </trkpt>
      <trkpt lat="48.21211" lon="-3.13005">
        <ele>262</ele>
        <time>2016-03-07T08:39:30Z</time>
      </trkpt>
      <trkpt lat="48.21211" lon="-3.13005">
        <ele>262</ele>
        <time>2016-03-07T08:39:33Z</time>
      </trkpt>
      <trkpt lat="48.21211" lon="-3.13004">
        <ele>262</ele>
        <time>2016-03-07T08:39:35Z</time>
      </trkpt>
      <trkpt lat="48.21211" lon="-3.13004">
        <ele>262</ele>
        <time>2016-03-07T08:39:39Z</time>
      </trkpt>
      <trkpt lat="48.21211" lon="-3.13004">
        <ele>262</ele>
        <time>2016-03-07T08:39:41Z</time>
      </trkpt>
      <trkpt lat="48.21211" lon="-3.13004">
        <ele>262</ele>
        <time>2016-03-07T08:39:44Z</time>
      </trkpt>
      <trkpt lat="48.21211" lon="-3.13004">
        <ele>262</ele>
        <time>2016-03-07T08:39:46Z</time>
      </trkpt>
      <trkpt lat="48.21211" lon="-3.13004">
        <ele>262</ele>
        <time>2016-03-07T08:39:50Z</time>
      </trkpt>
      <trkpt lat="48.21211" lon="-3.13004">
        <ele>262</ele>
        <time>2016-03-07T08:39:52Z</time>
      </trkpt>
      <trkpt lat="48.21212" lon="-3.13004">
        <ele>262</ele>
        <time>2016-03-07T08:39:55Z</time>
      </trkpt>
      <trkpt lat="48.21212" lon="-3.13004">
        <ele>262</ele>
        <time>2016-03-07T08:39:58Z</time>
      </trkpt>
      <trkpt lat="48.21211" lon="-3.13004">
        <ele>262</ele>
        <time>2016-03-07T08:40:01Z</time>
      </trkpt>
      <trkpt lat="48.21212" lon="-3.13005">
        <ele>262</ele>
        <time>2016-03-07T08:40:03Z</time>
      </trkpt>
      <trkpt lat="48.21214" lon="-3.13006">
        <ele>262</ele>
        <time>2016-03-07T08:40:06Z</time>
      </trkpt>
      <trkpt lat="48.21214" lon="-3.13006">
        <ele>262</ele>
        <time>2016-03-07T08:40:09Z</time>
      </trkpt>
      <trkpt lat="48.21213" lon="-3.13006">
        <ele>262</ele>
        <time>2016-03-07T08:40:11Z</time>
      </trkpt>
      <trkpt lat="48.21213" lon="-3.13007">
        <ele>262</ele>
        <time>2016-03-07T08:40:13Z</time>
      </trkpt>
      <trkpt lat="48.21213" lon="-3.13007">
        <ele>262</ele>
        <time>2016-03-07T08:40:17Z</time>
      </trkpt>
      <trkpt lat="48.21212" lon="-3.13006">
        <ele>262</ele>
        <time>2016-03-07T08:40:20Z</time>
      </trkpt>
      <trkpt lat="48.21212" lon="-3.13004">
        <ele>262</ele>
        <time>2016-03-07T08:40:23Z</time>
      </trkpt>
      <trkpt lat="48.21212" lon="-3.13005">
        <ele>263</ele>
        <time>2016-03-07T08:40:26Z</time>
      </trkpt>
      <trkpt lat="48.21213" lon="-3.13007">
        <ele>263</ele>
        <time>2016-03-07T08:40:29Z</time>
      </trkpt>
      <trkpt lat="48.21215" lon="-3.13007">
        <ele>262</ele>
        <time>2016-03-07T08:40:31Z</time>
      </trkpt>
      <trkpt lat="48.21216" lon="-3.1301">
        <ele>261</ele>
        <time>2016-03-07T08:40:34Z</time>
      </trkpt>
      <trkpt lat="48.21217" lon="-3.13012">
        <ele>261</ele>
        <time>2016-03-07T08:40:36Z</time>
      </trkpt>
      <trkpt lat="48.21219" lon="-3.13015">
        <ele>261</ele>
        <time>2016-03-07T08:40:39Z</time>
      </trkpt>
      <trkpt lat="48.2122" lon="-3.13018">
        <ele>261</ele>
        <time>2016-03-07T08:40:42Z</time>
      </trkpt>
      <trkpt lat="48.21222" lon="-3.1302">
        <ele>262</ele>
        <time>2016-03-07T08:40:44Z</time>
      </trkpt>
      <trkpt lat="48.21224" lon="-3.13024">
        <ele>261</ele>
        <time>2016-03-07T08:40:47Z</time>
      </trkpt>
      <trkpt lat="48.21227" lon="-3.1303">
        <ele>261</ele>
        <time>2016-03-07T08:40:50Z</time>
      </trkpt>
      <trkpt lat="48.2123" lon="-3.13033">
        <ele>261</ele>
        <time>2016-03-07T08:40:53Z</time>
      </trkpt>
      <trkpt lat="48.21232" lon="-3.13037">
        <ele>261</ele>
        <time>2016-03-07T08:40:56Z</time>
      </trkpt>
      <trkpt lat="48.21234" lon="-3.13039">
        <ele>261</ele>
        <time>2016-03-07T08:40:58Z</time>
      </trkpt>
      <trkpt lat="48.21237" lon="-3.13043">
        <ele>262</ele>
        <time>2016-03-07T08:41:01Z</time>
      </trkpt>
      <trkpt lat="48.2124" lon="-3.13046">
        <ele>262</ele>
        <time>2016-03-07T08:41:04Z</time>
      </trkpt>
      <trkpt lat="48.21242" lon="-3.13048">
        <ele>262</ele>
        <time>2016-03-07T08:41:06Z</time>
      </trkpt>
      <trkpt lat="48.21245" lon="-3.1305">
        <ele>261</ele>
        <time>2016-03-07T08:41:09Z</time>
      </trkpt>
      <trkpt lat="48.21247" lon="-3.13051">
        <ele>262</ele>
        <time>2016-03-07T08:41:11Z</time>
      </trkpt>
      <trkpt lat="48.21249" lon="-3.13051">
        <ele>262</ele>
        <time>2016-03-07T08:41:13Z</time>
      </trkpt>
      <trkpt lat="48.21251" lon="-3.13051">
        <ele>262</ele>
        <time>2016-03-07T08:41:16Z</time>
      </trkpt>
      <trkpt lat="48.21253" lon="-3.1305">
        <ele>261</ele>
        <time>2016-03-07T08:41:18Z</time>
      </trkpt>
      <trkpt lat="48.21254" lon="-3.13048">
        <ele>261</ele>
        <time>2016-03-07T08:41:20Z</time>
      </trkpt>
      <trkpt lat="48.21254" lon="-3.13046">
        <ele>261</ele>
        <time>2016-03-07T08:41:22Z</time>
      </trkpt>
      <trkpt lat="48.21254" lon="-3.13044">
        <ele>261</ele>
        <time>2016-03-07T08:41:24Z</time>
      </trkpt>
      <trkpt lat="48.21253" lon="-3.13043">
        <ele>261</ele>
        <time>2016-03-07T08:41:27Z</time>
      </trkpt>
      <trkpt lat="48.21253" lon="-3.13043">
        <ele>262</ele>
        <time>2016-03-07T08:41:29Z</time>
      </trkpt>
      <trkpt lat="48.21253" lon="-3.13042">
        <ele>262</ele>
        <time>2016-03-07T08:41:32Z</time>
      </trkpt>
      <trkpt lat="48.21252" lon="-3.13041">
        <ele>262</ele>
        <time>2016-03-07T08:41:34Z</time>
      </trkpt>
      <trkpt lat="48.21251" lon="-3.1304">
        <ele>262</ele>
        <time>2016-03-07T08:41:36Z</time>
      </trkpt>
      <trkpt lat="48.2125" lon="-3.13039">
        <ele>262</ele>
        <time>2016-03-07T08:41:38Z</time>
      </trkpt>
      <trkpt lat="48.2125" lon="-3.13039">
        <ele>261</ele>
        <time>2016-03-07T08:41:41Z</time>
      </trkpt>
      <trkpt lat="48.21249" lon="-3.13038">
        <ele>262</ele>
        <time>2016-03-07T08:41:43Z</time>
      </trkpt>
      <trkpt lat="48.21249" lon="-3.13038">
        <ele>261</ele>
        <time>2016-03-07T08:41:46Z</time>
      </trkpt>
      <trkpt lat="48.21249" lon="-3.13038">
        <ele>262</ele>
        <time>2016-03-07T08:41:49Z</time>
      </trkpt>
      <trkpt lat="48.21249" lon="-3.13038">
        <ele>261</ele>
        <time>2016-03-07T08:41:52Z</time>
      </trkpt>
      <trkpt lat="48.21251" lon="-3.13041">
        <ele>261</ele>
        <time>2016-03-07T08:41:54Z</time>
      </trkpt>
      <trkpt lat="48.21252" lon="-3.13043">
        <ele>261</ele>
        <time>2016-03-07T08:41:56Z</time>
      </trkpt>
      <trkpt lat="48.21254" lon="-3.13046">
        <ele>261</ele>
        <time>2016-03-07T08:41:59Z</time>
      </trkpt>
      <trkpt lat="48.21254" lon="-3.13049">
        <ele>261</ele>
        <time>2016-03-07T08:42:01Z</time>
      </trkpt>
      <trkpt lat="48.21252" lon="-3.13052">
        <ele>261</ele>
        <time>2016-03-07T08:42:04Z</time>
      </trkpt>
      <trkpt lat="48.2125" lon="-3.13055">
        <ele>261</ele>
        <time>2016-03-07T08:42:07Z</time>
      </trkpt>
      <trkpt lat="48.2125" lon="-3.13059">
        <ele>261</ele>
        <time>2016-03-07T08:42:09Z</time>
      </trkpt>
      <trkpt lat="48.2125" lon="-3.13061">
        <ele>261</ele>
        <time>2016-03-07T08:42:11Z</time>
      </trkpt>
      <trkpt lat="48.21251" lon="-3.13066">
        <ele>262</ele>
        <time>2016-03-07T08:42:14Z</time>
      </trkpt>
      <trkpt lat="48.21252" lon="-3.13068">
        <ele>262</ele>
        <time>2016-03-07T08:42:16Z</time>
      </trkpt>
      <trkpt lat="48.21255" lon="-3.1307">
        <ele>262</ele>
        <time>2016-03-07T08:42:19Z</time>
      </trkpt>
      <trkpt lat="48.21257" lon="-3.13073">
        <ele>262</ele>
        <time>2016-03-07T08:42:22Z</time>
      </trkpt>
      <trkpt lat="48.21259" lon="-3.13074">
        <ele>262</ele>
        <time>2016-03-07T08:42:24Z</time>
      </trkpt>
      <trkpt lat="48.21262" lon="-3.13076">
        <ele>262</ele>
        <time>2016-03-07T08:42:27Z</time>
      </trkpt>
      <trkpt lat="48.21265" lon="-3.13078">
        <ele>262</ele>
        <time>2016-03-07T08:42:30Z</time>
      </trkpt>
      <trkpt lat="48.21267" lon="-3.1308">
        <ele>262</ele>
        <time>2016-03-07T08:42:32Z</time>
      </trkpt>
      <trkpt lat="48.2127" lon="-3.13085">
        <ele>262</ele>
        <time>2016-03-07T08:42:35Z</time>
      </trkpt>
      <trkpt lat="48.21273" lon="-3.13088">
        <ele>262</ele>
        <time>2016-03-07T08:42:38Z</time>
      </trkpt>
      <trkpt lat="48.21276" lon="-3.13091">
        <ele>262</ele>
        <time>2016-03-07T08:42:41Z</time>
      </trkpt>
      <trkpt lat="48.21278" lon="-3.13093">
        <ele>262</ele>
        <time>2016-03-07T08:42:43Z</time>
      </trkpt>
      <trkpt lat="48.2128" lon="-3.13094">
        <ele>262</ele>
        <time>2016-03-07T08:42:45Z</time>
      </trkpt>
      <trkpt lat="48.2128" lon="-3.13095">
        <ele>262</ele>
        <time>2016-03-07T08:42:48Z</time>
      </trkpt>
      <trkpt lat="48.21281" lon="-3.13098">
        <ele>262</ele>
        <time>2016-03-07T08:42:51Z</time>
      </trkpt>
      <trkpt lat="48.21285" lon="-3.13101">
        <ele>262</ele>
        <time>2016-03-07T08:42:54Z</time>
      </trkpt>
      <trkpt lat="48.21289" lon="-3.13104">
        <ele>262</ele>
        <time>2016-03-07T08:42:57Z</time>
      </trkpt>
      <trkpt lat="48.21291" lon="-3.13107">
        <ele>261</ele>
        <time>2016-03-07T08:43:00Z</time>
      </trkpt>
      <trkpt lat="48.21293" lon="-3.13109">
        <ele>262</ele>
        <time>2016-03-07T08:43:02Z</time>
      </trkpt>
      <trkpt lat="48.21296" lon="-3.13112">
        <ele>261</ele>
        <time>2016-03-07T08:43:05Z</time>
      </trkpt>
      <trkpt lat="48.21297" lon="-3.13113">
        <ele>262</ele>
        <time>2016-03-07T08:43:07Z</time>
      </trkpt>
      <trkpt lat="48.213" lon="-3.13116">
        <ele>262</ele>
        <time>2016-03-07T08:43:10Z</time>
      </trkpt>
      <trkpt lat="48.21302" lon="-3.13118">
        <ele>262</ele>
        <time>2016-03-07T08:43:12Z</time>
      </trkpt>
      <trkpt lat="48.21304" lon="-3.1312">
        <ele>261</ele>
        <time>2016-03-07T08:43:14Z</time>
      </trkpt>
      <trkpt lat="48.21306" lon="-3.13124">
        <ele>261</ele>
        <time>2016-03-07T08:43:17Z</time>
      </trkpt>
      <trkpt lat="48.21309" lon="-3.13129">
        <ele>261</ele>
        <time>2016-03-07T08:43:20Z</time>
      </trkpt>
      <trkpt lat="48.21313" lon="-3.13134">
        <ele>261</ele>
        <time>2016-03-07T08:43:23Z</time>
      </trkpt>
      <trkpt lat="48.21316" lon="-3.13137">
        <ele>261</ele>
        <time>2016-03-07T08:43:26Z</time>
      </trkpt>
      <trkpt lat="48.2132" lon="-3.13141">
        <ele>261</ele>
        <time>2016-03-07T08:43:29Z</time>
      </trkpt>
      <trkpt lat="48.21322" lon="-3.13144">
        <ele>261</ele>
        <time>2016-03-07T08:43:31Z</time>
      </trkpt>
      <trkpt lat="48.21325" lon="-3.13148">
        <ele>261</ele>
        <time>2016-03-07T08:43:34Z</time>
      </trkpt>
      <trkpt lat="48.21328" lon="-3.13152">
        <ele>261</ele>
        <time>2016-03-07T08:43:37Z</time>
      </trkpt>
      <trkpt lat="48.21329" lon="-3.13155">
        <ele>261</ele>
        <time>2016-03-07T08:43:39Z</time>
      </trkpt>
      <trkpt lat="48.21333" lon="-3.13159">
        <ele>261</ele>
        <time>2016-03-07T08:43:42Z</time>
      </trkpt>
      <trkpt lat="48.21335" lon="-3.13163">
        <ele>261</ele>
        <time>2016-03-07T08:43:45Z</time>
      </trkpt>
      <trkpt lat="48.21337" lon="-3.13166">
        <ele>261</ele>
        <time>2016-03-07T08:43:47Z</time>
      </trkpt>
      <trkpt lat="48.2134" lon="-3.1317">
        <ele>261</ele>
        <time>2016-03-07T08:43:50Z</time>
      </trkpt>
      <trkpt lat="48.21341" lon="-3.13172">
        <ele>261</ele>
        <time>2016-03-07T08:43:52Z</time>
      </trkpt>
      <trkpt lat="48.21345" lon="-3.13176">
        <ele>261</ele>
        <time>2016-03-07T08:43:55Z</time>
      </trkpt>
      <trkpt lat="48.21347" lon="-3.13178">
        <ele>261</ele>
        <time>2016-03-07T08:43:57Z</time>
      </trkpt>
      <trkpt lat="48.21349" lon="-3.13181">
        <ele>261</ele>
        <time>2016-03-07T08:44:00Z</time>
      </trkpt>
      <trkpt lat="48.2135" lon="-3.13183">
        <ele>261</ele>
        <time>2016-03-07T08:44:02Z</time>
      </trkpt>
      <trkpt lat="48.21351" lon="-3.13187">
        <ele>260</ele>
        <time>2016-03-07T08:44:04Z</time>
      </trkpt>
      <trkpt lat="48.21353" lon="-3.13191">
        <ele>260</ele>
        <time>2016-03-07T08:44:07Z</time>
      </trkpt>
      <trkpt lat="48.21355" lon="-3.13194">
        <ele>260</ele>
        <time>2016-03-07T08:44:09Z</time>
      </trkpt>
      <trkpt lat="48.21357" lon="-3.13199">
        <ele>261</ele>
        <time>2016-03-07T08:44:12Z</time>
      </trkpt>
      <trkpt lat="48.21359" lon="-3.13204">
        <ele>261</ele>
        <time>2016-03-07T08:44:15Z</time>
      </trkpt>
      <trkpt lat="48.2136" lon="-3.13207">
        <ele>261</ele>
        <time>2016-03-07T08:44:17Z</time>
      </trkpt>
      <trkpt lat="48.21362" lon="-3.13212">
        <ele>261</ele>
        <time>2016-03-07T08:44:20Z</time>
      </trkpt>
      <trkpt lat="48.21363" lon="-3.13215">
        <ele>260</ele>
        <time>2016-03-07T08:44:22Z</time>
      </trkpt>
      <trkpt lat="48.21366" lon="-3.13221">
        <ele>261</ele>
        <time>2016-03-07T08:44:25Z</time>
      </trkpt>
      <trkpt lat="48.21367" lon="-3.13226">
        <ele>261</ele>
        <time>2016-03-07T08:44:28Z</time>
      </trkpt>
      <trkpt lat="48.21369" lon="-3.13229">
        <ele>261</ele>
        <time>2016-03-07T08:44:30Z</time>
      </trkpt>
      <trkpt lat="48.2137" lon="-3.13235">
        <ele>261</ele>
        <time>2016-03-07T08:44:33Z</time>
      </trkpt>
      <trkpt lat="48.21371" lon="-3.1324">
        <ele>261</ele>
        <time>2016-03-07T08:44:35Z</time>
      </trkpt>
      <trkpt lat="48.21371" lon="-3.13246">
        <ele>261</ele>
        <time>2016-03-07T08:44:38Z</time>
      </trkpt>
      <trkpt lat="48.21372" lon="-3.13249">
        <ele>261</ele>
        <time>2016-03-07T08:44:40Z</time>
      </trkpt>
      <trkpt lat="48.21373" lon="-3.13255">
        <ele>261</ele>
        <time>2016-03-07T08:44:43Z</time>
      </trkpt>
      <trkpt lat="48.21373" lon="-3.1326">
        <ele>260</ele>
        <time>2016-03-07T08:44:46Z</time>
      </trkpt>
      <trkpt lat="48.21374" lon="-3.13264">
        <ele>261</ele>
        <time>2016-03-07T08:44:48Z</time>
      </trkpt>
      <trkpt lat="48.21374" lon="-3.13269">
        <ele>261</ele>
        <time>2016-03-07T08:44:51Z</time>
      </trkpt>
      <trkpt lat="48.21375" lon="-3.13271">
        <ele>261</ele>
        <time>2016-03-07T08:44:53Z</time>
      </trkpt>
      <trkpt lat="48.21374" lon="-3.13277">
        <ele>261</ele>
        <time>2016-03-07T08:44:56Z</time>
      </trkpt>
      <trkpt lat="48.21375" lon="-3.13283">
        <ele>261</ele>
        <time>2016-03-07T08:44:59Z</time>
      </trkpt>
      <trkpt lat="48.21374" lon="-3.13287">
        <ele>261</ele>
        <time>2016-03-07T08:45:01Z</time>
      </trkpt>
      <trkpt lat="48.21375" lon="-3.13293">
        <ele>261</ele>
        <time>2016-03-07T08:45:04Z</time>
      </trkpt>
      <trkpt lat="48.21374" lon="-3.13296">
        <ele>261</ele>
        <time>2016-03-07T08:45:06Z</time>
      </trkpt>
      <trkpt lat="48.21374" lon="-3.13301">
        <ele>261</ele>
        <time>2016-03-07T08:45:09Z</time>
      </trkpt>
      <trkpt lat="48.21374" lon="-3.13306">
        <ele>261</ele>
        <time>2016-03-07T08:45:12Z</time>
      </trkpt>
      <trkpt lat="48.21374" lon="-3.1331">
        <ele>261</ele>
        <time>2016-03-07T08:45:14Z</time>
      </trkpt>
      <trkpt lat="48.21374" lon="-3.13315">
        <ele>261</ele>
        <time>2016-03-07T08:45:17Z</time>
      </trkpt>
      <trkpt lat="48.21375" lon="-3.1332">
        <ele>261</ele>
        <time>2016-03-07T08:45:20Z</time>
      </trkpt>
      <trkpt lat="48.21374" lon="-3.13323">
        <ele>260</ele>
        <time>2016-03-07T08:45:22Z</time>
      </trkpt>
      <trkpt lat="48.21374" lon="-3.13328">
        <ele>261</ele>
        <time>2016-03-07T08:45:25Z</time>
      </trkpt>
      <trkpt lat="48.21373" lon="-3.13332">
        <ele>261</ele>
        <time>2016-03-07T08:45:27Z</time>
      </trkpt>
      <trkpt lat="48.21373" lon="-3.13338">
        <ele>261</ele>
        <time>2016-03-07T08:45:30Z</time>
      </trkpt>
      <trkpt lat="48.21373" lon="-3.13341">
        <ele>261</ele>
        <time>2016-03-07T08:45:32Z</time>
      </trkpt>
      <trkpt lat="48.21373" lon="-3.13347">
        <ele>261</ele>
        <time>2016-03-07T08:45:35Z</time>
      </trkpt>
      <trkpt lat="48.21372" lon="-3.13352">
        <ele>261</ele>
        <time>2016-03-07T08:45:38Z</time>
      </trkpt>
      <trkpt lat="48.21372" lon="-3.13356">
        <ele>261</ele>
        <time>2016-03-07T08:45:40Z</time>
      </trkpt>
      <trkpt lat="48.21372" lon="-3.1336">
        <ele>261</ele>
        <time>2016-03-07T08:45:43Z</time>
      </trkpt>
      <trkpt lat="48.21372" lon="-3.13363">
        <ele>261</ele>
        <time>2016-03-07T08:45:45Z</time>
      </trkpt>
      <trkpt lat="48.21372" lon="-3.13369">
        <ele>261</ele>
        <time>2016-03-07T08:45:48Z</time>
      </trkpt>
      <trkpt lat="48.21372" lon="-3.13375">
        <ele>261</ele>
        <time>2016-03-07T08:45:51Z</time>
      </trkpt>
      <trkpt lat="48.21373" lon="-3.13381">
        <ele>260</ele>
        <time>2016-03-07T08:45:54Z</time>
      </trkpt>
      <trkpt lat="48.21372" lon="-3.13386">
        <ele>260</ele>
        <time>2016-03-07T08:45:56Z</time>
      </trkpt>
      <trkpt lat="48.21373" lon="-3.1339">
        <ele>261</ele>
        <time>2016-03-07T08:45:59Z</time>
      </trkpt>
      <trkpt lat="48.21373" lon="-3.13394">
        <ele>261</ele>
        <time>2016-03-07T08:46:01Z</time>
      </trkpt>
      <trkpt lat="48.21373" lon="-3.134">
        <ele>261</ele>
        <time>2016-03-07T08:46:04Z</time>
      </trkpt>
      <trkpt lat="48.21374" lon="-3.13405">
        <ele>261</ele>
        <time>2016-03-07T08:46:07Z</time>
      </trkpt>
      <trkpt lat="48.21375" lon="-3.13409">
        <ele>260</ele>
        <time>2016-03-07T08:46:09Z</time>
      </trkpt>
      <trkpt lat="48.21376" lon="-3.13415">
        <ele>260</ele>
        <time>2016-03-07T08:46:12Z</time>
      </trkpt>
      <trkpt lat="48.21376" lon="-3.13418">
        <ele>260</ele>
        <time>2016-03-07T08:46:14Z</time>
      </trkpt>
      <trkpt lat="48.21378" lon="-3.13423">
        <ele>261</ele>
        <time>2016-03-07T08:46:17Z</time>
      </trkpt>
      <trkpt lat="48.21378" lon="-3.13428">
        <ele>261</ele>
        <time>2016-03-07T08:46:20Z</time>
      </trkpt>
      <trkpt lat="48.21378" lon="-3.13434">
        <ele>261</ele>
        <time>2016-03-07T08:46:23Z</time>
      </trkpt>
      <trkpt lat="48.21378" lon="-3.13438">
        <ele>261</ele>
        <time>2016-03-07T08:46:25Z</time>
      </trkpt>
      <trkpt lat="48.21379" lon="-3.13443">
        <ele>260</ele>
        <time>2016-03-07T08:46:28Z</time>
      </trkpt>
      <trkpt lat="48.2138" lon="-3.13449">
        <ele>260</ele>
        <time>2016-03-07T08:46:31Z</time>
      </trkpt>
      <trkpt lat="48.21381" lon="-3.13455">
        <ele>261</ele>
        <time>2016-03-07T08:46:34Z</time>
      </trkpt>
      <trkpt lat="48.21381" lon="-3.13458">
        <ele>261</ele>
        <time>2016-03-07T08:46:36Z</time>
      </trkpt>
      <trkpt lat="48.21382" lon="-3.13461">
        <ele>261</ele>
        <time>2016-03-07T08:46:38Z</time>
      </trkpt>
      <trkpt lat="48.21383" lon="-3.13467">
        <ele>261</ele>
        <time>2016-03-07T08:46:41Z</time>
      </trkpt>
      <trkpt lat="48.21383" lon="-3.13472">
        <ele>261</ele>
        <time>2016-03-07T08:46:44Z</time>
      </trkpt>
      <trkpt lat="48.21383" lon="-3.13475">
        <ele>261</ele>
        <time>2016-03-07T08:46:46Z</time>
      </trkpt>
      <trkpt lat="48.21383" lon="-3.13481">
        <ele>261</ele>
        <time>2016-03-07T08:46:49Z</time>
      </trkpt>
      <trkpt lat="48.21384" lon="-3.13485">
        <ele>261</ele>
        <time>2016-03-07T08:46:51Z</time>
      </trkpt>
      <trkpt lat="48.21384" lon="-3.13491">
        <ele>261</ele>
        <time>2016-03-07T08:46:54Z</time>
      </trkpt>
      <trkpt lat="48.21384" lon="-3.13497">
        <ele>260</ele>
        <time>2016-03-07T08:46:57Z</time>
      </trkpt>
      <trkpt lat="48.21384" lon="-3.13502">
        <ele>261</ele>
        <time>2016-03-07T08:47:00Z</time>
      </trkpt>
      <trkpt lat="48.21384" lon="-3.13506">
        <ele>261</ele>
        <time>2016-03-07T08:47:02Z</time>
      </trkpt>
      <trkpt lat="48.21384" lon="-3.13512">
        <ele>261</ele>
        <time>2016-03-07T08:47:05Z</time>
      </trkpt>
      <trkpt lat="48.21384" lon="-3.13516">
        <ele>261</ele>
        <time>2016-03-07T08:47:07Z</time>
      </trkpt>
      <trkpt lat="48.21385" lon="-3.13519">
        <ele>261</ele>
        <time>2016-03-07T08:47:09Z</time>
      </trkpt>
      <trkpt lat="48.21385" lon="-3.13525">
        <ele>261</ele>
        <time>2016-03-07T08:47:12Z</time>
      </trkpt>
      <trkpt lat="48.21386" lon="-3.13529">
        <ele>261</ele>
        <time>2016-03-07T08:47:14Z</time>
      </trkpt>
      <trkpt lat="48.21386" lon="-3.13533">
        <ele>261</ele>
        <time>2016-03-07T08:47:16Z</time>
      </trkpt>
      <trkpt lat="48.21387" lon="-3.13538">
        <ele>261</ele>
        <time>2016-03-07T08:47:19Z</time>
      </trkpt>
      <trkpt lat="48.21387" lon="-3.13542">
        <ele>261</ele>
        <time>2016-03-07T08:47:21Z</time>
      </trkpt>
      <trkpt lat="48.21388" lon="-3.13547">
        <ele>260</ele>
        <time>2016-03-07T08:47:24Z</time>
      </trkpt>
      <trkpt lat="48.21388" lon="-3.1355">
        <ele>261</ele>
        <time>2016-03-07T08:47:26Z</time>
      </trkpt>
      <trkpt lat="48.21389" lon="-3.13556">
        <ele>261</ele>
        <time>2016-03-07T08:47:29Z</time>
      </trkpt>
      <trkpt lat="48.2139" lon="-3.13562">
        <ele>260</ele>
        <time>2016-03-07T08:47:32Z</time>
      </trkpt>
      <trkpt lat="48.21391" lon="-3.13567">
        <ele>261</ele>
        <time>2016-03-07T08:47:35Z</time>
      </trkpt>
      <trkpt lat="48.21392" lon="-3.13573">
        <ele>260</ele>
        <time>2016-03-07T08:47:38Z</time>
      </trkpt>
      <trkpt lat="48.21392" lon="-3.13577">
        <ele>260</ele>
        <time>2016-03-07T08:47:40Z</time>
      </trkpt>
      <trkpt lat="48.21392" lon="-3.1358">
        <ele>260</ele>
        <time>2016-03-07T08:47:42Z</time>
      </trkpt>
      <trkpt lat="48.21392" lon="-3.13587">
        <ele>260</ele>
        <time>2016-03-07T08:47:45Z</time>
      </trkpt>
      <trkpt lat="48.21393" lon="-3.13593">
        <ele>261</ele>
        <time>2016-03-07T08:47:48Z</time>
      </trkpt>
      <trkpt lat="48.21394" lon="-3.13597">
        <ele>260</ele>
        <time>2016-03-07T08:47:50Z</time>
      </trkpt>
      <trkpt lat="48.21394" lon="-3.13603">
        <ele>260</ele>
        <time>2016-03-07T08:47:53Z</time>
      </trkpt>
      <trkpt lat="48.21394" lon="-3.13608">
        <ele>260</ele>
        <time>2016-03-07T08:47:55Z</time>
      </trkpt>
      <trkpt lat="48.21394" lon="-3.13614">
        <ele>260</ele>
        <time>2016-03-07T08:47:58Z</time>
      </trkpt>
      <trkpt lat="48.21395" lon="-3.1362">
        <ele>260</ele>
        <time>2016-03-07T08:48:01Z</time>
      </trkpt>
      <trkpt lat="48.21395" lon="-3.13624">
        <ele>260</ele>
        <time>2016-03-07T08:48:03Z</time>
      </trkpt>
      <trkpt lat="48.21396" lon="-3.1363">
        <ele>261</ele>
        <time>2016-03-07T08:48:06Z</time>
      </trkpt>
      <trkpt lat="48.21396" lon="-3.13634">
        <ele>261</ele>
        <time>2016-03-07T08:48:08Z</time>
      </trkpt>
      <trkpt lat="48.21397" lon="-3.1364">
        <ele>261</ele>
        <time>2016-03-07T08:48:11Z</time>
      </trkpt>
      <trkpt lat="48.21397" lon="-3.13644">
        <ele>261</ele>
        <time>2016-03-07T08:48:13Z</time>
      </trkpt>
      <trkpt lat="48.21397" lon="-3.13649">
        <ele>260</ele>
        <time>2016-03-07T08:48:16Z</time>
      </trkpt>
      <trkpt lat="48.21397" lon="-3.13653">
        <ele>260</ele>
        <time>2016-03-07T08:48:18Z</time>
      </trkpt>
      <trkpt lat="48.21397" lon="-3.13658">
        <ele>260</ele>
        <time>2016-03-07T08:48:20Z</time>
      </trkpt>
      <trkpt lat="48.21398" lon="-3.13663">
        <ele>260</ele>
        <time>2016-03-07T08:48:23Z</time>
      </trkpt>
      <trkpt lat="48.21399" lon="-3.13669">
        <ele>260</ele>
        <time>2016-03-07T08:48:26Z</time>
      </trkpt>
      <trkpt lat="48.21399" lon="-3.13673">
        <ele>260</ele>
        <time>2016-03-07T08:48:28Z</time>
      </trkpt>
      <trkpt lat="48.214" lon="-3.13678">
        <ele>260</ele>
        <time>2016-03-07T08:48:31Z</time>
      </trkpt>
      <trkpt lat="48.21401" lon="-3.13681">
        <ele>260</ele>
        <time>2016-03-07T08:48:33Z</time>
      </trkpt>
      <trkpt lat="48.21403" lon="-3.13687">
        <ele>261</ele>
        <time>2016-03-07T08:48:36Z</time>
      </trkpt>
      <trkpt lat="48.21404" lon="-3.1369">
        <ele>261</ele>
        <time>2016-03-07T08:48:38Z</time>
      </trkpt>
      <trkpt lat="48.21405" lon="-3.13695">
        <ele>261</ele>
        <time>2016-03-07T08:48:41Z</time>
      </trkpt>
      <trkpt lat="48.21407" lon="-3.13698">
        <ele>261</ele>
        <time>2016-03-07T08:48:43Z</time>
      </trkpt>
      <trkpt lat="48.21408" lon="-3.13701">
        <ele>261</ele>
        <time>2016-03-07T08:48:45Z</time>
      </trkpt>
      <trkpt lat="48.2141" lon="-3.13706">
        <ele>261</ele>
        <time>2016-03-07T08:48:48Z</time>
      </trkpt>
      <trkpt lat="48.21411" lon="-3.13711">
        <ele>261</ele>
        <time>2016-03-07T08:48:51Z</time>
      </trkpt>
      <trkpt lat="48.21412" lon="-3.13715">
        <ele>261</ele>
        <time>2016-03-07T08:48:53Z</time>
      </trkpt>
      <trkpt lat="48.21413" lon="-3.1372">
        <ele>261</ele>
        <time>2016-03-07T08:48:56Z</time>
      </trkpt>
      <trkpt lat="48.21413" lon="-3.13724">
        <ele>261</ele>
        <time>2016-03-07T08:48:58Z</time>
      </trkpt>
      <trkpt lat="48.21415" lon="-3.13728">
        <ele>260</ele>
        <time>2016-03-07T08:49:01Z</time>
      </trkpt>
      <trkpt lat="48.21416" lon="-3.13732">
        <ele>260</ele>
        <time>2016-03-07T08:49:03Z</time>
      </trkpt>
      <trkpt lat="48.21417" lon="-3.13737">
        <ele>260</ele>
        <time>2016-03-07T08:49:06Z</time>
      </trkpt>
      <trkpt lat="48.21418" lon="-3.1374">
        <ele>260</ele>
        <time>2016-03-07T08:49:08Z</time>
      </trkpt>
      <trkpt lat="48.21419" lon="-3.13746">
        <ele>260</ele>
        <time>2016-03-07T08:49:11Z</time>
      </trkpt>
      <trkpt lat="48.2142" lon="-3.13749">
        <ele>260</ele>
        <time>2016-03-07T08:49:13Z</time>
      </trkpt>
      <trkpt lat="48.21421" lon="-3.13755">
        <ele>260</ele>
        <time>2016-03-07T08:49:16Z</time>
      </trkpt>
      <trkpt lat="48.21423" lon="-3.1376">
        <ele>260</ele>
        <time>2016-03-07T08:49:19Z</time>
      </trkpt>
      <trkpt lat="48.21424" lon="-3.13764">
        <ele>260</ele>
        <time>2016-03-07T08:49:21Z</time>
      </trkpt>
      <trkpt lat="48.21425" lon="-3.13769">
        <ele>260</ele>
        <time>2016-03-07T08:49:24Z</time>
      </trkpt>
      <trkpt lat="48.21425" lon="-3.13773">
        <ele>260</ele>
        <time>2016-03-07T08:49:26Z</time>
      </trkpt>
      <trkpt lat="48.21426" lon="-3.13779">
        <ele>260</ele>
        <time>2016-03-07T08:49:29Z</time>
      </trkpt>
      <trkpt lat="48.21427" lon="-3.13783">
        <ele>260</ele>
        <time>2016-03-07T08:49:31Z</time>
      </trkpt>
      <trkpt lat="48.21428" lon="-3.13788">
        <ele>260</ele>
        <time>2016-03-07T08:49:34Z</time>
      </trkpt>
      <trkpt lat="48.21428" lon="-3.13794">
        <ele>260</ele>
        <time>2016-03-07T08:49:37Z</time>
      </trkpt>
      <trkpt lat="48.21429" lon="-3.13797">
        <ele>260</ele>
        <time>2016-03-07T08:49:39Z</time>
      </trkpt>
      <trkpt lat="48.2143" lon="-3.13803">
        <ele>260</ele>
        <time>2016-03-07T08:49:42Z</time>
      </trkpt>
      <trkpt lat="48.21431" lon="-3.13807">
        <ele>260</ele>
        <time>2016-03-07T08:49:44Z</time>
      </trkpt>
      <trkpt lat="48.21432" lon="-3.13812">
        <ele>260</ele>
        <time>2016-03-07T08:49:47Z</time>
      </trkpt>
      <trkpt lat="48.21432" lon="-3.13818">
        <ele>260</ele>
        <time>2016-03-07T08:49:50Z</time>
      </trkpt>
      <trkpt lat="48.21433" lon="-3.13823">
        <ele>260</ele>
        <time>2016-03-07T08:49:52Z</time>
      </trkpt>
      <trkpt lat="48.21433" lon="-3.13828">
        <ele>260</ele>
        <time>2016-03-07T08:49:55Z</time>
      </trkpt>
      <trkpt lat="48.21433" lon="-3.13832">
        <ele>261</ele>
        <time>2016-03-07T08:49:57Z</time>
      </trkpt>
      <trkpt lat="48.21433" lon="-3.13838">
        <ele>260</ele>
        <time>2016-03-07T08:50:00Z</time>
      </trkpt>
      <trkpt lat="48.21434" lon="-3.13843">
        <ele>260</ele>
        <time>2016-03-07T08:50:03Z</time>
      </trkpt>
      <trkpt lat="48.21434" lon="-3.13847">
        <ele>261</ele>
        <time>2016-03-07T08:50:05Z</time>
      </trkpt>
      <trkpt lat="48.21434" lon="-3.13853">
        <ele>260</ele>
        <time>2016-03-07T08:50:08Z</time>
      </trkpt>
      <trkpt lat="48.21434" lon="-3.13856">
        <ele>260</ele>
        <time>2016-03-07T08:50:10Z</time>
      </trkpt>
      <trkpt lat="48.21434" lon="-3.13862">
        <ele>260</ele>
        <time>2016-03-07T08:50:13Z</time>
      </trkpt>
      <trkpt lat="48.21435" lon="-3.13867">
        <ele>260</ele>
        <time>2016-03-07T08:50:16Z</time>
      </trkpt>
      <trkpt lat="48.21435" lon="-3.13872">
        <ele>260</ele>
        <time>2016-03-07T08:50:19Z</time>
      </trkpt>
      <trkpt lat="48.21435" lon="-3.13878">
        <ele>260</ele>
        <time>2016-03-07T08:50:22Z</time>
      </trkpt>
      <trkpt lat="48.21435" lon="-3.1388">
        <ele>260</ele>
        <time>2016-03-07T08:50:24Z</time>
      </trkpt>
      <trkpt lat="48.21435" lon="-3.13883">
        <ele>260</ele>
        <time>2016-03-07T08:50:26Z</time>
      </trkpt>
      <trkpt lat="48.21435" lon="-3.1389">
        <ele>260</ele>
        <time>2016-03-07T08:50:29Z</time>
      </trkpt>
      <trkpt lat="48.21434" lon="-3.13896">
        <ele>260</ele>
        <time>2016-03-07T08:50:32Z</time>
      </trkpt>
      <trkpt lat="48.21434" lon="-3.13899">
        <ele>260</ele>
        <time>2016-03-07T08:50:34Z</time>
      </trkpt>
      <trkpt lat="48.21434" lon="-3.13904">
        <ele>260</ele>
        <time>2016-03-07T08:50:37Z</time>
      </trkpt>
      <trkpt lat="48.21434" lon="-3.13908">
        <ele>260</ele>
        <time>2016-03-07T08:50:39Z</time>
      </trkpt>
      <trkpt lat="48.21434" lon="-3.13913">
        <ele>260</ele>
        <time>2016-03-07T08:50:42Z</time>
      </trkpt>
      <trkpt lat="48.21434" lon="-3.13918">
        <ele>260</ele>
        <time>2016-03-07T08:50:45Z</time>
      </trkpt>
      <trkpt lat="48.21434" lon="-3.13922">
        <ele>260</ele>
        <time>2016-03-07T08:50:47Z</time>
      </trkpt>
      <trkpt lat="48.21434" lon="-3.13928">
        <ele>260</ele>
        <time>2016-03-07T08:50:50Z</time>
      </trkpt>
      <trkpt lat="48.21434" lon="-3.13931">
        <ele>260</ele>
        <time>2016-03-07T08:50:52Z</time>
      </trkpt>
      <trkpt lat="48.21434" lon="-3.13937">
        <ele>260</ele>
        <time>2016-03-07T08:50:55Z</time>
      </trkpt>
      <trkpt lat="48.21434" lon="-3.1394">
        <ele>260</ele>
        <time>2016-03-07T08:50:57Z</time>
      </trkpt>
      <trkpt lat="48.21434" lon="-3.13945">
        <ele>260</ele>
        <time>2016-03-07T08:51:00Z</time>
      </trkpt>
      <trkpt lat="48.21434" lon="-3.13951">
        <ele>260</ele>
        <time>2016-03-07T08:51:03Z</time>
      </trkpt>
      <trkpt lat="48.21435" lon="-3.13955">
        <ele>260</ele>
        <time>2016-03-07T08:51:05Z</time>
      </trkpt>
      <trkpt lat="48.21435" lon="-3.1396">
        <ele>260</ele>
        <time>2016-03-07T08:51:08Z</time>
      </trkpt>
      <trkpt lat="48.21435" lon="-3.13964">
        <ele>260</ele>
        <time>2016-03-07T08:51:10Z</time>
      </trkpt>
      <trkpt lat="48.21436" lon="-3.13969">
        <ele>260</ele>
        <time>2016-03-07T08:51:13Z</time>
      </trkpt>
      <trkpt lat="48.21436" lon="-3.13972">
        <ele>260</ele>
        <time>2016-03-07T08:51:15Z</time>
      </trkpt>
      <trkpt lat="48.21436" lon="-3.13976">
        <ele>260</ele>
        <time>2016-03-07T08:51:17Z</time>
      </trkpt>
      <trkpt lat="48.21437" lon="-3.13981">
        <ele>260</ele>
        <time>2016-03-07T08:51:20Z</time>
      </trkpt>
      <trkpt lat="48.21437" lon="-3.13986">
        <ele>260</ele>
        <time>2016-03-07T08:51:23Z</time>
      </trkpt>
      <trkpt lat="48.21437" lon="-3.13992">
        <ele>260</ele>
        <time>2016-03-07T08:51:26Z</time>
      </trkpt>
      <trkpt lat="48.21437" lon="-3.13995">
        <ele>260</ele>
        <time>2016-03-07T08:51:28Z</time>
      </trkpt>
      <trkpt lat="48.21438" lon="-3.13999">
        <ele>260</ele>
        <time>2016-03-07T08:51:30Z</time>
      </trkpt>
      <trkpt lat="48.21438" lon="-3.14004">
        <ele>260</ele>
        <time>2016-03-07T08:51:33Z</time>
      </trkpt>
      <trkpt lat="48.21439" lon="-3.14009">
        <ele>260</ele>
        <time>2016-03-07T08:51:36Z</time>
      </trkpt>
      <trkpt lat="48.21439" lon="-3.14014">
        <ele>260</ele>
        <time>2016-03-07T08:51:39Z</time>
      </trkpt>
      <trkpt lat="48.2144" lon="-3.14018">
        <ele>260</ele>
        <time>2016-03-07T08:51:41Z</time>
      </trkpt>
      <trkpt lat="48.2144" lon="-3.14023">
        <ele>260</ele>
        <time>2016-03-07T08:51:44Z</time>
      </trkpt>
      <trkpt lat="48.2144" lon="-3.14027">
        <ele>260</ele>
        <time>2016-03-07T08:51:46Z</time>
      </trkpt>
      <trkpt lat="48.21441" lon="-3.14032">
        <ele>260</ele>
        <time>2016-03-07T08:51:49Z</time>
      </trkpt>
      <trkpt lat="48.21441" lon="-3.14038">
        <ele>260</ele>
        <time>2016-03-07T08:51:52Z</time>
      </trkpt>
      <trkpt lat="48.21442" lon="-3.14041">
        <ele>259</ele>
        <time>2016-03-07T08:51:54Z</time>
      </trkpt>
      <trkpt lat="48.21442" lon="-3.14047">
        <ele>259</ele>
        <time>2016-03-07T08:51:57Z</time>
      </trkpt>
      <trkpt lat="48.21442" lon="-3.14053">
        <ele>259</ele>
        <time>2016-03-07T08:52:00Z</time>
      </trkpt>
      <trkpt lat="48.21443" lon="-3.14056">
        <ele>259</ele>
        <time>2016-03-07T08:52:02Z</time>
      </trkpt>
      <trkpt lat="48.21443" lon="-3.14061">
        <ele>259</ele>
        <time>2016-03-07T08:52:05Z</time>
      </trkpt>
      <trkpt lat="48.21443" lon="-3.14066">
        <ele>260</ele>
        <time>2016-03-07T08:52:08Z</time>
      </trkpt>
      <trkpt lat="48.21444" lon="-3.14072">
        <ele>260</ele>
        <time>2016-03-07T08:52:11Z</time>
      </trkpt>
      <trkpt lat="48.21444" lon="-3.14078">
        <ele>259</ele>
        <time>2016-03-07T08:52:14Z</time>
      </trkpt>
      <trkpt lat="48.21444" lon="-3.14081">
        <ele>259</ele>
        <time>2016-03-07T08:52:16Z</time>
      </trkpt>
      <trkpt lat="48.21444" lon="-3.14087">
        <ele>259</ele>
        <time>2016-03-07T08:52:19Z</time>
      </trkpt>
      <trkpt lat="48.21444" lon="-3.14091">
        <ele>259</ele>
        <time>2016-03-07T08:52:21Z</time>
      </trkpt>
      <trkpt lat="48.21444" lon="-3.14096">
        <ele>259</ele>
        <time>2016-03-07T08:52:24Z</time>
      </trkpt>
      <trkpt lat="48.21444" lon="-3.14102">
        <ele>259</ele>
        <time>2016-03-07T08:52:27Z</time>
      </trkpt>
      <trkpt lat="48.21444" lon="-3.14106">
        <ele>259</ele>
        <time>2016-03-07T08:52:29Z</time>
      </trkpt>
      <trkpt lat="48.21443" lon="-3.14111">
        <ele>259</ele>
        <time>2016-03-07T08:52:32Z</time>
      </trkpt>
      <trkpt lat="48.21443" lon="-3.14115">
        <ele>259</ele>
        <time>2016-03-07T08:52:34Z</time>
      </trkpt>
      <trkpt lat="48.21443" lon="-3.14121">
        <ele>259</ele>
        <time>2016-03-07T08:52:37Z</time>
      </trkpt>
      <trkpt lat="48.21442" lon="-3.14126">
        <ele>259</ele>
        <time>2016-03-07T08:52:40Z</time>
      </trkpt>
      <trkpt lat="48.21442" lon="-3.1413">
        <ele>259</ele>
        <time>2016-03-07T08:52:42Z</time>
      </trkpt>
      <trkpt lat="48.21441" lon="-3.14136">
        <ele>260</ele>
        <time>2016-03-07T08:52:45Z</time>
      </trkpt>
      <trkpt lat="48.21441" lon="-3.14139">
        <ele>260</ele>
        <time>2016-03-07T08:52:47Z</time>
      </trkpt>
      <trkpt lat="48.21439" lon="-3.14146">
        <ele>260</ele>
        <time>2016-03-07T08:52:50Z</time>
      </trkpt>
      <trkpt lat="48.21439" lon="-3.14149">
        <ele>260</ele>
        <time>2016-03-07T08:52:52Z</time>
      </trkpt>
      <trkpt lat="48.21439" lon="-3.14155">
        <ele>260</ele>
        <time>2016-03-07T08:52:55Z</time>
      </trkpt>
      <trkpt lat="48.21437" lon="-3.1416">
        <ele>260</ele>
        <time>2016-03-07T08:52:58Z</time>
      </trkpt>
      <trkpt lat="48.21437" lon="-3.14164">
        <ele>260</ele>
        <time>2016-03-07T08:53:00Z</time>
      </trkpt>
      <trkpt lat="48.21436" lon="-3.14169">
        <ele>260</ele>
        <time>2016-03-07T08:53:03Z</time>
      </trkpt>
      <trkpt lat="48.21436" lon="-3.14174">
        <ele>259</ele>
        <time>2016-03-07T08:53:06Z</time>
      </trkpt>
      <trkpt lat="48.21435" lon="-3.14179">
        <ele>260</ele>
        <time>2016-03-07T08:53:09Z</time>
      </trkpt>
      <trkpt lat="48.21435" lon="-3.14183">
        <ele>260</ele>
        <time>2016-03-07T08:53:11Z</time>
      </trkpt>
      <trkpt lat="48.21434" lon="-3.14188">
        <ele>260</ele>
        <time>2016-03-07T08:53:14Z</time>
      </trkpt>
      <trkpt lat="48.21434" lon="-3.14193">
        <ele>260</ele>
        <time>2016-03-07T08:53:17Z</time>
      </trkpt>
      <trkpt lat="48.21435" lon="-3.14197">
        <ele>260</ele>
        <time>2016-03-07T08:53:19Z</time>
      </trkpt>
      <trkpt lat="48.21435" lon="-3.14201">
        <ele>259</ele>
        <time>2016-03-07T08:53:22Z</time>
      </trkpt>
      <trkpt lat="48.21435" lon="-3.14206">
        <ele>259</ele>
        <time>2016-03-07T08:53:25Z</time>
      </trkpt>
      <trkpt lat="48.21436" lon="-3.1421">
        <ele>259</ele>
        <time>2016-03-07T08:53:27Z</time>
      </trkpt>
      <trkpt lat="48.21436" lon="-3.14215">
        <ele>259</ele>
        <time>2016-03-07T08:53:30Z</time>
      </trkpt>
      <trkpt lat="48.21437" lon="-3.14219">
        <ele>260</ele>
        <time>2016-03-07T08:53:33Z</time>
      </trkpt>
      <trkpt lat="48.21439" lon="-3.14225">
        <ele>260</ele>
        <time>2016-03-07T08:53:36Z</time>
      </trkpt>
      <trkpt lat="48.21439" lon="-3.1423">
        <ele>259</ele>
        <time>2016-03-07T08:53:39Z</time>
      </trkpt>
      <trkpt lat="48.2144" lon="-3.14233">
        <ele>259</ele>
        <time>2016-03-07T08:53:41Z</time>
      </trkpt>
      <trkpt lat="48.2144" lon="-3.14238">
        <ele>259</ele>
        <time>2016-03-07T08:53:44Z</time>
      </trkpt>
      <trkpt lat="48.21442" lon="-3.14243">
        <ele>260</ele>
        <time>2016-03-07T08:53:47Z</time>
      </trkpt>
      <trkpt lat="48.21442" lon="-3.14246">
        <ele>259</ele>
        <time>2016-03-07T08:53:49Z</time>
      </trkpt>
      <trkpt lat="48.21444" lon="-3.14252">
        <ele>260</ele>
        <time>2016-03-07T08:53:52Z</time>
      </trkpt>
      <trkpt lat="48.21444" lon="-3.14255">
        <ele>260</ele>
        <time>2016-03-07T08:53:54Z</time>
      </trkpt>
      <trkpt lat="48.21445" lon="-3.1426">
        <ele>260</ele>
        <time>2016-03-07T08:53:57Z</time>
      </trkpt>
      <trkpt lat="48.21446" lon="-3.14263">
        <ele>260</ele>
        <time>2016-03-07T08:53:59Z</time>
      </trkpt>
      <trkpt lat="48.21447" lon="-3.14266">
        <ele>259</ele>
        <time>2016-03-07T08:54:01Z</time>
      </trkpt>
      <trkpt lat="48.21447" lon="-3.14271">
        <ele>260</ele>
        <time>2016-03-07T08:54:04Z</time>
      </trkpt>
      <trkpt lat="48.21448" lon="-3.14276">
        <ele>260</ele>
        <time>2016-03-07T08:54:07Z</time>
      </trkpt>
      <trkpt lat="48.21448" lon="-3.14279">
        <ele>260</ele>
        <time>2016-03-07T08:54:09Z</time>
      </trkpt>
      <trkpt lat="48.21449" lon="-3.14284">
        <ele>260</ele>
        <time>2016-03-07T08:54:12Z</time>
      </trkpt>
      <trkpt lat="48.2145" lon="-3.1429">
        <ele>260</ele>
        <time>2016-03-07T08:54:15Z</time>
      </trkpt>
      <trkpt lat="48.21451" lon="-3.14295">
        <ele>260</ele>
        <time>2016-03-07T08:54:18Z</time>
      </trkpt>
      <trkpt lat="48.21451" lon="-3.14301">
        <ele>260</ele>
        <time>2016-03-07T08:54:21Z</time>
      </trkpt>
      <trkpt lat="48.21451" lon="-3.14305">
        <ele>260</ele>
        <time>2016-03-07T08:54:23Z</time>
      </trkpt>
      <trkpt lat="48.21451" lon="-3.14309">
        <ele>260</ele>
        <time>2016-03-07T08:54:25Z</time>
      </trkpt>
      <trkpt lat="48.21451" lon="-3.14315">
        <ele>259</ele>
        <time>2016-03-07T08:54:28Z</time>
      </trkpt>
      <trkpt lat="48.2145" lon="-3.14321">
        <ele>260</ele>
        <time>2016-03-07T08:54:31Z</time>
      </trkpt>
      <trkpt lat="48.2145" lon="-3.14325">
        <ele>260</ele>
        <time>2016-03-07T08:54:33Z</time>
      </trkpt>
      <trkpt lat="48.21449" lon="-3.1433">
        <ele>260</ele>
        <time>2016-03-07T08:54:36Z</time>
      </trkpt>
      <trkpt lat="48.21449" lon="-3.14334">
        <ele>260</ele>
        <time>2016-03-07T08:54:38Z</time>
      </trkpt>
      <trkpt lat="48.21447" lon="-3.14339">
        <ele>260</ele>
        <time>2016-03-07T08:54:41Z</time>
      </trkpt>
      <trkpt lat="48.21447" lon="-3.14343">
        <ele>260</ele>
        <time>2016-03-07T08:54:43Z</time>
      </trkpt>
      <trkpt lat="48.21446" lon="-3.14349">
        <ele>260</ele>
        <time>2016-03-07T08:54:46Z</time>
      </trkpt>
      <trkpt lat="48.21445" lon="-3.14352">
        <ele>260</ele>
        <time>2016-03-07T08:54:48Z</time>
      </trkpt>
      <trkpt lat="48.21445" lon="-3.14358">
        <ele>260</ele>
        <time>2016-03-07T08:54:51Z</time>
      </trkpt>
      <trkpt lat="48.21444" lon="-3.14362">
        <ele>260</ele>
        <time>2016-03-07T08:54:53Z</time>
      </trkpt>
      <trkpt lat="48.21444" lon="-3.14367">
        <ele>259</ele>
        <time>2016-03-07T08:54:56Z</time>
      </trkpt>
      <trkpt lat="48.21443" lon="-3.14371">
        <ele>260</ele>
        <time>2016-03-07T08:54:58Z</time>
      </trkpt>
      <trkpt lat="48.21443" lon="-3.14376">
        <ele>260</ele>
        <time>2016-03-07T08:55:01Z</time>
      </trkpt>
      <trkpt lat="48.21442" lon="-3.14382">
        <ele>260</ele>
        <time>2016-03-07T08:55:04Z</time>
      </trkpt>
      <trkpt lat="48.21442" lon="-3.14388">
        <ele>260</ele>
        <time>2016-03-07T08:55:07Z</time>
      </trkpt>
      <trkpt lat="48.21441" lon="-3.14393">
        <ele>260</ele>
        <time>2016-03-07T08:55:10Z</time>
      </trkpt>
      <trkpt lat="48.2144" lon="-3.14399">
        <ele>260</ele>
        <time>2016-03-07T08:55:13Z</time>
      </trkpt>
      <trkpt lat="48.21439" lon="-3.14405">
        <ele>260</ele>
        <time>2016-03-07T08:55:16Z</time>
      </trkpt>
      <trkpt lat="48.21439" lon="-3.14409">
        <ele>260</ele>
        <time>2016-03-07T08:55:18Z</time>
      </trkpt>
      <trkpt lat="48.21437" lon="-3.14413">
        <ele>260</ele>
        <time>2016-03-07T08:55:21Z</time>
      </trkpt>
      <trkpt lat="48.21437" lon="-3.14416">
        <ele>260</ele>
        <time>2016-03-07T08:55:23Z</time>
      </trkpt>
      <trkpt lat="48.21436" lon="-3.14422">
        <ele>260</ele>
        <time>2016-03-07T08:55:26Z</time>
      </trkpt>
      <trkpt lat="48.21436" lon="-3.14425">
        <ele>260</ele>
        <time>2016-03-07T08:55:28Z</time>
      </trkpt>
      <trkpt lat="48.21434" lon="-3.1443">
        <ele>259</ele>
        <time>2016-03-07T08:55:31Z</time>
      </trkpt>
      <trkpt lat="48.21434" lon="-3.14434">
        <ele>259</ele>
        <time>2016-03-07T08:55:33Z</time>
      </trkpt>
      <trkpt lat="48.21433" lon="-3.14438">
        <ele>259</ele>
        <time>2016-03-07T08:55:36Z</time>
      </trkpt>
      <trkpt lat="48.21432" lon="-3.14444">
        <ele>259</ele>
        <time>2016-03-07T08:55:39Z</time>
      </trkpt>
      <trkpt lat="48.21431" lon="-3.14449">
        <ele>260</ele>
        <time>2016-03-07T08:55:42Z</time>
      </trkpt>
      <trkpt lat="48.21431" lon="-3.14453">
        <ele>259</ele>
        <time>2016-03-07T08:55:44Z</time>
      </trkpt>
      <trkpt lat="48.2143" lon="-3.14458">
        <ele>259</ele>
        <time>2016-03-07T08:55:47Z</time>
      </trkpt>
      <trkpt lat="48.21429" lon="-3.14462">
        <ele>259</ele>
        <time>2016-03-07T08:55:49Z</time>
      </trkpt>
      <trkpt lat="48.21428" lon="-3.14467">
        <ele>259</ele>
        <time>2016-03-07T08:55:52Z</time>
      </trkpt>
      <trkpt lat="48.21427" lon="-3.14473">
        <ele>259</ele>
        <time>2016-03-07T08:55:55Z</time>
      </trkpt>
      <trkpt lat="48.21425" lon="-3.14478">
        <ele>259</ele>
        <time>2016-03-07T08:55:58Z</time>
      </trkpt>
      <trkpt lat="48.21425" lon="-3.14481">
        <ele>260</ele>
        <time>2016-03-07T08:56:00Z</time>
      </trkpt>
      <trkpt lat="48.21424" lon="-3.14486">
        <ele>260</ele>
        <time>2016-03-07T08:56:03Z</time>
      </trkpt>
      <trkpt lat="48.21423" lon="-3.14492">
        <ele>260</ele>
        <time>2016-03-07T08:56:06Z</time>
      </trkpt>
      <trkpt lat="48.21423" lon="-3.14497">
        <ele>259</ele>
        <time>2016-03-07T08:56:09Z</time>
      </trkpt>
      <trkpt lat="48.21422" lon="-3.14501">
        <ele>259</ele>
        <time>2016-03-07T08:56:11Z</time>
      </trkpt>
      <trkpt lat="48.21421" lon="-3.14504">
        <ele>259</ele>
        <time>2016-03-07T08:56:13Z</time>
      </trkpt>
      <trkpt lat="48.2142" lon="-3.14509">
        <ele>259</ele>
        <time>2016-03-07T08:56:16Z</time>
      </trkpt>
      <trkpt lat="48.21419" lon="-3.14514">
        <ele>260</ele>
        <time>2016-03-07T08:56:19Z</time>
      </trkpt>
      <trkpt lat="48.21418" lon="-3.14517">
        <ele>260</ele>
        <time>2016-03-07T08:56:21Z</time>
      </trkpt>
      <trkpt lat="48.21417" lon="-3.14523">
        <ele>260</ele>
        <time>2016-03-07T08:56:24Z</time>
      </trkpt>
      <trkpt lat="48.21416" lon="-3.14528">
        <ele>260</ele>
        <time>2016-03-07T08:56:27Z</time>
      </trkpt>
      <trkpt lat="48.21415" lon="-3.14533">
        <ele>260</ele>
        <time>2016-03-07T08:56:30Z</time>
      </trkpt>
      <trkpt lat="48.21415" lon="-3.14537">
        <ele>260</ele>
        <time>2016-03-07T08:56:32Z</time>
      </trkpt>
      <trkpt lat="48.21413" lon="-3.14541">
        <ele>260</ele>
        <time>2016-03-07T08:56:35Z</time>
      </trkpt>
      <trkpt lat="48.21413" lon="-3.14545">
        <ele>259</ele>
        <time>2016-03-07T08:56:38Z</time>
      </trkpt>
      <trkpt lat="48.21412" lon="-3.14548">
        <ele>259</ele>
        <time>2016-03-07T08:56:40Z</time>
      </trkpt>
      <trkpt lat="48.21411" lon="-3.14553">
        <ele>259</ele>
        <time>2016-03-07T08:56:43Z</time>
      </trkpt>
      <trkpt lat="48.2141" lon="-3.14557">
        <ele>259</ele>
        <time>2016-03-07T08:56:45Z</time>
      </trkpt>
      <trkpt lat="48.2141" lon="-3.1456">
        <ele>259</ele>
        <time>2016-03-07T08:56:47Z</time>
      </trkpt>
      <trkpt lat="48.21409" lon="-3.14565">
        <ele>260</ele>
        <time>2016-03-07T08:56:50Z</time>
      </trkpt>
      <trkpt lat="48.21408" lon="-3.14568">
        <ele>259</ele>
        <time>2016-03-07T08:56:52Z</time>
      </trkpt>
      <trkpt lat="48.21407" lon="-3.14574">
        <ele>259</ele>
        <time>2016-03-07T08:56:55Z</time>
      </trkpt>
      <trkpt lat="48.21407" lon="-3.14577">
        <ele>259</ele>
        <time>2016-03-07T08:56:57Z</time>
      </trkpt>
      <trkpt lat="48.21406" lon="-3.14581">
        <ele>259</ele>
        <time>2016-03-07T08:56:59Z</time>
      </trkpt>
      <trkpt lat="48.21405" lon="-3.14586">
        <ele>260</ele>
        <time>2016-03-07T08:57:02Z</time>
      </trkpt>
      <trkpt lat="48.21404" lon="-3.1459">
        <ele>260</ele>
        <time>2016-03-07T08:57:05Z</time>
      </trkpt>
      <trkpt lat="48.21404" lon="-3.14595">
        <ele>259</ele>
        <time>2016-03-07T08:57:08Z</time>
      </trkpt>
      <trkpt lat="48.21403" lon="-3.14599">
        <ele>259</ele>
        <time>2016-03-07T08:57:10Z</time>
      </trkpt>
      <trkpt lat="48.21402" lon="-3.14602">
        <ele>259</ele>
        <time>2016-03-07T08:57:12Z</time>
      </trkpt>
      <trkpt lat="48.21402" lon="-3.14608">
        <ele>259</ele>
        <time>2016-03-07T08:57:15Z</time>
      </trkpt>
      <trkpt lat="48.21402" lon="-3.1461">
        <ele>259</ele>
        <time>2016-03-07T08:57:17Z</time>
      </trkpt>
      <trkpt lat="48.21402" lon="-3.14615">
        <ele>260</ele>
        <time>2016-03-07T08:57:20Z</time>
      </trkpt>
      <trkpt lat="48.21401" lon="-3.14619">
        <ele>260</ele>
        <time>2016-03-07T08:57:22Z</time>
      </trkpt>
      <trkpt lat="48.214" lon="-3.14625">
        <ele>259</ele>
        <time>2016-03-07T08:57:25Z</time>
      </trkpt>
      <trkpt lat="48.21399" lon="-3.1463">
        <ele>259</ele>
        <time>2016-03-07T08:57:28Z</time>
      </trkpt>
      <trkpt lat="48.21398" lon="-3.14635">
        <ele>259</ele>
        <time>2016-03-07T08:57:31Z</time>
      </trkpt>
      <trkpt lat="48.21397" lon="-3.1464">
        <ele>259</ele>
        <time>2016-03-07T08:57:33Z</time>
      </trkpt>
      <trkpt lat="48.21397" lon="-3.14645">
        <ele>260</ele>
        <time>2016-03-07T08:57:36Z</time>
      </trkpt>
      <trkpt lat="48.21397" lon="-3.14649">
        <ele>259</ele>
        <time>2016-03-07T08:57:38Z</time>
      </trkpt>
      <trkpt lat="48.21397" lon="-3.14654">
        <ele>259</ele>
        <time>2016-03-07T08:57:41Z</time>
      </trkpt>
      <trkpt lat="48.21396" lon="-3.14659">
        <ele>259</ele>
        <time>2016-03-07T08:57:44Z</time>
      </trkpt>
      <trkpt lat="48.21396" lon="-3.14663">
        <ele>259</ele>
        <time>2016-03-07T08:57:46Z</time>
      </trkpt>
      <trkpt lat="48.21396" lon="-3.14668">
        <ele>259</ele>
        <time>2016-03-07T08:57:49Z</time>
      </trkpt>
      <trkpt lat="48.21396" lon="-3.14673">
        <ele>259</ele>
        <time>2016-03-07T08:57:52Z</time>
      </trkpt>
      <trkpt lat="48.21395" lon="-3.1468">
        <ele>259</ele>
        <time>2016-03-07T08:57:55Z</time>
      </trkpt>
      <trkpt lat="48.21395" lon="-3.14683">
        <ele>260</ele>
        <time>2016-03-07T08:57:57Z</time>
      </trkpt>
      <trkpt lat="48.21394" lon="-3.14686">
        <ele>260</ele>
        <time>2016-03-07T08:57:59Z</time>
      </trkpt>
      <trkpt lat="48.21394" lon="-3.14692">
        <ele>259</ele>
        <time>2016-03-07T08:58:02Z</time>
      </trkpt>
      <trkpt lat="48.21392" lon="-3.14695">
        <ele>259</ele>
        <time>2016-03-07T08:58:04Z</time>
      </trkpt>
      <trkpt lat="48.21392" lon="-3.14699">
        <ele>259</ele>
        <time>2016-03-07T08:58:06Z</time>
      </trkpt>
      <trkpt lat="48.21391" lon="-3.14704">
        <ele>259</ele>
        <time>2016-03-07T08:58:09Z</time>
      </trkpt>
      <trkpt lat="48.2139" lon="-3.14707">
        <ele>259</ele>
        <time>2016-03-07T08:58:11Z</time>
      </trkpt>
      <trkpt lat="48.21389" lon="-3.14713">
        <ele>259</ele>
        <time>2016-03-07T08:58:14Z</time>
      </trkpt>
      <trkpt lat="48.21388" lon="-3.14717">
        <ele>259</ele>
        <time>2016-03-07T08:58:17Z</time>
      </trkpt>
      <trkpt lat="48.21387" lon="-3.14721">
        <ele>260</ele>
        <time>2016-03-07T08:58:19Z</time>
      </trkpt>
      <trkpt lat="48.21386" lon="-3.14725">
        <ele>259</ele>
        <time>2016-03-07T08:58:22Z</time>
      </trkpt>
      <trkpt lat="48.21386" lon="-3.14728">
        <ele>259</ele>
        <time>2016-03-07T08:58:24Z</time>
      </trkpt>
      <trkpt lat="48.21385" lon="-3.14733">
        <ele>259</ele>
        <time>2016-03-07T08:58:27Z</time>
      </trkpt>
      <trkpt lat="48.21383" lon="-3.14738">
        <ele>259</ele>
        <time>2016-03-07T08:58:30Z</time>
      </trkpt>
      <trkpt lat="48.21382" lon="-3.14742">
        <ele>259</ele>
        <time>2016-03-07T08:58:32Z</time>
      </trkpt>
      <trkpt lat="48.21381" lon="-3.14745">
        <ele>259</ele>
        <time>2016-03-07T08:58:34Z</time>
      </trkpt>
      <trkpt lat="48.21379" lon="-3.14752">
        <ele>259</ele>
        <time>2016-03-07T08:58:37Z</time>
      </trkpt>
      <trkpt lat="48.21379" lon="-3.14756">
        <ele>259</ele>
        <time>2016-03-07T08:58:39Z</time>
      </trkpt>
      <trkpt lat="48.21378" lon="-3.14762">
        <ele>259</ele>
        <time>2016-03-07T08:58:42Z</time>
      </trkpt>
      <trkpt lat="48.21377" lon="-3.14767">
        <ele>259</ele>
        <time>2016-03-07T08:58:45Z</time>
      </trkpt>
      <trkpt lat="48.21376" lon="-3.14771">
        <ele>259</ele>
        <time>2016-03-07T08:58:47Z</time>
      </trkpt>
      <trkpt lat="48.21375" lon="-3.14775">
        <ele>259</ele>
        <time>2016-03-07T08:58:50Z</time>
      </trkpt>
      <trkpt lat="48.21374" lon="-3.14779">
        <ele>259</ele>
        <time>2016-03-07T08:58:52Z</time>
      </trkpt>
      <trkpt lat="48.21372" lon="-3.14784">
        <ele>260</ele>
        <time>2016-03-07T08:58:55Z</time>
      </trkpt>
      <trkpt lat="48.2137" lon="-3.14788">
        <ele>260</ele>
        <time>2016-03-07T08:58:58Z</time>
      </trkpt>
      <trkpt lat="48.2137" lon="-3.14791">
        <ele>259</ele>
        <time>2016-03-07T08:59:00Z</time>
      </trkpt>
      <trkpt lat="48.21368" lon="-3.14797">
        <ele>259</ele>
        <time>2016-03-07T08:59:03Z</time>
      </trkpt>
      <trkpt lat="48.21367" lon="-3.14802">
        <ele>259</ele>
        <time>2016-03-07T08:59:06Z</time>
      </trkpt>
      <trkpt lat="48.21365" lon="-3.14807">
        <ele>259</ele>
        <time>2016-03-07T08:59:09Z</time>
      </trkpt>
      <trkpt lat="48.21363" lon="-3.1481">
        <ele>259</ele>
        <time>2016-03-07T08:59:11Z</time>
      </trkpt>
      <trkpt lat="48.21362" lon="-3.14815">
        <ele>259</ele>
        <time>2016-03-07T08:59:14Z</time>
      </trkpt>
      <trkpt lat="48.21361" lon="-3.14818">
        <ele>259</ele>
        <time>2016-03-07T08:59:16Z</time>
      </trkpt>
      <trkpt lat="48.2136" lon="-3.14823">
        <ele>259</ele>
        <time>2016-03-07T08:59:19Z</time>
      </trkpt>
      <trkpt lat="48.21358" lon="-3.14827">
        <ele>259</ele>
        <time>2016-03-07T08:59:22Z</time>
      </trkpt>
      <trkpt lat="48.21357" lon="-3.14832">
        <ele>259</ele>
        <time>2016-03-07T08:59:25Z</time>
      </trkpt>
      <trkpt lat="48.21355" lon="-3.14837">
        <ele>259</ele>
        <time>2016-03-07T08:59:28Z</time>
      </trkpt>
      <trkpt lat="48.21354" lon="-3.14842">
        <ele>260</ele>
        <time>2016-03-07T08:59:31Z</time>
      </trkpt>
      <trkpt lat="48.21352" lon="-3.14846">
        <ele>260</ele>
        <time>2016-03-07T08:59:34Z</time>
      </trkpt>
      <trkpt lat="48.21351" lon="-3.14851">
        <ele>259</ele>
        <time>2016-03-07T08:59:37Z</time>
      </trkpt>
      <trkpt lat="48.2135" lon="-3.14854">
        <ele>259</ele>
        <time>2016-03-07T08:59:39Z</time>
      </trkpt>
      <trkpt lat="48.21349" lon="-3.14859">
        <ele>259</ele>
        <time>2016-03-07T08:59:42Z</time>
      </trkpt>
      <trkpt lat="48.21347" lon="-3.14862">
        <ele>259</ele>
        <time>2016-03-07T08:59:44Z</time>
      </trkpt>
      <trkpt lat="48.21347" lon="-3.14867">
        <ele>259</ele>
        <time>2016-03-07T08:59:47Z</time>
      </trkpt>
      <trkpt lat="48.21345" lon="-3.14872">
        <ele>259</ele>
        <time>2016-03-07T08:59:50Z</time>
      </trkpt>
      <trkpt lat="48.21344" lon="-3.14875">
        <ele>259</ele>
        <time>2016-03-07T08:59:52Z</time>
      </trkpt>
      <trkpt lat="48.21343" lon="-3.14881">
        <ele>259</ele>
        <time>2016-03-07T08:59:55Z</time>
      </trkpt>
      <trkpt lat="48.21342" lon="-3.14884">
        <ele>259</ele>
        <time>2016-03-07T08:59:57Z</time>
      </trkpt>
      <trkpt lat="48.21341" lon="-3.14888">
        <ele>259</ele>
        <time>2016-03-07T09:00:00Z</time>
      </trkpt>
      <trkpt lat="48.21339" lon="-3.14891">
        <ele>259</ele>
        <time>2016-03-07T09:00:02Z</time>
      </trkpt>
      <trkpt lat="48.21338" lon="-3.14897">
        <ele>259</ele>
        <time>2016-03-07T09:00:05Z</time>
      </trkpt>
      <trkpt lat="48.21336" lon="-3.14901">
        <ele>259</ele>
        <time>2016-03-07T09:00:08Z</time>
      </trkpt>
      <trkpt lat="48.21335" lon="-3.14905">
        <ele>259</ele>
        <time>2016-03-07T09:00:10Z</time>
      </trkpt>
      <trkpt lat="48.21333" lon="-3.1491">
        <ele>259</ele>
        <time>2016-03-07T09:00:13Z</time>
      </trkpt>
      <trkpt lat="48.21333" lon="-3.14913">
        <ele>259</ele>
        <time>2016-03-07T09:00:15Z</time>
      </trkpt>
      <trkpt lat="48.21331" lon="-3.14916">
        <ele>259</ele>
        <time>2016-03-07T09:00:17Z</time>
      </trkpt>
      <trkpt lat="48.2133" lon="-3.14922">
        <ele>259</ele>
        <time>2016-03-07T09:00:20Z</time>
      </trkpt>
      <trkpt lat="48.21329" lon="-3.14927">
        <ele>259</ele>
        <time>2016-03-07T09:00:23Z</time>
      </trkpt>
      <trkpt lat="48.21328" lon="-3.1493">
        <ele>259</ele>
        <time>2016-03-07T09:00:25Z</time>
      </trkpt>
      <trkpt lat="48.21326" lon="-3.14936">
        <ele>259</ele>
        <time>2016-03-07T09:00:28Z</time>
      </trkpt>
      <trkpt lat="48.21326" lon="-3.14939">
        <ele>259</ele>
        <time>2016-03-07T09:00:30Z</time>
      </trkpt>
      <trkpt lat="48.21325" lon="-3.14945">
        <ele>259</ele>
        <time>2016-03-07T09:00:33Z</time>
      </trkpt>
      <trkpt lat="48.21324" lon="-3.14949">
        <ele>259</ele>
        <time>2016-03-07T09:00:36Z</time>
      </trkpt>
      <trkpt lat="48.21324" lon="-3.14955">
        <ele>259</ele>
        <time>2016-03-07T09:00:39Z</time>
      </trkpt>
      <trkpt lat="48.21323" lon="-3.14961">
        <ele>259</ele>
        <time>2016-03-07T09:00:42Z</time>
      </trkpt>
      <trkpt lat="48.21323" lon="-3.14964">
        <ele>259</ele>
        <time>2016-03-07T09:00:44Z</time>
      </trkpt>
      <trkpt lat="48.21322" lon="-3.14969">
        <ele>259</ele>
        <time>2016-03-07T09:00:47Z</time>
      </trkpt>
      <trkpt lat="48.21322" lon="-3.14973">
        <ele>259</ele>
        <time>2016-03-07T09:00:49Z</time>
      </trkpt>
      <trkpt lat="48.21322" lon="-3.14979">
        <ele>259</ele>
        <time>2016-03-07T09:00:52Z</time>
      </trkpt>
      <trkpt lat="48.21322" lon="-3.14984">
        <ele>259</ele>
        <time>2016-03-07T09:00:55Z</time>
      </trkpt>
      <trkpt lat="48.21322" lon="-3.1499">
        <ele>259</ele>
        <time>2016-03-07T09:00:58Z</time>
      </trkpt>
      <trkpt lat="48.21321" lon="-3.14994">
        <ele>259</ele>
        <time>2016-03-07T09:01:00Z</time>
      </trkpt>
      <trkpt lat="48.21321" lon="-3.14999">
        <ele>259</ele>
        <time>2016-03-07T09:01:03Z</time>
      </trkpt>
      <trkpt lat="48.21321" lon="-3.15003">
        <ele>259</ele>
        <time>2016-03-07T09:01:05Z</time>
      </trkpt>
      <trkpt lat="48.21321" lon="-3.15005">
        <ele>259</ele>
        <time>2016-03-07T09:01:07Z</time>
      </trkpt>
      <trkpt lat="48.2132" lon="-3.1501">
        <ele>259</ele>
        <time>2016-03-07T09:01:10Z</time>
      </trkpt>
      <trkpt lat="48.2132" lon="-3.15016">
        <ele>259</ele>
        <time>2016-03-07T09:01:13Z</time>
      </trkpt>
      <trkpt lat="48.21319" lon="-3.15019">
        <ele>259</ele>
        <time>2016-03-07T09:01:15Z</time>
      </trkpt>
      <trkpt lat="48.21319" lon="-3.15023">
        <ele>259</ele>
        <time>2016-03-07T09:01:17Z</time>
      </trkpt>
      <trkpt lat="48.21318" lon="-3.15029">
        <ele>259</ele>
        <time>2016-03-07T09:01:20Z</time>
      </trkpt>
      <trkpt lat="48.21318" lon="-3.15033">
        <ele>258</ele>
        <time>2016-03-07T09:01:22Z</time>
      </trkpt>
      <trkpt lat="48.21318" lon="-3.15036">
        <ele>259</ele>
        <time>2016-03-07T09:01:24Z</time>
      </trkpt>
      <trkpt lat="48.21317" lon="-3.15041">
        <ele>259</ele>
        <time>2016-03-07T09:01:27Z</time>
      </trkpt>
      <trkpt lat="48.21317" lon="-3.15044">
        <ele>259</ele>
        <time>2016-03-07T09:01:29Z</time>
      </trkpt>
      <trkpt lat="48.21316" lon="-3.1505">
        <ele>259</ele>
        <time>2016-03-07T09:01:32Z</time>
      </trkpt>
      <trkpt lat="48.21315" lon="-3.15055">
        <ele>259</ele>
        <time>2016-03-07T09:01:35Z</time>
      </trkpt>
      <trkpt lat="48.21313" lon="-3.1506">
        <ele>259</ele>
        <time>2016-03-07T09:01:38Z</time>
      </trkpt>
      <trkpt lat="48.21313" lon="-3.15064">
        <ele>259</ele>
        <time>2016-03-07T09:01:40Z</time>
      </trkpt>
      <trkpt lat="48.21312" lon="-3.15069">
        <ele>258</ele>
        <time>2016-03-07T09:01:43Z</time>
      </trkpt>
      <trkpt lat="48.2131" lon="-3.15072">
        <ele>259</ele>
        <time>2016-03-07T09:01:45Z</time>
      </trkpt>
      <trkpt lat="48.2131" lon="-3.15075">
        <ele>259</ele>
        <time>2016-03-07T09:01:47Z</time>
      </trkpt>
      <trkpt lat="48.21309" lon="-3.1508">
        <ele>259</ele>
        <time>2016-03-07T09:01:50Z</time>
      </trkpt>
      <trkpt lat="48.21309" lon="-3.15084">
        <ele>259</ele>
        <time>2016-03-07T09:01:53Z</time>
      </trkpt>
      <trkpt lat="48.21308" lon="-3.15086">
        <ele>259</ele>
        <time>2016-03-07T09:01:56Z</time>
      </trkpt>
      <trkpt lat="48.21304" lon="-3.15091">
        <ele>259</ele>
        <time>2016-03-07T09:01:59Z</time>
      </trkpt>
      <trkpt lat="48.21302" lon="-3.15094">
        <ele>259</ele>
        <time>2016-03-07T09:02:01Z</time>
      </trkpt>
      <trkpt lat="48.21301" lon="-3.15099">
        <ele>258</ele>
        <time>2016-03-07T09:02:04Z</time>
      </trkpt>
      <trkpt lat="48.21299" lon="-3.15103">
        <ele>258</ele>
        <time>2016-03-07T09:02:06Z</time>
      </trkpt>
      <trkpt lat="48.21296" lon="-3.15108">
        <ele>258</ele>
        <time>2016-03-07T09:02:09Z</time>
      </trkpt>
      <trkpt lat="48.21294" lon="-3.15112">
        <ele>258</ele>
        <time>2016-03-07T09:02:12Z</time>
      </trkpt>
      <trkpt lat="48.21292" lon="-3.15115">
        <ele>258</ele>
        <time>2016-03-07T09:02:14Z</time>
      </trkpt>
      <trkpt lat="48.21291" lon="-3.1512">
        <ele>259</ele>
        <time>2016-03-07T09:02:17Z</time>
      </trkpt>
      <trkpt lat="48.21289" lon="-3.15125">
        <ele>259</ele>
        <time>2016-03-07T09:02:20Z</time>
      </trkpt>
      <trkpt lat="48.21287" lon="-3.15129">
        <ele>259</ele>
        <time>2016-03-07T09:02:23Z</time>
      </trkpt>
      <trkpt lat="48.21284" lon="-3.15134">
        <ele>259</ele>
        <time>2016-03-07T09:02:26Z</time>
      </trkpt>
      <trkpt lat="48.21283" lon="-3.15138">
        <ele>259</ele>
        <time>2016-03-07T09:02:28Z</time>
      </trkpt>
      <trkpt lat="48.21281" lon="-3.15142">
        <ele>259</ele>
        <time>2016-03-07T09:02:31Z</time>
      </trkpt>
      <trkpt lat="48.2128" lon="-3.15145">
        <ele>258</ele>
        <time>2016-03-07T09:02:33Z</time>
      </trkpt>
      <trkpt lat="48.21277" lon="-3.1515">
        <ele>259</ele>
        <time>2016-03-07T09:02:36Z</time>
      </trkpt>
      <trkpt lat="48.21275" lon="-3.15155">
        <ele>259</ele>
        <time>2016-03-07T09:02:39Z</time>
      </trkpt>
      <trkpt lat="48.21274" lon="-3.15158">
        <ele>259</ele>
        <time>2016-03-07T09:02:41Z</time>
      </trkpt>
      <trkpt lat="48.21273" lon="-3.15162">
        <ele>259</ele>
        <time>2016-03-07T09:02:43Z</time>
      </trkpt>
      <trkpt lat="48.21271" lon="-3.15166">
        <ele>259</ele>
        <time>2016-03-07T09:02:46Z</time>
      </trkpt>
      <trkpt lat="48.21268" lon="-3.15171">
        <ele>259</ele>
        <time>2016-03-07T09:02:49Z</time>
      </trkpt>
      <trkpt lat="48.21267" lon="-3.15174">
        <ele>259</ele>
        <time>2016-03-07T09:02:51Z</time>
      </trkpt>
      <trkpt lat="48.21265" lon="-3.15177">
        <ele>259</ele>
        <time>2016-03-07T09:02:54Z</time>
      </trkpt>
      <trkpt lat="48.21263" lon="-3.1518">
        <ele>259</ele>
        <time>2016-03-07T09:02:56Z</time>
      </trkpt>
      <trkpt lat="48.21261" lon="-3.15184">
        <ele>259</ele>
        <time>2016-03-07T09:02:59Z</time>
      </trkpt>
      <trkpt lat="48.21259" lon="-3.15187">
        <ele>259</ele>
        <time>2016-03-07T09:03:01Z</time>
      </trkpt>
      <trkpt lat="48.21258" lon="-3.15191">
        <ele>259</ele>
        <time>2016-03-07T09:03:03Z</time>
      </trkpt>
      <trkpt lat="48.21256" lon="-3.15194">
        <ele>259</ele>
        <time>2016-03-07T09:03:05Z</time>
      </trkpt>
      <trkpt lat="48.21253" lon="-3.15198">
        <ele>259</ele>
        <time>2016-03-07T09:03:08Z</time>
      </trkpt>
      <trkpt lat="48.21251" lon="-3.15201">
        <ele>259</ele>
        <time>2016-03-07T09:03:10Z</time>
      </trkpt>
      <trkpt lat="48.21249" lon="-3.15205">
        <ele>260</ele>
        <time>2016-03-07T09:03:13Z</time>
      </trkpt>
      <trkpt lat="48.21247" lon="-3.15208">
        <ele>259</ele>
        <time>2016-03-07T09:03:15Z</time>
      </trkpt>
      <trkpt lat="48.21246" lon="-3.15211">
        <ele>260</ele>
        <time>2016-03-07T09:03:18Z</time>
      </trkpt>
      <trkpt lat="48.21244" lon="-3.15215">
        <ele>259</ele>
        <time>2016-03-07T09:03:21Z</time>
      </trkpt>
      <trkpt lat="48.21243" lon="-3.15216">
        <ele>260</ele>
        <time>2016-03-07T09:03:24Z</time>
      </trkpt>
      <trkpt lat="48.21242" lon="-3.15219">
        <ele>260</ele>
        <time>2016-03-07T09:03:26Z</time>
      </trkpt>
      <trkpt lat="48.21239" lon="-3.15223">
        <ele>260</ele>
        <time>2016-03-07T09:03:29Z</time>
      </trkpt>
      <trkpt lat="48.21238" lon="-3.15226">
        <ele>260</ele>
        <time>2016-03-07T09:03:31Z</time>
      </trkpt>
      <trkpt lat="48.21238" lon="-3.15228">
        <ele>260</ele>
        <time>2016-03-07T09:03:33Z</time>
      </trkpt>
      <trkpt lat="48.21236" lon="-3.15231">
        <ele>260</ele>
        <time>2016-03-07T09:03:36Z</time>
      </trkpt>
      <trkpt lat="48.21235" lon="-3.15234">
        <ele>260</ele>
        <time>2016-03-07T09:03:38Z</time>
      </trkpt>
      <trkpt lat="48.21235" lon="-3.15234">
        <ele>260</ele>
        <time>2016-03-07T09:03:41Z</time>
      </trkpt>
      <trkpt lat="48.21235" lon="-3.15235">
        <ele>260</ele>
        <time>2016-03-07T09:03:43Z</time>
      </trkpt>
      <trkpt lat="48.21235" lon="-3.15236">
        <ele>260</ele>
        <time>2016-03-07T09:03:45Z</time>
      </trkpt>
      <trkpt lat="48.21236" lon="-3.15236">
        <ele>260</ele>
        <time>2016-03-07T09:03:48Z</time>
      </trkpt>
      <trkpt lat="48.21236" lon="-3.15236">
        <ele>260</ele>
        <time>2016-03-07T09:03:51Z</time>
      </trkpt>
      <trkpt lat="48.21235" lon="-3.15237">
        <ele>260</ele>
        <time>2016-03-07T09:03:54Z</time>
      </trkpt>
      <trkpt lat="48.21235" lon="-3.15237">
        <ele>260</ele>
        <time>2016-03-07T09:03:58Z</time>
      </trkpt>
      <trkpt lat="48.21234" lon="-3.15238">
        <ele>260</ele>
        <time>2016-03-07T09:04:01Z</time>
      </trkpt>
      <trkpt lat="48.21234" lon="-3.15239">
        <ele>260</ele>
        <time>2016-03-07T09:04:03Z</time>
      </trkpt>
      <trkpt lat="48.21234" lon="-3.15238">
        <ele>260</ele>
        <time>2016-03-07T09:04:07Z</time>
      </trkpt>
      <trkpt lat="48.21234" lon="-3.15238">
        <ele>260</ele>
        <time>2016-03-07T09:04:09Z</time>
      </trkpt>
      <trkpt lat="48.21234" lon="-3.15239">
        <ele>260</ele>
        <time>2016-03-07T09:04:12Z</time>
      </trkpt>
      <trkpt lat="48.21234" lon="-3.15238">
        <ele>261</ele>
        <time>2016-03-07T09:04:14Z</time>
      </trkpt>
      <trkpt lat="48.21234" lon="-3.15238">
        <ele>261</ele>
        <time>2016-03-07T09:04:16Z</time>
      </trkpt>
      <trkpt lat="48.21234" lon="-3.15238">
        <ele>261</ele>
        <time>2016-03-07T09:04:19Z</time>
      </trkpt>
      <trkpt lat="48.21234" lon="-3.15238">
        <ele>261</ele>
        <time>2016-03-07T09:04:22Z</time>
      </trkpt>
      <trkpt lat="48.21233" lon="-3.15239">
        <ele>261</ele>
        <time>2016-03-07T09:04:24Z</time>
      </trkpt>
      <trkpt lat="48.21233" lon="-3.15239">
        <ele>260</ele>
        <time>2016-03-07T09:04:27Z</time>
      </trkpt>
      <trkpt lat="48.21233" lon="-3.15239">
        <ele>260</ele>
        <time>2016-03-07T09:04:29Z</time>
      </trkpt>
      <trkpt lat="48.21233" lon="-3.15241">
        <ele>260</ele>
        <time>2016-03-07T09:04:32Z</time>
      </trkpt>
      <trkpt lat="48.21233" lon="-3.15241">
        <ele>260</ele>
        <time>2016-03-07T09:04:34Z</time>
      </trkpt>
      <trkpt lat="48.21233" lon="-3.15243">
        <ele>261</ele>
        <time>2016-03-07T09:04:37Z</time>
      </trkpt>
      <trkpt lat="48.21233" lon="-3.15243">
        <ele>261</ele>
        <time>2016-03-07T09:04:40Z</time>
      </trkpt>
      <trkpt lat="48.21233" lon="-3.15243">
        <ele>261</ele>
        <time>2016-03-07T09:04:43Z</time>
      </trkpt>
      <trkpt lat="48.21234" lon="-3.15244">
        <ele>261</ele>
        <time>2016-03-07T09:04:45Z</time>
      </trkpt>
      <trkpt lat="48.21235" lon="-3.15247">
        <ele>261</ele>
        <time>2016-03-07T09:04:48Z</time>
      </trkpt>
      <trkpt lat="48.21235" lon="-3.15247">
        <ele>260</ele>
        <time>2016-03-07T09:04:52Z</time>
      </trkpt>
      <trkpt lat="48.21235" lon="-3.15247">
        <ele>260</ele>
        <time>2016-03-07T09:04:55Z</time>
      </trkpt>
      <trkpt lat="48.21237" lon="-3.1525">
        <ele>260</ele>
        <time>2016-03-07T09:04:58Z</time>
      </trkpt>
      <trkpt lat="48.21238" lon="-3.15253">
        <ele>260</ele>
        <time>2016-03-07T09:05:01Z</time>
      </trkpt>
      <trkpt lat="48.21239" lon="-3.15254">
        <ele>260</ele>
        <time>2016-03-07T09:05:03Z</time>
      </trkpt>
      <trkpt lat="48.21238" lon="-3.15254">
        <ele>260</ele>
        <time>2016-03-07T09:05:06Z</time>
      </trkpt>
      <trkpt lat="48.21238" lon="-3.15255">
        <ele>260</ele>
        <time>2016-03-07T09:05:08Z</time>
      </trkpt>
      <trkpt lat="48.21238" lon="-3.15255">
        <ele>260</ele>
        <time>2016-03-07T09:05:11Z</time>
      </trkpt>
      <trkpt lat="48.2124" lon="-3.15252">
        <ele>260</ele>
        <time>2016-03-07T09:05:14Z</time>
      </trkpt>
      <trkpt lat="48.21241" lon="-3.15248">
        <ele>260</ele>
        <time>2016-03-07T09:05:16Z</time>
      </trkpt>
      <trkpt lat="48.21243" lon="-3.15245">
        <ele>260</ele>
        <time>2016-03-07T09:05:19Z</time>
      </trkpt>
      <trkpt lat="48.21243" lon="-3.15245">
        <ele>260</ele>
        <time>2016-03-07T09:05:23Z</time>
      </trkpt>
      <trkpt lat="48.21243" lon="-3.15246">
        <ele>260</ele>
        <time>2016-03-07T09:05:25Z</time>
      </trkpt>
      <trkpt lat="48.21243" lon="-3.15246">
        <ele>260</ele>
        <time>2016-03-07T09:05:28Z</time>
      </trkpt>
      <trkpt lat="48.21241" lon="-3.15248">
        <ele>260</ele>
        <time>2016-03-07T09:05:31Z</time>
      </trkpt>
      <trkpt lat="48.21239" lon="-3.15251">
        <ele>260</ele>
        <time>2016-03-07T09:05:33Z</time>
      </trkpt>
      <trkpt lat="48.21237" lon="-3.15254">
        <ele>259</ele>
        <time>2016-03-07T09:05:35Z</time>
      </trkpt>
      <trkpt lat="48.21235" lon="-3.15257">
        <ele>259</ele>
        <time>2016-03-07T09:05:37Z</time>
      </trkpt>
      <trkpt lat="48.21235" lon="-3.15261">
        <ele>260</ele>
        <time>2016-03-07T09:05:40Z</time>
      </trkpt>
      <trkpt lat="48.21237" lon="-3.15263">
        <ele>260</ele>
        <time>2016-03-07T09:05:43Z</time>
      </trkpt>
      <trkpt lat="48.21239" lon="-3.15265">
        <ele>260</ele>
        <time>2016-03-07T09:05:46Z</time>
      </trkpt>
      <trkpt lat="48.21239" lon="-3.15265">
        <ele>260</ele>
        <time>2016-03-07T09:05:48Z</time>
      </trkpt>
      <trkpt lat="48.21241" lon="-3.15265">
        <ele>260</ele>
        <time>2016-03-07T09:05:51Z</time>
      </trkpt>
      <trkpt lat="48.21242" lon="-3.15267">
        <ele>260</ele>
        <time>2016-03-07T09:05:54Z</time>
      </trkpt>
      <trkpt lat="48.21245" lon="-3.15269">
        <ele>260</ele>
        <time>2016-03-07T09:05:57Z</time>
      </trkpt>
      <trkpt lat="48.21247" lon="-3.15271">
        <ele>260</ele>
        <time>2016-03-07T09:05:59Z</time>
      </trkpt>
      <trkpt lat="48.2125" lon="-3.15274">
        <ele>260</ele>
        <time>2016-03-07T09:06:02Z</time>
      </trkpt>
      <trkpt lat="48.21252" lon="-3.15276">
        <ele>260</ele>
        <time>2016-03-07T09:06:04Z</time>
      </trkpt>
      <trkpt lat="48.21255" lon="-3.1528">
        <ele>260</ele>
        <time>2016-03-07T09:06:07Z</time>
      </trkpt>
      <trkpt lat="48.21257" lon="-3.15282">
        <ele>260</ele>
        <time>2016-03-07T09:06:09Z</time>
      </trkpt>
      <trkpt lat="48.21259" lon="-3.15285">
        <ele>260</ele>
        <time>2016-03-07T09:06:12Z</time>
      </trkpt>
      <trkpt lat="48.2126" lon="-3.15286">
        <ele>260</ele>
        <time>2016-03-07T09:06:14Z</time>
      </trkpt>
      <trkpt lat="48.2126" lon="-3.15287">
        <ele>260</ele>
        <time>2016-03-07T09:06:17Z</time>
      </trkpt>
      <trkpt lat="48.21262" lon="-3.15289">
        <ele>260</ele>
        <time>2016-03-07T09:06:20Z</time>
      </trkpt>
      <trkpt lat="48.21262" lon="-3.1529">
        <ele>260</ele>
        <time>2016-03-07T09:06:23Z</time>
      </trkpt>
      <trkpt lat="48.21262" lon="-3.1529">
        <ele>260</ele>
        <time>2016-03-07T09:06:25Z</time>
      </trkpt>
      <trkpt lat="48.21262" lon="-3.1529">
        <ele>260</ele>
        <time>2016-03-07T09:06:28Z</time>
      </trkpt>
      <trkpt lat="48.21264" lon="-3.15293">
        <ele>260</ele>
        <time>2016-03-07T09:06:31Z</time>
      </trkpt>
      <trkpt lat="48.21266" lon="-3.15295">
        <ele>260</ele>
        <time>2016-03-07T09:06:34Z</time>
      </trkpt>
      <trkpt lat="48.21267" lon="-3.15297">
        <ele>260</ele>
        <time>2016-03-07T09:06:36Z</time>
      </trkpt>
      <trkpt lat="48.21269" lon="-3.15299">
        <ele>260</ele>
        <time>2016-03-07T09:06:39Z</time>
      </trkpt>
      <trkpt lat="48.2127" lon="-3.15301">
        <ele>260</ele>
        <time>2016-03-07T09:06:41Z</time>
      </trkpt>
      <trkpt lat="48.21272" lon="-3.15303">
        <ele>259</ele>
        <time>2016-03-07T09:06:44Z</time>
      </trkpt>
      <trkpt lat="48.21273" lon="-3.15304">
        <ele>259</ele>
        <time>2016-03-07T09:06:46Z</time>
      </trkpt>
      <trkpt lat="48.21273" lon="-3.15304">
        <ele>259</ele>
        <time>2016-03-07T09:06:49Z</time>
      </trkpt>
      <trkpt lat="48.21274" lon="-3.15305">
        <ele>259</ele>
        <time>2016-03-07T09:06:51Z</time>
      </trkpt>
      <trkpt lat="48.21275" lon="-3.15306">
        <ele>259</ele>
        <time>2016-03-07T09:06:54Z</time>
      </trkpt>
      <trkpt lat="48.21275" lon="-3.15306">
        <ele>259</ele>
        <time>2016-03-07T09:06:56Z</time>
      </trkpt>
      <trkpt lat="48.21275" lon="-3.15307">
        <ele>259</ele>
        <time>2016-03-07T09:06:59Z</time>
      </trkpt>
      <trkpt lat="48.21275" lon="-3.15307">
        <ele>259</ele>
        <time>2016-03-07T09:07:01Z</time>
      </trkpt>
      <trkpt lat="48.21275" lon="-3.15305">
        <ele>259</ele>
        <time>2016-03-07T09:07:04Z</time>
      </trkpt>
      <trkpt lat="48.21274" lon="-3.15303">
        <ele>259</ele>
        <time>2016-03-07T09:07:07Z</time>
      </trkpt>
      <trkpt lat="48.21273" lon="-3.15302">
        <ele>259</ele>
        <time>2016-03-07T09:07:10Z</time>
      </trkpt>
      <trkpt lat="48.21273" lon="-3.153">
        <ele>259</ele>
        <time>2016-03-07T09:07:12Z</time>
      </trkpt>
      <trkpt lat="48.21273" lon="-3.15297">
        <ele>259</ele>
        <time>2016-03-07T09:07:15Z</time>
      </trkpt>
      <trkpt lat="48.21273" lon="-3.15293">
        <ele>259</ele>
        <time>2016-03-07T09:07:18Z</time>
      </trkpt>
      <trkpt lat="48.21272" lon="-3.15293">
        <ele>259</ele>
        <time>2016-03-07T09:07:20Z</time>
      </trkpt>
      <trkpt lat="48.21273" lon="-3.15292">
        <ele>259</ele>
        <time>2016-03-07T09:07:23Z</time>
      </trkpt>
      <trkpt lat="48.21273" lon="-3.15291">
        <ele>259</ele>
        <time>2016-03-07T09:07:26Z</time>
      </trkpt>
      <trkpt lat="48.21272" lon="-3.15293">
        <ele>259</ele>
        <time>2016-03-07T09:07:28Z</time>
      </trkpt>
      <trkpt lat="48.21271" lon="-3.15296">
        <ele>259</ele>
        <time>2016-03-07T09:07:31Z</time>
      </trkpt>
      <trkpt lat="48.21273" lon="-3.15299">
        <ele>259</ele>
        <time>2016-03-07T09:07:34Z</time>
      </trkpt>
      <trkpt lat="48.21275" lon="-3.153">
        <ele>259</ele>
        <time>2016-03-07T09:07:37Z</time>
      </trkpt>
      <trkpt lat="48.21277" lon="-3.15303">
        <ele>259</ele>
        <time>2016-03-07T09:07:40Z</time>
      </trkpt>
      <trkpt lat="48.21279" lon="-3.15305">
        <ele>259</ele>
        <time>2016-03-07T09:07:43Z</time>
      </trkpt>
      <trkpt lat="48.21281" lon="-3.15307">
        <ele>258</ele>
        <time>2016-03-07T09:07:46Z</time>
      </trkpt>
      <trkpt lat="48.21283" lon="-3.15309">
        <ele>258</ele>
        <time>2016-03-07T09:07:48Z</time>
      </trkpt>
      <trkpt lat="48.21285" lon="-3.15313">
        <ele>258</ele>
        <time>2016-03-07T09:07:51Z</time>
      </trkpt>
      <trkpt lat="48.21287" lon="-3.15316">
        <ele>258</ele>
        <time>2016-03-07T09:07:54Z</time>
      </trkpt>
      <trkpt lat="48.2129" lon="-3.15319">
        <ele>258</ele>
        <time>2016-03-07T09:07:57Z</time>
      </trkpt>
      <trkpt lat="48.21292" lon="-3.15321">
        <ele>258</ele>
        <time>2016-03-07T09:07:59Z</time>
      </trkpt>
      <trkpt lat="48.21294" lon="-3.15324">
        <ele>258</ele>
        <time>2016-03-07T09:08:01Z</time>
      </trkpt>
      <trkpt lat="48.21297" lon="-3.15327">
        <ele>258</ele>
        <time>2016-03-07T09:08:04Z</time>
      </trkpt>
      <trkpt lat="48.21299" lon="-3.15332">
        <ele>258</ele>
        <time>2016-03-07T09:08:07Z</time>
      </trkpt>
      <trkpt lat="48.21301" lon="-3.15333">
        <ele>258</ele>
        <time>2016-03-07T09:08:09Z</time>
      </trkpt>
      <trkpt lat="48.21302" lon="-3.15337">
        <ele>257</ele>
        <time>2016-03-07T09:08:12Z</time>
      </trkpt>
      <trkpt lat="48.21304" lon="-3.15339">
        <ele>257</ele>
        <time>2016-03-07T09:08:15Z</time>
      </trkpt>
      <trkpt lat="48.21306" lon="-3.15342">
        <ele>257</ele>
        <time>2016-03-07T09:08:18Z</time>
      </trkpt>
      <trkpt lat="48.21308" lon="-3.15344">
        <ele>257</ele>
        <time>2016-03-07T09:08:20Z</time>
      </trkpt>
      <trkpt lat="48.2131" lon="-3.15347">
        <ele>257</ele>
        <time>2016-03-07T09:08:23Z</time>
      </trkpt>
      <trkpt lat="48.21312" lon="-3.1535">
        <ele>257</ele>
        <time>2016-03-07T09:08:26Z</time>
      </trkpt>
      <trkpt lat="48.21314" lon="-3.15353">
        <ele>257</ele>
        <time>2016-03-07T09:08:29Z</time>
      </trkpt>
      <trkpt lat="48.21315" lon="-3.15354">
        <ele>257</ele>
        <time>2016-03-07T09:08:31Z</time>
      </trkpt>
      <trkpt lat="48.21317" lon="-3.15356">
        <ele>258</ele>
        <time>2016-03-07T09:08:33Z</time>
      </trkpt>
      <trkpt lat="48.2132" lon="-3.15359">
        <ele>258</ele>
        <time>2016-03-07T09:08:36Z</time>
      </trkpt>
      <trkpt lat="48.21322" lon="-3.15361">
        <ele>259</ele>
        <time>2016-03-07T09:08:39Z</time>
      </trkpt>
      <trkpt lat="48.21324" lon="-3.15365">
        <ele>259</ele>
        <time>2016-03-07T09:08:42Z</time>
      </trkpt>
      <trkpt lat="48.21326" lon="-3.15368">
        <ele>260</ele>
        <time>2016-03-07T09:08:44Z</time>
      </trkpt>
      <trkpt lat="48.21328" lon="-3.15371">
        <ele>260</ele>
        <time>2016-03-07T09:08:47Z</time>
      </trkpt>
      <trkpt lat="48.21329" lon="-3.15373">
        <ele>260</ele>
        <time>2016-03-07T09:08:49Z</time>
      </trkpt>
      <trkpt lat="48.21331" lon="-3.15377">
        <ele>260</ele>
        <time>2016-03-07T09:08:52Z</time>
      </trkpt>
      <trkpt lat="48.21333" lon="-3.1538">
        <ele>261</ele>
        <time>2016-03-07T09:08:55Z</time>
      </trkpt>
      <trkpt lat="48.21335" lon="-3.15382">
        <ele>261</ele>
        <time>2016-03-07T09:08:57Z</time>
      </trkpt>
      <trkpt lat="48.21338" lon="-3.15384">
        <ele>261</ele>
        <time>2016-03-07T09:09:00Z</time>
      </trkpt>
      <trkpt lat="48.21339" lon="-3.15386">
        <ele>261</ele>
        <time>2016-03-07T09:09:02Z</time>
      </trkpt>
      <trkpt lat="48.21342" lon="-3.15389">
        <ele>261</ele>
        <time>2016-03-07T09:09:05Z</time>
      </trkpt>
      <trkpt lat="48.21346" lon="-3.15391">
        <ele>261</ele>
        <time>2016-03-07T09:09:08Z</time>
      </trkpt>
      <trkpt lat="48.21347" lon="-3.15393">
        <ele>261</ele>
        <time>2016-03-07T09:09:10Z</time>
      </trkpt>
      <trkpt lat="48.2135" lon="-3.15395">
        <ele>261</ele>
        <time>2016-03-07T09:09:13Z</time>
      </trkpt>
      <trkpt lat="48.21352" lon="-3.15397">
        <ele>261</ele>
        <time>2016-03-07T09:09:15Z</time>
      </trkpt>
      <trkpt lat="48.21355" lon="-3.15399">
        <ele>261</ele>
        <time>2016-03-07T09:09:18Z</time>
      </trkpt>
      <trkpt lat="48.21359" lon="-3.15403">
        <ele>260</ele>
        <time>2016-03-07T09:09:21Z</time>
      </trkpt>
      <trkpt lat="48.21361" lon="-3.15405">
        <ele>260</ele>
        <time>2016-03-07T09:09:23Z</time>
      </trkpt>
      <trkpt lat="48.21364" lon="-3.15408">
        <ele>260</ele>
        <time>2016-03-07T09:09:26Z</time>
      </trkpt>
      <trkpt lat="48.21365" lon="-3.15409">
        <ele>260</ele>
        <time>2016-03-07T09:09:28Z</time>
      </trkpt>
      <trkpt lat="48.21367" lon="-3.15413">
        <ele>260</ele>
        <time>2016-03-07T09:09:31Z</time>
      </trkpt>
      <trkpt lat="48.2137" lon="-3.15417">
        <ele>260</ele>
        <time>2016-03-07T09:09:34Z</time>
      </trkpt>
      <trkpt lat="48.21371" lon="-3.15419">
        <ele>260</ele>
        <time>2016-03-07T09:09:36Z</time>
      </trkpt>
      <trkpt lat="48.21374" lon="-3.15422">
        <ele>260</ele>
        <time>2016-03-07T09:09:39Z</time>
      </trkpt>
      <trkpt lat="48.21376" lon="-3.15424">
        <ele>260</ele>
        <time>2016-03-07T09:09:41Z</time>
      </trkpt>
      <trkpt lat="48.21377" lon="-3.15426">
        <ele>260</ele>
        <time>2016-03-07T09:09:43Z</time>
      </trkpt>
      <trkpt lat="48.2138" lon="-3.15429">
        <ele>260</ele>
        <time>2016-03-07T09:09:46Z</time>
      </trkpt>
      <trkpt lat="48.21383" lon="-3.15433">
        <ele>260</ele>
        <time>2016-03-07T09:09:49Z</time>
      </trkpt>
      <trkpt lat="48.21386" lon="-3.15436">
        <ele>260</ele>
        <time>2016-03-07T09:09:52Z</time>
      </trkpt>
      <trkpt lat="48.21389" lon="-3.1544">
        <ele>260</ele>
        <time>2016-03-07T09:09:55Z</time>
      </trkpt>
      <trkpt lat="48.2139" lon="-3.15442">
        <ele>260</ele>
        <time>2016-03-07T09:09:57Z</time>
      </trkpt>
      <trkpt lat="48.21391" lon="-3.15446">
        <ele>261</ele>
        <time>2016-03-07T09:10:00Z</time>
      </trkpt>
      <trkpt lat="48.21392" lon="-3.15451">
        <ele>261</ele>
        <time>2016-03-07T09:10:03Z</time>
      </trkpt>
      <trkpt lat="48.21392" lon="-3.15454">
        <ele>261</ele>
        <time>2016-03-07T09:10:05Z</time>
      </trkpt>
      <trkpt lat="48.21392" lon="-3.15459">
        <ele>260</ele>
        <time>2016-03-07T09:10:08Z</time>
      </trkpt>
      <trkpt lat="48.21391" lon="-3.15461">
        <ele>260</ele>
        <time>2016-03-07T09:10:10Z</time>
      </trkpt>
      <trkpt lat="48.21389" lon="-3.15464">
        <ele>260</ele>
        <time>2016-03-07T09:10:13Z</time>
      </trkpt>
      <trkpt lat="48.21388" lon="-3.15468">
        <ele>259</ele>
        <time>2016-03-07T09:10:16Z</time>
      </trkpt>
      <trkpt lat="48.21388" lon="-3.1547">
        <ele>259</ele>
        <time>2016-03-07T09:10:18Z</time>
      </trkpt>
      <trkpt lat="48.21388" lon="-3.15472">
        <ele>259</ele>
        <time>2016-03-07T09:10:20Z</time>
      </trkpt>
      <trkpt lat="48.21387" lon="-3.15477">
        <ele>259</ele>
        <time>2016-03-07T09:10:23Z</time>
      </trkpt>
      <trkpt lat="48.21387" lon="-3.15479">
        <ele>258</ele>
        <time>2016-03-07T09:10:25Z</time>
      </trkpt>
      <trkpt lat="48.21387" lon="-3.15483">
        <ele>258</ele>
        <time>2016-03-07T09:10:27Z</time>
      </trkpt>
      <trkpt lat="48.21386" lon="-3.15488">
        <ele>258</ele>
        <time>2016-03-07T09:10:30Z</time>
      </trkpt>
      <trkpt lat="48.21386" lon="-3.15493">
        <ele>258</ele>
        <time>2016-03-07T09:10:33Z</time>
      </trkpt>
      <trkpt lat="48.21385" lon="-3.15497">
        <ele>258</ele>
        <time>2016-03-07T09:10:35Z</time>
      </trkpt>
      <trkpt lat="48.21384" lon="-3.155">
        <ele>258</ele>
        <time>2016-03-07T09:10:37Z</time>
      </trkpt>
      <trkpt lat="48.21384" lon="-3.15506">
        <ele>258</ele>
        <time>2016-03-07T09:10:40Z</time>
      </trkpt>
      <trkpt lat="48.21384" lon="-3.1551">
        <ele>258</ele>
        <time>2016-03-07T09:10:42Z</time>
      </trkpt>
      <trkpt lat="48.21384" lon="-3.15515">
        <ele>258</ele>
        <time>2016-03-07T09:10:45Z</time>
      </trkpt>
      <trkpt lat="48.21383" lon="-3.1552">
        <ele>258</ele>
        <time>2016-03-07T09:10:48Z</time>
      </trkpt>
      <trkpt lat="48.21384" lon="-3.15526">
        <ele>258</ele>
        <time>2016-03-07T09:10:51Z</time>
      </trkpt>
      <trkpt lat="48.21384" lon="-3.15529">
        <ele>258</ele>
        <time>2016-03-07T09:10:54Z</time>
      </trkpt>
      <trkpt lat="48.21384" lon="-3.15533">
        <ele>258</ele>
        <time>2016-03-07T09:10:57Z</time>
      </trkpt>
      <trkpt lat="48.21385" lon="-3.15538">
        <ele>258</ele>
        <time>2016-03-07T09:11:00Z</time>
      </trkpt>
      <trkpt lat="48.21385" lon="-3.15541">
        <ele>258</ele>
        <time>2016-03-07T09:11:02Z</time>
      </trkpt>
      <trkpt lat="48.21386" lon="-3.15545">
        <ele>258</ele>
        <time>2016-03-07T09:11:04Z</time>
      </trkpt>
      <trkpt lat="48.21386" lon="-3.1555">
        <ele>258</ele>
        <time>2016-03-07T09:11:07Z</time>
      </trkpt>
      <trkpt lat="48.21387" lon="-3.15552">
        <ele>258</ele>
        <time>2016-03-07T09:11:09Z</time>
      </trkpt>
      <trkpt lat="48.21388" lon="-3.15555">
        <ele>258</ele>
        <time>2016-03-07T09:11:11Z</time>
      </trkpt>
      <trkpt lat="48.2139" lon="-3.1556">
        <ele>258</ele>
        <time>2016-03-07T09:11:14Z</time>
      </trkpt>
      <trkpt lat="48.21391" lon="-3.15566">
        <ele>258</ele>
        <time>2016-03-07T09:11:17Z</time>
      </trkpt>
      <trkpt lat="48.21393" lon="-3.15571">
        <ele>258</ele>
        <time>2016-03-07T09:11:20Z</time>
      </trkpt>
      <trkpt lat="48.21394" lon="-3.15576">
        <ele>259</ele>
        <time>2016-03-07T09:11:23Z</time>
      </trkpt>
      <trkpt lat="48.21395" lon="-3.15579">
        <ele>259</ele>
        <time>2016-03-07T09:11:25Z</time>
      </trkpt>
      <trkpt lat="48.21397" lon="-3.15584">
        <ele>260</ele>
        <time>2016-03-07T09:11:28Z</time>
      </trkpt>
      <trkpt lat="48.21398" lon="-3.15587">
        <ele>260</ele>
        <time>2016-03-07T09:11:30Z</time>
      </trkpt>
      <trkpt lat="48.21399" lon="-3.15591">
        <ele>261</ele>
        <time>2016-03-07T09:11:33Z</time>
      </trkpt>
      <trkpt lat="48.214" lon="-3.15594">
        <ele>261</ele>
        <time>2016-03-07T09:11:35Z</time>
      </trkpt>
      <trkpt lat="48.21401" lon="-3.15598">
        <ele>262</ele>
        <time>2016-03-07T09:11:38Z</time>
      </trkpt>
      <trkpt lat="48.21402" lon="-3.15602">
        <ele>262</ele>
        <time>2016-03-07T09:11:41Z</time>
      </trkpt>
      <trkpt lat="48.21403" lon="-3.15605">
        <ele>263</ele>
        <time>2016-03-07T09:11:44Z</time>
      </trkpt>
      <trkpt lat="48.21404" lon="-3.15608">
        <ele>263</ele>
        <time>2016-03-07T09:11:47Z</time>
      </trkpt>
      <trkpt lat="48.21405" lon="-3.15611">
        <ele>264</ele>
        <time>2016-03-07T09:11:50Z</time>
      </trkpt>
      <trkpt lat="48.21406" lon="-3.15613">
        <ele>264</ele>
        <time>2016-03-07T09:11:52Z</time>
      </trkpt>
      <trkpt lat="48.21407" lon="-3.15616">
        <ele>264</ele>
        <time>2016-03-07T09:11:55Z</time>
      </trkpt>
      <trkpt lat="48.21409" lon="-3.15617">
        <ele>265</ele>
        <time>2016-03-07T09:11:58Z</time>
      </trkpt>
      <trkpt lat="48.2141" lon="-3.15618">
        <ele>265</ele>
        <time>2016-03-07T09:12:01Z</time>
      </trkpt>
      <trkpt lat="48.21412" lon="-3.15617">
        <ele>265</ele>
        <time>2016-03-07T09:12:04Z</time>
      </trkpt>
      <trkpt lat="48.21413" lon="-3.15615">
        <ele>265</ele>
        <time>2016-03-07T09:12:07Z</time>
      </trkpt>
      <trkpt lat="48.21415" lon="-3.15616">
        <ele>265</ele>
        <time>2016-03-07T09:12:09Z</time>
      </trkpt>
      <trkpt lat="48.21416" lon="-3.15614">
        <ele>265</ele>
        <time>2016-03-07T09:12:12Z</time>
      </trkpt>
      <trkpt lat="48.21416" lon="-3.15613">
        <ele>265</ele>
        <time>2016-03-07T09:12:14Z</time>
      </trkpt>
      <trkpt lat="48.21417" lon="-3.15612">
        <ele>265</ele>
        <time>2016-03-07T09:12:17Z</time>
      </trkpt>
      <trkpt lat="48.21418" lon="-3.15612">
        <ele>265</ele>
        <time>2016-03-07T09:12:19Z</time>
      </trkpt>
      <trkpt lat="48.21419" lon="-3.15613">
        <ele>265</ele>
        <time>2016-03-07T09:12:22Z</time>
      </trkpt>
      <trkpt lat="48.2142" lon="-3.15613">
        <ele>266</ele>
        <time>2016-03-07T09:12:24Z</time>
      </trkpt>
      <trkpt lat="48.2142" lon="-3.15613">
        <ele>266</ele>
        <time>2016-03-07T09:12:26Z</time>
      </trkpt>
      <trkpt lat="48.21421" lon="-3.15613">
        <ele>265</ele>
        <time>2016-03-07T09:12:29Z</time>
      </trkpt>
      <trkpt lat="48.21421" lon="-3.15613">
        <ele>265</ele>
        <time>2016-03-07T09:12:31Z</time>
      </trkpt>
      <trkpt lat="48.21421" lon="-3.15614">
        <ele>265</ele>
        <time>2016-03-07T09:12:34Z</time>
      </trkpt>
      <trkpt lat="48.21421" lon="-3.15614">
        <ele>265</ele>
        <time>2016-03-07T09:12:37Z</time>
      </trkpt>
      <trkpt lat="48.2142" lon="-3.15614">
        <ele>265</ele>
        <time>2016-03-07T09:12:39Z</time>
      </trkpt>
      <trkpt lat="48.2142" lon="-3.15615">
        <ele>265</ele>
        <time>2016-03-07T09:12:42Z</time>
      </trkpt>
      <trkpt lat="48.21419" lon="-3.15615">
        <ele>265</ele>
        <time>2016-03-07T09:12:44Z</time>
      </trkpt>
      <trkpt lat="48.21418" lon="-3.15615">
        <ele>265</ele>
        <time>2016-03-07T09:12:46Z</time>
      </trkpt>
      <trkpt lat="48.21419" lon="-3.15615">
        <ele>265</ele>
        <time>2016-03-07T09:12:49Z</time>
      </trkpt>
      <trkpt lat="48.21419" lon="-3.15615">
        <ele>265</ele>
        <time>2016-03-07T09:12:51Z</time>
      </trkpt>
      <trkpt lat="48.21419" lon="-3.15615">
        <ele>265</ele>
        <time>2016-03-07T09:12:53Z</time>
      </trkpt>
      <trkpt lat="48.21421" lon="-3.15614">
        <ele>265</ele>
        <time>2016-03-07T09:12:56Z</time>
      </trkpt>
      <trkpt lat="48.21421" lon="-3.1561">
        <ele>265</ele>
        <time>2016-03-07T09:12:59Z</time>
      </trkpt>
      <trkpt lat="48.21422" lon="-3.15608">
        <ele>265</ele>
        <time>2016-03-07T09:13:01Z</time>
      </trkpt>
      <trkpt lat="48.21423" lon="-3.15603">
        <ele>265</ele>
        <time>2016-03-07T09:13:04Z</time>
      </trkpt>
      <trkpt lat="48.21424" lon="-3.15599">
        <ele>265</ele>
        <time>2016-03-07T09:13:06Z</time>
      </trkpt>
      <trkpt lat="48.21424" lon="-3.15594">
        <ele>265</ele>
        <time>2016-03-07T09:13:09Z</time>
      </trkpt>
      <trkpt lat="48.21424" lon="-3.1559">
        <ele>265</ele>
        <time>2016-03-07T09:13:11Z</time>
      </trkpt>
      <trkpt lat="48.21424" lon="-3.15585">
        <ele>266</ele>
        <time>2016-03-07T09:13:14Z</time>
      </trkpt>
      <trkpt lat="48.21425" lon="-3.1558">
        <ele>266</ele>
        <time>2016-03-07T09:13:17Z</time>
      </trkpt>
      <trkpt lat="48.21425" lon="-3.15577">
        <ele>266</ele>
        <time>2016-03-07T09:13:19Z</time>
      </trkpt>
      <trkpt lat="48.21425" lon="-3.15571">
        <ele>266</ele>
        <time>2016-03-07T09:13:22Z</time>
      </trkpt>
      <trkpt lat="48.21425" lon="-3.15567">
        <ele>266</ele>
        <time>2016-03-07T09:13:24Z</time>
      </trkpt>
      <trkpt lat="48.21425" lon="-3.15562">
        <ele>266</ele>
        <time>2016-03-07T09:13:27Z</time>
      </trkpt>
      <trkpt lat="48.21425" lon="-3.15557">
        <ele>266</ele>
        <time>2016-03-07T09:13:30Z</time>
      </trkpt>
      <trkpt lat="48.21425" lon="-3.15551">
        <ele>265</ele>
        <time>2016-03-07T09:13:33Z</time>
      </trkpt>
      <trkpt lat="48.21425" lon="-3.15546">
        <ele>265</ele>
        <time>2016-03-07T09:13:36Z</time>
      </trkpt>
      <trkpt lat="48.21425" lon="-3.15543">
        <ele>265</ele>
        <time>2016-03-07T09:13:38Z</time>
      </trkpt>
      <trkpt lat="48.21425" lon="-3.15538">
        <ele>265</ele>
        <time>2016-03-07T09:13:41Z</time>
      </trkpt>
      <trkpt lat="48.21425" lon="-3.15538">
        <ele>265</ele>
        <time>2016-03-07T09:13:43Z</time>
      </trkpt>
      <trkpt lat="48.21426" lon="-3.15537">
        <ele>265</ele>
        <time>2016-03-07T09:13:46Z</time>
      </trkpt>
      <trkpt lat="48.21429" lon="-3.15535">
        <ele>265</ele>
        <time>2016-03-07T09:13:49Z</time>
      </trkpt>
      <trkpt lat="48.21431" lon="-3.15536">
        <ele>265</ele>
        <time>2016-03-07T09:13:51Z</time>
      </trkpt>
      <trkpt lat="48.21432" lon="-3.15537">
        <ele>265</ele>
        <time>2016-03-07T09:13:53Z</time>
      </trkpt>
      <trkpt lat="48.21434" lon="-3.1554">
        <ele>265</ele>
        <time>2016-03-07T09:13:56Z</time>
      </trkpt>
      <trkpt lat="48.21434" lon="-3.15543">
        <ele>265</ele>
        <time>2016-03-07T09:13:58Z</time>
      </trkpt>
      <trkpt lat="48.21433" lon="-3.15547">
        <ele>265</ele>
        <time>2016-03-07T09:14:01Z</time>
      </trkpt>
      <trkpt lat="48.21433" lon="-3.15551">
        <ele>265</ele>
        <time>2016-03-07T09:14:03Z</time>
      </trkpt>
      <trkpt lat="48.21432" lon="-3.15557">
        <ele>264</ele>
        <time>2016-03-07T09:14:06Z</time>
      </trkpt>
      <trkpt lat="48.21432" lon="-3.15561">
        <ele>265</ele>
        <time>2016-03-07T09:14:08Z</time>
      </trkpt>
      <trkpt lat="48.21431" lon="-3.15567">
        <ele>264</ele>
        <time>2016-03-07T09:14:11Z</time>
      </trkpt>
      <trkpt lat="48.2143" lon="-3.15572">
        <ele>265</ele>
        <time>2016-03-07T09:14:14Z</time>
      </trkpt>
      <trkpt lat="48.21429" lon="-3.15578">
        <ele>265</ele>
        <time>2016-03-07T09:14:17Z</time>
      </trkpt>
      <trkpt lat="48.21428" lon="-3.15583">
        <ele>265</ele>
        <time>2016-03-07T09:14:20Z</time>
      </trkpt>
      <trkpt lat="48.21428" lon="-3.15587">
        <ele>265</ele>
        <time>2016-03-07T09:14:22Z</time>
      </trkpt>
      <trkpt lat="48.21427" lon="-3.15592">
        <ele>265</ele>
        <time>2016-03-07T09:14:25Z</time>
      </trkpt>
      <trkpt lat="48.21426" lon="-3.15596">
        <ele>265</ele>
        <time>2016-03-07T09:14:27Z</time>
      </trkpt>
      <trkpt lat="48.21426" lon="-3.156">
        <ele>265</ele>
        <time>2016-03-07T09:14:30Z</time>
      </trkpt>
      <trkpt lat="48.21426" lon="-3.15604">
        <ele>265</ele>
        <time>2016-03-07T09:14:32Z</time>
      </trkpt>
      <trkpt lat="48.21426" lon="-3.15607">
        <ele>265</ele>
        <time>2016-03-07T09:14:34Z</time>
      </trkpt>
      <trkpt lat="48.21426" lon="-3.15614">
        <ele>265</ele>
        <time>2016-03-07T09:14:37Z</time>
      </trkpt>
      <trkpt lat="48.21426" lon="-3.15619">
        <ele>265</ele>
        <time>2016-03-07T09:14:40Z</time>
      </trkpt>
      <trkpt lat="48.21426" lon="-3.15624">
        <ele>265</ele>
        <time>2016-03-07T09:14:43Z</time>
      </trkpt>
      <trkpt lat="48.21425" lon="-3.15628">
        <ele>265</ele>
        <time>2016-03-07T09:14:45Z</time>
      </trkpt>
      <trkpt lat="48.21425" lon="-3.15633">
        <ele>265</ele>
        <time>2016-03-07T09:14:48Z</time>
      </trkpt>
      <trkpt lat="48.21425" lon="-3.15637">
        <ele>265</ele>
        <time>2016-03-07T09:14:50Z</time>
      </trkpt>
      <trkpt lat="48.21425" lon="-3.15641">
        <ele>265</ele>
        <time>2016-03-07T09:14:52Z</time>
      </trkpt>
      <trkpt lat="48.21424" lon="-3.15645">
        <ele>265</ele>
        <time>2016-03-07T09:14:54Z</time>
      </trkpt>
      <trkpt lat="48.21424" lon="-3.15649">
        <ele>265</ele>
        <time>2016-03-07T09:14:57Z</time>
      </trkpt>
      <trkpt lat="48.21424" lon="-3.15652">
        <ele>265</ele>
        <time>2016-03-07T09:14:59Z</time>
      </trkpt>
      <trkpt lat="48.21425" lon="-3.15658">
        <ele>265</ele>
        <time>2016-03-07T09:15:02Z</time>
      </trkpt>
      <trkpt lat="48.21426" lon="-3.15663">
        <ele>265</ele>
        <time>2016-03-07T09:15:05Z</time>
      </trkpt>
      <trkpt lat="48.21426" lon="-3.15666">
        <ele>265</ele>
        <time>2016-03-07T09:15:07Z</time>
      </trkpt>
      <trkpt lat="48.21428" lon="-3.15672">
        <ele>265</ele>
        <time>2016-03-07T09:15:10Z</time>
      </trkpt>
      <trkpt lat="48.21428" lon="-3.15678">
        <ele>265</ele>
        <time>2016-03-07T09:15:13Z</time>
      </trkpt>
      <trkpt lat="48.21428" lon="-3.15685">
        <ele>265</ele>
        <time>2016-03-07T09:15:16Z</time>
      </trkpt>
      <trkpt lat="48.21428" lon="-3.15689">
        <ele>265</ele>
        <time>2016-03-07T09:15:18Z</time>
      </trkpt>
      <trkpt lat="48.21428" lon="-3.15697">
        <ele>265</ele>
        <time>2016-03-07T09:15:21Z</time>
      </trkpt>
      <trkpt lat="48.21428" lon="-3.15704">
        <ele>265</ele>
        <time>2016-03-07T09:15:24Z</time>
      </trkpt>
      <trkpt lat="48.21427" lon="-3.1571">
        <ele>265</ele>
        <time>2016-03-07T09:15:27Z</time>
      </trkpt>
      <trkpt lat="48.21428" lon="-3.15717">
        <ele>265</ele>
        <time>2016-03-07T09:15:30Z</time>
      </trkpt>
      <trkpt lat="48.21429" lon="-3.15722">
        <ele>265</ele>
        <time>2016-03-07T09:15:33Z</time>
      </trkpt>
      <trkpt lat="48.21429" lon="-3.15726">
        <ele>265</ele>
        <time>2016-03-07T09:15:35Z</time>
      </trkpt>
      <trkpt lat="48.21431" lon="-3.15732">
        <ele>265</ele>
        <time>2016-03-07T09:15:38Z</time>
      </trkpt>
      <trkpt lat="48.21431" lon="-3.15738">
        <ele>265</ele>
        <time>2016-03-07T09:15:41Z</time>
      </trkpt>
      <trkpt lat="48.21431" lon="-3.15742">
        <ele>265</ele>
        <time>2016-03-07T09:15:43Z</time>
      </trkpt>
      <trkpt lat="48.21432" lon="-3.15748">
        <ele>265</ele>
        <time>2016-03-07T09:15:46Z</time>
      </trkpt>
      <trkpt lat="48.21433" lon="-3.15754">
        <ele>265</ele>
        <time>2016-03-07T09:15:49Z</time>
      </trkpt>
      <trkpt lat="48.21433" lon="-3.15757">
        <ele>265</ele>
        <time>2016-03-07T09:15:51Z</time>
      </trkpt>
      <trkpt lat="48.21434" lon="-3.15763">
        <ele>264</ele>
        <time>2016-03-07T09:15:54Z</time>
      </trkpt>
      <trkpt lat="48.21434" lon="-3.15769">
        <ele>264</ele>
        <time>2016-03-07T09:15:57Z</time>
      </trkpt>
      <trkpt lat="48.21435" lon="-3.15773">
        <ele>264</ele>
        <time>2016-03-07T09:15:59Z</time>
      </trkpt>
      <trkpt lat="48.21436" lon="-3.15776">
        <ele>264</ele>
        <time>2016-03-07T09:16:01Z</time>
      </trkpt>
      <trkpt lat="48.21437" lon="-3.15781">
        <ele>263</ele>
        <time>2016-03-07T09:16:04Z</time>
      </trkpt>
      <trkpt lat="48.21437" lon="-3.15785">
        <ele>263</ele>
        <time>2016-03-07T09:16:06Z</time>
      </trkpt>
      <trkpt lat="48.21438" lon="-3.15791">
        <ele>264</ele>
        <time>2016-03-07T09:16:09Z</time>
      </trkpt>
      <trkpt lat="48.21439" lon="-3.15796">
        <ele>264</ele>
        <time>2016-03-07T09:16:11Z</time>
      </trkpt>
      <trkpt lat="48.2144" lon="-3.15801">
        <ele>264</ele>
        <time>2016-03-07T09:16:14Z</time>
      </trkpt>
      <trkpt lat="48.21441" lon="-3.15808">
        <ele>264</ele>
        <time>2016-03-07T09:16:17Z</time>
      </trkpt>
      <trkpt lat="48.21442" lon="-3.15814">
        <ele>264</ele>
        <time>2016-03-07T09:16:20Z</time>
      </trkpt>
      <trkpt lat="48.21443" lon="-3.1582">
        <ele>264</ele>
        <time>2016-03-07T09:16:23Z</time>
      </trkpt>
      <trkpt lat="48.21444" lon="-3.15826">
        <ele>264</ele>
        <time>2016-03-07T09:16:26Z</time>
      </trkpt>
      <trkpt lat="48.21444" lon="-3.15829">
        <ele>263</ele>
        <time>2016-03-07T09:16:28Z</time>
      </trkpt>
      <trkpt lat="48.21446" lon="-3.15834">
        <ele>263</ele>
        <time>2016-03-07T09:16:31Z</time>
      </trkpt>
      <trkpt lat="48.21447" lon="-3.15839">
        <ele>263</ele>
        <time>2016-03-07T09:16:34Z</time>
      </trkpt>
      <trkpt lat="48.21449" lon="-3.15842">
        <ele>264</ele>
        <time>2016-03-07T09:16:36Z</time>
      </trkpt>
      <trkpt lat="48.2145" lon="-3.15847">
        <ele>263</ele>
        <time>2016-03-07T09:16:39Z</time>
      </trkpt>
      <trkpt lat="48.21451" lon="-3.1585">
        <ele>263</ele>
        <time>2016-03-07T09:16:41Z</time>
      </trkpt>
      <trkpt lat="48.21453" lon="-3.15855">
        <ele>263</ele>
        <time>2016-03-07T09:16:44Z</time>
      </trkpt>
      <trkpt lat="48.21454" lon="-3.15857">
        <ele>263</ele>
        <time>2016-03-07T09:16:46Z</time>
      </trkpt>
      <trkpt lat="48.21456" lon="-3.15862">
        <ele>263</ele>
        <time>2016-03-07T09:16:49Z</time>
      </trkpt>
      <trkpt lat="48.21457" lon="-3.15866">
        <ele>263</ele>
        <time>2016-03-07T09:16:51Z</time>
      </trkpt>
      <trkpt lat="48.21459" lon="-3.1587">
        <ele>263</ele>
        <time>2016-03-07T09:16:54Z</time>
      </trkpt>
      <trkpt lat="48.2146" lon="-3.15875">
        <ele>262</ele>
        <time>2016-03-07T09:16:57Z</time>
      </trkpt>
      <trkpt lat="48.21461" lon="-3.15879">
        <ele>262</ele>
        <time>2016-03-07T09:16:59Z</time>
      </trkpt>
      <trkpt lat="48.21463" lon="-3.15884">
        <ele>262</ele>
        <time>2016-03-07T09:17:02Z</time>
      </trkpt>
      <trkpt lat="48.21465" lon="-3.15887">
        <ele>262</ele>
        <time>2016-03-07T09:17:04Z</time>
      </trkpt>
      <trkpt lat="48.21466" lon="-3.15892">
        <ele>263</ele>
        <time>2016-03-07T09:17:07Z</time>
      </trkpt>
      <trkpt lat="48.21468" lon="-3.15896">
        <ele>262</ele>
        <time>2016-03-07T09:17:09Z</time>
      </trkpt>
      <trkpt lat="48.2147" lon="-3.159">
        <ele>262</ele>
        <time>2016-03-07T09:17:12Z</time>
      </trkpt>
      <trkpt lat="48.21471" lon="-3.15903">
        <ele>262</ele>
        <time>2016-03-07T09:17:14Z</time>
      </trkpt>
      <trkpt lat="48.21473" lon="-3.15909">
        <ele>262</ele>
        <time>2016-03-07T09:17:17Z</time>
      </trkpt>
      <trkpt lat="48.21475" lon="-3.15914">
        <ele>262</ele>
        <time>2016-03-07T09:17:20Z</time>
      </trkpt>
      <trkpt lat="48.21476" lon="-3.1592">
        <ele>262</ele>
        <time>2016-03-07T09:17:23Z</time>
      </trkpt>
      <trkpt lat="48.21478" lon="-3.15924">
        <ele>262</ele>
        <time>2016-03-07T09:17:25Z</time>
      </trkpt>
      <trkpt lat="48.21479" lon="-3.15929">
        <ele>262</ele>
        <time>2016-03-07T09:17:28Z</time>
      </trkpt>
      <trkpt lat="48.21481" lon="-3.15932">
        <ele>262</ele>
        <time>2016-03-07T09:17:30Z</time>
      </trkpt>
      <trkpt lat="48.21483" lon="-3.15937">
        <ele>262</ele>
        <time>2016-03-07T09:17:33Z</time>
      </trkpt>
      <trkpt lat="48.21485" lon="-3.15941">
        <ele>262</ele>
        <time>2016-03-07T09:17:36Z</time>
      </trkpt>
      <trkpt lat="48.21487" lon="-3.15945">
        <ele>262</ele>
        <time>2016-03-07T09:17:39Z</time>
      </trkpt>
      <trkpt lat="48.21489" lon="-3.15948">
        <ele>262</ele>
        <time>2016-03-07T09:17:41Z</time>
      </trkpt>
      <trkpt lat="48.21491" lon="-3.15953">
        <ele>262</ele>
        <time>2016-03-07T09:17:44Z</time>
      </trkpt>
      <trkpt lat="48.21493" lon="-3.15957">
        <ele>262</ele>
        <time>2016-03-07T09:17:47Z</time>
      </trkpt>
      <trkpt lat="48.21495" lon="-3.1596">
        <ele>262</ele>
        <time>2016-03-07T09:17:49Z</time>
      </trkpt>
      <trkpt lat="48.21497" lon="-3.15963">
        <ele>262</ele>
        <time>2016-03-07T09:17:52Z</time>
      </trkpt>
      <trkpt lat="48.215" lon="-3.15967">
        <ele>262</ele>
        <time>2016-03-07T09:17:55Z</time>
      </trkpt>
      <trkpt lat="48.21501" lon="-3.15969">
        <ele>262</ele>
        <time>2016-03-07T09:17:57Z</time>
      </trkpt>
      <trkpt lat="48.21504" lon="-3.15974">
        <ele>262</ele>
        <time>2016-03-07T09:18:00Z</time>
      </trkpt>
      <trkpt lat="48.21507" lon="-3.15977">
        <ele>262</ele>
        <time>2016-03-07T09:18:03Z</time>
      </trkpt>
      <trkpt lat="48.21508" lon="-3.1598">
        <ele>262</ele>
        <time>2016-03-07T09:18:05Z</time>
      </trkpt>
      <trkpt lat="48.21511" lon="-3.15984">
        <ele>262</ele>
        <time>2016-03-07T09:18:08Z</time>
      </trkpt>
      <trkpt lat="48.21513" lon="-3.15986">
        <ele>261</ele>
        <time>2016-03-07T09:18:10Z</time>
      </trkpt>
      <trkpt lat="48.21515" lon="-3.15988">
        <ele>261</ele>
        <time>2016-03-07T09:18:12Z</time>
      </trkpt>
      <trkpt lat="48.21518" lon="-3.15992">
        <ele>261</ele>
        <time>2016-03-07T09:18:15Z</time>
      </trkpt>
      <trkpt lat="48.2152" lon="-3.15996">
        <ele>261</ele>
        <time>2016-03-07T09:18:18Z</time>
      </trkpt>
      <trkpt lat="48.21522" lon="-3.15998">
        <ele>262</ele>
        <time>2016-03-07T09:18:20Z</time>
      </trkpt>
      <trkpt lat="48.21526" lon="-3.16002">
        <ele>261</ele>
        <time>2016-03-07T09:18:23Z</time>
      </trkpt>
      <trkpt lat="48.21529" lon="-3.16005">
        <ele>261</ele>
        <time>2016-03-07T09:18:26Z</time>
      </trkpt>
      <trkpt lat="48.21531" lon="-3.16006">
        <ele>261</ele>
        <time>2016-03-07T09:18:28Z</time>
      </trkpt>
      <trkpt lat="48.21534" lon="-3.16009">
        <ele>261</ele>
        <time>2016-03-07T09:18:31Z</time>
      </trkpt>
      <trkpt lat="48.21538" lon="-3.16012">
        <ele>261</ele>
        <time>2016-03-07T09:18:34Z</time>
      </trkpt>
      <trkpt lat="48.21541" lon="-3.16014">
        <ele>261</ele>
        <time>2016-03-07T09:18:37Z</time>
      </trkpt>
      <trkpt lat="48.21543" lon="-3.16017">
        <ele>261</ele>
        <time>2016-03-07T09:18:39Z</time>
      </trkpt>
      <trkpt lat="48.21547" lon="-3.1602">
        <ele>261</ele>
        <time>2016-03-07T09:18:42Z</time>
      </trkpt>
      <trkpt lat="48.2155" lon="-3.16024">
        <ele>261</ele>
        <time>2016-03-07T09:18:45Z</time>
      </trkpt>
      <trkpt lat="48.21552" lon="-3.16025">
        <ele>261</ele>
        <time>2016-03-07T09:18:47Z</time>
      </trkpt>
      <trkpt lat="48.21556" lon="-3.16028">
        <ele>261</ele>
        <time>2016-03-07T09:18:50Z</time>
      </trkpt>
      <trkpt lat="48.21559" lon="-3.16031">
        <ele>261</ele>
        <time>2016-03-07T09:18:53Z</time>
      </trkpt>
      <trkpt lat="48.21563" lon="-3.16033">
        <ele>261</ele>
        <time>2016-03-07T09:18:56Z</time>
      </trkpt>
      <trkpt lat="48.21565" lon="-3.16036">
        <ele>261</ele>
        <time>2016-03-07T09:18:58Z</time>
      </trkpt>
      <trkpt lat="48.21568" lon="-3.16038">
        <ele>260</ele>
        <time>2016-03-07T09:19:01Z</time>
      </trkpt>
      <trkpt lat="48.21571" lon="-3.1604">
        <ele>260</ele>
        <time>2016-03-07T09:19:03Z</time>
      </trkpt>
      <trkpt lat="48.21574" lon="-3.16042">
        <ele>260</ele>
        <time>2016-03-07T09:19:06Z</time>
      </trkpt>
      <trkpt lat="48.21576" lon="-3.16044">
        <ele>260</ele>
        <time>2016-03-07T09:19:08Z</time>
      </trkpt>
      <trkpt lat="48.21578" lon="-3.16045">
        <ele>260</ele>
        <time>2016-03-07T09:19:10Z</time>
      </trkpt>
      <trkpt lat="48.2158" lon="-3.16048">
        <ele>260</ele>
        <time>2016-03-07T09:19:13Z</time>
      </trkpt>
      <trkpt lat="48.21584" lon="-3.16051">
        <ele>260</ele>
        <time>2016-03-07T09:19:16Z</time>
      </trkpt>
      <trkpt lat="48.21586" lon="-3.16053">
        <ele>260</ele>
        <time>2016-03-07T09:19:18Z</time>
      </trkpt>
      <trkpt lat="48.21589" lon="-3.16054">
        <ele>261</ele>
        <time>2016-03-07T09:19:21Z</time>
      </trkpt>
      <trkpt lat="48.21592" lon="-3.16055">
        <ele>261</ele>
        <time>2016-03-07T09:19:23Z</time>
      </trkpt>
      <trkpt lat="48.21596" lon="-3.16056">
        <ele>261</ele>
        <time>2016-03-07T09:19:26Z</time>
      </trkpt>
      <trkpt lat="48.216" lon="-3.16057">
        <ele>260</ele>
        <time>2016-03-07T09:19:29Z</time>
      </trkpt>
      <trkpt lat="48.21603" lon="-3.16058">
        <ele>260</ele>
        <time>2016-03-07T09:19:32Z</time>
      </trkpt>
      <trkpt lat="48.21608" lon="-3.16059">
        <ele>260</ele>
        <time>2016-03-07T09:19:35Z</time>
      </trkpt>
      <trkpt lat="48.2161" lon="-3.16059">
        <ele>260</ele>
        <time>2016-03-07T09:19:37Z</time>
      </trkpt>
      <trkpt lat="48.21614" lon="-3.16061">
        <ele>260</ele>
        <time>2016-03-07T09:19:40Z</time>
      </trkpt>
      <trkpt lat="48.21618" lon="-3.1606">
        <ele>260</ele>
        <time>2016-03-07T09:19:43Z</time>
      </trkpt>
      <trkpt lat="48.21621" lon="-3.1606">
        <ele>261</ele>
        <time>2016-03-07T09:19:45Z</time>
      </trkpt>
      <trkpt lat="48.21624" lon="-3.1606">
        <ele>260</ele>
        <time>2016-03-07T09:19:48Z</time>
      </trkpt>
      <trkpt lat="48.21628" lon="-3.1606">
        <ele>260</ele>
        <time>2016-03-07T09:19:51Z</time>
      </trkpt>
      <trkpt lat="48.21631" lon="-3.1606">
        <ele>260</ele>
        <time>2016-03-07T09:19:53Z</time>
      </trkpt>
      <trkpt lat="48.21634" lon="-3.16059">
        <ele>260</ele>
        <time>2016-03-07T09:19:55Z</time>
      </trkpt>
      <trkpt lat="48.21638" lon="-3.16058">
        <ele>260</ele>
        <time>2016-03-07T09:19:58Z</time>
      </trkpt>
      <trkpt lat="48.21642" lon="-3.16058">
        <ele>260</ele>
        <time>2016-03-07T09:20:01Z</time>
      </trkpt>
      <trkpt lat="48.21644" lon="-3.16058">
        <ele>260</ele>
        <time>2016-03-07T09:20:03Z</time>
      </trkpt>
      <trkpt lat="48.21647" lon="-3.16058">
        <ele>260</ele>
        <time>2016-03-07T09:20:06Z</time>
      </trkpt>
      <trkpt lat="48.21651" lon="-3.16057">
        <ele>260</ele>
        <time>2016-03-07T09:20:09Z</time>
      </trkpt>
      <trkpt lat="48.21655" lon="-3.16055">
        <ele>260</ele>
        <time>2016-03-07T09:20:12Z</time>
      </trkpt>
      <trkpt lat="48.21658" lon="-3.16055">
        <ele>259</ele>
        <time>2016-03-07T09:20:14Z</time>
      </trkpt>
      <trkpt lat="48.21662" lon="-3.16054">
        <ele>259</ele>
        <time>2016-03-07T09:20:17Z</time>
      </trkpt>
      <trkpt lat="48.21665" lon="-3.16053">
        <ele>260</ele>
        <time>2016-03-07T09:20:20Z</time>
      </trkpt>
      <trkpt lat="48.21668" lon="-3.16051">
        <ele>259</ele>
        <time>2016-03-07T09:20:22Z</time>
      </trkpt>
      <trkpt lat="48.21672" lon="-3.16049">
        <ele>260</ele>
        <time>2016-03-07T09:20:25Z</time>
      </trkpt>
      <trkpt lat="48.21676" lon="-3.16048">
        <ele>259</ele>
        <time>2016-03-07T09:20:28Z</time>
      </trkpt>
      <trkpt lat="48.2168" lon="-3.16046">
        <ele>260</ele>
        <time>2016-03-07T09:20:31Z</time>
      </trkpt>
      <trkpt lat="48.21685" lon="-3.16045">
        <ele>260</ele>
        <time>2016-03-07T09:20:34Z</time>
      </trkpt>
      <trkpt lat="48.21688" lon="-3.16043">
        <ele>260</ele>
        <time>2016-03-07T09:20:37Z</time>
      </trkpt>
      <trkpt lat="48.21691" lon="-3.16042">
        <ele>260</ele>
        <time>2016-03-07T09:20:39Z</time>
      </trkpt>
      <trkpt lat="48.21695" lon="-3.1604">
        <ele>260</ele>
        <time>2016-03-07T09:20:42Z</time>
      </trkpt>
      <trkpt lat="48.21696" lon="-3.16039">
        <ele>259</ele>
        <time>2016-03-07T09:20:44Z</time>
      </trkpt>
      <trkpt lat="48.21699" lon="-3.16037">
        <ele>259</ele>
        <time>2016-03-07T09:20:46Z</time>
      </trkpt>
      <trkpt lat="48.21703" lon="-3.16035">
        <ele>259</ele>
        <time>2016-03-07T09:20:49Z</time>
      </trkpt>
      <trkpt lat="48.21706" lon="-3.16034">
        <ele>259</ele>
        <time>2016-03-07T09:20:51Z</time>
      </trkpt>
      <trkpt lat="48.21709" lon="-3.16032">
        <ele>260</ele>
        <time>2016-03-07T09:20:54Z</time>
      </trkpt>
      <trkpt lat="48.21714" lon="-3.16029">
        <ele>260</ele>
        <time>2016-03-07T09:20:57Z</time>
      </trkpt>
      <trkpt lat="48.21717" lon="-3.16027">
        <ele>260</ele>
        <time>2016-03-07T09:21:00Z</time>
      </trkpt>
      <trkpt lat="48.21721" lon="-3.16026">
        <ele>260</ele>
        <time>2016-03-07T09:21:03Z</time>
      </trkpt>
      <trkpt lat="48.21724" lon="-3.16025">
        <ele>260</ele>
        <time>2016-03-07T09:21:05Z</time>
      </trkpt>
      <trkpt lat="48.21727" lon="-3.16023">
        <ele>260</ele>
        <time>2016-03-07T09:21:07Z</time>
      </trkpt>
      <trkpt lat="48.21731" lon="-3.16021">
        <ele>259</ele>
        <time>2016-03-07T09:21:10Z</time>
      </trkpt>
      <trkpt lat="48.21733" lon="-3.1602">
        <ele>259</ele>
        <time>2016-03-07T09:21:12Z</time>
      </trkpt>
      <trkpt lat="48.21737" lon="-3.16019">
        <ele>259</ele>
        <time>2016-03-07T09:21:15Z</time>
      </trkpt>
      <trkpt lat="48.21739" lon="-3.16017">
        <ele>260</ele>
        <time>2016-03-07T09:21:17Z</time>
      </trkpt>
      <trkpt lat="48.21742" lon="-3.16016">
        <ele>260</ele>
        <time>2016-03-07T09:21:20Z</time>
      </trkpt>
      <trkpt lat="48.21746" lon="-3.16014">
        <ele>260</ele>
        <time>2016-03-07T09:21:23Z</time>
      </trkpt>
      <trkpt lat="48.21749" lon="-3.16013">
        <ele>260</ele>
        <time>2016-03-07T09:21:25Z</time>
      </trkpt>
      <trkpt lat="48.21753" lon="-3.16012">
        <ele>260</ele>
        <time>2016-03-07T09:21:28Z</time>
      </trkpt>
      <trkpt lat="48.21754" lon="-3.1601">
        <ele>260</ele>
        <time>2016-03-07T09:21:30Z</time>
      </trkpt>
      <trkpt lat="48.21756" lon="-3.1601">
        <ele>260</ele>
        <time>2016-03-07T09:21:32Z</time>
      </trkpt>
      <trkpt lat="48.21758" lon="-3.16009">
        <ele>260</ele>
        <time>2016-03-07T09:21:35Z</time>
      </trkpt>
      <trkpt lat="48.21761" lon="-3.16005">
        <ele>260</ele>
        <time>2016-03-07T09:21:38Z</time>
      </trkpt>
      <trkpt lat="48.21763" lon="-3.16003">
        <ele>260</ele>
        <time>2016-03-07T09:21:40Z</time>
      </trkpt>
      <trkpt lat="48.21766" lon="-3.16001">
        <ele>260</ele>
        <time>2016-03-07T09:21:43Z</time>
      </trkpt>
      <trkpt lat="48.2177" lon="-3.15998">
        <ele>260</ele>
        <time>2016-03-07T09:21:46Z</time>
      </trkpt>
      <trkpt lat="48.21772" lon="-3.15998">
        <ele>259</ele>
        <time>2016-03-07T09:21:48Z</time>
      </trkpt>
      <trkpt lat="48.21775" lon="-3.15996">
        <ele>259</ele>
        <time>2016-03-07T09:21:50Z</time>
      </trkpt>
      <trkpt lat="48.21778" lon="-3.15996">
        <ele>259</ele>
        <time>2016-03-07T09:21:53Z</time>
      </trkpt>
      <trkpt lat="48.21782" lon="-3.15994">
        <ele>259</ele>
        <time>2016-03-07T09:21:56Z</time>
      </trkpt>
      <trkpt lat="48.21785" lon="-3.15992">
        <ele>259</ele>
        <time>2016-03-07T09:21:58Z</time>
      </trkpt>
      <trkpt lat="48.21788" lon="-3.15991">
        <ele>259</ele>
        <time>2016-03-07T09:22:01Z</time>
      </trkpt>
      <trkpt lat="48.21791" lon="-3.1599">
        <ele>259</ele>
        <time>2016-03-07T09:22:03Z</time>
      </trkpt>
      <trkpt lat="48.21794" lon="-3.1599">
        <ele>259</ele>
        <time>2016-03-07T09:22:05Z</time>
      </trkpt>
      <trkpt lat="48.21798" lon="-3.15988">
        <ele>259</ele>
        <time>2016-03-07T09:22:08Z</time>
      </trkpt>
      <trkpt lat="48.21803" lon="-3.15987">
        <ele>259</ele>
        <time>2016-03-07T09:22:11Z</time>
      </trkpt>
      <trkpt lat="48.21808" lon="-3.15986">
        <ele>259</ele>
        <time>2016-03-07T09:22:14Z</time>
      </trkpt>
      <trkpt lat="48.21811" lon="-3.15985">
        <ele>259</ele>
        <time>2016-03-07T09:22:16Z</time>
      </trkpt>
      <trkpt lat="48.21814" lon="-3.15984">
        <ele>259</ele>
        <time>2016-03-07T09:22:19Z</time>
      </trkpt>
      <trkpt lat="48.21818" lon="-3.15982">
        <ele>259</ele>
        <time>2016-03-07T09:22:22Z</time>
      </trkpt>
      <trkpt lat="48.2182" lon="-3.15981">
        <ele>259</ele>
        <time>2016-03-07T09:22:24Z</time>
      </trkpt>
      <trkpt lat="48.21824" lon="-3.1598">
        <ele>260</ele>
        <time>2016-03-07T09:22:27Z</time>
      </trkpt>
      <trkpt lat="48.21827" lon="-3.15979">
        <ele>260</ele>
        <time>2016-03-07T09:22:30Z</time>
      </trkpt>
      <trkpt lat="48.2183" lon="-3.15977">
        <ele>260</ele>
        <time>2016-03-07T09:22:33Z</time>
      </trkpt>
      <trkpt lat="48.21833" lon="-3.15976">
        <ele>259</ele>
        <time>2016-03-07T09:22:36Z</time>
      </trkpt>
      <trkpt lat="48.21836" lon="-3.15975">
        <ele>259</ele>
        <time>2016-03-07T09:22:39Z</time>
      </trkpt>
      <trkpt lat="48.21839" lon="-3.15974">
        <ele>259</ele>
        <time>2016-03-07T09:22:42Z</time>
      </trkpt>
      <trkpt lat="48.21841" lon="-3.15974">
        <ele>259</ele>
        <time>2016-03-07T09:22:44Z</time>
      </trkpt>
      <trkpt lat="48.21844" lon="-3.15974">
        <ele>259</ele>
        <time>2016-03-07T09:22:47Z</time>
      </trkpt>
      <trkpt lat="48.21848" lon="-3.15974">
        <ele>259</ele>
        <time>2016-03-07T09:22:50Z</time>
      </trkpt>
      <trkpt lat="48.21851" lon="-3.15973">
        <ele>259</ele>
        <time>2016-03-07T09:22:53Z</time>
      </trkpt>
      <trkpt lat="48.21855" lon="-3.15972">
        <ele>259</ele>
        <time>2016-03-07T09:22:56Z</time>
      </trkpt>
      <trkpt lat="48.21859" lon="-3.15972">
        <ele>259</ele>
        <time>2016-03-07T09:22:59Z</time>
      </trkpt>
      <trkpt lat="48.21862" lon="-3.15972">
        <ele>259</ele>
        <time>2016-03-07T09:23:02Z</time>
      </trkpt>
      <trkpt lat="48.21865" lon="-3.15971">
        <ele>260</ele>
        <time>2016-03-07T09:23:04Z</time>
      </trkpt>
      <trkpt lat="48.21867" lon="-3.15971">
        <ele>259</ele>
        <time>2016-03-07T09:23:07Z</time>
      </trkpt>
      <trkpt lat="48.2187" lon="-3.15971">
        <ele>259</ele>
        <time>2016-03-07T09:23:09Z</time>
      </trkpt>
      <trkpt lat="48.21872" lon="-3.15971">
        <ele>259</ele>
        <time>2016-03-07T09:23:11Z</time>
      </trkpt>
      <trkpt lat="48.21875" lon="-3.15971">
        <ele>259</ele>
        <time>2016-03-07T09:23:14Z</time>
      </trkpt>
      <trkpt lat="48.21877" lon="-3.15971">
        <ele>259</ele>
        <time>2016-03-07T09:23:16Z</time>
      </trkpt>
      <trkpt lat="48.21879" lon="-3.15971">
        <ele>259</ele>
        <time>2016-03-07T09:23:18Z</time>
      </trkpt>
      <trkpt lat="48.21881" lon="-3.15969">
        <ele>259</ele>
        <time>2016-03-07T09:23:21Z</time>
      </trkpt>
      <trkpt lat="48.21885" lon="-3.15969">
        <ele>259</ele>
        <time>2016-03-07T09:23:24Z</time>
      </trkpt>
      <trkpt lat="48.21887" lon="-3.15967">
        <ele>259</ele>
        <time>2016-03-07T09:23:26Z</time>
      </trkpt>
      <trkpt lat="48.21891" lon="-3.15966">
        <ele>259</ele>
        <time>2016-03-07T09:23:29Z</time>
      </trkpt>
      <trkpt lat="48.21893" lon="-3.15965">
        <ele>259</ele>
        <time>2016-03-07T09:23:31Z</time>
      </trkpt>
      <trkpt lat="48.21896" lon="-3.15964">
        <ele>259</ele>
        <time>2016-03-07T09:23:34Z</time>
      </trkpt>
      <trkpt lat="48.21897" lon="-3.15962">
        <ele>259</ele>
        <time>2016-03-07T09:23:37Z</time>
      </trkpt>
      <trkpt lat="48.21897" lon="-3.15962">
        <ele>259</ele>
        <time>2016-03-07T09:23:39Z</time>
      </trkpt>
      <trkpt lat="48.21897" lon="-3.15961">
        <ele>259</ele>
        <time>2016-03-07T09:23:41Z</time>
      </trkpt>
      <trkpt lat="48.21899" lon="-3.1596">
        <ele>259</ele>
        <time>2016-03-07T09:23:44Z</time>
      </trkpt>
      <trkpt lat="48.21901" lon="-3.1596">
        <ele>259</ele>
        <time>2016-03-07T09:23:46Z</time>
      </trkpt>
      <trkpt lat="48.21903" lon="-3.15959">
        <ele>259</ele>
        <time>2016-03-07T09:23:49Z</time>
      </trkpt>
      <trkpt lat="48.21906" lon="-3.15959">
        <ele>259</ele>
        <time>2016-03-07T09:23:52Z</time>
      </trkpt>
      <trkpt lat="48.21908" lon="-3.15959">
        <ele>259</ele>
        <time>2016-03-07T09:23:54Z</time>
      </trkpt>
      <trkpt lat="48.2191" lon="-3.15958">
        <ele>259</ele>
        <time>2016-03-07T09:23:57Z</time>
      </trkpt>
      <trkpt lat="48.2191" lon="-3.15959">
        <ele>260</ele>
        <time>2016-03-07T09:23:59Z</time>
      </trkpt>
      <trkpt lat="48.21912" lon="-3.1596">
        <ele>260</ele>
        <time>2016-03-07T09:24:01Z</time>
      </trkpt>
      <trkpt lat="48.21915" lon="-3.15961">
        <ele>260</ele>
        <time>2016-03-07T09:24:04Z</time>
      </trkpt>
      <trkpt lat="48.21918" lon="-3.15961">
        <ele>259</ele>
        <time>2016-03-07T09:24:07Z</time>
      </trkpt>
      <trkpt lat="48.2192" lon="-3.15961">
        <ele>259</ele>
        <time>2016-03-07T09:24:10Z</time>
      </trkpt>
      <trkpt lat="48.21921" lon="-3.15961">
        <ele>259</ele>
        <time>2016-03-07T09:24:12Z</time>
      </trkpt>
      <trkpt lat="48.21923" lon="-3.15962">
        <ele>260</ele>
        <time>2016-03-07T09:24:15Z</time>
      </trkpt>
      <trkpt lat="48.21926" lon="-3.15962">
        <ele>260</ele>
        <time>2016-03-07T09:24:18Z</time>
      </trkpt>
      <trkpt lat="48.21929" lon="-3.15963">
        <ele>260</ele>
        <time>2016-03-07T09:24:21Z</time>
      </trkpt>
      <trkpt lat="48.21931" lon="-3.15965">
        <ele>260</ele>
        <time>2016-03-07T09:24:23Z</time>
      </trkpt>
      <trkpt lat="48.21934" lon="-3.15966">
        <ele>260</ele>
        <time>2016-03-07T09:24:26Z</time>
      </trkpt>
      <trkpt lat="48.21937" lon="-3.15967">
        <ele>260</ele>
        <time>2016-03-07T09:24:29Z</time>
      </trkpt>
      <trkpt lat="48.2194" lon="-3.15968">
        <ele>260</ele>
        <time>2016-03-07T09:24:32Z</time>
      </trkpt>
      <trkpt lat="48.21942" lon="-3.15969">
        <ele>260</ele>
        <time>2016-03-07T09:24:34Z</time>
      </trkpt>
      <trkpt lat="48.21945" lon="-3.15971">
        <ele>260</ele>
        <time>2016-03-07T09:24:37Z</time>
      </trkpt>
      <trkpt lat="48.21948" lon="-3.15972">
        <ele>260</ele>
        <time>2016-03-07T09:24:40Z</time>
      </trkpt>
      <trkpt lat="48.2195" lon="-3.15974">
        <ele>261</ele>
        <time>2016-03-07T09:24:42Z</time>
      </trkpt>
      <trkpt lat="48.21952" lon="-3.15976">
        <ele>261</ele>
        <time>2016-03-07T09:24:45Z</time>
      </trkpt>
      <trkpt lat="48.21955" lon="-3.15978">
        <ele>261</ele>
        <time>2016-03-07T09:24:48Z</time>
      </trkpt>
      <trkpt lat="48.21958" lon="-3.1598">
        <ele>261</ele>
        <time>2016-03-07T09:24:51Z</time>
      </trkpt>
      <trkpt lat="48.21959" lon="-3.15982">
        <ele>261</ele>
        <time>2016-03-07T09:24:53Z</time>
      </trkpt>
      <trkpt lat="48.2196" lon="-3.15984">
        <ele>261</ele>
        <time>2016-03-07T09:24:56Z</time>
      </trkpt>
      <trkpt lat="48.21961" lon="-3.15985">
        <ele>261</ele>
        <time>2016-03-07T09:24:59Z</time>
      </trkpt>
      <trkpt lat="48.21962" lon="-3.15986">
        <ele>261</ele>
        <time>2016-03-07T09:25:02Z</time>
      </trkpt>
      <trkpt lat="48.21963" lon="-3.15985">
        <ele>261</ele>
        <time>2016-03-07T09:25:05Z</time>
      </trkpt>
      <trkpt lat="48.21965" lon="-3.15983">
        <ele>261</ele>
        <time>2016-03-07T09:25:07Z</time>
      </trkpt>
      <trkpt lat="48.21967" lon="-3.1598">
        <ele>261</ele>
        <time>2016-03-07T09:25:10Z</time>
      </trkpt>
      <trkpt lat="48.21968" lon="-3.15978">
        <ele>261</ele>
        <time>2016-03-07T09:25:13Z</time>
      </trkpt>
      <trkpt lat="48.21969" lon="-3.15975">
        <ele>261</ele>
        <time>2016-03-07T09:25:15Z</time>
      </trkpt>
      <trkpt lat="48.21971" lon="-3.15971">
        <ele>261</ele>
        <time>2016-03-07T09:25:18Z</time>
      </trkpt>
      <trkpt lat="48.21971" lon="-3.15969">
        <ele>261</ele>
        <time>2016-03-07T09:25:20Z</time>
      </trkpt>
      <trkpt lat="48.21972" lon="-3.15966">
        <ele>262</ele>
        <time>2016-03-07T09:25:23Z</time>
      </trkpt>
      <trkpt lat="48.21973" lon="-3.15965">
        <ele>262</ele>
        <time>2016-03-07T09:25:26Z</time>
      </trkpt>
      <trkpt lat="48.21975" lon="-3.15966">
        <ele>262</ele>
        <time>2016-03-07T09:25:29Z</time>
      </trkpt>
      <trkpt lat="48.21977" lon="-3.15968">
        <ele>262</ele>
        <time>2016-03-07T09:25:32Z</time>
      </trkpt>
      <trkpt lat="48.21979" lon="-3.15968">
        <ele>262</ele>
        <time>2016-03-07T09:25:35Z</time>
      </trkpt>
      <trkpt lat="48.2198" lon="-3.15968">
        <ele>262</ele>
        <time>2016-03-07T09:25:37Z</time>
      </trkpt>
      <trkpt lat="48.21982" lon="-3.15966">
        <ele>262</ele>
        <time>2016-03-07T09:25:39Z</time>
      </trkpt>
      <trkpt lat="48.21983" lon="-3.15965">
        <ele>262</ele>
        <time>2016-03-07T09:25:42Z</time>
      </trkpt>
      <trkpt lat="48.21983" lon="-3.15967">
        <ele>261</ele>
        <time>2016-03-07T09:25:45Z</time>
      </trkpt>
      <trkpt lat="48.21982" lon="-3.15968">
        <ele>261</ele>
        <time>2016-03-07T09:25:47Z</time>
      </trkpt>
      <trkpt lat="48.21981" lon="-3.1597">
        <ele>261</ele>
        <time>2016-03-07T09:25:50Z</time>
      </trkpt>
      <trkpt lat="48.21979" lon="-3.15973">
        <ele>261</ele>
        <time>2016-03-07T09:25:52Z</time>
      </trkpt>
      <trkpt lat="48.21977" lon="-3.15975">
        <ele>261</ele>
        <time>2016-03-07T09:25:55Z</time>
      </trkpt>
      <trkpt lat="48.21976" lon="-3.15977">
        <ele>261</ele>
        <time>2016-03-07T09:25:57Z</time>
      </trkpt>
      <trkpt lat="48.21975" lon="-3.15977">
        <ele>261</ele>
        <time>2016-03-07T09:26:00Z</time>
      </trkpt>
      <trkpt lat="48.21974" lon="-3.15976">
        <ele>261</ele>
        <time>2016-03-07T09:26:02Z</time>
      </trkpt>
      <trkpt lat="48.21973" lon="-3.15974">
        <ele>261</ele>
        <time>2016-03-07T09:26:04Z</time>
      </trkpt>
      <trkpt lat="48.21973" lon="-3.15969">
        <ele>261</ele>
        <time>2016-03-07T09:26:07Z</time>
      </trkpt>
      <trkpt lat="48.21974" lon="-3.15966">
        <ele>261</ele>
        <time>2016-03-07T09:26:10Z</time>
      </trkpt>
      <trkpt lat="48.21974" lon="-3.15963">
        <ele>262</ele>
        <time>2016-03-07T09:26:12Z</time>
      </trkpt>
      <trkpt lat="48.21974" lon="-3.15959">
        <ele>262</ele>
        <time>2016-03-07T09:26:15Z</time>
      </trkpt>
      <trkpt lat="48.21975" lon="-3.15957">
        <ele>263</ele>
        <time>2016-03-07T09:26:18Z</time>
      </trkpt>
      <trkpt lat="48.21974" lon="-3.15955">
        <ele>264</ele>
        <time>2016-03-07T09:26:20Z</time>
      </trkpt>
      <trkpt lat="48.21974" lon="-3.15954">
        <ele>264</ele>
        <time>2016-03-07T09:26:22Z</time>
      </trkpt>
      <trkpt lat="48.21974" lon="-3.15953">
        <ele>264</ele>
        <time>2016-03-07T09:26:25Z</time>
      </trkpt>
      <trkpt lat="48.21974" lon="-3.1595">
        <ele>264</ele>
        <time>2016-03-07T09:26:27Z</time>
      </trkpt>
      <trkpt lat="48.21975" lon="-3.15946">
        <ele>264</ele>
        <time>2016-03-07T09:26:30Z</time>
      </trkpt>
      <trkpt lat="48.21974" lon="-3.15943">
        <ele>264</ele>
        <time>2016-03-07T09:26:32Z</time>
      </trkpt>
      <trkpt lat="48.21973" lon="-3.15941">
        <ele>265</ele>
        <time>2016-03-07T09:26:34Z</time>
      </trkpt>
      <trkpt lat="48.21973" lon="-3.15938">
        <ele>265</ele>
        <time>2016-03-07T09:26:36Z</time>
      </trkpt>
      <trkpt lat="48.21971" lon="-3.15932">
        <ele>266</ele>
        <time>2016-03-07T09:26:39Z</time>
      </trkpt>
      <trkpt lat="48.2197" lon="-3.15926">
        <ele>266</ele>
        <time>2016-03-07T09:26:42Z</time>
      </trkpt>
      <trkpt lat="48.2197" lon="-3.15922">
        <ele>266</ele>
        <time>2016-03-07T09:26:45Z</time>
      </trkpt>
      <trkpt lat="48.21969" lon="-3.15919">
        <ele>266</ele>
        <time>2016-03-07T09:26:47Z</time>
      </trkpt>
      <trkpt lat="48.21969" lon="-3.15916">
        <ele>266</ele>
        <time>2016-03-07T09:26:49Z</time>
      </trkpt>
      <trkpt lat="48.21969" lon="-3.15913">
        <ele>267</ele>
        <time>2016-03-07T09:26:52Z</time>
      </trkpt>
      <trkpt lat="48.21969" lon="-3.15911">
        <ele>268</ele>
        <time>2016-03-07T09:26:54Z</time>
      </trkpt>
      <trkpt lat="48.21969" lon="-3.15908">
        <ele>268</ele>
        <time>2016-03-07T09:26:57Z</time>
      </trkpt>
      <trkpt lat="48.21969" lon="-3.15906">
        <ele>268</ele>
        <time>2016-03-07T09:26:59Z</time>
      </trkpt>
      <trkpt lat="48.21969" lon="-3.15904">
        <ele>268</ele>
        <time>2016-03-07T09:27:01Z</time>
      </trkpt>
      <trkpt lat="48.21967" lon="-3.15902">
        <ele>269</ele>
        <time>2016-03-07T09:27:04Z</time>
      </trkpt>
      <trkpt lat="48.21966" lon="-3.15902">
        <ele>269</ele>
        <time>2016-03-07T09:27:06Z</time>
      </trkpt>
      <trkpt lat="48.21965" lon="-3.159">
        <ele>270</ele>
        <time>2016-03-07T09:27:09Z</time>
      </trkpt>
      <trkpt lat="48.21964" lon="-3.15898">
        <ele>270</ele>
        <time>2016-03-07T09:27:12Z</time>
      </trkpt>
      <trkpt lat="48.21961" lon="-3.15898">
        <ele>270</ele>
        <time>2016-03-07T09:27:15Z</time>
      </trkpt>
      <trkpt lat="48.21958" lon="-3.15896">
        <ele>270</ele>
        <time>2016-03-07T09:27:18Z</time>
      </trkpt>
      <trkpt lat="48.21955" lon="-3.15894">
        <ele>271</ele>
        <time>2016-03-07T09:27:21Z</time>
      </trkpt>
      <trkpt lat="48.21952" lon="-3.15893">
        <ele>271</ele>
        <time>2016-03-07T09:27:24Z</time>
      </trkpt>
      <trkpt lat="48.21951" lon="-3.15892">
        <ele>271</ele>
        <time>2016-03-07T09:27:26Z</time>
      </trkpt>
      <trkpt lat="48.21949" lon="-3.15891">
        <ele>272</ele>
        <time>2016-03-07T09:27:28Z</time>
      </trkpt>
      <trkpt lat="48.21947" lon="-3.1589">
        <ele>272</ele>
        <time>2016-03-07T09:27:31Z</time>
      </trkpt>
      <trkpt lat="48.21944" lon="-3.15889">
        <ele>272</ele>
        <time>2016-03-07T09:27:34Z</time>
      </trkpt>
      <trkpt lat="48.21942" lon="-3.15888">
        <ele>272</ele>
        <time>2016-03-07T09:27:36Z</time>
      </trkpt>
      <trkpt lat="48.21941" lon="-3.15887">
        <ele>272</ele>
        <time>2016-03-07T09:27:38Z</time>
      </trkpt>
      <trkpt lat="48.21938" lon="-3.15885">
        <ele>272</ele>
        <time>2016-03-07T09:27:41Z</time>
      </trkpt>
      <trkpt lat="48.21935" lon="-3.15885">
        <ele>273</ele>
        <time>2016-03-07T09:27:44Z</time>
      </trkpt>
      <trkpt lat="48.21932" lon="-3.15884">
        <ele>274</ele>
        <time>2016-03-07T09:27:47Z</time>
      </trkpt>
      <trkpt lat="48.21931" lon="-3.15884">
        <ele>274</ele>
        <time>2016-03-07T09:27:49Z</time>
      </trkpt>
      <trkpt lat="48.21929" lon="-3.15884">
        <ele>274</ele>
        <time>2016-03-07T09:27:52Z</time>
      </trkpt>
      <trkpt lat="48.21928" lon="-3.15883">
        <ele>274</ele>
        <time>2016-03-07T09:27:54Z</time>
      </trkpt>
      <trkpt lat="48.21927" lon="-3.1588">
        <ele>274</ele>
        <time>2016-03-07T09:27:57Z</time>
      </trkpt>
      <trkpt lat="48.21926" lon="-3.15878">
        <ele>275</ele>
        <time>2016-03-07T09:28:00Z</time>
      </trkpt>
      <trkpt lat="48.21927" lon="-3.15875">
        <ele>275</ele>
        <time>2016-03-07T09:28:03Z</time>
      </trkpt>
      <trkpt lat="48.21928" lon="-3.15873">
        <ele>276</ele>
        <time>2016-03-07T09:28:06Z</time>
      </trkpt>
      <trkpt lat="48.21929" lon="-3.1587">
        <ele>276</ele>
        <time>2016-03-07T09:28:09Z</time>
      </trkpt>
      <trkpt lat="48.2193" lon="-3.15867">
        <ele>277</ele>
        <time>2016-03-07T09:28:12Z</time>
      </trkpt>
      <trkpt lat="48.21931" lon="-3.15864">
        <ele>277</ele>
        <time>2016-03-07T09:28:15Z</time>
      </trkpt>
      <trkpt lat="48.21933" lon="-3.15862">
        <ele>277</ele>
        <time>2016-03-07T09:28:18Z</time>
      </trkpt>
      <trkpt lat="48.21934" lon="-3.1586">
        <ele>278</ele>
        <time>2016-03-07T09:28:21Z</time>
      </trkpt>
      <trkpt lat="48.21935" lon="-3.15858">
        <ele>278</ele>
        <time>2016-03-07T09:28:23Z</time>
      </trkpt>
      <trkpt lat="48.21935" lon="-3.15856">
        <ele>278</ele>
        <time>2016-03-07T09:28:25Z</time>
      </trkpt>
      <trkpt lat="48.21934" lon="-3.15853">
        <ele>279</ele>
        <time>2016-03-07T09:28:28Z</time>
      </trkpt>
      <trkpt lat="48.21933" lon="-3.15852">
        <ele>279</ele>
        <time>2016-03-07T09:28:30Z</time>
      </trkpt>
      <trkpt lat="48.21931" lon="-3.15852">
        <ele>279</ele>
        <time>2016-03-07T09:28:33Z</time>
      </trkpt>
      <trkpt lat="48.21928" lon="-3.15852">
        <ele>280</ele>
        <time>2016-03-07T09:28:36Z</time>
      </trkpt>
      <trkpt lat="48.21927" lon="-3.15852">
        <ele>280</ele>
        <time>2016-03-07T09:28:38Z</time>
      </trkpt>
      <trkpt lat="48.21925" lon="-3.15853">
        <ele>280</ele>
        <time>2016-03-07T09:28:41Z</time>
      </trkpt>
      <trkpt lat="48.21923" lon="-3.15852">
        <ele>281</ele>
        <time>2016-03-07T09:28:44Z</time>
      </trkpt>
      <trkpt lat="48.2192" lon="-3.15854">
        <ele>281</ele>
        <time>2016-03-07T09:28:47Z</time>
      </trkpt>
      <trkpt lat="48.21917" lon="-3.15855">
        <ele>281</ele>
        <time>2016-03-07T09:28:50Z</time>
      </trkpt>
      <trkpt lat="48.21914" lon="-3.15856">
        <ele>282</ele>
        <time>2016-03-07T09:28:53Z</time>
      </trkpt>
      <trkpt lat="48.21911" lon="-3.15857">
        <ele>282</ele>
        <time>2016-03-07T09:28:56Z</time>
      </trkpt>
      <trkpt lat="48.21909" lon="-3.15857">
        <ele>282</ele>
        <time>2016-03-07T09:28:58Z</time>
      </trkpt>
      <trkpt lat="48.21906" lon="-3.15857">
        <ele>282</ele>
        <time>2016-03-07T09:29:01Z</time>
      </trkpt>
      <trkpt lat="48.21903" lon="-3.15857">
        <ele>282</ele>
        <time>2016-03-07T09:29:03Z</time>
      </trkpt>
      <trkpt lat="48.219" lon="-3.15857">
        <ele>282</ele>
        <time>2016-03-07T09:29:06Z</time>
      </trkpt>
      <trkpt lat="48.21899" lon="-3.1586">
        <ele>282</ele>
        <time>2016-03-07T09:29:09Z</time>
      </trkpt>
      <trkpt lat="48.21896" lon="-3.15863">
        <ele>282</ele>
        <time>2016-03-07T09:29:12Z</time>
      </trkpt>
      <trkpt lat="48.21893" lon="-3.15865">
        <ele>282</ele>
        <time>2016-03-07T09:29:15Z</time>
      </trkpt>
      <trkpt lat="48.21891" lon="-3.15866">
        <ele>282</ele>
        <time>2016-03-07T09:29:17Z</time>
      </trkpt>
      <trkpt lat="48.21887" lon="-3.15868">
        <ele>281</ele>
        <time>2016-03-07T09:29:20Z</time>
      </trkpt>
      <trkpt lat="48.21885" lon="-3.1587">
        <ele>281</ele>
        <time>2016-03-07T09:29:22Z</time>
      </trkpt>
      <trkpt lat="48.21882" lon="-3.15873">
        <ele>281</ele>
        <time>2016-03-07T09:29:25Z</time>
      </trkpt>
      <trkpt lat="48.2188" lon="-3.15875">
        <ele>281</ele>
        <time>2016-03-07T09:29:27Z</time>
      </trkpt>
      <trkpt lat="48.21878" lon="-3.15874">
        <ele>281</ele>
        <time>2016-03-07T09:29:29Z</time>
      </trkpt>
      <trkpt lat="48.21876" lon="-3.15872">
        <ele>281</ele>
        <time>2016-03-07T09:29:32Z</time>
      </trkpt>
      <trkpt lat="48.21875" lon="-3.15871">
        <ele>281</ele>
        <time>2016-03-07T09:29:34Z</time>
      </trkpt>
      <trkpt lat="48.21875" lon="-3.15869">
        <ele>282</ele>
        <time>2016-03-07T09:29:36Z</time>
      </trkpt>
      <trkpt lat="48.21875" lon="-3.15866">
        <ele>282</ele>
        <time>2016-03-07T09:29:39Z</time>
      </trkpt>
      <trkpt lat="48.21875" lon="-3.15864">
        <ele>283</ele>
        <time>2016-03-07T09:29:41Z</time>
      </trkpt>
      <trkpt lat="48.21874" lon="-3.15862">
        <ele>283</ele>
        <time>2016-03-07T09:29:44Z</time>
      </trkpt>
      <trkpt lat="48.21875" lon="-3.15861">
        <ele>283</ele>
        <time>2016-03-07T09:29:47Z</time>
      </trkpt>
      <trkpt lat="48.21877" lon="-3.15859">
        <ele>284</ele>
        <time>2016-03-07T09:29:50Z</time>
      </trkpt>
      <trkpt lat="48.21878" lon="-3.15857">
        <ele>285</ele>
        <time>2016-03-07T09:29:53Z</time>
      </trkpt>
      <trkpt lat="48.21878" lon="-3.15854">
        <ele>286</ele>
        <time>2016-03-07T09:29:56Z</time>
      </trkpt>
      <trkpt lat="48.21879" lon="-3.15852">
        <ele>286</ele>
        <time>2016-03-07T09:29:58Z</time>
      </trkpt>
      <trkpt lat="48.2188" lon="-3.1585">
        <ele>287</ele>
        <time>2016-03-07T09:30:01Z</time>
      </trkpt>
      <trkpt lat="48.21881" lon="-3.15848">
        <ele>287</ele>
        <time>2016-03-07T09:30:03Z</time>
      </trkpt>
      <trkpt lat="48.21883" lon="-3.15845">
        <ele>287</ele>
        <time>2016-03-07T09:30:06Z</time>
      </trkpt>
      <trkpt lat="48.21884" lon="-3.15843">
        <ele>287</ele>
        <time>2016-03-07T09:30:09Z</time>
      </trkpt>
      <trkpt lat="48.21885" lon="-3.1584">
        <ele>287</ele>
        <time>2016-03-07T09:30:12Z</time>
      </trkpt>
      <trkpt lat="48.21887" lon="-3.15838">
        <ele>288</ele>
        <time>2016-03-07T09:30:15Z</time>
      </trkpt>
      <trkpt lat="48.21889" lon="-3.15834">
        <ele>288</ele>
        <time>2016-03-07T09:30:18Z</time>
      </trkpt>
      <trkpt lat="48.2189" lon="-3.1583">
        <ele>288</ele>
        <time>2016-03-07T09:30:21Z</time>
      </trkpt>
      <trkpt lat="48.21891" lon="-3.15828">
        <ele>289</ele>
        <time>2016-03-07T09:30:23Z</time>
      </trkpt>
      <trkpt lat="48.21893" lon="-3.15824">
        <ele>290</ele>
        <time>2016-03-07T09:30:26Z</time>
      </trkpt>
      <trkpt lat="48.21894" lon="-3.15821">
        <ele>290</ele>
        <time>2016-03-07T09:30:29Z</time>
      </trkpt>
      <trkpt lat="48.21894" lon="-3.15819">
        <ele>290</ele>
        <time>2016-03-07T09:30:31Z</time>
      </trkpt>
      <trkpt lat="48.21893" lon="-3.15817">
        <ele>290</ele>
        <time>2016-03-07T09:30:33Z</time>
      </trkpt>
      <trkpt lat="48.21892" lon="-3.15814">
        <ele>290</ele>
        <time>2016-03-07T09:30:35Z</time>
      </trkpt>
      <trkpt lat="48.2189" lon="-3.15813">
        <ele>291</ele>
        <time>2016-03-07T09:30:38Z</time>
      </trkpt>
      <trkpt lat="48.21888" lon="-3.15814">
        <ele>292</ele>
        <time>2016-03-07T09:30:40Z</time>
      </trkpt>
      <trkpt lat="48.21885" lon="-3.15816">
        <ele>292</ele>
        <time>2016-03-07T09:30:43Z</time>
      </trkpt>
      <trkpt lat="48.21883" lon="-3.15817">
        <ele>293</ele>
        <time>2016-03-07T09:30:45Z</time>
      </trkpt>
      <trkpt lat="48.21881" lon="-3.15814">
        <ele>293</ele>
        <time>2016-03-07T09:30:47Z</time>
      </trkpt>
      <trkpt lat="48.21881" lon="-3.15809">
        <ele>294</ele>
        <time>2016-03-07T09:30:50Z</time>
      </trkpt>
      <trkpt lat="48.21881" lon="-3.15807">
        <ele>295</ele>
        <time>2016-03-07T09:30:52Z</time>
      </trkpt>
      <trkpt lat="48.21878" lon="-3.15807">
        <ele>295</ele>
        <time>2016-03-07T09:30:55Z</time>
      </trkpt>
      <trkpt lat="48.21875" lon="-3.15808">
        <ele>296</ele>
        <time>2016-03-07T09:30:58Z</time>
      </trkpt>
      <trkpt lat="48.21873" lon="-3.15808">
        <ele>296</ele>
        <time>2016-03-07T09:31:01Z</time>
      </trkpt>
      <trkpt lat="48.21871" lon="-3.1581">
        <ele>296</ele>
        <time>2016-03-07T09:31:03Z</time>
      </trkpt>
      <trkpt lat="48.21869" lon="-3.15813">
        <ele>296</ele>
        <time>2016-03-07T09:31:06Z</time>
      </trkpt>
      <trkpt lat="48.21867" lon="-3.15815">
        <ele>296</ele>
        <time>2016-03-07T09:31:08Z</time>
      </trkpt>
      <trkpt lat="48.21865" lon="-3.15816">
        <ele>296</ele>
        <time>2016-03-07T09:31:10Z</time>
      </trkpt>
      <trkpt lat="48.21864" lon="-3.15816">
        <ele>297</ele>
        <time>2016-03-07T09:31:13Z</time>
      </trkpt>
      <trkpt lat="48.21864" lon="-3.15815">
        <ele>297</ele>
        <time>2016-03-07T09:31:17Z</time>
      </trkpt>
      <trkpt lat="48.21864" lon="-3.15814">
        <ele>298</ele>
        <time>2016-03-07T09:31:19Z</time>
      </trkpt>
      <trkpt lat="48.21865" lon="-3.15814">
        <ele>298</ele>
        <time>2016-03-07T09:31:22Z</time>
      </trkpt>
      <trkpt lat="48.21866" lon="-3.1581">
        <ele>298</ele>
        <time>2016-03-07T09:31:25Z</time>
      </trkpt>
      <trkpt lat="48.21867" lon="-3.15807">
        <ele>298</ele>
        <time>2016-03-07T09:31:27Z</time>
      </trkpt>
      <trkpt lat="48.21868" lon="-3.15804">
        <ele>298</ele>
        <time>2016-03-07T09:31:29Z</time>
      </trkpt>
      <trkpt lat="48.21868" lon="-3.158">
        <ele>299</ele>
        <time>2016-03-07T09:31:32Z</time>
      </trkpt>
      <trkpt lat="48.21867" lon="-3.15798">
        <ele>299</ele>
        <time>2016-03-07T09:31:35Z</time>
      </trkpt>
      <trkpt lat="48.21867" lon="-3.15796">
        <ele>300</ele>
        <time>2016-03-07T09:31:38Z</time>
      </trkpt>
      <trkpt lat="48.21867" lon="-3.15792">
        <ele>301</ele>
        <time>2016-03-07T09:31:41Z</time>
      </trkpt>
      <trkpt lat="48.21867" lon="-3.15789">
        <ele>301</ele>
        <time>2016-03-07T09:31:43Z</time>
      </trkpt>
      <trkpt lat="48.21867" lon="-3.15785">
        <ele>301</ele>
        <time>2016-03-07T09:31:46Z</time>
      </trkpt>
      <trkpt lat="48.21865" lon="-3.15784">
        <ele>301</ele>
        <time>2016-03-07T09:31:49Z</time>
      </trkpt>
      <trkpt lat="48.21864" lon="-3.15784">
        <ele>302</ele>
        <time>2016-03-07T09:31:52Z</time>
      </trkpt>
      <trkpt lat="48.21864" lon="-3.15784">
        <ele>302</ele>
        <time>2016-03-07T09:31:54Z</time>
      </trkpt>
      <trkpt lat="48.21863" lon="-3.15785">
        <ele>302</ele>
        <time>2016-03-07T09:31:57Z</time>
      </trkpt>
      <trkpt lat="48.21863" lon="-3.15785">
        <ele>302</ele>
        <time>2016-03-07T09:31:59Z</time>
      </trkpt>
      <trkpt lat="48.21862" lon="-3.15785">
        <ele>302</ele>
        <time>2016-03-07T09:32:01Z</time>
      </trkpt>
      <trkpt lat="48.21862" lon="-3.15785">
        <ele>302</ele>
        <time>2016-03-07T09:32:04Z</time>
      </trkpt>
      <trkpt lat="48.21862" lon="-3.15786">
        <ele>302</ele>
        <time>2016-03-07T09:32:08Z</time>
      </trkpt>
      <trkpt lat="48.21861" lon="-3.15787">
        <ele>302</ele>
        <time>2016-03-07T09:32:11Z</time>
      </trkpt>
      <trkpt lat="48.2186" lon="-3.15788">
        <ele>302</ele>
        <time>2016-03-07T09:32:13Z</time>
      </trkpt>
      <trkpt lat="48.21858" lon="-3.15791">
        <ele>302</ele>
        <time>2016-03-07T09:32:15Z</time>
      </trkpt>
      <trkpt lat="48.21857" lon="-3.15793">
        <ele>302</ele>
        <time>2016-03-07T09:32:17Z</time>
      </trkpt>
      <trkpt lat="48.21855" lon="-3.15795">
        <ele>302</ele>
        <time>2016-03-07T09:32:20Z</time>
      </trkpt>
      <trkpt lat="48.21853" lon="-3.158">
        <ele>303</ele>
        <time>2016-03-07T09:32:23Z</time>
      </trkpt>
      <trkpt lat="48.21851" lon="-3.15804">
        <ele>303</ele>
        <time>2016-03-07T09:32:26Z</time>
      </trkpt>
      <trkpt lat="48.21849" lon="-3.15807">
        <ele>304</ele>
        <time>2016-03-07T09:32:29Z</time>
      </trkpt>
      <trkpt lat="48.21848" lon="-3.15809">
        <ele>304</ele>
        <time>2016-03-07T09:32:31Z</time>
      </trkpt>
      <trkpt lat="48.21846" lon="-3.15812">
        <ele>304</ele>
        <time>2016-03-07T09:32:34Z</time>
      </trkpt>
      <trkpt lat="48.21845" lon="-3.15814">
        <ele>305</ele>
        <time>2016-03-07T09:32:36Z</time>
      </trkpt>
      <trkpt lat="48.21843" lon="-3.15815">
        <ele>306</ele>
        <time>2016-03-07T09:32:39Z</time>
      </trkpt>
      <trkpt lat="48.21842" lon="-3.15814">
        <ele>307</ele>
        <time>2016-03-07T09:32:42Z</time>
      </trkpt>
      <trkpt lat="48.2184" lon="-3.15815">
        <ele>308</ele>
        <time>2016-03-07T09:32:45Z</time>
      </trkpt>
      <trkpt lat="48.21841" lon="-3.15818">
        <ele>308</ele>
        <time>2016-03-07T09:32:48Z</time>
      </trkpt>
      <trkpt lat="48.21841" lon="-3.15821">
        <ele>309</ele>
        <time>2016-03-07T09:32:51Z</time>
      </trkpt>
      <trkpt lat="48.21841" lon="-3.15823">
        <ele>309</ele>
        <time>2016-03-07T09:32:54Z</time>
      </trkpt>
      <trkpt lat="48.2184" lon="-3.15826">
        <ele>310</ele>
        <time>2016-03-07T09:32:57Z</time>
      </trkpt>
      <trkpt lat="48.21838" lon="-3.15829">
        <ele>311</ele>
        <time>2016-03-07T09:33:00Z</time>
      </trkpt>
      <trkpt lat="48.21838" lon="-3.1583">
        <ele>311</ele>
        <time>2016-03-07T09:33:02Z</time>
      </trkpt>
      <trkpt lat="48.21838" lon="-3.15832">
        <ele>311</ele>
        <time>2016-03-07T09:33:05Z</time>
      </trkpt>
      <trkpt lat="48.21838" lon="-3.15833">
        <ele>312</ele>
        <time>2016-03-07T09:33:07Z</time>
      </trkpt>
      <trkpt lat="48.2184" lon="-3.15835">
        <ele>312</ele>
        <time>2016-03-07T09:33:10Z</time>
      </trkpt>
      <trkpt lat="48.21841" lon="-3.15839">
        <ele>312</ele>
        <time>2016-03-07T09:33:13Z</time>
      </trkpt>
      <trkpt lat="48.2184" lon="-3.15843">
        <ele>312</ele>
        <time>2016-03-07T09:33:16Z</time>
      </trkpt>
      <trkpt lat="48.21839" lon="-3.15845">
        <ele>312</ele>
        <time>2016-03-07T09:33:19Z</time>
      </trkpt>
      <trkpt lat="48.21839" lon="-3.15846">
        <ele>312</ele>
        <time>2016-03-07T09:33:22Z</time>
      </trkpt>
      <trkpt lat="48.2184" lon="-3.15846">
        <ele>312</ele>
        <time>2016-03-07T09:33:26Z</time>
      </trkpt>
      <trkpt lat="48.2184" lon="-3.15844">
        <ele>312</ele>
        <time>2016-03-07T09:33:30Z</time>
      </trkpt>
      <trkpt lat="48.21839" lon="-3.15844">
        <ele>312</ele>
        <time>2016-03-07T09:33:33Z</time>
      </trkpt>
      <trkpt lat="48.2184" lon="-3.15844">
        <ele>312</ele>
        <time>2016-03-07T09:33:35Z</time>
      </trkpt>
      <trkpt lat="48.2184" lon="-3.15844">
        <ele>312</ele>
        <time>2016-03-07T09:33:38Z</time>
      </trkpt>
      <trkpt lat="48.2184" lon="-3.15844">
        <ele>312</ele>
        <time>2016-03-07T09:33:40Z</time>
      </trkpt>
      <trkpt lat="48.2184" lon="-3.15844">
        <ele>313</ele>
        <time>2016-03-07T09:33:45Z</time>
      </trkpt>
      <trkpt lat="48.21841" lon="-3.15844">
        <ele>313</ele>
        <time>2016-03-07T09:33:48Z</time>
      </trkpt>
      <trkpt lat="48.21841" lon="-3.15843">
        <ele>312</ele>
        <time>2016-03-07T09:33:51Z</time>
      </trkpt>
      <trkpt lat="48.21842" lon="-3.1584">
        <ele>312</ele>
        <time>2016-03-07T09:33:54Z</time>
      </trkpt>
      <trkpt lat="48.21842" lon="-3.15837">
        <ele>311</ele>
        <time>2016-03-07T09:33:56Z</time>
      </trkpt>
      <trkpt lat="48.21841" lon="-3.15834">
        <ele>311</ele>
        <time>2016-03-07T09:33:58Z</time>
      </trkpt>
      <trkpt lat="48.2184" lon="-3.15831">
        <ele>311</ele>
        <time>2016-03-07T09:34:01Z</time>
      </trkpt>
      <trkpt lat="48.2184" lon="-3.1583">
        <ele>311</ele>
        <time>2016-03-07T09:34:03Z</time>
      </trkpt>
      <trkpt lat="48.21838" lon="-3.15827">
        <ele>311</ele>
        <time>2016-03-07T09:34:06Z</time>
      </trkpt>
      <trkpt lat="48.21837" lon="-3.15826">
        <ele>311</ele>
        <time>2016-03-07T09:34:09Z</time>
      </trkpt>
      <trkpt lat="48.21837" lon="-3.15825">
        <ele>311</ele>
        <time>2016-03-07T09:34:11Z</time>
      </trkpt>
      <trkpt lat="48.21837" lon="-3.15825">
        <ele>311</ele>
        <time>2016-03-07T09:34:14Z</time>
      </trkpt>
      <trkpt lat="48.21837" lon="-3.15825">
        <ele>311</ele>
        <time>2016-03-07T09:34:16Z</time>
      </trkpt>
      <trkpt lat="48.21836" lon="-3.15825">
        <ele>312</ele>
        <time>2016-03-07T09:34:19Z</time>
      </trkpt>
      <trkpt lat="48.21836" lon="-3.15827">
        <ele>312</ele>
        <time>2016-03-07T09:34:22Z</time>
      </trkpt>
      <trkpt lat="48.21836" lon="-3.15826">
        <ele>312</ele>
        <time>2016-03-07T09:34:24Z</time>
      </trkpt>
      <trkpt lat="48.21835" lon="-3.15827">
        <ele>312</ele>
        <time>2016-03-07T09:34:27Z</time>
      </trkpt>
      <trkpt lat="48.21835" lon="-3.15827">
        <ele>312</ele>
        <time>2016-03-07T09:34:29Z</time>
      </trkpt>
      <trkpt lat="48.21835" lon="-3.15828">
        <ele>312</ele>
        <time>2016-03-07T09:34:32Z</time>
      </trkpt>
      <trkpt lat="48.21835" lon="-3.15827">
        <ele>312</ele>
        <time>2016-03-07T09:34:35Z</time>
      </trkpt>
      <trkpt lat="48.21835" lon="-3.15827">
        <ele>311</ele>
        <time>2016-03-07T09:34:38Z</time>
      </trkpt>
      <trkpt lat="48.21835" lon="-3.15827">
        <ele>311</ele>
        <time>2016-03-07T09:34:40Z</time>
      </trkpt>
      <trkpt lat="48.21835" lon="-3.15827">
        <ele>311</ele>
        <time>2016-03-07T09:34:46Z</time>
      </trkpt>
      <trkpt lat="48.21835" lon="-3.15827">
        <ele>311</ele>
        <time>2016-03-07T09:34:49Z</time>
      </trkpt>
      <trkpt lat="48.21834" lon="-3.15824">
        <ele>311</ele>
        <time>2016-03-07T09:34:52Z</time>
      </trkpt>
      <trkpt lat="48.21833" lon="-3.15821">
        <ele>311</ele>
        <time>2016-03-07T09:34:54Z</time>
      </trkpt>
      <trkpt lat="48.21834" lon="-3.15815">
        <ele>312</ele>
        <time>2016-03-07T09:34:57Z</time>
      </trkpt>
      <trkpt lat="48.21835" lon="-3.15812">
        <ele>311</ele>
        <time>2016-03-07T09:34:59Z</time>
      </trkpt>
      <trkpt lat="48.21836" lon="-3.15806">
        <ele>311</ele>
        <time>2016-03-07T09:35:02Z</time>
      </trkpt>
      <trkpt lat="48.21838" lon="-3.158">
        <ele>311</ele>
        <time>2016-03-07T09:35:05Z</time>
      </trkpt>
      <trkpt lat="48.21838" lon="-3.15796">
        <ele>312</ele>
        <time>2016-03-07T09:35:07Z</time>
      </trkpt>
      <trkpt lat="48.21839" lon="-3.15791">
        <ele>312</ele>
        <time>2016-03-07T09:35:10Z</time>
      </trkpt>
      <trkpt lat="48.21839" lon="-3.15787">
        <ele>312</ele>
        <time>2016-03-07T09:35:12Z</time>
      </trkpt>
      <trkpt lat="48.21839" lon="-3.15781">
        <ele>312</ele>
        <time>2016-03-07T09:35:15Z</time>
      </trkpt>
      <trkpt lat="48.21839" lon="-3.15776">
        <ele>312</ele>
        <time>2016-03-07T09:35:18Z</time>
      </trkpt>
      <trkpt lat="48.21838" lon="-3.15773">
        <ele>312</ele>
        <time>2016-03-07T09:35:20Z</time>
      </trkpt>
      <trkpt lat="48.21837" lon="-3.15768">
        <ele>313</ele>
        <time>2016-03-07T09:35:23Z</time>
      </trkpt>
      <trkpt lat="48.21835" lon="-3.15766">
        <ele>313</ele>
        <time>2016-03-07T09:35:25Z</time>
      </trkpt>
      <trkpt lat="48.21833" lon="-3.15765">
        <ele>314</ele>
        <time>2016-03-07T09:35:27Z</time>
      </trkpt>
      <trkpt lat="48.2183" lon="-3.15764">
        <ele>315</ele>
        <time>2016-03-07T09:35:30Z</time>
      </trkpt>
      <trkpt lat="48.21828" lon="-3.15762">
        <ele>316</ele>
        <time>2016-03-07T09:35:33Z</time>
      </trkpt>
      <trkpt lat="48.21826" lon="-3.15761">
        <ele>316</ele>
        <time>2016-03-07T09:35:35Z</time>
      </trkpt>
      <trkpt lat="48.21822" lon="-3.15762">
        <ele>317</ele>
        <time>2016-03-07T09:35:38Z</time>
      </trkpt>
      <trkpt lat="48.2182" lon="-3.15765">
        <ele>317</ele>
        <time>2016-03-07T09:35:40Z</time>
      </trkpt>
      <trkpt lat="48.21816" lon="-3.15768">
        <ele>317</ele>
        <time>2016-03-07T09:35:43Z</time>
      </trkpt>
      <trkpt lat="48.21816" lon="-3.15767">
        <ele>318</ele>
        <time>2016-03-07T09:35:47Z</time>
      </trkpt>
      <trkpt lat="48.21813" lon="-3.15769">
        <ele>319</ele>
        <time>2016-03-07T09:35:50Z</time>
      </trkpt>
      <trkpt lat="48.21812" lon="-3.1577">
        <ele>319</ele>
        <time>2016-03-07T09:35:52Z</time>
      </trkpt>
      <trkpt lat="48.21812" lon="-3.1577">
        <ele>319</ele>
        <time>2016-03-07T09:35:55Z</time>
      </trkpt>
      <trkpt lat="48.21811" lon="-3.1577">
        <ele>319</ele>
        <time>2016-03-07T09:35:58Z</time>
      </trkpt>
      <trkpt lat="48.2181" lon="-3.15769">
        <ele>319</ele>
        <time>2016-03-07T09:36:00Z</time>
      </trkpt>
      <trkpt lat="48.21809" lon="-3.1577">
        <ele>319</ele>
        <time>2016-03-07T09:36:03Z</time>
      </trkpt>
      <trkpt lat="48.21807" lon="-3.15773">
        <ele>319</ele>
        <time>2016-03-07T09:36:05Z</time>
      </trkpt>
      <trkpt lat="48.21806" lon="-3.15776">
        <ele>319</ele>
        <time>2016-03-07T09:36:07Z</time>
      </trkpt>
      <trkpt lat="48.21804" lon="-3.15779">
        <ele>318</ele>
        <time>2016-03-07T09:36:10Z</time>
      </trkpt>
      <trkpt lat="48.21801" lon="-3.1578">
        <ele>318</ele>
        <time>2016-03-07T09:36:12Z</time>
      </trkpt>
      <trkpt lat="48.21799" lon="-3.15782">
        <ele>318</ele>
        <time>2016-03-07T09:36:14Z</time>
      </trkpt>
      <trkpt lat="48.21796" lon="-3.15784">
        <ele>319</ele>
        <time>2016-03-07T09:36:17Z</time>
      </trkpt>
      <trkpt lat="48.21794" lon="-3.15784">
        <ele>319</ele>
        <time>2016-03-07T09:36:19Z</time>
      </trkpt>
      <trkpt lat="48.21792" lon="-3.15786">
        <ele>320</ele>
        <time>2016-03-07T09:36:21Z</time>
      </trkpt>
      <trkpt lat="48.21789" lon="-3.15788">
        <ele>320</ele>
        <time>2016-03-07T09:36:24Z</time>
      </trkpt>
      <trkpt lat="48.21787" lon="-3.15789">
        <ele>320</ele>
        <time>2016-03-07T09:36:26Z</time>
      </trkpt>
      <trkpt lat="48.21784" lon="-3.15791">
        <ele>321</ele>
        <time>2016-03-07T09:36:29Z</time>
      </trkpt>
      <trkpt lat="48.21782" lon="-3.15792">
        <ele>321</ele>
        <time>2016-03-07T09:36:31Z</time>
      </trkpt>
      <trkpt lat="48.2178" lon="-3.15794">
        <ele>322</ele>
        <time>2016-03-07T09:36:34Z</time>
      </trkpt>
      <trkpt lat="48.21778" lon="-3.15796">
        <ele>322</ele>
        <time>2016-03-07T09:36:36Z</time>
      </trkpt>
      <trkpt lat="48.21775" lon="-3.15799">
        <ele>323</ele>
        <time>2016-03-07T09:36:39Z</time>
      </trkpt>
      <trkpt lat="48.21774" lon="-3.15799">
        <ele>324</ele>
        <time>2016-03-07T09:36:42Z</time>
      </trkpt>
      <trkpt lat="48.21775" lon="-3.15796">
        <ele>324</ele>
        <time>2016-03-07T09:36:45Z</time>
      </trkpt>
      <trkpt lat="48.21775" lon="-3.15795">
        <ele>324</ele>
        <time>2016-03-07T09:36:47Z</time>
      </trkpt>
      <trkpt lat="48.21775" lon="-3.15796">
        <ele>324</ele>
        <time>2016-03-07T09:36:50Z</time>
      </trkpt>
      <trkpt lat="48.21775" lon="-3.15796">
        <ele>325</ele>
        <time>2016-03-07T09:36:53Z</time>
      </trkpt>
      <trkpt lat="48.21775" lon="-3.15796">
        <ele>325</ele>
        <time>2016-03-07T09:36:56Z</time>
      </trkpt>
      <trkpt lat="48.21776" lon="-3.15794">
        <ele>326</ele>
        <time>2016-03-07T09:36:59Z</time>
      </trkpt>
      <trkpt lat="48.21777" lon="-3.15792">
        <ele>325</ele>
        <time>2016-03-07T09:37:01Z</time>
      </trkpt>
      <trkpt lat="48.21779" lon="-3.15787">
        <ele>325</ele>
        <time>2016-03-07T09:37:04Z</time>
      </trkpt>
      <trkpt lat="48.21781" lon="-3.15784">
        <ele>325</ele>
        <time>2016-03-07T09:37:06Z</time>
      </trkpt>
      <trkpt lat="48.21783" lon="-3.15779">
        <ele>325</ele>
        <time>2016-03-07T09:37:09Z</time>
      </trkpt>
      <trkpt lat="48.21783" lon="-3.15774">
        <ele>326</ele>
        <time>2016-03-07T09:37:12Z</time>
      </trkpt>
      <trkpt lat="48.21783" lon="-3.15771">
        <ele>326</ele>
        <time>2016-03-07T09:37:14Z</time>
      </trkpt>
      <trkpt lat="48.21784" lon="-3.15767">
        <ele>327</ele>
        <time>2016-03-07T09:37:16Z</time>
      </trkpt>
      <trkpt lat="48.21784" lon="-3.15764">
        <ele>327</ele>
        <time>2016-03-07T09:37:18Z</time>
      </trkpt>
      <trkpt lat="48.21784" lon="-3.15759">
        <ele>327</ele>
        <time>2016-03-07T09:37:21Z</time>
      </trkpt>
      <trkpt lat="48.21785" lon="-3.15756">
        <ele>328</ele>
        <time>2016-03-07T09:37:24Z</time>
      </trkpt>
      <trkpt lat="48.21784" lon="-3.15753">
        <ele>328</ele>
        <time>2016-03-07T09:37:26Z</time>
      </trkpt>
      <trkpt lat="48.21783" lon="-3.15751">
        <ele>328</ele>
        <time>2016-03-07T09:37:29Z</time>
      </trkpt>
      <trkpt lat="48.21781" lon="-3.15749">
        <ele>328</ele>
        <time>2016-03-07T09:37:32Z</time>
      </trkpt>
      <trkpt lat="48.21779" lon="-3.15745">
        <ele>329</ele>
        <time>2016-03-07T09:37:35Z</time>
      </trkpt>
      <trkpt lat="48.21777" lon="-3.15742">
        <ele>330</ele>
        <time>2016-03-07T09:37:38Z</time>
      </trkpt>
      <trkpt lat="48.21775" lon="-3.1574">
        <ele>331</ele>
        <time>2016-03-07T09:37:41Z</time>
      </trkpt>
      <trkpt lat="48.21774" lon="-3.1574">
        <ele>331</ele>
        <time>2016-03-07T09:37:44Z</time>
      </trkpt>
      <trkpt lat="48.21772" lon="-3.15741">
        <ele>331</ele>
        <time>2016-03-07T09:37:46Z</time>
      </trkpt>
      <trkpt lat="48.21768" lon="-3.15742">
        <ele>331</ele>
        <time>2016-03-07T09:37:49Z</time>
      </trkpt>
      <trkpt lat="48.21765" lon="-3.15743">
        <ele>331</ele>
        <time>2016-03-07T09:37:52Z</time>
      </trkpt>
      <trkpt lat="48.21763" lon="-3.15743">
        <ele>332</ele>
        <time>2016-03-07T09:37:54Z</time>
      </trkpt>
      <trkpt lat="48.21759" lon="-3.15743">
        <ele>333</ele>
        <time>2016-03-07T09:37:57Z</time>
      </trkpt>
      <trkpt lat="48.21756" lon="-3.15744">
        <ele>333</ele>
        <time>2016-03-07T09:38:00Z</time>
      </trkpt>
      <trkpt lat="48.21752" lon="-3.15745">
        <ele>333</ele>
        <time>2016-03-07T09:38:03Z</time>
      </trkpt>
      <trkpt lat="48.21749" lon="-3.15745">
        <ele>333</ele>
        <time>2016-03-07T09:38:05Z</time>
      </trkpt>
      <trkpt lat="48.21746" lon="-3.15746">
        <ele>333</ele>
        <time>2016-03-07T09:38:08Z</time>
      </trkpt>
      <trkpt lat="48.21743" lon="-3.15747">
        <ele>333</ele>
        <time>2016-03-07T09:38:11Z</time>
      </trkpt>
      <trkpt lat="48.21739" lon="-3.15747">
        <ele>333</ele>
        <time>2016-03-07T09:38:14Z</time>
      </trkpt>
      <trkpt lat="48.21738" lon="-3.15748">
        <ele>334</ele>
        <time>2016-03-07T09:38:16Z</time>
      </trkpt>
      <trkpt lat="48.21736" lon="-3.15748">
        <ele>334</ele>
        <time>2016-03-07T09:38:19Z</time>
      </trkpt>
      <trkpt lat="48.21733" lon="-3.15749">
        <ele>334</ele>
        <time>2016-03-07T09:38:21Z</time>
      </trkpt>
      <trkpt lat="48.2173" lon="-3.15751">
        <ele>335</ele>
        <time>2016-03-07T09:38:24Z</time>
      </trkpt>
      <trkpt lat="48.21727" lon="-3.15752">
        <ele>335</ele>
        <time>2016-03-07T09:38:27Z</time>
      </trkpt>
      <trkpt lat="48.21726" lon="-3.15753">
        <ele>335</ele>
        <time>2016-03-07T09:38:29Z</time>
      </trkpt>
      <trkpt lat="48.21724" lon="-3.15755">
        <ele>335</ele>
        <time>2016-03-07T09:38:31Z</time>
      </trkpt>
      <trkpt lat="48.21721" lon="-3.15757">
        <ele>334</ele>
        <time>2016-03-07T09:38:34Z</time>
      </trkpt>
      <trkpt lat="48.21718" lon="-3.1576">
        <ele>334</ele>
        <time>2016-03-07T09:38:37Z</time>
      </trkpt>
      <trkpt lat="48.21717" lon="-3.15761">
        <ele>334</ele>
        <time>2016-03-07T09:38:39Z</time>
      </trkpt>
      <trkpt lat="48.21715" lon="-3.15762">
        <ele>334</ele>
        <time>2016-03-07T09:38:41Z</time>
      </trkpt>
      <trkpt lat="48.21712" lon="-3.15765">
        <ele>333</ele>
        <time>2016-03-07T09:38:44Z</time>
      </trkpt>
      <trkpt lat="48.2171" lon="-3.15768">
        <ele>333</ele>
        <time>2016-03-07T09:38:47Z</time>
      </trkpt>
      <trkpt lat="48.21708" lon="-3.15772">
        <ele>333</ele>
        <time>2016-03-07T09:38:50Z</time>
      </trkpt>
      <trkpt lat="48.21706" lon="-3.15774">
        <ele>332</ele>
        <time>2016-03-07T09:38:53Z</time>
      </trkpt>
      <trkpt lat="48.21703" lon="-3.15777">
        <ele>332</ele>
        <time>2016-03-07T09:38:56Z</time>
      </trkpt>
      <trkpt lat="48.21702" lon="-3.15778">
        <ele>331</ele>
        <time>2016-03-07T09:38:59Z</time>
      </trkpt>
      <trkpt lat="48.21701" lon="-3.15778">
        <ele>331</ele>
        <time>2016-03-07T09:39:01Z</time>
      </trkpt>
      <trkpt lat="48.21701" lon="-3.15778">
        <ele>331</ele>
        <time>2016-03-07T09:39:03Z</time>
      </trkpt>
      <trkpt lat="48.21701" lon="-3.15778">
        <ele>332</ele>
        <time>2016-03-07T09:39:06Z</time>
      </trkpt>
      <trkpt lat="48.21701" lon="-3.15779">
        <ele>332</ele>
        <time>2016-03-07T09:39:08Z</time>
      </trkpt>
      <trkpt lat="48.21701" lon="-3.1578">
        <ele>332</ele>
        <time>2016-03-07T09:39:11Z</time>
      </trkpt>
      <trkpt lat="48.21702" lon="-3.1578">
        <ele>331</ele>
        <time>2016-03-07T09:39:15Z</time>
      </trkpt>
      <trkpt lat="48.21703" lon="-3.1578">
        <ele>331</ele>
        <time>2016-03-07T09:39:18Z</time>
      </trkpt>
      <trkpt lat="48.21702" lon="-3.1578">
        <ele>331</ele>
        <time>2016-03-07T09:39:20Z</time>
      </trkpt>
      <trkpt lat="48.21702" lon="-3.15779">
        <ele>331</ele>
        <time>2016-03-07T09:39:22Z</time>
      </trkpt>
      <trkpt lat="48.21702" lon="-3.15779">
        <ele>331</ele>
        <time>2016-03-07T09:39:25Z</time>
      </trkpt>
      <trkpt lat="48.21701" lon="-3.15779">
        <ele>331</ele>
        <time>2016-03-07T09:39:27Z</time>
      </trkpt>
      <trkpt lat="48.21701" lon="-3.15777">
        <ele>332</ele>
        <time>2016-03-07T09:39:29Z</time>
      </trkpt>
      <trkpt lat="48.217" lon="-3.15775">
        <ele>332</ele>
        <time>2016-03-07T09:39:31Z</time>
      </trkpt>
      <trkpt lat="48.217" lon="-3.15771">
        <ele>332</ele>
        <time>2016-03-07T09:39:34Z</time>
      </trkpt>
      <trkpt lat="48.21699" lon="-3.15768">
        <ele>332</ele>
        <time>2016-03-07T09:39:36Z</time>
      </trkpt>
      <trkpt lat="48.21698" lon="-3.15765">
        <ele>332</ele>
        <time>2016-03-07T09:39:39Z</time>
      </trkpt>
      <trkpt lat="48.21697" lon="-3.15761">
        <ele>333</ele>
        <time>2016-03-07T09:39:42Z</time>
      </trkpt>
      <trkpt lat="48.21696" lon="-3.15759">
        <ele>333</ele>
        <time>2016-03-07T09:39:44Z</time>
      </trkpt>
      <trkpt lat="48.21695" lon="-3.15755">
        <ele>333</ele>
        <time>2016-03-07T09:39:47Z</time>
      </trkpt>
      <trkpt lat="48.21693" lon="-3.15751">
        <ele>333</ele>
        <time>2016-03-07T09:39:50Z</time>
      </trkpt>
      <trkpt lat="48.21692" lon="-3.15748">
        <ele>334</ele>
        <time>2016-03-07T09:39:52Z</time>
      </trkpt>
      <trkpt lat="48.21691" lon="-3.15744">
        <ele>334</ele>
        <time>2016-03-07T09:39:55Z</time>
      </trkpt>
      <trkpt lat="48.2169" lon="-3.1574">
        <ele>334</ele>
        <time>2016-03-07T09:39:58Z</time>
      </trkpt>
      <trkpt lat="48.21689" lon="-3.15737">
        <ele>335</ele>
        <time>2016-03-07T09:40:00Z</time>
      </trkpt>
      <trkpt lat="48.21687" lon="-3.15734">
        <ele>335</ele>
        <time>2016-03-07T09:40:03Z</time>
      </trkpt>
      <trkpt lat="48.21687" lon="-3.15734">
        <ele>335</ele>
        <time>2016-03-07T09:40:05Z</time>
      </trkpt>
      <trkpt lat="48.21687" lon="-3.15734">
        <ele>335</ele>
        <time>2016-03-07T09:40:07Z</time>
      </trkpt>
      <trkpt lat="48.21686" lon="-3.15733">
        <ele>336</ele>
        <time>2016-03-07T09:40:11Z</time>
      </trkpt>
      <trkpt lat="48.21685" lon="-3.1573">
        <ele>336</ele>
        <time>2016-03-07T09:40:14Z</time>
      </trkpt>
      <trkpt lat="48.21684" lon="-3.15727">
        <ele>336</ele>
        <time>2016-03-07T09:40:17Z</time>
      </trkpt>
      <trkpt lat="48.21682" lon="-3.15724">
        <ele>336</ele>
        <time>2016-03-07T09:40:20Z</time>
      </trkpt>
      <trkpt lat="48.2168" lon="-3.15719">
        <ele>336</ele>
        <time>2016-03-07T09:40:23Z</time>
      </trkpt>
      <trkpt lat="48.21679" lon="-3.15716">
        <ele>337</ele>
        <time>2016-03-07T09:40:26Z</time>
      </trkpt>
      <trkpt lat="48.21677" lon="-3.15713">
        <ele>337</ele>
        <time>2016-03-07T09:40:29Z</time>
      </trkpt>
      <trkpt lat="48.21676" lon="-3.15712">
        <ele>337</ele>
        <time>2016-03-07T09:40:31Z</time>
      </trkpt>
      <trkpt lat="48.21674" lon="-3.1571">
        <ele>337</ele>
        <time>2016-03-07T09:40:33Z</time>
      </trkpt>
      <trkpt lat="48.21673" lon="-3.15709">
        <ele>338</ele>
        <time>2016-03-07T09:40:35Z</time>
      </trkpt>
      <trkpt lat="48.21671" lon="-3.15706">
        <ele>338</ele>
        <time>2016-03-07T09:40:38Z</time>
      </trkpt>
      <trkpt lat="48.2167" lon="-3.15703">
        <ele>338</ele>
        <time>2016-03-07T09:40:41Z</time>
      </trkpt>
      <trkpt lat="48.21669" lon="-3.15699">
        <ele>338</ele>
        <time>2016-03-07T09:40:44Z</time>
      </trkpt>
      <trkpt lat="48.21668" lon="-3.15696">
        <ele>338</ele>
        <time>2016-03-07T09:40:46Z</time>
      </trkpt>
      <trkpt lat="48.21668" lon="-3.15693">
        <ele>339</ele>
        <time>2016-03-07T09:40:48Z</time>
      </trkpt>
      <trkpt lat="48.21668" lon="-3.15691">
        <ele>339</ele>
        <time>2016-03-07T09:40:50Z</time>
      </trkpt>
      <trkpt lat="48.21668" lon="-3.15688">
        <ele>339</ele>
        <time>2016-03-07T09:40:53Z</time>
      </trkpt>
      <trkpt lat="48.21668" lon="-3.15684">
        <ele>339</ele>
        <time>2016-03-07T09:40:56Z</time>
      </trkpt>
      <trkpt lat="48.21668" lon="-3.15679">
        <ele>339</ele>
        <time>2016-03-07T09:40:59Z</time>
      </trkpt>
      <trkpt lat="48.21668" lon="-3.15676">
        <ele>340</ele>
        <time>2016-03-07T09:41:01Z</time>
      </trkpt>
      <trkpt lat="48.21668" lon="-3.15673">
        <ele>340</ele>
        <time>2016-03-07T09:41:03Z</time>
      </trkpt>
      <trkpt lat="48.21669" lon="-3.1567">
        <ele>340</ele>
        <time>2016-03-07T09:41:05Z</time>
      </trkpt>
      <trkpt lat="48.21669" lon="-3.15667">
        <ele>341</ele>
        <time>2016-03-07T09:41:07Z</time>
      </trkpt>
      <trkpt lat="48.21669" lon="-3.15663">
        <ele>341</ele>
        <time>2016-03-07T09:41:10Z</time>
      </trkpt>
      <trkpt lat="48.21669" lon="-3.15659">
        <ele>341</ele>
        <time>2016-03-07T09:41:12Z</time>
      </trkpt>
      <trkpt lat="48.2167" lon="-3.15656">
        <ele>341</ele>
        <time>2016-03-07T09:41:14Z</time>
      </trkpt>
      <trkpt lat="48.2167" lon="-3.15653">
        <ele>341</ele>
        <time>2016-03-07T09:41:16Z</time>
      </trkpt>
      <trkpt lat="48.21671" lon="-3.15649">
        <ele>341</ele>
        <time>2016-03-07T09:41:18Z</time>
      </trkpt>
      <trkpt lat="48.21672" lon="-3.15646">
        <ele>341</ele>
        <time>2016-03-07T09:41:20Z</time>
      </trkpt>
      <trkpt lat="48.21673" lon="-3.15643">
        <ele>341</ele>
        <time>2016-03-07T09:41:22Z</time>
      </trkpt>
      <trkpt lat="48.21675" lon="-3.15638">
        <ele>341</ele>
        <time>2016-03-07T09:41:25Z</time>
      </trkpt>
      <trkpt lat="48.21675" lon="-3.15634">
        <ele>342</ele>
        <time>2016-03-07T09:41:27Z</time>
      </trkpt>
      <trkpt lat="48.21676" lon="-3.1563">
        <ele>342</ele>
        <time>2016-03-07T09:41:30Z</time>
      </trkpt>
      <trkpt lat="48.21676" lon="-3.15628">
        <ele>343</ele>
        <time>2016-03-07T09:41:33Z</time>
      </trkpt>
      <trkpt lat="48.21677" lon="-3.15624">
        <ele>343</ele>
        <time>2016-03-07T09:41:36Z</time>
      </trkpt>
      <trkpt lat="48.21678" lon="-3.15621">
        <ele>343</ele>
        <time>2016-03-07T09:41:38Z</time>
      </trkpt>
      <trkpt lat="48.21678" lon="-3.15616">
        <ele>343</ele>
        <time>2016-03-07T09:41:41Z</time>
      </trkpt>
      <trkpt lat="48.21679" lon="-3.15611">
        <ele>343</ele>
        <time>2016-03-07T09:41:44Z</time>
      </trkpt>
      <trkpt lat="48.21679" lon="-3.15607">
        <ele>343</ele>
        <time>2016-03-07T09:41:46Z</time>
      </trkpt>
      <trkpt lat="48.21681" lon="-3.15602">
        <ele>342</ele>
        <time>2016-03-07T09:41:49Z</time>
      </trkpt>
      <trkpt lat="48.21682" lon="-3.15599">
        <ele>342</ele>
        <time>2016-03-07T09:41:51Z</time>
      </trkpt>
      <trkpt lat="48.21684" lon="-3.15595">
        <ele>342</ele>
        <time>2016-03-07T09:41:54Z</time>
      </trkpt>
      <trkpt lat="48.21685" lon="-3.15589">
        <ele>342</ele>
        <time>2016-03-07T09:41:57Z</time>
      </trkpt>
      <trkpt lat="48.21687" lon="-3.15584">
        <ele>342</ele>
        <time>2016-03-07T09:42:00Z</time>
      </trkpt>
      <trkpt lat="48.21687" lon="-3.15581">
        <ele>342</ele>
        <time>2016-03-07T09:42:02Z</time>
      </trkpt>
      <trkpt lat="48.21689" lon="-3.15576">
        <ele>342</ele>
        <time>2016-03-07T09:42:05Z</time>
      </trkpt>
      <trkpt lat="48.2169" lon="-3.15573">
        <ele>342</ele>
        <time>2016-03-07T09:42:07Z</time>
      </trkpt>
      <trkpt lat="48.21691" lon="-3.1557">
        <ele>342</ele>
        <time>2016-03-07T09:42:09Z</time>
      </trkpt>
      <trkpt lat="48.21693" lon="-3.15565">
        <ele>342</ele>
        <time>2016-03-07T09:42:12Z</time>
      </trkpt>
      <trkpt lat="48.21693" lon="-3.15563">
        <ele>342</ele>
        <time>2016-03-07T09:42:14Z</time>
      </trkpt>
      <trkpt lat="48.21695" lon="-3.1556">
        <ele>342</ele>
        <time>2016-03-07T09:42:17Z</time>
      </trkpt>
      <trkpt lat="48.21696" lon="-3.15555">
        <ele>342</ele>
        <time>2016-03-07T09:42:20Z</time>
      </trkpt>
      <trkpt lat="48.21697" lon="-3.15551">
        <ele>342</ele>
        <time>2016-03-07T09:42:22Z</time>
      </trkpt>
      <trkpt lat="48.21697" lon="-3.15549">
        <ele>343</ele>
        <time>2016-03-07T09:42:25Z</time>
      </trkpt>
      <trkpt lat="48.21698" lon="-3.15548">
        <ele>343</ele>
        <time>2016-03-07T09:42:28Z</time>
      </trkpt>
      <trkpt lat="48.21697" lon="-3.15549">
        <ele>343</ele>
        <time>2016-03-07T09:42:31Z</time>
      </trkpt>
      <trkpt lat="48.21697" lon="-3.15548">
        <ele>344</ele>
        <time>2016-03-07T09:42:35Z</time>
      </trkpt>
      <trkpt lat="48.21697" lon="-3.15548">
        <ele>343</ele>
        <time>2016-03-07T09:42:39Z</time>
      </trkpt>
      <trkpt lat="48.21697" lon="-3.15548">
        <ele>344</ele>
        <time>2016-03-07T09:42:42Z</time>
      </trkpt>
      <trkpt lat="48.21696" lon="-3.15548">
        <ele>344</ele>
        <time>2016-03-07T09:42:45Z</time>
      </trkpt>
      <trkpt lat="48.21697" lon="-3.15548">
        <ele>344</ele>
        <time>2016-03-07T09:42:48Z</time>
      </trkpt>
      <trkpt lat="48.21697" lon="-3.15547">
        <ele>344</ele>
        <time>2016-03-07T09:42:50Z</time>
      </trkpt>
      <trkpt lat="48.21697" lon="-3.15543">
        <ele>344</ele>
        <time>2016-03-07T09:42:53Z</time>
      </trkpt>
      <trkpt lat="48.21697" lon="-3.1554">
        <ele>343</ele>
        <time>2016-03-07T09:42:55Z</time>
      </trkpt>
      <trkpt lat="48.21698" lon="-3.15536">
        <ele>343</ele>
        <time>2016-03-07T09:42:58Z</time>
      </trkpt>
      <trkpt lat="48.21698" lon="-3.15533">
        <ele>343</ele>
        <time>2016-03-07T09:43:00Z</time>
      </trkpt>
      <trkpt lat="48.21698" lon="-3.15528">
        <ele>344</ele>
        <time>2016-03-07T09:43:03Z</time>
      </trkpt>
      <trkpt lat="48.21699" lon="-3.15524">
        <ele>344</ele>
        <time>2016-03-07T09:43:06Z</time>
      </trkpt>
      <trkpt lat="48.217" lon="-3.15521">
        <ele>344</ele>
        <time>2016-03-07T09:43:08Z</time>
      </trkpt>
      <trkpt lat="48.217" lon="-3.15517">
        <ele>344</ele>
        <time>2016-03-07T09:43:11Z</time>
      </trkpt>
      <trkpt lat="48.21701" lon="-3.15515">
        <ele>345</ele>
        <time>2016-03-07T09:43:13Z</time>
      </trkpt>
      <trkpt lat="48.21702" lon="-3.15511">
        <ele>345</ele>
        <time>2016-03-07T09:43:16Z</time>
      </trkpt>
      <trkpt lat="48.21703" lon="-3.15508">
        <ele>345</ele>
        <time>2016-03-07T09:43:18Z</time>
      </trkpt>
      <trkpt lat="48.21704" lon="-3.15504">
        <ele>346</ele>
        <time>2016-03-07T09:43:21Z</time>
      </trkpt>
      <trkpt lat="48.21704" lon="-3.15499">
        <ele>346</ele>
        <time>2016-03-07T09:43:24Z</time>
      </trkpt>
      <trkpt lat="48.21705" lon="-3.15496">
        <ele>347</ele>
        <time>2016-03-07T09:43:26Z</time>
      </trkpt>
      <trkpt lat="48.21705" lon="-3.15492">
        <ele>347</ele>
        <time>2016-03-07T09:43:29Z</time>
      </trkpt>
      <trkpt lat="48.21705" lon="-3.15488">
        <ele>347</ele>
        <time>2016-03-07T09:43:32Z</time>
      </trkpt>
      <trkpt lat="48.21706" lon="-3.15486">
        <ele>348</ele>
        <time>2016-03-07T09:43:35Z</time>
      </trkpt>
      <trkpt lat="48.21706" lon="-3.15484">
        <ele>348</ele>
        <time>2016-03-07T09:43:37Z</time>
      </trkpt>
      <trkpt lat="48.21707" lon="-3.1548">
        <ele>349</ele>
        <time>2016-03-07T09:43:40Z</time>
      </trkpt>
      <trkpt lat="48.21708" lon="-3.15476">
        <ele>350</ele>
        <time>2016-03-07T09:43:43Z</time>
      </trkpt>
      <trkpt lat="48.21708" lon="-3.15473">
        <ele>350</ele>
        <time>2016-03-07T09:43:46Z</time>
      </trkpt>
      <trkpt lat="48.21709" lon="-3.15472">
        <ele>351</ele>
        <time>2016-03-07T09:43:49Z</time>
      </trkpt>
      <trkpt lat="48.21709" lon="-3.15472">
        <ele>351</ele>
        <time>2016-03-07T09:43:53Z</time>
      </trkpt>
      <trkpt lat="48.21709" lon="-3.15472">
        <ele>351</ele>
        <time>2016-03-07T09:43:55Z</time>
      </trkpt>
      <trkpt lat="48.2171" lon="-3.15471">
        <ele>350</ele>
        <time>2016-03-07T09:43:58Z</time>
      </trkpt>
      <trkpt lat="48.21711" lon="-3.15468">
        <ele>350</ele>
        <time>2016-03-07T09:44:01Z</time>
      </trkpt>
      <trkpt lat="48.21713" lon="-3.15464">
        <ele>351</ele>
        <time>2016-03-07T09:44:04Z</time>
      </trkpt>
      <trkpt lat="48.21714" lon="-3.15462">
        <ele>351</ele>
        <time>2016-03-07T09:44:06Z</time>
      </trkpt>
      <trkpt lat="48.21714" lon="-3.1546">
        <ele>351</ele>
        <time>2016-03-07T09:44:08Z</time>
      </trkpt>
      <trkpt lat="48.21715" lon="-3.15456">
        <ele>351</ele>
        <time>2016-03-07T09:44:11Z</time>
      </trkpt>
      <trkpt lat="48.21715" lon="-3.15452">
        <ele>352</ele>
        <time>2016-03-07T09:44:14Z</time>
      </trkpt>
      <trkpt lat="48.21716" lon="-3.1545">
        <ele>352</ele>
        <time>2016-03-07T09:44:16Z</time>
      </trkpt>
      <trkpt lat="48.21717" lon="-3.15448">
        <ele>352</ele>
        <time>2016-03-07T09:44:19Z</time>
      </trkpt>
      <trkpt lat="48.21718" lon="-3.15447">
        <ele>353</ele>
        <time>2016-03-07T09:44:21Z</time>
      </trkpt>
      <trkpt lat="48.21719" lon="-3.15445">
        <ele>353</ele>
        <time>2016-03-07T09:44:23Z</time>
      </trkpt>
      <trkpt lat="48.21721" lon="-3.15442">
        <ele>354</ele>
        <time>2016-03-07T09:44:26Z</time>
      </trkpt>
      <trkpt lat="48.21723" lon="-3.15439">
        <ele>354</ele>
        <time>2016-03-07T09:44:29Z</time>
      </trkpt>
      <trkpt lat="48.21723" lon="-3.15436">
        <ele>354</ele>
        <time>2016-03-07T09:44:32Z</time>
      </trkpt>
      <trkpt lat="48.21723" lon="-3.15434">
        <ele>355</ele>
        <time>2016-03-07T09:44:34Z</time>
      </trkpt>
      <trkpt lat="48.21723" lon="-3.15434">
        <ele>355</ele>
        <time>2016-03-07T09:44:36Z</time>
      </trkpt>
      <trkpt lat="48.21723" lon="-3.15431">
        <ele>355</ele>
        <time>2016-03-07T09:44:39Z</time>
      </trkpt>
      <trkpt lat="48.21724" lon="-3.1543">
        <ele>356</ele>
        <time>2016-03-07T09:44:41Z</time>
      </trkpt>
      <trkpt lat="48.21725" lon="-3.1543">
        <ele>356</ele>
        <time>2016-03-07T09:44:44Z</time>
      </trkpt>
      <trkpt lat="48.21725" lon="-3.1543">
        <ele>357</ele>
        <time>2016-03-07T09:44:46Z</time>
      </trkpt>
      <trkpt lat="48.21725" lon="-3.1543">
        <ele>356</ele>
        <time>2016-03-07T09:44:49Z</time>
      </trkpt>
      <trkpt lat="48.21725" lon="-3.1543">
        <ele>356</ele>
        <time>2016-03-07T09:44:52Z</time>
      </trkpt>
      <trkpt lat="48.21724" lon="-3.1543">
        <ele>356</ele>
        <time>2016-03-07T09:44:56Z</time>
      </trkpt>
      <trkpt lat="48.21724" lon="-3.1543">
        <ele>356</ele>
        <time>2016-03-07T09:44:59Z</time>
      </trkpt>
      <trkpt lat="48.21724" lon="-3.1543">
        <ele>356</ele>
        <time>2016-03-07T09:45:03Z</time>
      </trkpt>
      <trkpt lat="48.21725" lon="-3.15429">
        <ele>356</ele>
        <time>2016-03-07T09:45:06Z</time>
      </trkpt>
      <trkpt lat="48.21724" lon="-3.15428">
        <ele>356</ele>
        <time>2016-03-07T09:45:08Z</time>
      </trkpt>
      <trkpt lat="48.21724" lon="-3.15427">
        <ele>356</ele>
        <time>2016-03-07T09:45:12Z</time>
      </trkpt>
      <trkpt lat="48.21724" lon="-3.15427">
        <ele>356</ele>
        <time>2016-03-07T09:45:15Z</time>
      </trkpt>
      <trkpt lat="48.21725" lon="-3.15426">
        <ele>356</ele>
        <time>2016-03-07T09:45:17Z</time>
      </trkpt>
      <trkpt lat="48.21725" lon="-3.15426">
        <ele>356</ele>
        <time>2016-03-07T09:45:19Z</time>
      </trkpt>
      <trkpt lat="48.21725" lon="-3.15424">
        <ele>356</ele>
        <time>2016-03-07T09:45:22Z</time>
      </trkpt>
      <trkpt lat="48.21727" lon="-3.15423">
        <ele>356</ele>
        <time>2016-03-07T09:45:25Z</time>
      </trkpt>
      <trkpt lat="48.21728" lon="-3.15421">
        <ele>355</ele>
        <time>2016-03-07T09:45:27Z</time>
      </trkpt>
      <trkpt lat="48.21727" lon="-3.15419">
        <ele>355</ele>
        <time>2016-03-07T09:45:29Z</time>
      </trkpt>
      <trkpt lat="48.21728" lon="-3.15417">
        <ele>355</ele>
        <time>2016-03-07T09:45:32Z</time>
      </trkpt>
      <trkpt lat="48.21728" lon="-3.15414">
        <ele>355</ele>
        <time>2016-03-07T09:45:34Z</time>
      </trkpt>
      <trkpt lat="48.21728" lon="-3.1541">
        <ele>355</ele>
        <time>2016-03-07T09:45:36Z</time>
      </trkpt>
      <trkpt lat="48.21728" lon="-3.15408">
        <ele>355</ele>
        <time>2016-03-07T09:45:38Z</time>
      </trkpt>
      <trkpt lat="48.21728" lon="-3.15404">
        <ele>355</ele>
        <time>2016-03-07T09:45:41Z</time>
      </trkpt>
      <trkpt lat="48.21728" lon="-3.154">
        <ele>355</ele>
        <time>2016-03-07T09:45:44Z</time>
      </trkpt>
      <trkpt lat="48.21729" lon="-3.15397">
        <ele>355</ele>
        <time>2016-03-07T09:45:46Z</time>
      </trkpt>
      <trkpt lat="48.2173" lon="-3.15392">
        <ele>355</ele>
        <time>2016-03-07T09:45:49Z</time>
      </trkpt>
      <trkpt lat="48.21729" lon="-3.1539">
        <ele>355</ele>
        <time>2016-03-07T09:45:51Z</time>
      </trkpt>
      <trkpt lat="48.21728" lon="-3.15387">
        <ele>355</ele>
        <time>2016-03-07T09:45:53Z</time>
      </trkpt>
      <trkpt lat="48.21727" lon="-3.15384">
        <ele>355</ele>
        <time>2016-03-07T09:45:56Z</time>
      </trkpt>
      <trkpt lat="48.21727" lon="-3.15382">
        <ele>355</ele>
        <time>2016-03-07T09:45:58Z</time>
      </trkpt>
      <trkpt lat="48.21727" lon="-3.15379">
        <ele>355</ele>
        <time>2016-03-07T09:46:00Z</time>
      </trkpt>
      <trkpt lat="48.21727" lon="-3.15375">
        <ele>355</ele>
        <time>2016-03-07T09:46:03Z</time>
      </trkpt>
      <trkpt lat="48.21726" lon="-3.15373">
        <ele>355</ele>
        <time>2016-03-07T09:46:05Z</time>
      </trkpt>
      <trkpt lat="48.21725" lon="-3.15371">
        <ele>356</ele>
        <time>2016-03-07T09:46:07Z</time>
      </trkpt>
      <trkpt lat="48.21724" lon="-3.15368">
        <ele>356</ele>
        <time>2016-03-07T09:46:10Z</time>
      </trkpt>
      <trkpt lat="48.21723" lon="-3.15367">
        <ele>356</ele>
        <time>2016-03-07T09:46:13Z</time>
      </trkpt>
      <trkpt lat="48.21723" lon="-3.15367">
        <ele>356</ele>
        <time>2016-03-07T09:46:16Z</time>
      </trkpt>
      <trkpt lat="48.21725" lon="-3.15367">
        <ele>356</ele>
        <time>2016-03-07T09:46:19Z</time>
      </trkpt>
      <trkpt lat="48.21728" lon="-3.15367">
        <ele>356</ele>
        <time>2016-03-07T09:46:22Z</time>
      </trkpt>
      <trkpt lat="48.21714" lon="-3.15366">
        <ele>357</ele>
        <time>2016-03-07T09:46:25Z</time>
      </trkpt>
      <trkpt lat="48.21696" lon="-3.15368">
        <ele>357</ele>
        <time>2016-03-07T09:46:27Z</time>
      </trkpt>
      <trkpt lat="48.21692" lon="-3.1537">
        <ele>358</ele>
        <time>2016-03-07T09:46:29Z</time>
      </trkpt>
      <trkpt lat="48.21696" lon="-3.1537">
        <ele>358</ele>
        <time>2016-03-07T09:46:32Z</time>
      </trkpt>
      <trkpt lat="48.21701" lon="-3.15369">
        <ele>358</ele>
        <time>2016-03-07T09:46:35Z</time>
      </trkpt>
      <trkpt lat="48.21704" lon="-3.15368">
        <ele>358</ele>
        <time>2016-03-07T09:46:37Z</time>
      </trkpt>
      <trkpt lat="48.21707" lon="-3.15368">
        <ele>359</ele>
        <time>2016-03-07T09:46:39Z</time>
      </trkpt>
      <trkpt lat="48.2171" lon="-3.15367">
        <ele>359</ele>
        <time>2016-03-07T09:46:42Z</time>
      </trkpt>
      <trkpt lat="48.21713" lon="-3.15366">
        <ele>359</ele>
        <time>2016-03-07T09:46:45Z</time>
      </trkpt>
      <trkpt lat="48.21715" lon="-3.15366">
        <ele>359</ele>
        <time>2016-03-07T09:46:47Z</time>
      </trkpt>
      <trkpt lat="48.21717" lon="-3.15365">
        <ele>359</ele>
        <time>2016-03-07T09:46:50Z</time>
      </trkpt>
      <trkpt lat="48.21717" lon="-3.15365">
        <ele>358</ele>
        <time>2016-03-07T09:46:52Z</time>
      </trkpt>
      <trkpt lat="48.21718" lon="-3.15367">
        <ele>358</ele>
        <time>2016-03-07T09:46:54Z</time>
      </trkpt>
      <trkpt lat="48.21717" lon="-3.15368">
        <ele>358</ele>
        <time>2016-03-07T09:46:56Z</time>
      </trkpt>
      <trkpt lat="48.21716" lon="-3.15365">
        <ele>357</ele>
        <time>2016-03-07T09:46:59Z</time>
      </trkpt>
      <trkpt lat="48.21716" lon="-3.15363">
        <ele>357</ele>
        <time>2016-03-07T09:47:01Z</time>
      </trkpt>
      <trkpt lat="48.21717" lon="-3.15361">
        <ele>356</ele>
        <time>2016-03-07T09:47:03Z</time>
      </trkpt>
      <trkpt lat="48.21718" lon="-3.15356">
        <ele>356</ele>
        <time>2016-03-07T09:47:06Z</time>
      </trkpt>
      <trkpt lat="48.21719" lon="-3.15354">
        <ele>356</ele>
        <time>2016-03-07T09:47:09Z</time>
      </trkpt>
      <trkpt lat="48.2172" lon="-3.15353">
        <ele>355</ele>
        <time>2016-03-07T09:47:12Z</time>
      </trkpt>
      <trkpt lat="48.2172" lon="-3.15354">
        <ele>355</ele>
        <time>2016-03-07T09:47:15Z</time>
      </trkpt>
      <trkpt lat="48.2172" lon="-3.15354">
        <ele>355</ele>
        <time>2016-03-07T09:47:17Z</time>
      </trkpt>
      <trkpt lat="48.21721" lon="-3.15354">
        <ele>355</ele>
        <time>2016-03-07T09:47:20Z</time>
      </trkpt>
      <trkpt lat="48.21721" lon="-3.15352">
        <ele>355</ele>
        <time>2016-03-07T09:47:22Z</time>
      </trkpt>
      <trkpt lat="48.21721" lon="-3.1535">
        <ele>355</ele>
        <time>2016-03-07T09:47:24Z</time>
      </trkpt>
      <trkpt lat="48.21723" lon="-3.15351">
        <ele>355</ele>
        <time>2016-03-07T09:47:26Z</time>
      </trkpt>
      <trkpt lat="48.21724" lon="-3.15354">
        <ele>355</ele>
        <time>2016-03-07T09:47:29Z</time>
      </trkpt>
      <trkpt lat="48.21726" lon="-3.15354">
        <ele>355</ele>
        <time>2016-03-07T09:47:32Z</time>
      </trkpt>
      <trkpt lat="48.21728" lon="-3.15354">
        <ele>356</ele>
        <time>2016-03-07T09:47:35Z</time>
      </trkpt>
      <trkpt lat="48.21728" lon="-3.15354">
        <ele>356</ele>
        <time>2016-03-07T09:47:37Z</time>
      </trkpt>
      <trkpt lat="48.2173" lon="-3.15356">
        <ele>356</ele>
        <time>2016-03-07T09:47:40Z</time>
      </trkpt>
      <trkpt lat="48.21731" lon="-3.15357">
        <ele>357</ele>
        <time>2016-03-07T09:47:43Z</time>
      </trkpt>
      <trkpt lat="48.21732" lon="-3.15356">
        <ele>358</ele>
        <time>2016-03-07T09:47:45Z</time>
      </trkpt>
      <trkpt lat="48.21732" lon="-3.15355">
        <ele>359</ele>
        <time>2016-03-07T09:47:48Z</time>
      </trkpt>
      <trkpt lat="48.21733" lon="-3.15354">
        <ele>359</ele>
        <time>2016-03-07T09:47:50Z</time>
      </trkpt>
      <trkpt lat="48.21733" lon="-3.15354">
        <ele>359</ele>
        <time>2016-03-07T09:47:52Z</time>
      </trkpt>
      <trkpt lat="48.21733" lon="-3.15353">
        <ele>360</ele>
        <time>2016-03-07T09:47:56Z</time>
      </trkpt>
      <trkpt lat="48.21733" lon="-3.15353">
        <ele>359</ele>
        <time>2016-03-07T09:48:00Z</time>
      </trkpt>
      <trkpt lat="48.21733" lon="-3.15353">
        <ele>359</ele>
        <time>2016-03-07T09:48:02Z</time>
      </trkpt>
      <trkpt lat="48.21733" lon="-3.15353">
        <ele>359</ele>
        <time>2016-03-07T09:48:04Z</time>
      </trkpt>
      <trkpt lat="48.21733" lon="-3.15351">
        <ele>359</ele>
        <time>2016-03-07T09:48:07Z</time>
      </trkpt>
      <trkpt lat="48.21735" lon="-3.15348">
        <ele>359</ele>
        <time>2016-03-07T09:48:10Z</time>
      </trkpt>
      <trkpt lat="48.21736" lon="-3.15345">
        <ele>359</ele>
        <time>2016-03-07T09:48:12Z</time>
      </trkpt>
      <trkpt lat="48.21737" lon="-3.15342">
        <ele>360</ele>
        <time>2016-03-07T09:48:15Z</time>
      </trkpt>
      <trkpt lat="48.21737" lon="-3.15342">
        <ele>360</ele>
        <time>2016-03-07T09:48:19Z</time>
      </trkpt>
      <trkpt lat="48.21737" lon="-3.15342">
        <ele>360</ele>
        <time>2016-03-07T09:48:21Z</time>
      </trkpt>
      <trkpt lat="48.21738" lon="-3.15342">
        <ele>360</ele>
        <time>2016-03-07T09:48:24Z</time>
      </trkpt>
      <trkpt lat="48.21739" lon="-3.15341">
        <ele>360</ele>
        <time>2016-03-07T09:48:26Z</time>
      </trkpt>
      <trkpt lat="48.21739" lon="-3.1534">
        <ele>360</ele>
        <time>2016-03-07T09:48:34Z</time>
      </trkpt>
      <trkpt lat="48.21739" lon="-3.1534">
        <ele>360</ele>
        <time>2016-03-07T09:48:36Z</time>
      </trkpt>
      <trkpt lat="48.21738" lon="-3.1534">
        <ele>360</ele>
        <time>2016-03-07T09:48:39Z</time>
      </trkpt>
      <trkpt lat="48.21737" lon="-3.15341">
        <ele>360</ele>
        <time>2016-03-07T09:48:42Z</time>
      </trkpt>
      <trkpt lat="48.21736" lon="-3.15343">
        <ele>360</ele>
        <time>2016-03-07T09:48:45Z</time>
      </trkpt>
      <trkpt lat="48.21735" lon="-3.15344">
        <ele>360</ele>
        <time>2016-03-07T09:48:48Z</time>
      </trkpt>
      <trkpt lat="48.21735" lon="-3.15343">
        <ele>360</ele>
        <time>2016-03-07T09:48:52Z</time>
      </trkpt>
      <trkpt lat="48.21735" lon="-3.15343">
        <ele>360</ele>
        <time>2016-03-07T09:48:55Z</time>
      </trkpt>
      <trkpt lat="48.21734" lon="-3.15345">
        <ele>360</ele>
        <time>2016-03-07T09:48:57Z</time>
      </trkpt>
      <trkpt lat="48.21733" lon="-3.15346">
        <ele>360</ele>
        <time>2016-03-07T09:49:00Z</time>
      </trkpt>
      <trkpt lat="48.21732" lon="-3.15346">
        <ele>359</ele>
        <time>2016-03-07T09:49:02Z</time>
      </trkpt>
      <trkpt lat="48.21731" lon="-3.15347">
        <ele>358</ele>
        <time>2016-03-07T09:49:05Z</time>
      </trkpt>
      <trkpt lat="48.21731" lon="-3.15348">
        <ele>358</ele>
        <time>2016-03-07T09:49:07Z</time>
      </trkpt>
      <trkpt lat="48.21731" lon="-3.1535">
        <ele>358</ele>
        <time>2016-03-07T09:49:09Z</time>
      </trkpt>
      <trkpt lat="48.2173" lon="-3.15352">
        <ele>358</ele>
        <time>2016-03-07T09:49:12Z</time>
      </trkpt>
      <trkpt lat="48.2173" lon="-3.15352">
        <ele>358</ele>
        <time>2016-03-07T09:49:15Z</time>
      </trkpt>
      <trkpt lat="48.21729" lon="-3.15352">
        <ele>358</ele>
        <time>2016-03-07T09:49:17Z</time>
      </trkpt>
      <trkpt lat="48.21728" lon="-3.15354">
        <ele>357</ele>
        <time>2016-03-07T09:49:20Z</time>
      </trkpt>
      <trkpt lat="48.21728" lon="-3.15357">
        <ele>357</ele>
        <time>2016-03-07T09:49:22Z</time>
      </trkpt>
      <trkpt lat="48.21727" lon="-3.15359">
        <ele>357</ele>
        <time>2016-03-07T09:49:24Z</time>
      </trkpt>
      <trkpt lat="48.21727" lon="-3.15359">
        <ele>358</ele>
        <time>2016-03-07T09:49:28Z</time>
      </trkpt>
      <trkpt lat="48.21727" lon="-3.15358">
        <ele>358</ele>
        <time>2016-03-07T09:49:31Z</time>
      </trkpt>
      <trkpt lat="48.21727" lon="-3.15355">
        <ele>358</ele>
        <time>2016-03-07T09:49:34Z</time>
      </trkpt>
      <trkpt lat="48.21728" lon="-3.15352">
        <ele>358</ele>
        <time>2016-03-07T09:49:37Z</time>
      </trkpt>
      <trkpt lat="48.21727" lon="-3.15349">
        <ele>357</ele>
        <time>2016-03-07T09:49:40Z</time>
      </trkpt>
      <trkpt lat="48.21726" lon="-3.15349">
        <ele>357</ele>
        <time>2016-03-07T09:49:42Z</time>
      </trkpt>
      <trkpt lat="48.21725" lon="-3.15351">
        <ele>356</ele>
        <time>2016-03-07T09:49:45Z</time>
      </trkpt>
      <trkpt lat="48.21724" lon="-3.1535">
        <ele>356</ele>
        <time>2016-03-07T09:49:48Z</time>
      </trkpt>
      <trkpt lat="48.21724" lon="-3.1535">
        <ele>356</ele>
        <time>2016-03-07T09:49:50Z</time>
      </trkpt>
      <trkpt lat="48.21723" lon="-3.1535">
        <ele>355</ele>
        <time>2016-03-07T09:49:53Z</time>
      </trkpt>
      <trkpt lat="48.21723" lon="-3.15348">
        <ele>355</ele>
        <time>2016-03-07T09:49:55Z</time>
      </trkpt>
      <trkpt lat="48.21722" lon="-3.15347">
        <ele>355</ele>
        <time>2016-03-07T09:49:57Z</time>
      </trkpt>
      <trkpt lat="48.21723" lon="-3.15347">
        <ele>355</ele>
        <time>2016-03-07T09:49:59Z</time>
      </trkpt>
      <trkpt lat="48.21722" lon="-3.15347">
        <ele>355</ele>
        <time>2016-03-07T09:50:02Z</time>
      </trkpt>
      <trkpt lat="48.21722" lon="-3.15347">
        <ele>354</ele>
        <time>2016-03-07T09:50:05Z</time>
      </trkpt>
      <trkpt lat="48.21723" lon="-3.15347">
        <ele>354</ele>
        <time>2016-03-07T09:50:08Z</time>
      </trkpt>
      <trkpt lat="48.21723" lon="-3.15347">
        <ele>355</ele>
        <time>2016-03-07T09:50:10Z</time>
      </trkpt>
      <trkpt lat="48.21724" lon="-3.15348">
        <ele>355</ele>
        <time>2016-03-07T09:50:12Z</time>
      </trkpt>
      <trkpt lat="48.21724" lon="-3.15348">
        <ele>355</ele>
        <time>2016-03-07T09:50:15Z</time>
      </trkpt>
      <trkpt lat="48.21724" lon="-3.15348">
        <ele>355</ele>
        <time>2016-03-07T09:50:17Z</time>
      </trkpt>
      <trkpt lat="48.21725" lon="-3.15348">
        <ele>355</ele>
        <time>2016-03-07T09:50:20Z</time>
      </trkpt>
      <trkpt lat="48.21725" lon="-3.15348">
        <ele>355</ele>
        <time>2016-03-07T09:50:22Z</time>
      </trkpt>
      <trkpt lat="48.21725" lon="-3.15348">
        <ele>355</ele>
        <time>2016-03-07T09:50:25Z</time>
      </trkpt>
      <trkpt lat="48.21725" lon="-3.15349">
        <ele>355</ele>
        <time>2016-03-07T09:50:27Z</time>
      </trkpt>
      <trkpt lat="48.21725" lon="-3.15349">
        <ele>355</ele>
        <time>2016-03-07T09:50:30Z</time>
      </trkpt>
      <trkpt lat="48.21725" lon="-3.15349">
        <ele>355</ele>
        <time>2016-03-07T09:50:32Z</time>
      </trkpt>
      <trkpt lat="48.21725" lon="-3.15345">
        <ele>354</ele>
        <time>2016-03-07T09:50:35Z</time>
      </trkpt>
      <trkpt lat="48.21725" lon="-3.15343">
        <ele>354</ele>
        <time>2016-03-07T09:50:37Z</time>
      </trkpt>
      <trkpt lat="48.21724" lon="-3.15344">
        <ele>354</ele>
        <time>2016-03-07T09:50:40Z</time>
      </trkpt>
      <trkpt lat="48.21724" lon="-3.15344">
        <ele>354</ele>
        <time>2016-03-07T09:50:42Z</time>
      </trkpt>
      <trkpt lat="48.21724" lon="-3.15345">
        <ele>355</ele>
        <time>2016-03-07T09:50:44Z</time>
      </trkpt>
      <trkpt lat="48.21724" lon="-3.15344">
        <ele>356</ele>
        <time>2016-03-07T09:50:47Z</time>
      </trkpt>
      <trkpt lat="48.21724" lon="-3.15344">
        <ele>355</ele>
        <time>2016-03-07T09:50:53Z</time>
      </trkpt>
      <trkpt lat="48.21724" lon="-3.15345">
        <ele>355</ele>
        <time>2016-03-07T09:50:55Z</time>
      </trkpt>
      <trkpt lat="48.21724" lon="-3.15344">
        <ele>355</ele>
        <time>2016-03-07T09:50:57Z</time>
      </trkpt>
      <trkpt lat="48.21723" lon="-3.15345">
        <ele>355</ele>
        <time>2016-03-07T09:51:00Z</time>
      </trkpt>
      <trkpt lat="48.21723" lon="-3.15346">
        <ele>355</ele>
        <time>2016-03-07T09:51:03Z</time>
      </trkpt>
      <trkpt lat="48.21723" lon="-3.15346">
        <ele>355</ele>
        <time>2016-03-07T09:51:07Z</time>
      </trkpt>
      <trkpt lat="48.21723" lon="-3.15346">
        <ele>355</ele>
        <time>2016-03-07T09:51:10Z</time>
      </trkpt>
      <trkpt lat="48.21723" lon="-3.15346">
        <ele>355</ele>
        <time>2016-03-07T09:51:12Z</time>
      </trkpt>
      <trkpt lat="48.21723" lon="-3.15346">
        <ele>355</ele>
        <time>2016-03-07T09:51:15Z</time>
      </trkpt>
      <trkpt lat="48.21723" lon="-3.15346">
        <ele>355</ele>
        <time>2016-03-07T09:51:17Z</time>
      </trkpt>
      <trkpt lat="48.21723" lon="-3.15346">
        <ele>355</ele>
        <time>2016-03-07T09:51:20Z</time>
      </trkpt>
      <trkpt lat="48.21723" lon="-3.15345">
        <ele>355</ele>
        <time>2016-03-07T09:51:22Z</time>
      </trkpt>
      <trkpt lat="48.21723" lon="-3.15345">
        <ele>355</ele>
        <time>2016-03-07T09:51:27Z</time>
      </trkpt>
      <trkpt lat="48.21722" lon="-3.15346">
        <ele>355</ele>
        <time>2016-03-07T09:51:31Z</time>
      </trkpt>
      <trkpt lat="48.21722" lon="-3.15346">
        <ele>355</ele>
        <time>2016-03-07T09:51:34Z</time>
      </trkpt>
      <trkpt lat="48.21722" lon="-3.15345">
        <ele>355</ele>
        <time>2016-03-07T09:51:37Z</time>
      </trkpt>
      <trkpt lat="48.21722" lon="-3.15345">
        <ele>355</ele>
        <time>2016-03-07T09:51:39Z</time>
      </trkpt>
      <trkpt lat="48.21722" lon="-3.15346">
        <ele>355</ele>
        <time>2016-03-07T09:51:41Z</time>
      </trkpt>
      <trkpt lat="48.21722" lon="-3.15345">
        <ele>355</ele>
        <time>2016-03-07T09:51:44Z</time>
      </trkpt>
      <trkpt lat="48.21722" lon="-3.15345">
        <ele>355</ele>
        <time>2016-03-07T09:51:47Z</time>
      </trkpt>
      <trkpt lat="48.21723" lon="-3.15345">
        <ele>355</ele>
        <time>2016-03-07T09:51:49Z</time>
      </trkpt>
      <trkpt lat="48.21724" lon="-3.15345">
        <ele>355</ele>
        <time>2016-03-07T09:51:52Z</time>
      </trkpt>
      <trkpt lat="48.21723" lon="-3.15346">
        <ele>354</ele>
        <time>2016-03-07T09:51:54Z</time>
      </trkpt>
      <trkpt lat="48.21723" lon="-3.15345">
        <ele>354</ele>
        <time>2016-03-07T09:51:57Z</time>
      </trkpt>
      <trkpt lat="48.21724" lon="-3.15345">
        <ele>354</ele>
        <time>2016-03-07T09:52:00Z</time>
      </trkpt>
      <trkpt lat="48.21724" lon="-3.15345">
        <ele>355</ele>
        <time>2016-03-07T09:52:03Z</time>
      </trkpt>
      <trkpt lat="48.21724" lon="-3.15345">
        <ele>355</ele>
        <time>2016-03-07T09:52:06Z</time>
      </trkpt>
      <trkpt lat="48.21724" lon="-3.15345">
        <ele>355</ele>
        <time>2016-03-07T09:52:10Z</time>
      </trkpt>
      <trkpt lat="48.21724" lon="-3.15346">
        <ele>355</ele>
        <time>2016-03-07T09:52:12Z</time>
      </trkpt>
      <trkpt lat="48.21724" lon="-3.15347">
        <ele>355</ele>
        <time>2016-03-07T09:52:15Z</time>
      </trkpt>
      <trkpt lat="48.21723" lon="-3.15347">
        <ele>355</ele>
        <time>2016-03-07T09:52:20Z</time>
      </trkpt>
      <trkpt lat="48.21724" lon="-3.15347">
        <ele>355</ele>
        <time>2016-03-07T09:52:23Z</time>
      </trkpt>
      <trkpt lat="48.21723" lon="-3.15347">
        <ele>355</ele>
        <time>2016-03-07T09:52:27Z</time>
      </trkpt>
      <trkpt lat="48.21723" lon="-3.15347">
        <ele>355</ele>
        <time>2016-03-07T09:52:30Z</time>
      </trkpt>
      <trkpt lat="48.21723" lon="-3.15348">
        <ele>355</ele>
        <time>2016-03-07T09:52:33Z</time>
      </trkpt>
      <trkpt lat="48.21724" lon="-3.15348">
        <ele>355</ele>
        <time>2016-03-07T09:52:37Z</time>
      </trkpt>
      <trkpt lat="48.21725" lon="-3.15348">
        <ele>354</ele>
        <time>2016-03-07T09:52:40Z</time>
      </trkpt>
      <trkpt lat="48.21725" lon="-3.15348">
        <ele>354</ele>
        <time>2016-03-07T09:52:42Z</time>
      </trkpt>
      <trkpt lat="48.21725" lon="-3.15348">
        <ele>354</ele>
        <time>2016-03-07T09:52:45Z</time>
      </trkpt>
      <trkpt lat="48.21724" lon="-3.15347">
        <ele>354</ele>
        <time>2016-03-07T09:52:48Z</time>
      </trkpt>
      <trkpt lat="48.21725" lon="-3.15347">
        <ele>354</ele>
        <time>2016-03-07T09:52:51Z</time>
      </trkpt>
      <trkpt lat="48.21724" lon="-3.15347">
        <ele>354</ele>
        <time>2016-03-07T09:52:54Z</time>
      </trkpt>
      <trkpt lat="48.21724" lon="-3.15347">
        <ele>355</ele>
        <time>2016-03-07T09:52:56Z</time>
      </trkpt>
      <trkpt lat="48.21724" lon="-3.15346">
        <ele>355</ele>
        <time>2016-03-07T09:52:59Z</time>
      </trkpt>
      <trkpt lat="48.21724" lon="-3.15346">
        <ele>355</ele>
        <time>2016-03-07T09:53:01Z</time>
      </trkpt>
      <trkpt lat="48.21724" lon="-3.15345">
        <ele>355</ele>
        <time>2016-03-07T09:53:03Z</time>
      </trkpt>
      <trkpt lat="48.21724" lon="-3.15343">
        <ele>354</ele>
        <time>2016-03-07T09:53:06Z</time>
      </trkpt>
      <trkpt lat="48.21724" lon="-3.15342">
        <ele>354</ele>
        <time>2016-03-07T09:53:09Z</time>
      </trkpt>
      <trkpt lat="48.21724" lon="-3.15341">
        <ele>354</ele>
        <time>2016-03-07T09:53:11Z</time>
      </trkpt>
      <trkpt lat="48.21724" lon="-3.1534">
        <ele>354</ele>
        <time>2016-03-07T09:53:14Z</time>
      </trkpt>
      <trkpt lat="48.21724" lon="-3.15337">
        <ele>354</ele>
        <time>2016-03-07T09:53:17Z</time>
      </trkpt>
      <trkpt lat="48.21724" lon="-3.15334">
        <ele>354</ele>
        <time>2016-03-07T09:53:20Z</time>
      </trkpt>
      <trkpt lat="48.21724" lon="-3.15331">
        <ele>354</ele>
        <time>2016-03-07T09:53:22Z</time>
      </trkpt>
      <trkpt lat="48.21725" lon="-3.15328">
        <ele>354</ele>
        <time>2016-03-07T09:53:24Z</time>
      </trkpt>
      <trkpt lat="48.21725" lon="-3.15325">
        <ele>354</ele>
        <time>2016-03-07T09:53:27Z</time>
      </trkpt>
      <trkpt lat="48.21725" lon="-3.15322">
        <ele>354</ele>
        <time>2016-03-07T09:53:29Z</time>
      </trkpt>
      <trkpt lat="48.21726" lon="-3.1532">
        <ele>354</ele>
        <time>2016-03-07T09:53:31Z</time>
      </trkpt>
      <trkpt lat="48.21727" lon="-3.15318">
        <ele>354</ele>
        <time>2016-03-07T09:53:33Z</time>
      </trkpt>
      <trkpt lat="48.21727" lon="-3.15315">
        <ele>354</ele>
        <time>2016-03-07T09:53:35Z</time>
      </trkpt>
      <trkpt lat="48.21729" lon="-3.15313">
        <ele>354</ele>
        <time>2016-03-07T09:53:38Z</time>
      </trkpt>
      <trkpt lat="48.21729" lon="-3.15311">
        <ele>354</ele>
        <time>2016-03-07T09:53:40Z</time>
      </trkpt>
      <trkpt lat="48.2173" lon="-3.15308">
        <ele>354</ele>
        <time>2016-03-07T09:53:43Z</time>
      </trkpt>
      <trkpt lat="48.21731" lon="-3.15306">
        <ele>355</ele>
        <time>2016-03-07T09:53:45Z</time>
      </trkpt>
      <trkpt lat="48.21732" lon="-3.15304">
        <ele>355</ele>
        <time>2016-03-07T09:53:48Z</time>
      </trkpt>
      <trkpt lat="48.21733" lon="-3.15302">
        <ele>356</ele>
        <time>2016-03-07T09:53:50Z</time>
      </trkpt>
      <trkpt lat="48.21734" lon="-3.15299">
        <ele>356</ele>
        <time>2016-03-07T09:53:52Z</time>
      </trkpt>
      <trkpt lat="48.21734" lon="-3.15295">
        <ele>355</ele>
        <time>2016-03-07T09:53:55Z</time>
      </trkpt>
      <trkpt lat="48.21735" lon="-3.15289">
        <ele>356</ele>
        <time>2016-03-07T09:53:58Z</time>
      </trkpt>
      <trkpt lat="48.21736" lon="-3.15285">
        <ele>356</ele>
        <time>2016-03-07T09:54:01Z</time>
      </trkpt>
      <trkpt lat="48.21737" lon="-3.1528">
        <ele>356</ele>
        <time>2016-03-07T09:54:04Z</time>
      </trkpt>
      <trkpt lat="48.21737" lon="-3.15275">
        <ele>355</ele>
        <time>2016-03-07T09:54:07Z</time>
      </trkpt>
      <trkpt lat="48.21736" lon="-3.1527">
        <ele>355</ele>
        <time>2016-03-07T09:54:10Z</time>
      </trkpt>
      <trkpt lat="48.21736" lon="-3.15268">
        <ele>355</ele>
        <time>2016-03-07T09:54:12Z</time>
      </trkpt>
      <trkpt lat="48.21735" lon="-3.15265">
        <ele>355</ele>
        <time>2016-03-07T09:54:14Z</time>
      </trkpt>
      <trkpt lat="48.21735" lon="-3.1526">
        <ele>355</ele>
        <time>2016-03-07T09:54:17Z</time>
      </trkpt>
      <trkpt lat="48.21735" lon="-3.15256">
        <ele>355</ele>
        <time>2016-03-07T09:54:20Z</time>
      </trkpt>
      <trkpt lat="48.21736" lon="-3.15251">
        <ele>355</ele>
        <time>2016-03-07T09:54:23Z</time>
      </trkpt>
      <trkpt lat="48.21736" lon="-3.15248">
        <ele>355</ele>
        <time>2016-03-07T09:54:25Z</time>
      </trkpt>
      <trkpt lat="48.21735" lon="-3.15244">
        <ele>355</ele>
        <time>2016-03-07T09:54:28Z</time>
      </trkpt>
      <trkpt lat="48.21735" lon="-3.15241">
        <ele>355</ele>
        <time>2016-03-07T09:54:30Z</time>
      </trkpt>
      <trkpt lat="48.21735" lon="-3.15236">
        <ele>355</ele>
        <time>2016-03-07T09:54:33Z</time>
      </trkpt>
      <trkpt lat="48.21735" lon="-3.15231">
        <ele>354</ele>
        <time>2016-03-07T09:54:36Z</time>
      </trkpt>
      <trkpt lat="48.21735" lon="-3.15227">
        <ele>355</ele>
        <time>2016-03-07T09:54:39Z</time>
      </trkpt>
      <trkpt lat="48.21736" lon="-3.15224">
        <ele>355</ele>
        <time>2016-03-07T09:54:41Z</time>
      </trkpt>
      <trkpt lat="48.21738" lon="-3.15219">
        <ele>355</ele>
        <time>2016-03-07T09:54:44Z</time>
      </trkpt>
      <trkpt lat="48.21738" lon="-3.15216">
        <ele>354</ele>
        <time>2016-03-07T09:54:46Z</time>
      </trkpt>
      <trkpt lat="48.21739" lon="-3.15212">
        <ele>354</ele>
        <time>2016-03-07T09:54:49Z</time>
      </trkpt>
      <trkpt lat="48.21739" lon="-3.15209">
        <ele>354</ele>
        <time>2016-03-07T09:54:51Z</time>
      </trkpt>
      <trkpt lat="48.2174" lon="-3.15205">
        <ele>354</ele>
        <time>2016-03-07T09:54:53Z</time>
      </trkpt>
      <trkpt lat="48.2174" lon="-3.15202">
        <ele>354</ele>
        <time>2016-03-07T09:54:55Z</time>
      </trkpt>
      <trkpt lat="48.2174" lon="-3.15199">
        <ele>354</ele>
        <time>2016-03-07T09:54:57Z</time>
      </trkpt>
      <trkpt lat="48.21742" lon="-3.15195">
        <ele>354</ele>
        <time>2016-03-07T09:55:00Z</time>
      </trkpt>
      <trkpt lat="48.21743" lon="-3.15192">
        <ele>354</ele>
        <time>2016-03-07T09:55:02Z</time>
      </trkpt>
      <trkpt lat="48.21743" lon="-3.15189">
        <ele>354</ele>
        <time>2016-03-07T09:55:04Z</time>
      </trkpt>
      <trkpt lat="48.21743" lon="-3.15185">
        <ele>354</ele>
        <time>2016-03-07T09:55:07Z</time>
      </trkpt>
      <trkpt lat="48.21744" lon="-3.15182">
        <ele>353</ele>
        <time>2016-03-07T09:55:09Z</time>
      </trkpt>
      <trkpt lat="48.21743" lon="-3.15179">
        <ele>353</ele>
        <time>2016-03-07T09:55:11Z</time>
      </trkpt>
      <trkpt lat="48.21743" lon="-3.15177">
        <ele>353</ele>
        <time>2016-03-07T09:55:13Z</time>
      </trkpt>
      <trkpt lat="48.21743" lon="-3.15173">
        <ele>353</ele>
        <time>2016-03-07T09:55:16Z</time>
      </trkpt>
      <trkpt lat="48.21744" lon="-3.1517">
        <ele>353</ele>
        <time>2016-03-07T09:55:18Z</time>
      </trkpt>
      <trkpt lat="48.21744" lon="-3.15165">
        <ele>353</ele>
        <time>2016-03-07T09:55:21Z</time>
      </trkpt>
      <trkpt lat="48.21744" lon="-3.15161">
        <ele>352</ele>
        <time>2016-03-07T09:55:24Z</time>
      </trkpt>
      <trkpt lat="48.21744" lon="-3.15158">
        <ele>352</ele>
        <time>2016-03-07T09:55:26Z</time>
      </trkpt>
      <trkpt lat="48.21744" lon="-3.15155">
        <ele>352</ele>
        <time>2016-03-07T09:55:28Z</time>
      </trkpt>
      <trkpt lat="48.21744" lon="-3.15151">
        <ele>352</ele>
        <time>2016-03-07T09:55:31Z</time>
      </trkpt>
      <trkpt lat="48.21744" lon="-3.15147">
        <ele>352</ele>
        <time>2016-03-07T09:55:33Z</time>
      </trkpt>
      <trkpt lat="48.21745" lon="-3.15143">
        <ele>352</ele>
        <time>2016-03-07T09:55:36Z</time>
      </trkpt>
      <trkpt lat="48.21745" lon="-3.15138">
        <ele>351</ele>
        <time>2016-03-07T09:55:38Z</time>
      </trkpt>
      <trkpt lat="48.21745" lon="-3.15135">
        <ele>351</ele>
        <time>2016-03-07T09:55:41Z</time>
      </trkpt>
      <trkpt lat="48.21746" lon="-3.15131">
        <ele>351</ele>
        <time>2016-03-07T09:55:43Z</time>
      </trkpt>
      <trkpt lat="48.21747" lon="-3.15127">
        <ele>350</ele>
        <time>2016-03-07T09:55:46Z</time>
      </trkpt>
      <trkpt lat="48.21748" lon="-3.15122">
        <ele>350</ele>
        <time>2016-03-07T09:55:49Z</time>
      </trkpt>
      <trkpt lat="48.21748" lon="-3.15119">
        <ele>350</ele>
        <time>2016-03-07T09:55:51Z</time>
      </trkpt>
      <trkpt lat="48.21749" lon="-3.15114">
        <ele>350</ele>
        <time>2016-03-07T09:55:54Z</time>
      </trkpt>
      <trkpt lat="48.2175" lon="-3.15111">
        <ele>350</ele>
        <time>2016-03-07T09:55:56Z</time>
      </trkpt>
      <trkpt lat="48.21751" lon="-3.15107">
        <ele>349</ele>
        <time>2016-03-07T09:55:58Z</time>
      </trkpt>
      <trkpt lat="48.21752" lon="-3.15103">
        <ele>349</ele>
        <time>2016-03-07T09:56:01Z</time>
      </trkpt>
      <trkpt lat="48.21752" lon="-3.15098">
        <ele>348</ele>
        <time>2016-03-07T09:56:04Z</time>
      </trkpt>
      <trkpt lat="48.21753" lon="-3.15094">
        <ele>348</ele>
        <time>2016-03-07T09:56:07Z</time>
      </trkpt>
      <trkpt lat="48.21754" lon="-3.1509">
        <ele>348</ele>
        <time>2016-03-07T09:56:09Z</time>
      </trkpt>
      <trkpt lat="48.21754" lon="-3.15086">
        <ele>348</ele>
        <time>2016-03-07T09:56:12Z</time>
      </trkpt>
      <trkpt lat="48.21755" lon="-3.15082">
        <ele>348</ele>
        <time>2016-03-07T09:56:15Z</time>
      </trkpt>
      <trkpt lat="48.21755" lon="-3.1508">
        <ele>348</ele>
        <time>2016-03-07T09:56:17Z</time>
      </trkpt>
      <trkpt lat="48.21755" lon="-3.15077">
        <ele>348</ele>
        <time>2016-03-07T09:56:19Z</time>
      </trkpt>
      <trkpt lat="48.21754" lon="-3.15074">
        <ele>347</ele>
        <time>2016-03-07T09:56:21Z</time>
      </trkpt>
      <trkpt lat="48.21755" lon="-3.15071">
        <ele>347</ele>
        <time>2016-03-07T09:56:24Z</time>
      </trkpt>
      <trkpt lat="48.21755" lon="-3.15068">
        <ele>347</ele>
        <time>2016-03-07T09:56:26Z</time>
      </trkpt>
      <trkpt lat="48.21755" lon="-3.15064">
        <ele>347</ele>
        <time>2016-03-07T09:56:29Z</time>
      </trkpt>
      <trkpt lat="48.21754" lon="-3.1506">
        <ele>346</ele>
        <time>2016-03-07T09:56:32Z</time>
      </trkpt>
      <trkpt lat="48.21754" lon="-3.15056">
        <ele>346</ele>
        <time>2016-03-07T09:56:35Z</time>
      </trkpt>
      <trkpt lat="48.21754" lon="-3.15052">
        <ele>346</ele>
        <time>2016-03-07T09:56:38Z</time>
      </trkpt>
      <trkpt lat="48.21754" lon="-3.15047">
        <ele>346</ele>
        <time>2016-03-07T09:56:41Z</time>
      </trkpt>
      <trkpt lat="48.21753" lon="-3.15043">
        <ele>346</ele>
        <time>2016-03-07T09:56:44Z</time>
      </trkpt>
      <trkpt lat="48.21753" lon="-3.1504">
        <ele>345</ele>
        <time>2016-03-07T09:56:47Z</time>
      </trkpt>
      <trkpt lat="48.21752" lon="-3.15036">
        <ele>344</ele>
        <time>2016-03-07T09:56:50Z</time>
      </trkpt>
      <trkpt lat="48.21753" lon="-3.15034">
        <ele>344</ele>
        <time>2016-03-07T09:56:52Z</time>
      </trkpt>
      <trkpt lat="48.21753" lon="-3.1503">
        <ele>344</ele>
        <time>2016-03-07T09:56:55Z</time>
      </trkpt>
      <trkpt lat="48.21753" lon="-3.15026">
        <ele>344</ele>
        <time>2016-03-07T09:56:58Z</time>
      </trkpt>
      <trkpt lat="48.21752" lon="-3.15022">
        <ele>343</ele>
        <time>2016-03-07T09:57:00Z</time>
      </trkpt>
      <trkpt lat="48.21752" lon="-3.1502">
        <ele>343</ele>
        <time>2016-03-07T09:57:02Z</time>
      </trkpt>
      <trkpt lat="48.21751" lon="-3.15016">
        <ele>342</ele>
        <time>2016-03-07T09:57:06Z</time>
      </trkpt>
      <trkpt lat="48.21751" lon="-3.15012">
        <ele>342</ele>
        <time>2016-03-07T09:57:09Z</time>
      </trkpt>
      <trkpt lat="48.21751" lon="-3.15008">
        <ele>342</ele>
        <time>2016-03-07T09:57:12Z</time>
      </trkpt>
      <trkpt lat="48.2175" lon="-3.15005">
        <ele>341</ele>
        <time>2016-03-07T09:57:14Z</time>
      </trkpt>
      <trkpt lat="48.2175" lon="-3.15002">
        <ele>341</ele>
        <time>2016-03-07T09:57:16Z</time>
      </trkpt>
      <trkpt lat="48.2175" lon="-3.15">
        <ele>341</ele>
        <time>2016-03-07T09:57:18Z</time>
      </trkpt>
      <trkpt lat="48.2175" lon="-3.14997">
        <ele>341</ele>
        <time>2016-03-07T09:57:21Z</time>
      </trkpt>
      <trkpt lat="48.2175" lon="-3.14993">
        <ele>341</ele>
        <time>2016-03-07T09:57:24Z</time>
      </trkpt>
      <trkpt lat="48.21749" lon="-3.14989">
        <ele>341</ele>
        <time>2016-03-07T09:57:27Z</time>
      </trkpt>
      <trkpt lat="48.2175" lon="-3.14985">
        <ele>340</ele>
        <time>2016-03-07T09:57:30Z</time>
      </trkpt>
      <trkpt lat="48.2175" lon="-3.14982">
        <ele>340</ele>
        <time>2016-03-07T09:57:32Z</time>
      </trkpt>
      <trkpt lat="48.21749" lon="-3.14978">
        <ele>339</ele>
        <time>2016-03-07T09:57:35Z</time>
      </trkpt>
      <trkpt lat="48.21749" lon="-3.14975">
        <ele>339</ele>
        <time>2016-03-07T09:57:39Z</time>
      </trkpt>
      <trkpt lat="48.21748" lon="-3.14973">
        <ele>338</ele>
        <time>2016-03-07T09:57:41Z</time>
      </trkpt>
      <trkpt lat="48.21748" lon="-3.14969">
        <ele>338</ele>
        <time>2016-03-07T09:57:44Z</time>
      </trkpt>
      <trkpt lat="48.21748" lon="-3.14967">
        <ele>338</ele>
        <time>2016-03-07T09:57:46Z</time>
      </trkpt>
      <trkpt lat="48.21748" lon="-3.14964">
        <ele>338</ele>
        <time>2016-03-07T09:57:48Z</time>
      </trkpt>
      <trkpt lat="48.21748" lon="-3.14961">
        <ele>338</ele>
        <time>2016-03-07T09:57:51Z</time>
      </trkpt>
      <trkpt lat="48.21748" lon="-3.14958">
        <ele>338</ele>
        <time>2016-03-07T09:57:53Z</time>
      </trkpt>
      <trkpt lat="48.21748" lon="-3.14954">
        <ele>338</ele>
        <time>2016-03-07T09:57:56Z</time>
      </trkpt>
      <trkpt lat="48.21749" lon="-3.14951">
        <ele>338</ele>
        <time>2016-03-07T09:57:58Z</time>
      </trkpt>
      <trkpt lat="48.21749" lon="-3.14948">
        <ele>338</ele>
        <time>2016-03-07T09:58:00Z</time>
      </trkpt>
      <trkpt lat="48.2175" lon="-3.14945">
        <ele>338</ele>
        <time>2016-03-07T09:58:03Z</time>
      </trkpt>
      <trkpt lat="48.21751" lon="-3.14942">
        <ele>339</ele>
        <time>2016-03-07T09:58:05Z</time>
      </trkpt>
      <trkpt lat="48.21751" lon="-3.14938">
        <ele>339</ele>
        <time>2016-03-07T09:58:08Z</time>
      </trkpt>
      <trkpt lat="48.21752" lon="-3.14934">
        <ele>339</ele>
        <time>2016-03-07T09:58:11Z</time>
      </trkpt>
      <trkpt lat="48.21753" lon="-3.14931">
        <ele>339</ele>
        <time>2016-03-07T09:58:13Z</time>
      </trkpt>
      <trkpt lat="48.21754" lon="-3.14928">
        <ele>339</ele>
        <time>2016-03-07T09:58:16Z</time>
      </trkpt>
      <trkpt lat="48.21754" lon="-3.14924">
        <ele>339</ele>
        <time>2016-03-07T09:58:18Z</time>
      </trkpt>
      <trkpt lat="48.21755" lon="-3.14921">
        <ele>339</ele>
        <time>2016-03-07T09:58:21Z</time>
      </trkpt>
      <trkpt lat="48.21756" lon="-3.14917">
        <ele>339</ele>
        <time>2016-03-07T09:58:23Z</time>
      </trkpt>
      <trkpt lat="48.21756" lon="-3.14914">
        <ele>339</ele>
        <time>2016-03-07T09:58:26Z</time>
      </trkpt>
      <trkpt lat="48.21757" lon="-3.14911">
        <ele>340</ele>
        <time>2016-03-07T09:58:28Z</time>
      </trkpt>
      <trkpt lat="48.21758" lon="-3.14909">
        <ele>340</ele>
        <time>2016-03-07T09:58:30Z</time>
      </trkpt>
      <trkpt lat="48.21758" lon="-3.14906">
        <ele>340</ele>
        <time>2016-03-07T09:58:32Z</time>
      </trkpt>
      <trkpt lat="48.21759" lon="-3.14904">
        <ele>341</ele>
        <time>2016-03-07T09:58:35Z</time>
      </trkpt>
      <trkpt lat="48.21759" lon="-3.14902">
        <ele>341</ele>
        <time>2016-03-07T09:58:37Z</time>
      </trkpt>
      <trkpt lat="48.21759" lon="-3.14898">
        <ele>341</ele>
        <time>2016-03-07T09:58:40Z</time>
      </trkpt>
      <trkpt lat="48.2176" lon="-3.14895">
        <ele>342</ele>
        <time>2016-03-07T09:58:42Z</time>
      </trkpt>
      <trkpt lat="48.21761" lon="-3.14892">
        <ele>342</ele>
        <time>2016-03-07T09:58:45Z</time>
      </trkpt>
      <trkpt lat="48.21761" lon="-3.14889">
        <ele>342</ele>
        <time>2016-03-07T09:58:47Z</time>
      </trkpt>
      <trkpt lat="48.21762" lon="-3.14886">
        <ele>343</ele>
        <time>2016-03-07T09:58:50Z</time>
      </trkpt>
      <trkpt lat="48.21762" lon="-3.14883">
        <ele>343</ele>
        <time>2016-03-07T09:58:52Z</time>
      </trkpt>
      <trkpt lat="48.21763" lon="-3.14881">
        <ele>343</ele>
        <time>2016-03-07T09:58:54Z</time>
      </trkpt>
      <trkpt lat="48.21763" lon="-3.14879">
        <ele>343</ele>
        <time>2016-03-07T09:58:57Z</time>
      </trkpt>
      <trkpt lat="48.21764" lon="-3.14875">
        <ele>343</ele>
        <time>2016-03-07T09:59:00Z</time>
      </trkpt>
      <trkpt lat="48.21764" lon="-3.14872">
        <ele>344</ele>
        <time>2016-03-07T09:59:03Z</time>
      </trkpt>
      <trkpt lat="48.21764" lon="-3.14868">
        <ele>344</ele>
        <time>2016-03-07T09:59:06Z</time>
      </trkpt>
      <trkpt lat="48.21764" lon="-3.14865">
        <ele>345</ele>
        <time>2016-03-07T09:59:08Z</time>
      </trkpt>
      <trkpt lat="48.21765" lon="-3.14864">
        <ele>345</ele>
        <time>2016-03-07T09:59:11Z</time>
      </trkpt>
      <trkpt lat="48.21766" lon="-3.14861">
        <ele>345</ele>
        <time>2016-03-07T09:59:13Z</time>
      </trkpt>
      <trkpt lat="48.21766" lon="-3.14859">
        <ele>345</ele>
        <time>2016-03-07T09:59:16Z</time>
      </trkpt>
      <trkpt lat="48.21766" lon="-3.14856">
        <ele>346</ele>
        <time>2016-03-07T09:59:18Z</time>
      </trkpt>
      <trkpt lat="48.21766" lon="-3.14853">
        <ele>346</ele>
        <time>2016-03-07T09:59:20Z</time>
      </trkpt>
      <trkpt lat="48.21766" lon="-3.1485">
        <ele>346</ele>
        <time>2016-03-07T09:59:22Z</time>
      </trkpt>
      <trkpt lat="48.21766" lon="-3.14848">
        <ele>346</ele>
        <time>2016-03-07T09:59:25Z</time>
      </trkpt>
      <trkpt lat="48.21766" lon="-3.14844">
        <ele>347</ele>
        <time>2016-03-07T09:59:27Z</time>
      </trkpt>
      <trkpt lat="48.21766" lon="-3.14842">
        <ele>346</ele>
        <time>2016-03-07T09:59:30Z</time>
      </trkpt>
      <trkpt lat="48.21766" lon="-3.14838">
        <ele>347</ele>
        <time>2016-03-07T09:59:33Z</time>
      </trkpt>
      <trkpt lat="48.21766" lon="-3.14834">
        <ele>347</ele>
        <time>2016-03-07T09:59:36Z</time>
      </trkpt>
      <trkpt lat="48.21766" lon="-3.1483">
        <ele>348</ele>
        <time>2016-03-07T09:59:39Z</time>
      </trkpt>
      <trkpt lat="48.21766" lon="-3.14827">
        <ele>348</ele>
        <time>2016-03-07T09:59:42Z</time>
      </trkpt>
      <trkpt lat="48.21766" lon="-3.14824">
        <ele>348</ele>
        <time>2016-03-07T09:59:44Z</time>
      </trkpt>
      <trkpt lat="48.21766" lon="-3.14821">
        <ele>348</ele>
        <time>2016-03-07T09:59:46Z</time>
      </trkpt>
      <trkpt lat="48.21766" lon="-3.14819">
        <ele>349</ele>
        <time>2016-03-07T09:59:48Z</time>
      </trkpt>
      <trkpt lat="48.21765" lon="-3.14817">
        <ele>349</ele>
        <time>2016-03-07T09:59:51Z</time>
      </trkpt>
      <trkpt lat="48.21766" lon="-3.14814">
        <ele>349</ele>
        <time>2016-03-07T09:59:54Z</time>
      </trkpt>
      <trkpt lat="48.21766" lon="-3.1481">
        <ele>350</ele>
        <time>2016-03-07T09:59:57Z</time>
      </trkpt>
      <trkpt lat="48.21766" lon="-3.14808">
        <ele>350</ele>
        <time>2016-03-07T09:59:59Z</time>
      </trkpt>
      <trkpt lat="48.21766" lon="-3.14804">
        <ele>350</ele>
        <time>2016-03-07T10:00:01Z</time>
      </trkpt>
      <trkpt lat="48.21766" lon="-3.14802">
        <ele>350</ele>
        <time>2016-03-07T10:00:04Z</time>
      </trkpt>
      <trkpt lat="48.21767" lon="-3.14798">
        <ele>350</ele>
        <time>2016-03-07T10:00:06Z</time>
      </trkpt>
      <trkpt lat="48.21767" lon="-3.14795">
        <ele>350</ele>
        <time>2016-03-07T10:00:09Z</time>
      </trkpt>
      <trkpt lat="48.21768" lon="-3.14793">
        <ele>351</ele>
        <time>2016-03-07T10:00:11Z</time>
      </trkpt>
      <trkpt lat="48.21768" lon="-3.14789">
        <ele>351</ele>
        <time>2016-03-07T10:00:14Z</time>
      </trkpt>
      <trkpt lat="48.21769" lon="-3.14785">
        <ele>351</ele>
        <time>2016-03-07T10:00:17Z</time>
      </trkpt>
      <trkpt lat="48.21768" lon="-3.14781">
        <ele>351</ele>
        <time>2016-03-07T10:00:20Z</time>
      </trkpt>
      <trkpt lat="48.21768" lon="-3.14777">
        <ele>352</ele>
        <time>2016-03-07T10:00:23Z</time>
      </trkpt>
      <trkpt lat="48.21768" lon="-3.14774">
        <ele>352</ele>
        <time>2016-03-07T10:00:25Z</time>
      </trkpt>
      <trkpt lat="48.21768" lon="-3.1477">
        <ele>352</ele>
        <time>2016-03-07T10:00:27Z</time>
      </trkpt>
      <trkpt lat="48.21768" lon="-3.14766">
        <ele>352</ele>
        <time>2016-03-07T10:00:31Z</time>
      </trkpt>
      <trkpt lat="48.21769" lon="-3.14762">
        <ele>352</ele>
        <time>2016-03-07T10:00:33Z</time>
      </trkpt>
      <trkpt lat="48.21769" lon="-3.1476">
        <ele>353</ele>
        <time>2016-03-07T10:00:36Z</time>
      </trkpt>
      <trkpt lat="48.21769" lon="-3.14756">
        <ele>353</ele>
        <time>2016-03-07T10:00:39Z</time>
      </trkpt>
      <trkpt lat="48.21769" lon="-3.14753">
        <ele>354</ele>
        <time>2016-03-07T10:00:41Z</time>
      </trkpt>
      <trkpt lat="48.21771" lon="-3.1475">
        <ele>354</ele>
        <time>2016-03-07T10:00:44Z</time>
      </trkpt>
      <trkpt lat="48.21771" lon="-3.14748">
        <ele>354</ele>
        <time>2016-03-07T10:00:46Z</time>
      </trkpt>
      <trkpt lat="48.21772" lon="-3.14744">
        <ele>355</ele>
        <time>2016-03-07T10:00:49Z</time>
      </trkpt>
      <trkpt lat="48.21773" lon="-3.14741">
        <ele>356</ele>
        <time>2016-03-07T10:00:52Z</time>
      </trkpt>
      <trkpt lat="48.21774" lon="-3.14739">
        <ele>356</ele>
        <time>2016-03-07T10:00:54Z</time>
      </trkpt>
      <trkpt lat="48.21775" lon="-3.14737">
        <ele>356</ele>
        <time>2016-03-07T10:00:56Z</time>
      </trkpt>
      <trkpt lat="48.21776" lon="-3.14734">
        <ele>357</ele>
        <time>2016-03-07T10:00:59Z</time>
      </trkpt>
      <trkpt lat="48.21777" lon="-3.14732">
        <ele>357</ele>
        <time>2016-03-07T10:01:01Z</time>
      </trkpt>
      <trkpt lat="48.21778" lon="-3.1473">
        <ele>357</ele>
        <time>2016-03-07T10:01:04Z</time>
      </trkpt>
      <trkpt lat="48.2178" lon="-3.14728">
        <ele>357</ele>
        <time>2016-03-07T10:01:07Z</time>
      </trkpt>
      <trkpt lat="48.21781" lon="-3.14725">
        <ele>357</ele>
        <time>2016-03-07T10:01:10Z</time>
      </trkpt>
      <trkpt lat="48.21782" lon="-3.14722">
        <ele>358</ele>
        <time>2016-03-07T10:01:12Z</time>
      </trkpt>
      <trkpt lat="48.21783" lon="-3.1472">
        <ele>358</ele>
        <time>2016-03-07T10:01:16Z</time>
      </trkpt>
      <trkpt lat="48.21784" lon="-3.14717">
        <ele>359</ele>
        <time>2016-03-07T10:01:18Z</time>
      </trkpt>
      <trkpt lat="48.21785" lon="-3.14714">
        <ele>359</ele>
        <time>2016-03-07T10:01:21Z</time>
      </trkpt>
      <trkpt lat="48.21785" lon="-3.14712">
        <ele>359</ele>
        <time>2016-03-07T10:01:23Z</time>
      </trkpt>
      <trkpt lat="48.21785" lon="-3.14709">
        <ele>359</ele>
        <time>2016-03-07T10:01:26Z</time>
      </trkpt>
      <trkpt lat="48.21785" lon="-3.14706">
        <ele>359</ele>
        <time>2016-03-07T10:01:28Z</time>
      </trkpt>
      <trkpt lat="48.21786" lon="-3.14703">
        <ele>359</ele>
        <time>2016-03-07T10:01:32Z</time>
      </trkpt>
      <trkpt lat="48.21786" lon="-3.14699">
        <ele>360</ele>
        <time>2016-03-07T10:01:35Z</time>
      </trkpt>
      <trkpt lat="48.21787" lon="-3.14696">
        <ele>360</ele>
        <time>2016-03-07T10:01:37Z</time>
      </trkpt>
      <trkpt lat="48.21787" lon="-3.14692">
        <ele>360</ele>
        <time>2016-03-07T10:01:40Z</time>
      </trkpt>
      <trkpt lat="48.21787" lon="-3.14688">
        <ele>361</ele>
        <time>2016-03-07T10:01:43Z</time>
      </trkpt>
      <trkpt lat="48.21787" lon="-3.14686">
        <ele>361</ele>
        <time>2016-03-07T10:01:45Z</time>
      </trkpt>
      <trkpt lat="48.21787" lon="-3.14682">
        <ele>361</ele>
        <time>2016-03-07T10:01:47Z</time>
      </trkpt>
      <trkpt lat="48.21787" lon="-3.14679">
        <ele>361</ele>
        <time>2016-03-07T10:01:50Z</time>
      </trkpt>
      <trkpt lat="48.21788" lon="-3.14676">
        <ele>362</ele>
        <time>2016-03-07T10:01:53Z</time>
      </trkpt>
      <trkpt lat="48.21788" lon="-3.14672">
        <ele>362</ele>
        <time>2016-03-07T10:01:56Z</time>
      </trkpt>
      <trkpt lat="48.21788" lon="-3.14669">
        <ele>362</ele>
        <time>2016-03-07T10:01:58Z</time>
      </trkpt>
      <trkpt lat="48.21789" lon="-3.14668">
        <ele>362</ele>
        <time>2016-03-07T10:02:01Z</time>
      </trkpt>
      <trkpt lat="48.21788" lon="-3.14665">
        <ele>362</ele>
        <time>2016-03-07T10:02:04Z</time>
      </trkpt>
      <trkpt lat="48.21788" lon="-3.14664">
        <ele>363</ele>
        <time>2016-03-07T10:02:06Z</time>
      </trkpt>
      <trkpt lat="48.21789" lon="-3.14664">
        <ele>363</ele>
        <time>2016-03-07T10:02:08Z</time>
      </trkpt>
      <trkpt lat="48.21788" lon="-3.14664">
        <ele>363</ele>
        <time>2016-03-07T10:02:11Z</time>
      </trkpt>
      <trkpt lat="48.21788" lon="-3.14664">
        <ele>362</ele>
        <time>2016-03-07T10:02:13Z</time>
      </trkpt>
      <trkpt lat="48.21788" lon="-3.14662">
        <ele>362</ele>
        <time>2016-03-07T10:02:16Z</time>
      </trkpt>
      <trkpt lat="48.21788" lon="-3.14662">
        <ele>362</ele>
        <time>2016-03-07T10:02:20Z</time>
      </trkpt>
      <trkpt lat="48.21788" lon="-3.14662">
        <ele>362</ele>
        <time>2016-03-07T10:02:24Z</time>
      </trkpt>
      <trkpt lat="48.21788" lon="-3.14662">
        <ele>361</ele>
        <time>2016-03-07T10:02:27Z</time>
      </trkpt>
      <trkpt lat="48.21788" lon="-3.14662">
        <ele>361</ele>
        <time>2016-03-07T10:02:29Z</time>
      </trkpt>
      <trkpt lat="48.21788" lon="-3.14662">
        <ele>361</ele>
        <time>2016-03-07T10:02:32Z</time>
      </trkpt>
      <trkpt lat="48.21789" lon="-3.14662">
        <ele>362</ele>
        <time>2016-03-07T10:02:35Z</time>
      </trkpt>
      <trkpt lat="48.21789" lon="-3.14661">
        <ele>362</ele>
        <time>2016-03-07T10:02:37Z</time>
      </trkpt>
      <trkpt lat="48.21789" lon="-3.14663">
        <ele>362</ele>
        <time>2016-03-07T10:02:41Z</time>
      </trkpt>
      <trkpt lat="48.2179" lon="-3.14661">
        <ele>362</ele>
        <time>2016-03-07T10:02:43Z</time>
      </trkpt>
      <trkpt lat="48.21792" lon="-3.14661">
        <ele>363</ele>
        <time>2016-03-07T10:02:46Z</time>
      </trkpt>
      <trkpt lat="48.21793" lon="-3.14659">
        <ele>364</ele>
        <time>2016-03-07T10:02:49Z</time>
      </trkpt>
      <trkpt lat="48.21793" lon="-3.14657">
        <ele>364</ele>
        <time>2016-03-07T10:02:51Z</time>
      </trkpt>
      <trkpt lat="48.21793" lon="-3.14653">
        <ele>365</ele>
        <time>2016-03-07T10:02:55Z</time>
      </trkpt>
      <trkpt lat="48.21793" lon="-3.1465">
        <ele>365</ele>
        <time>2016-03-07T10:02:57Z</time>
      </trkpt>
      <trkpt lat="48.21793" lon="-3.14647">
        <ele>365</ele>
        <time>2016-03-07T10:03:00Z</time>
      </trkpt>
      <trkpt lat="48.21792" lon="-3.14646">
        <ele>365</ele>
        <time>2016-03-07T10:03:03Z</time>
      </trkpt>
      <trkpt lat="48.21792" lon="-3.14645">
        <ele>365</ele>
        <time>2016-03-07T10:03:05Z</time>
      </trkpt>
      <trkpt lat="48.21792" lon="-3.14644">
        <ele>365</ele>
        <time>2016-03-07T10:03:07Z</time>
      </trkpt>
      <trkpt lat="48.21792" lon="-3.14644">
        <ele>364</ele>
        <time>2016-03-07T10:03:09Z</time>
      </trkpt>
      <trkpt lat="48.21793" lon="-3.14644">
        <ele>365</ele>
        <time>2016-03-07T10:03:12Z</time>
      </trkpt>
      <trkpt lat="48.21793" lon="-3.14644">
        <ele>365</ele>
        <time>2016-03-07T10:03:17Z</time>
      </trkpt>
      <trkpt lat="48.21793" lon="-3.14643">
        <ele>364</ele>
        <time>2016-03-07T10:03:19Z</time>
      </trkpt>
      <trkpt lat="48.21793" lon="-3.14643">
        <ele>364</ele>
        <time>2016-03-07T10:03:22Z</time>
      </trkpt>
      <trkpt lat="48.21793" lon="-3.14643">
        <ele>364</ele>
        <time>2016-03-07T10:03:26Z</time>
      </trkpt>
      <trkpt lat="48.21793" lon="-3.14643">
        <ele>365</ele>
        <time>2016-03-07T10:03:31Z</time>
      </trkpt>
      <trkpt lat="48.21793" lon="-3.14643">
        <ele>365</ele>
        <time>2016-03-07T10:03:36Z</time>
      </trkpt>
      <trkpt lat="48.21793" lon="-3.14643">
        <ele>365</ele>
        <time>2016-03-07T10:03:40Z</time>
      </trkpt>
      <trkpt lat="48.21793" lon="-3.14643">
        <ele>365</ele>
        <time>2016-03-07T10:03:42Z</time>
      </trkpt>
      <trkpt lat="48.21793" lon="-3.14642">
        <ele>365</ele>
        <time>2016-03-07T10:03:48Z</time>
      </trkpt>
      <trkpt lat="48.21793" lon="-3.14642">
        <ele>365</ele>
        <time>2016-03-07T10:03:52Z</time>
      </trkpt>
      <trkpt lat="48.21794" lon="-3.14642">
        <ele>365</ele>
        <time>2016-03-07T10:03:57Z</time>
      </trkpt>
      <trkpt lat="48.21795" lon="-3.14642">
        <ele>365</ele>
        <time>2016-03-07T10:03:59Z</time>
      </trkpt>
      <trkpt lat="48.21796" lon="-3.14642">
        <ele>365</ele>
        <time>2016-03-07T10:04:02Z</time>
      </trkpt>
      <trkpt lat="48.21798" lon="-3.1464">
        <ele>365</ele>
        <time>2016-03-07T10:04:06Z</time>
      </trkpt>
      <trkpt lat="48.21798" lon="-3.14636">
        <ele>366</ele>
        <time>2016-03-07T10:04:09Z</time>
      </trkpt>
      <trkpt lat="48.21798" lon="-3.14633">
        <ele>366</ele>
        <time>2016-03-07T10:04:12Z</time>
      </trkpt>
      <trkpt lat="48.21798" lon="-3.14628">
        <ele>366</ele>
        <time>2016-03-07T10:04:14Z</time>
      </trkpt>
      <trkpt lat="48.21798" lon="-3.14625">
        <ele>366</ele>
        <time>2016-03-07T10:04:17Z</time>
      </trkpt>
      <trkpt lat="48.21799" lon="-3.1462">
        <ele>366</ele>
        <time>2016-03-07T10:04:19Z</time>
      </trkpt>
      <trkpt lat="48.21799" lon="-3.14618">
        <ele>366</ele>
        <time>2016-03-07T10:04:22Z</time>
      </trkpt>
      <trkpt lat="48.21797" lon="-3.14617">
        <ele>366</ele>
        <time>2016-03-07T10:04:25Z</time>
      </trkpt>
      <trkpt lat="48.21797" lon="-3.14616">
        <ele>366</ele>
        <time>2016-03-07T10:04:27Z</time>
      </trkpt>
      <trkpt lat="48.21796" lon="-3.14613">
        <ele>366</ele>
        <time>2016-03-07T10:04:30Z</time>
      </trkpt>
      <trkpt lat="48.21796" lon="-3.14611">
        <ele>367</ele>
        <time>2016-03-07T10:04:33Z</time>
      </trkpt>
      <trkpt lat="48.21796" lon="-3.14609">
        <ele>367</ele>
        <time>2016-03-07T10:04:35Z</time>
      </trkpt>
      <trkpt lat="48.21798" lon="-3.14605">
        <ele>367</ele>
        <time>2016-03-07T10:04:37Z</time>
      </trkpt>
      <trkpt lat="48.21797" lon="-3.14602">
        <ele>367</ele>
        <time>2016-03-07T10:04:39Z</time>
      </trkpt>
      <trkpt lat="48.21798" lon="-3.14597">
        <ele>367</ele>
        <time>2016-03-07T10:04:42Z</time>
      </trkpt>
      <trkpt lat="48.21799" lon="-3.14594">
        <ele>367</ele>
        <time>2016-03-07T10:04:45Z</time>
      </trkpt>
      <trkpt lat="48.21799" lon="-3.14592">
        <ele>367</ele>
        <time>2016-03-07T10:04:47Z</time>
      </trkpt>
      <trkpt lat="48.21799" lon="-3.14592">
        <ele>368</ele>
        <time>2016-03-07T10:04:49Z</time>
      </trkpt>
      <trkpt lat="48.21799" lon="-3.14592">
        <ele>369</ele>
        <time>2016-03-07T10:04:53Z</time>
      </trkpt>
      <trkpt lat="48.21799" lon="-3.14591">
        <ele>369</ele>
        <time>2016-03-07T10:04:55Z</time>
      </trkpt>
      <trkpt lat="48.218" lon="-3.1459">
        <ele>368</ele>
        <time>2016-03-07T10:04:58Z</time>
      </trkpt>
      <trkpt lat="48.21802" lon="-3.14587">
        <ele>369</ele>
        <time>2016-03-07T10:05:00Z</time>
      </trkpt>
      <trkpt lat="48.21802" lon="-3.14585">
        <ele>369</ele>
        <time>2016-03-07T10:05:03Z</time>
      </trkpt>
      <trkpt lat="48.21803" lon="-3.14583">
        <ele>369</ele>
        <time>2016-03-07T10:05:05Z</time>
      </trkpt>
      <trkpt lat="48.21804" lon="-3.14582">
        <ele>369</ele>
        <time>2016-03-07T10:05:08Z</time>
      </trkpt>
      <trkpt lat="48.21804" lon="-3.14579">
        <ele>369</ele>
        <time>2016-03-07T10:05:10Z</time>
      </trkpt>
      <trkpt lat="48.21804" lon="-3.14578">
        <ele>370</ele>
        <time>2016-03-07T10:05:12Z</time>
      </trkpt>
      <trkpt lat="48.21804" lon="-3.14576">
        <ele>370</ele>
        <time>2016-03-07T10:05:15Z</time>
      </trkpt>
      <trkpt lat="48.21804" lon="-3.14571">
        <ele>370</ele>
        <time>2016-03-07T10:05:17Z</time>
      </trkpt>
      <trkpt lat="48.21804" lon="-3.14568">
        <ele>370</ele>
        <time>2016-03-07T10:05:19Z</time>
      </trkpt>
      <trkpt lat="48.21805" lon="-3.14563">
        <ele>369</ele>
        <time>2016-03-07T10:05:22Z</time>
      </trkpt>
      <trkpt lat="48.21805" lon="-3.14558">
        <ele>368</ele>
        <time>2016-03-07T10:05:25Z</time>
      </trkpt>
      <trkpt lat="48.21807" lon="-3.14552">
        <ele>368</ele>
        <time>2016-03-07T10:05:27Z</time>
      </trkpt>
      <trkpt lat="48.21808" lon="-3.14548">
        <ele>369</ele>
        <time>2016-03-07T10:05:30Z</time>
      </trkpt>
      <trkpt lat="48.21809" lon="-3.14545">
        <ele>369</ele>
        <time>2016-03-07T10:05:32Z</time>
      </trkpt>
      <trkpt lat="48.21809" lon="-3.14543">
        <ele>369</ele>
        <time>2016-03-07T10:05:35Z</time>
      </trkpt>
      <trkpt lat="48.21809" lon="-3.1454">
        <ele>369</ele>
        <time>2016-03-07T10:05:37Z</time>
      </trkpt>
      <trkpt lat="48.21809" lon="-3.14537">
        <ele>368</ele>
        <time>2016-03-07T10:05:39Z</time>
      </trkpt>
      <trkpt lat="48.21807" lon="-3.14534">
        <ele>368</ele>
        <time>2016-03-07T10:05:42Z</time>
      </trkpt>
      <trkpt lat="48.21806" lon="-3.14532">
        <ele>367</ele>
        <time>2016-03-07T10:05:44Z</time>
      </trkpt>
      <trkpt lat="48.21806" lon="-3.14532">
        <ele>367</ele>
        <time>2016-03-07T10:05:47Z</time>
      </trkpt>
      <trkpt lat="48.21806" lon="-3.14532">
        <ele>366</ele>
        <time>2016-03-07T10:05:50Z</time>
      </trkpt>
      <trkpt lat="48.21806" lon="-3.14531">
        <ele>366</ele>
        <time>2016-03-07T10:05:52Z</time>
      </trkpt>
      <trkpt lat="48.21806" lon="-3.14531">
        <ele>366</ele>
        <time>2016-03-07T10:05:54Z</time>
      </trkpt>
      <trkpt lat="48.21806" lon="-3.14531">
        <ele>366</ele>
        <time>2016-03-07T10:05:56Z</time>
      </trkpt>
      <trkpt lat="48.21806" lon="-3.14531">
        <ele>366</ele>
        <time>2016-03-07T10:05:59Z</time>
      </trkpt>
      <trkpt lat="48.21806" lon="-3.1453">
        <ele>366</ele>
        <time>2016-03-07T10:06:01Z</time>
      </trkpt>
      <trkpt lat="48.21806" lon="-3.1453">
        <ele>366</ele>
        <time>2016-03-07T10:06:04Z</time>
      </trkpt>
      <trkpt lat="48.21807" lon="-3.14529">
        <ele>366</ele>
        <time>2016-03-07T10:06:06Z</time>
      </trkpt>
      <trkpt lat="48.21807" lon="-3.14529">
        <ele>366</ele>
        <time>2016-03-07T10:06:09Z</time>
      </trkpt>
      <trkpt lat="48.21807" lon="-3.14529">
        <ele>367</ele>
        <time>2016-03-07T10:06:11Z</time>
      </trkpt>
      <trkpt lat="48.21808" lon="-3.14529">
        <ele>367</ele>
        <time>2016-03-07T10:06:14Z</time>
      </trkpt>
      <trkpt lat="48.21808" lon="-3.14529">
        <ele>367</ele>
        <time>2016-03-07T10:06:16Z</time>
      </trkpt>
      <trkpt lat="48.21809" lon="-3.1453">
        <ele>366</ele>
        <time>2016-03-07T10:06:18Z</time>
      </trkpt>
      <trkpt lat="48.21809" lon="-3.1453">
        <ele>366</ele>
        <time>2016-03-07T10:06:21Z</time>
      </trkpt>
      <trkpt lat="48.21808" lon="-3.14527">
        <ele>366</ele>
        <time>2016-03-07T10:06:23Z</time>
      </trkpt>
      <trkpt lat="48.21808" lon="-3.14525">
        <ele>365</ele>
        <time>2016-03-07T10:06:26Z</time>
      </trkpt>
      <trkpt lat="48.21807" lon="-3.14523">
        <ele>364</ele>
        <time>2016-03-07T10:06:30Z</time>
      </trkpt>
      <trkpt lat="48.21806" lon="-3.14521">
        <ele>364</ele>
        <time>2016-03-07T10:06:32Z</time>
      </trkpt>
      <trkpt lat="48.21805" lon="-3.14518">
        <ele>364</ele>
        <time>2016-03-07T10:06:34Z</time>
      </trkpt>
      <trkpt lat="48.21804" lon="-3.14515">
        <ele>363</ele>
        <time>2016-03-07T10:06:36Z</time>
      </trkpt>
      <trkpt lat="48.21803" lon="-3.14512">
        <ele>362</ele>
        <time>2016-03-07T10:06:39Z</time>
      </trkpt>
      <trkpt lat="48.21802" lon="-3.14509">
        <ele>362</ele>
        <time>2016-03-07T10:06:42Z</time>
      </trkpt>
      <trkpt lat="48.21801" lon="-3.14505">
        <ele>361</ele>
        <time>2016-03-07T10:06:45Z</time>
      </trkpt>
      <trkpt lat="48.218" lon="-3.14501">
        <ele>361</ele>
        <time>2016-03-07T10:06:48Z</time>
      </trkpt>
      <trkpt lat="48.21799" lon="-3.14498">
        <ele>361</ele>
        <time>2016-03-07T10:06:51Z</time>
      </trkpt>
      <trkpt lat="48.21799" lon="-3.14494">
        <ele>361</ele>
        <time>2016-03-07T10:06:53Z</time>
      </trkpt>
      <trkpt lat="48.21798" lon="-3.1449">
        <ele>361</ele>
        <time>2016-03-07T10:06:56Z</time>
      </trkpt>
      <trkpt lat="48.21797" lon="-3.14486">
        <ele>360</ele>
        <time>2016-03-07T10:07:00Z</time>
      </trkpt>
      <trkpt lat="48.21797" lon="-3.14481">
        <ele>359</ele>
        <time>2016-03-07T10:07:02Z</time>
      </trkpt>
      <trkpt lat="48.21798" lon="-3.14477">
        <ele>359</ele>
        <time>2016-03-07T10:07:05Z</time>
      </trkpt>
      <trkpt lat="48.21798" lon="-3.14474">
        <ele>359</ele>
        <time>2016-03-07T10:07:07Z</time>
      </trkpt>
      <trkpt lat="48.21797" lon="-3.14471">
        <ele>359</ele>
        <time>2016-03-07T10:07:10Z</time>
      </trkpt>
      <trkpt lat="48.21796" lon="-3.14466">
        <ele>358</ele>
        <time>2016-03-07T10:07:13Z</time>
      </trkpt>
      <trkpt lat="48.21795" lon="-3.14462">
        <ele>358</ele>
        <time>2016-03-07T10:07:16Z</time>
      </trkpt>
      <trkpt lat="48.21794" lon="-3.14458">
        <ele>358</ele>
        <time>2016-03-07T10:07:19Z</time>
      </trkpt>
      <trkpt lat="48.21794" lon="-3.14455">
        <ele>357</ele>
        <time>2016-03-07T10:07:22Z</time>
      </trkpt>
      <trkpt lat="48.21794" lon="-3.14451">
        <ele>357</ele>
        <time>2016-03-07T10:07:25Z</time>
      </trkpt>
      <trkpt lat="48.21793" lon="-3.14447">
        <ele>357</ele>
        <time>2016-03-07T10:07:29Z</time>
      </trkpt>
      <trkpt lat="48.21793" lon="-3.14443">
        <ele>357</ele>
        <time>2016-03-07T10:07:31Z</time>
      </trkpt>
      <trkpt lat="48.21793" lon="-3.1444">
        <ele>356</ele>
        <time>2016-03-07T10:07:33Z</time>
      </trkpt>
      <trkpt lat="48.21793" lon="-3.14437">
        <ele>356</ele>
        <time>2016-03-07T10:07:35Z</time>
      </trkpt>
      <trkpt lat="48.21794" lon="-3.14432">
        <ele>356</ele>
        <time>2016-03-07T10:07:38Z</time>
      </trkpt>
      <trkpt lat="48.21796" lon="-3.14429">
        <ele>357</ele>
        <time>2016-03-07T10:07:41Z</time>
      </trkpt>
      <trkpt lat="48.21797" lon="-3.14426">
        <ele>357</ele>
        <time>2016-03-07T10:07:44Z</time>
      </trkpt>
      <trkpt lat="48.21798" lon="-3.14422">
        <ele>357</ele>
        <time>2016-03-07T10:07:46Z</time>
      </trkpt>
      <trkpt lat="48.21799" lon="-3.14419">
        <ele>357</ele>
        <time>2016-03-07T10:07:49Z</time>
      </trkpt>
      <trkpt lat="48.218" lon="-3.14416">
        <ele>357</ele>
        <time>2016-03-07T10:07:52Z</time>
      </trkpt>
      <trkpt lat="48.21799" lon="-3.14414">
        <ele>357</ele>
        <time>2016-03-07T10:07:54Z</time>
      </trkpt>
      <trkpt lat="48.21798" lon="-3.14411">
        <ele>357</ele>
        <time>2016-03-07T10:07:57Z</time>
      </trkpt>
      <trkpt lat="48.21798" lon="-3.1441">
        <ele>357</ele>
        <time>2016-03-07T10:08:00Z</time>
      </trkpt>
      <trkpt lat="48.21796" lon="-3.14407">
        <ele>356</ele>
        <time>2016-03-07T10:08:02Z</time>
      </trkpt>
      <trkpt lat="48.21796" lon="-3.14405">
        <ele>356</ele>
        <time>2016-03-07T10:08:05Z</time>
      </trkpt>
      <trkpt lat="48.21796" lon="-3.14405">
        <ele>355</ele>
        <time>2016-03-07T10:08:07Z</time>
      </trkpt>
      <trkpt lat="48.21795" lon="-3.14403">
        <ele>355</ele>
        <time>2016-03-07T10:08:10Z</time>
      </trkpt>
      <trkpt lat="48.21795" lon="-3.14401">
        <ele>355</ele>
        <time>2016-03-07T10:08:12Z</time>
      </trkpt>
      <trkpt lat="48.21794" lon="-3.14399">
        <ele>355</ele>
        <time>2016-03-07T10:08:14Z</time>
      </trkpt>
      <trkpt lat="48.21794" lon="-3.14395">
        <ele>354</ele>
        <time>2016-03-07T10:08:17Z</time>
      </trkpt>
      <trkpt lat="48.21795" lon="-3.14391">
        <ele>354</ele>
        <time>2016-03-07T10:08:20Z</time>
      </trkpt>
      <trkpt lat="48.21795" lon="-3.14387">
        <ele>353</ele>
        <time>2016-03-07T10:08:23Z</time>
      </trkpt>
      <trkpt lat="48.21795" lon="-3.14385">
        <ele>353</ele>
        <time>2016-03-07T10:08:25Z</time>
      </trkpt>
      <trkpt lat="48.21796" lon="-3.14383">
        <ele>353</ele>
        <time>2016-03-07T10:08:28Z</time>
      </trkpt>
      <trkpt lat="48.21796" lon="-3.1438">
        <ele>353</ele>
        <time>2016-03-07T10:08:30Z</time>
      </trkpt>
      <trkpt lat="48.21796" lon="-3.14378">
        <ele>353</ele>
        <time>2016-03-07T10:08:32Z</time>
      </trkpt>
      <trkpt lat="48.21798" lon="-3.14374">
        <ele>352</ele>
        <time>2016-03-07T10:08:35Z</time>
      </trkpt>
      <trkpt lat="48.21798" lon="-3.14371">
        <ele>352</ele>
        <time>2016-03-07T10:08:37Z</time>
      </trkpt>
      <trkpt lat="48.21799" lon="-3.14369">
        <ele>353</ele>
        <time>2016-03-07T10:08:39Z</time>
      </trkpt>
      <trkpt lat="48.21801" lon="-3.14367">
        <ele>353</ele>
        <time>2016-03-07T10:08:42Z</time>
      </trkpt>
      <trkpt lat="48.21802" lon="-3.14366">
        <ele>353</ele>
        <time>2016-03-07T10:08:44Z</time>
      </trkpt>
      <trkpt lat="48.21804" lon="-3.14363">
        <ele>353</ele>
        <time>2016-03-07T10:08:46Z</time>
      </trkpt>
      <trkpt lat="48.21805" lon="-3.14359">
        <ele>353</ele>
        <time>2016-03-07T10:08:49Z</time>
      </trkpt>
      <trkpt lat="48.21806" lon="-3.14357">
        <ele>353</ele>
        <time>2016-03-07T10:08:51Z</time>
      </trkpt>
      <trkpt lat="48.21806" lon="-3.14353">
        <ele>353</ele>
        <time>2016-03-07T10:08:54Z</time>
      </trkpt>
      <trkpt lat="48.21806" lon="-3.14348">
        <ele>352</ele>
        <time>2016-03-07T10:08:57Z</time>
      </trkpt>
      <trkpt lat="48.21806" lon="-3.14345">
        <ele>352</ele>
        <time>2016-03-07T10:09:00Z</time>
      </trkpt>
      <trkpt lat="48.21805" lon="-3.1434">
        <ele>352</ele>
        <time>2016-03-07T10:09:03Z</time>
      </trkpt>
      <trkpt lat="48.21806" lon="-3.14335">
        <ele>351</ele>
        <time>2016-03-07T10:09:05Z</time>
      </trkpt>
      <trkpt lat="48.21806" lon="-3.14332">
        <ele>351</ele>
        <time>2016-03-07T10:09:07Z</time>
      </trkpt>
      <trkpt lat="48.21806" lon="-3.14329">
        <ele>351</ele>
        <time>2016-03-07T10:09:09Z</time>
      </trkpt>
      <trkpt lat="48.21807" lon="-3.14326">
        <ele>351</ele>
        <time>2016-03-07T10:09:12Z</time>
      </trkpt>
      <trkpt lat="48.21807" lon="-3.14322">
        <ele>351</ele>
        <time>2016-03-07T10:09:14Z</time>
      </trkpt>
      <trkpt lat="48.21808" lon="-3.14319">
        <ele>352</ele>
        <time>2016-03-07T10:09:17Z</time>
      </trkpt>
      <trkpt lat="48.21808" lon="-3.14315">
        <ele>351</ele>
        <time>2016-03-07T10:09:20Z</time>
      </trkpt>
      <trkpt lat="48.21809" lon="-3.14312">
        <ele>351</ele>
        <time>2016-03-07T10:09:22Z</time>
      </trkpt>
      <trkpt lat="48.21809" lon="-3.14309">
        <ele>351</ele>
        <time>2016-03-07T10:09:24Z</time>
      </trkpt>
      <trkpt lat="48.21809" lon="-3.14304">
        <ele>351</ele>
        <time>2016-03-07T10:09:27Z</time>
      </trkpt>
      <trkpt lat="48.21808" lon="-3.143">
        <ele>350</ele>
        <time>2016-03-07T10:09:30Z</time>
      </trkpt>
      <trkpt lat="48.21807" lon="-3.14296">
        <ele>350</ele>
        <time>2016-03-07T10:09:33Z</time>
      </trkpt>
      <trkpt lat="48.21806" lon="-3.14291">
        <ele>350</ele>
        <time>2016-03-07T10:09:36Z</time>
      </trkpt>
      <trkpt lat="48.21806" lon="-3.14288">
        <ele>349</ele>
        <time>2016-03-07T10:09:39Z</time>
      </trkpt>
      <trkpt lat="48.21806" lon="-3.14285">
        <ele>349</ele>
        <time>2016-03-07T10:09:41Z</time>
      </trkpt>
      <trkpt lat="48.21807" lon="-3.14282">
        <ele>349</ele>
        <time>2016-03-07T10:09:44Z</time>
      </trkpt>
      <trkpt lat="48.21808" lon="-3.14278">
        <ele>349</ele>
        <time>2016-03-07T10:09:47Z</time>
      </trkpt>
      <trkpt lat="48.21809" lon="-3.14274">
        <ele>350</ele>
        <time>2016-03-07T10:09:50Z</time>
      </trkpt>
      <trkpt lat="48.21809" lon="-3.14271">
        <ele>350</ele>
        <time>2016-03-07T10:09:52Z</time>
      </trkpt>
      <trkpt lat="48.21809" lon="-3.14269">
        <ele>349</ele>
        <time>2016-03-07T10:09:55Z</time>
      </trkpt>
      <trkpt lat="48.21809" lon="-3.14267">
        <ele>349</ele>
        <time>2016-03-07T10:09:57Z</time>
      </trkpt>
      <trkpt lat="48.21809" lon="-3.14266">
        <ele>349</ele>
        <time>2016-03-07T10:09:59Z</time>
      </trkpt>
      <trkpt lat="48.21809" lon="-3.14265">
        <ele>349</ele>
        <time>2016-03-07T10:10:01Z</time>
      </trkpt>
      <trkpt lat="48.2181" lon="-3.14263">
        <ele>349</ele>
        <time>2016-03-07T10:10:04Z</time>
      </trkpt>
      <trkpt lat="48.2181" lon="-3.14261">
        <ele>349</ele>
        <time>2016-03-07T10:10:06Z</time>
      </trkpt>
      <trkpt lat="48.21811" lon="-3.1426">
        <ele>349</ele>
        <time>2016-03-07T10:10:09Z</time>
      </trkpt>
      <trkpt lat="48.2181" lon="-3.14257">
        <ele>349</ele>
        <time>2016-03-07T10:10:11Z</time>
      </trkpt>
      <trkpt lat="48.21809" lon="-3.14253">
        <ele>348</ele>
        <time>2016-03-07T10:10:13Z</time>
      </trkpt>
      <trkpt lat="48.21809" lon="-3.14252">
        <ele>348</ele>
        <time>2016-03-07T10:10:15Z</time>
      </trkpt>
      <trkpt lat="48.21809" lon="-3.1425">
        <ele>348</ele>
        <time>2016-03-07T10:10:17Z</time>
      </trkpt>
      <trkpt lat="48.21807" lon="-3.14246">
        <ele>348</ele>
        <time>2016-03-07T10:10:20Z</time>
      </trkpt>
      <trkpt lat="48.21806" lon="-3.14243">
        <ele>347</ele>
        <time>2016-03-07T10:10:23Z</time>
      </trkpt>
      <trkpt lat="48.21806" lon="-3.14239">
        <ele>347</ele>
        <time>2016-03-07T10:10:26Z</time>
      </trkpt>
      <trkpt lat="48.21806" lon="-3.14236">
        <ele>346</ele>
        <time>2016-03-07T10:10:28Z</time>
      </trkpt>
      <trkpt lat="48.21806" lon="-3.14234">
        <ele>346</ele>
        <time>2016-03-07T10:10:30Z</time>
      </trkpt>
      <trkpt lat="48.21806" lon="-3.14231">
        <ele>345</ele>
        <time>2016-03-07T10:10:33Z</time>
      </trkpt>
      <trkpt lat="48.21805" lon="-3.14228">
        <ele>345</ele>
        <time>2016-03-07T10:10:35Z</time>
      </trkpt>
      <trkpt lat="48.21805" lon="-3.14226">
        <ele>345</ele>
        <time>2016-03-07T10:10:37Z</time>
      </trkpt>
      <trkpt lat="48.21804" lon="-3.14223">
        <ele>345</ele>
        <time>2016-03-07T10:10:40Z</time>
      </trkpt>
      <trkpt lat="48.21804" lon="-3.14219">
        <ele>345</ele>
        <time>2016-03-07T10:10:42Z</time>
      </trkpt>
      <trkpt lat="48.21805" lon="-3.14216">
        <ele>344</ele>
        <time>2016-03-07T10:10:44Z</time>
      </trkpt>
      <trkpt lat="48.21806" lon="-3.14212">
        <ele>344</ele>
        <time>2016-03-07T10:10:47Z</time>
      </trkpt>
      <trkpt lat="48.21806" lon="-3.14211">
        <ele>344</ele>
        <time>2016-03-07T10:10:49Z</time>
      </trkpt>
      <trkpt lat="48.21807" lon="-3.14209">
        <ele>343</ele>
        <time>2016-03-07T10:10:53Z</time>
      </trkpt>
      <trkpt lat="48.21808" lon="-3.14204">
        <ele>343</ele>
        <time>2016-03-07T10:10:55Z</time>
      </trkpt>
      <trkpt lat="48.21809" lon="-3.14201">
        <ele>343</ele>
        <time>2016-03-07T10:10:57Z</time>
      </trkpt>
      <trkpt lat="48.21809" lon="-3.14195">
        <ele>342</ele>
        <time>2016-03-07T10:11:00Z</time>
      </trkpt>
      <trkpt lat="48.21809" lon="-3.14191">
        <ele>342</ele>
        <time>2016-03-07T10:11:02Z</time>
      </trkpt>
      <trkpt lat="48.2181" lon="-3.14187">
        <ele>342</ele>
        <time>2016-03-07T10:11:05Z</time>
      </trkpt>
      <trkpt lat="48.2181" lon="-3.14183">
        <ele>342</ele>
        <time>2016-03-07T10:11:08Z</time>
      </trkpt>
      <trkpt lat="48.21811" lon="-3.14179">
        <ele>341</ele>
        <time>2016-03-07T10:11:10Z</time>
      </trkpt>
      <trkpt lat="48.21811" lon="-3.14175">
        <ele>341</ele>
        <time>2016-03-07T10:11:13Z</time>
      </trkpt>
      <trkpt lat="48.21811" lon="-3.1417">
        <ele>340</ele>
        <time>2016-03-07T10:11:16Z</time>
      </trkpt>
      <trkpt lat="48.21811" lon="-3.14165">
        <ele>340</ele>
        <time>2016-03-07T10:11:19Z</time>
      </trkpt>
      <trkpt lat="48.21811" lon="-3.14163">
        <ele>340</ele>
        <time>2016-03-07T10:11:21Z</time>
      </trkpt>
      <trkpt lat="48.21813" lon="-3.14159">
        <ele>340</ele>
        <time>2016-03-07T10:11:24Z</time>
      </trkpt>
      <trkpt lat="48.21814" lon="-3.14154">
        <ele>341</ele>
        <time>2016-03-07T10:11:26Z</time>
      </trkpt>
      <trkpt lat="48.21814" lon="-3.1415">
        <ele>340</ele>
        <time>2016-03-07T10:11:28Z</time>
      </trkpt>
      <trkpt lat="48.21814" lon="-3.14145">
        <ele>340</ele>
        <time>2016-03-07T10:11:31Z</time>
      </trkpt>
      <trkpt lat="48.21815" lon="-3.14141">
        <ele>340</ele>
        <time>2016-03-07T10:11:33Z</time>
      </trkpt>
      <trkpt lat="48.21815" lon="-3.14135">
        <ele>340</ele>
        <time>2016-03-07T10:11:36Z</time>
      </trkpt>
      <trkpt lat="48.21815" lon="-3.14132">
        <ele>339</ele>
        <time>2016-03-07T10:11:38Z</time>
      </trkpt>
      <trkpt lat="48.21815" lon="-3.14127">
        <ele>339</ele>
        <time>2016-03-07T10:11:41Z</time>
      </trkpt>
      <trkpt lat="48.21815" lon="-3.14124">
        <ele>340</ele>
        <time>2016-03-07T10:11:43Z</time>
      </trkpt>
      <trkpt lat="48.21815" lon="-3.14119">
        <ele>340</ele>
        <time>2016-03-07T10:11:46Z</time>
      </trkpt>
      <trkpt lat="48.21816" lon="-3.14114">
        <ele>339</ele>
        <time>2016-03-07T10:11:49Z</time>
      </trkpt>
      <trkpt lat="48.21815" lon="-3.14111">
        <ele>339</ele>
        <time>2016-03-07T10:11:51Z</time>
      </trkpt>
      <trkpt lat="48.21815" lon="-3.14109">
        <ele>339</ele>
        <time>2016-03-07T10:11:53Z</time>
      </trkpt>
      <trkpt lat="48.21815" lon="-3.14103">
        <ele>339</ele>
        <time>2016-03-07T10:11:56Z</time>
      </trkpt>
      <trkpt lat="48.21815" lon="-3.141">
        <ele>339</ele>
        <time>2016-03-07T10:11:58Z</time>
      </trkpt>
      <trkpt lat="48.21815" lon="-3.14095">
        <ele>339</ele>
        <time>2016-03-07T10:12:01Z</time>
      </trkpt>
      <trkpt lat="48.21816" lon="-3.1409">
        <ele>339</ele>
        <time>2016-03-07T10:12:04Z</time>
      </trkpt>
      <trkpt lat="48.21817" lon="-3.14085">
        <ele>338</ele>
        <time>2016-03-07T10:12:07Z</time>
      </trkpt>
      <trkpt lat="48.21817" lon="-3.14081">
        <ele>338</ele>
        <time>2016-03-07T10:12:10Z</time>
      </trkpt>
      <trkpt lat="48.21818" lon="-3.14076">
        <ele>338</ele>
        <time>2016-03-07T10:12:13Z</time>
      </trkpt>
      <trkpt lat="48.21818" lon="-3.14074">
        <ele>339</ele>
        <time>2016-03-07T10:12:15Z</time>
      </trkpt>
      <trkpt lat="48.2182" lon="-3.14071">
        <ele>339</ele>
        <time>2016-03-07T10:12:18Z</time>
      </trkpt>
      <trkpt lat="48.21821" lon="-3.14066">
        <ele>339</ele>
        <time>2016-03-07T10:12:21Z</time>
      </trkpt>
      <trkpt lat="48.21822" lon="-3.14063">
        <ele>339</ele>
        <time>2016-03-07T10:12:23Z</time>
      </trkpt>
      <trkpt lat="48.21822" lon="-3.1406">
        <ele>339</ele>
        <time>2016-03-07T10:12:25Z</time>
      </trkpt>
      <trkpt lat="48.21824" lon="-3.14054">
        <ele>339</ele>
        <time>2016-03-07T10:12:28Z</time>
      </trkpt>
      <trkpt lat="48.21824" lon="-3.14049">
        <ele>339</ele>
        <time>2016-03-07T10:12:31Z</time>
      </trkpt>
      <trkpt lat="48.21824" lon="-3.14044">
        <ele>339</ele>
        <time>2016-03-07T10:12:34Z</time>
      </trkpt>
      <trkpt lat="48.21824" lon="-3.14039">
        <ele>339</ele>
        <time>2016-03-07T10:12:37Z</time>
      </trkpt>
      <trkpt lat="48.21824" lon="-3.14036">
        <ele>338</ele>
        <time>2016-03-07T10:12:39Z</time>
      </trkpt>
      <trkpt lat="48.21824" lon="-3.14031">
        <ele>338</ele>
        <time>2016-03-07T10:12:42Z</time>
      </trkpt>
      <trkpt lat="48.21824" lon="-3.14028">
        <ele>338</ele>
        <time>2016-03-07T10:12:44Z</time>
      </trkpt>
      <trkpt lat="48.21825" lon="-3.14023">
        <ele>338</ele>
        <time>2016-03-07T10:12:47Z</time>
      </trkpt>
      <trkpt lat="48.21825" lon="-3.14019">
        <ele>338</ele>
        <time>2016-03-07T10:12:50Z</time>
      </trkpt>
      <trkpt lat="48.21826" lon="-3.14015">
        <ele>338</ele>
        <time>2016-03-07T10:12:53Z</time>
      </trkpt>
      <trkpt lat="48.21826" lon="-3.14012">
        <ele>338</ele>
        <time>2016-03-07T10:12:56Z</time>
      </trkpt>
      <trkpt lat="48.21826" lon="-3.14011">
        <ele>338</ele>
        <time>2016-03-07T10:12:58Z</time>
      </trkpt>
      <trkpt lat="48.21825" lon="-3.14007">
        <ele>338</ele>
        <time>2016-03-07T10:13:01Z</time>
      </trkpt>
      <trkpt lat="48.21825" lon="-3.14004">
        <ele>338</ele>
        <time>2016-03-07T10:13:04Z</time>
      </trkpt>
      <trkpt lat="48.21826" lon="-3.14001">
        <ele>338</ele>
        <time>2016-03-07T10:13:07Z</time>
      </trkpt>
      <trkpt lat="48.21827" lon="-3.13998">
        <ele>337</ele>
        <time>2016-03-07T10:13:10Z</time>
      </trkpt>
      <trkpt lat="48.21827" lon="-3.13994">
        <ele>337</ele>
        <time>2016-03-07T10:13:12Z</time>
      </trkpt>
      <trkpt lat="48.21826" lon="-3.13991">
        <ele>337</ele>
        <time>2016-03-07T10:13:14Z</time>
      </trkpt>
      <trkpt lat="48.21827" lon="-3.13985">
        <ele>337</ele>
        <time>2016-03-07T10:13:17Z</time>
      </trkpt>
      <trkpt lat="48.21827" lon="-3.13981">
        <ele>337</ele>
        <time>2016-03-07T10:13:19Z</time>
      </trkpt>
      <trkpt lat="48.21828" lon="-3.13976">
        <ele>337</ele>
        <time>2016-03-07T10:13:22Z</time>
      </trkpt>
      <trkpt lat="48.2183" lon="-3.13973">
        <ele>337</ele>
        <time>2016-03-07T10:13:24Z</time>
      </trkpt>
      <trkpt lat="48.21832" lon="-3.13969">
        <ele>337</ele>
        <time>2016-03-07T10:13:27Z</time>
      </trkpt>
      <trkpt lat="48.21834" lon="-3.13967">
        <ele>338</ele>
        <time>2016-03-07T10:13:30Z</time>
      </trkpt>
      <trkpt lat="48.21836" lon="-3.13966">
        <ele>339</ele>
        <time>2016-03-07T10:13:32Z</time>
      </trkpt>
      <trkpt lat="48.21837" lon="-3.13964">
        <ele>339</ele>
        <time>2016-03-07T10:13:34Z</time>
      </trkpt>
      <trkpt lat="48.21838" lon="-3.13961">
        <ele>340</ele>
        <time>2016-03-07T10:13:37Z</time>
      </trkpt>
      <trkpt lat="48.2184" lon="-3.13958">
        <ele>341</ele>
        <time>2016-03-07T10:13:40Z</time>
      </trkpt>
      <trkpt lat="48.21842" lon="-3.13957">
        <ele>341</ele>
        <time>2016-03-07T10:13:42Z</time>
      </trkpt>
      <trkpt lat="48.21843" lon="-3.13955">
        <ele>342</ele>
        <time>2016-03-07T10:13:44Z</time>
      </trkpt>
      <trkpt lat="48.21845" lon="-3.13954">
        <ele>342</ele>
        <time>2016-03-07T10:13:46Z</time>
      </trkpt>
      <trkpt lat="48.21846" lon="-3.13952">
        <ele>343</ele>
        <time>2016-03-07T10:13:49Z</time>
      </trkpt>
      <trkpt lat="48.21848" lon="-3.13951">
        <ele>343</ele>
        <time>2016-03-07T10:13:51Z</time>
      </trkpt>
      <trkpt lat="48.21849" lon="-3.13949">
        <ele>344</ele>
        <time>2016-03-07T10:13:54Z</time>
      </trkpt>
      <trkpt lat="48.21851" lon="-3.13946">
        <ele>344</ele>
        <time>2016-03-07T10:13:57Z</time>
      </trkpt>
      <trkpt lat="48.21854" lon="-3.13944">
        <ele>344</ele>
        <time>2016-03-07T10:14:00Z</time>
      </trkpt>
      <trkpt lat="48.21855" lon="-3.13942">
        <ele>344</ele>
        <time>2016-03-07T10:14:02Z</time>
      </trkpt>
      <trkpt lat="48.21856" lon="-3.13941">
        <ele>344</ele>
        <time>2016-03-07T10:14:04Z</time>
      </trkpt>
      <trkpt lat="48.21858" lon="-3.13938">
        <ele>344</ele>
        <time>2016-03-07T10:14:07Z</time>
      </trkpt>
      <trkpt lat="48.21859" lon="-3.13937">
        <ele>344</ele>
        <time>2016-03-07T10:14:10Z</time>
      </trkpt>
      <trkpt lat="48.21861" lon="-3.13936">
        <ele>345</ele>
        <time>2016-03-07T10:14:12Z</time>
      </trkpt>
      <trkpt lat="48.21861" lon="-3.13936">
        <ele>345</ele>
        <time>2016-03-07T10:14:14Z</time>
      </trkpt>
      <trkpt lat="48.21863" lon="-3.13936">
        <ele>346</ele>
        <time>2016-03-07T10:14:17Z</time>
      </trkpt>
      <trkpt lat="48.21864" lon="-3.13934">
        <ele>346</ele>
        <time>2016-03-07T10:14:20Z</time>
      </trkpt>
      <trkpt lat="48.21866" lon="-3.13932">
        <ele>346</ele>
        <time>2016-03-07T10:14:22Z</time>
      </trkpt>
      <trkpt lat="48.21867" lon="-3.13931">
        <ele>346</ele>
        <time>2016-03-07T10:14:24Z</time>
      </trkpt>
      <trkpt lat="48.2187" lon="-3.13929">
        <ele>346</ele>
        <time>2016-03-07T10:14:27Z</time>
      </trkpt>
      <trkpt lat="48.21871" lon="-3.13926">
        <ele>346</ele>
        <time>2016-03-07T10:14:30Z</time>
      </trkpt>
      <trkpt lat="48.21872" lon="-3.13924">
        <ele>347</ele>
        <time>2016-03-07T10:14:32Z</time>
      </trkpt>
      <trkpt lat="48.21872" lon="-3.13923">
        <ele>347</ele>
        <time>2016-03-07T10:14:34Z</time>
      </trkpt>
      <trkpt lat="48.21874" lon="-3.13921">
        <ele>347</ele>
        <time>2016-03-07T10:14:37Z</time>
      </trkpt>
      <trkpt lat="48.21874" lon="-3.13918">
        <ele>348</ele>
        <time>2016-03-07T10:14:40Z</time>
      </trkpt>
      <trkpt lat="48.21875" lon="-3.13917">
        <ele>348</ele>
        <time>2016-03-07T10:14:42Z</time>
      </trkpt>
      <trkpt lat="48.21877" lon="-3.13914">
        <ele>349</ele>
        <time>2016-03-07T10:14:45Z</time>
      </trkpt>
      <trkpt lat="48.21876" lon="-3.13911">
        <ele>349</ele>
        <time>2016-03-07T10:14:47Z</time>
      </trkpt>
      <trkpt lat="48.21876" lon="-3.1391">
        <ele>349</ele>
        <time>2016-03-07T10:14:49Z</time>
      </trkpt>
      <trkpt lat="48.21878" lon="-3.13909">
        <ele>349</ele>
        <time>2016-03-07T10:14:52Z</time>
      </trkpt>
      <trkpt lat="48.21879" lon="-3.13909">
        <ele>349</ele>
        <time>2016-03-07T10:14:54Z</time>
      </trkpt>
      <trkpt lat="48.2188" lon="-3.13908">
        <ele>349</ele>
        <time>2016-03-07T10:14:57Z</time>
      </trkpt>
      <trkpt lat="48.2188" lon="-3.13907">
        <ele>349</ele>
        <time>2016-03-07T10:15:00Z</time>
      </trkpt>
      <trkpt lat="48.21881" lon="-3.13906">
        <ele>349</ele>
        <time>2016-03-07T10:15:03Z</time>
      </trkpt>
      <trkpt lat="48.21881" lon="-3.13904">
        <ele>349</ele>
        <time>2016-03-07T10:15:06Z</time>
      </trkpt>
      <trkpt lat="48.21881" lon="-3.13904">
        <ele>349</ele>
        <time>2016-03-07T10:15:09Z</time>
      </trkpt>
      <trkpt lat="48.21882" lon="-3.13903">
        <ele>349</ele>
        <time>2016-03-07T10:15:12Z</time>
      </trkpt>
      <trkpt lat="48.21883" lon="-3.13902">
        <ele>349</ele>
        <time>2016-03-07T10:15:15Z</time>
      </trkpt>
      <trkpt lat="48.21883" lon="-3.13901">
        <ele>350</ele>
        <time>2016-03-07T10:15:18Z</time>
      </trkpt>
      <trkpt lat="48.21884" lon="-3.139">
        <ele>349</ele>
        <time>2016-03-07T10:15:20Z</time>
      </trkpt>
      <trkpt lat="48.21885" lon="-3.13899">
        <ele>349</ele>
        <time>2016-03-07T10:15:23Z</time>
      </trkpt>
      <trkpt lat="48.21885" lon="-3.13899">
        <ele>348</ele>
        <time>2016-03-07T10:15:25Z</time>
      </trkpt>
      <trkpt lat="48.21885" lon="-3.13898">
        <ele>348</ele>
        <time>2016-03-07T10:15:27Z</time>
      </trkpt>
      <trkpt lat="48.21885" lon="-3.13896">
        <ele>349</ele>
        <time>2016-03-07T10:15:30Z</time>
      </trkpt>
      <trkpt lat="48.21884" lon="-3.13896">
        <ele>349</ele>
        <time>2016-03-07T10:15:33Z</time>
      </trkpt>
      <trkpt lat="48.21885" lon="-3.13895">
        <ele>349</ele>
        <time>2016-03-07T10:15:35Z</time>
      </trkpt>
      <trkpt lat="48.21886" lon="-3.13892">
        <ele>349</ele>
        <time>2016-03-07T10:15:37Z</time>
      </trkpt>
      <trkpt lat="48.21886" lon="-3.13888">
        <ele>349</ele>
        <time>2016-03-07T10:15:40Z</time>
      </trkpt>
      <trkpt lat="48.21885" lon="-3.13886">
        <ele>350</ele>
        <time>2016-03-07T10:15:42Z</time>
      </trkpt>
      <trkpt lat="48.21883" lon="-3.13886">
        <ele>350</ele>
        <time>2016-03-07T10:15:45Z</time>
      </trkpt>
      <trkpt lat="48.21882" lon="-3.13885">
        <ele>350</ele>
        <time>2016-03-07T10:15:48Z</time>
      </trkpt>
      <trkpt lat="48.21881" lon="-3.13885">
        <ele>350</ele>
        <time>2016-03-07T10:15:51Z</time>
      </trkpt>
      <trkpt lat="48.21881" lon="-3.13886">
        <ele>349</ele>
        <time>2016-03-07T10:15:53Z</time>
      </trkpt>
      <trkpt lat="48.21881" lon="-3.13886">
        <ele>349</ele>
        <time>2016-03-07T10:15:55Z</time>
      </trkpt>
      <trkpt lat="48.21881" lon="-3.13887">
        <ele>349</ele>
        <time>2016-03-07T10:15:58Z</time>
      </trkpt>
      <trkpt lat="48.21883" lon="-3.13887">
        <ele>348</ele>
        <time>2016-03-07T10:16:01Z</time>
      </trkpt>
      <trkpt lat="48.21883" lon="-3.13888">
        <ele>349</ele>
        <time>2016-03-07T10:16:03Z</time>
      </trkpt>
      <trkpt lat="48.21884" lon="-3.13888">
        <ele>349</ele>
        <time>2016-03-07T10:16:06Z</time>
      </trkpt>
      <trkpt lat="48.21884" lon="-3.13884">
        <ele>350</ele>
        <time>2016-03-07T10:16:09Z</time>
      </trkpt>
      <trkpt lat="48.21885" lon="-3.1388">
        <ele>350</ele>
        <time>2016-03-07T10:16:12Z</time>
      </trkpt>
      <trkpt lat="48.21886" lon="-3.13877">
        <ele>350</ele>
        <time>2016-03-07T10:16:15Z</time>
      </trkpt>
      <trkpt lat="48.21886" lon="-3.13875">
        <ele>350</ele>
        <time>2016-03-07T10:16:17Z</time>
      </trkpt>
      <trkpt lat="48.21888" lon="-3.13873">
        <ele>351</ele>
        <time>2016-03-07T10:16:20Z</time>
      </trkpt>
      <trkpt lat="48.21889" lon="-3.13871">
        <ele>351</ele>
        <time>2016-03-07T10:16:22Z</time>
      </trkpt>
      <trkpt lat="48.21889" lon="-3.13867">
        <ele>351</ele>
        <time>2016-03-07T10:16:25Z</time>
      </trkpt>
      <trkpt lat="48.2189" lon="-3.13863">
        <ele>351</ele>
        <time>2016-03-07T10:16:28Z</time>
      </trkpt>
      <trkpt lat="48.21891" lon="-3.13861">
        <ele>351</ele>
        <time>2016-03-07T10:16:30Z</time>
      </trkpt>
      <trkpt lat="48.21893" lon="-3.13858">
        <ele>351</ele>
        <time>2016-03-07T10:16:32Z</time>
      </trkpt>
      <trkpt lat="48.21894" lon="-3.13855">
        <ele>351</ele>
        <time>2016-03-07T10:16:35Z</time>
      </trkpt>
      <trkpt lat="48.21895" lon="-3.13853">
        <ele>352</ele>
        <time>2016-03-07T10:16:38Z</time>
      </trkpt>
      <trkpt lat="48.21896" lon="-3.13851">
        <ele>352</ele>
        <time>2016-03-07T10:16:41Z</time>
      </trkpt>
      <trkpt lat="48.21898" lon="-3.13849">
        <ele>353</ele>
        <time>2016-03-07T10:16:43Z</time>
      </trkpt>
      <trkpt lat="48.219" lon="-3.13846">
        <ele>353</ele>
        <time>2016-03-07T10:16:46Z</time>
      </trkpt>
      <trkpt lat="48.21901" lon="-3.13843">
        <ele>353</ele>
        <time>2016-03-07T10:16:48Z</time>
      </trkpt>
      <trkpt lat="48.21903" lon="-3.1384">
        <ele>353</ele>
        <time>2016-03-07T10:16:51Z</time>
      </trkpt>
      <trkpt lat="48.21904" lon="-3.13836">
        <ele>353</ele>
        <time>2016-03-07T10:16:54Z</time>
      </trkpt>
      <trkpt lat="48.21906" lon="-3.13834">
        <ele>354</ele>
        <time>2016-03-07T10:16:57Z</time>
      </trkpt>
      <trkpt lat="48.21907" lon="-3.1383">
        <ele>354</ele>
        <time>2016-03-07T10:17:00Z</time>
      </trkpt>
      <trkpt lat="48.21908" lon="-3.13828">
        <ele>355</ele>
        <time>2016-03-07T10:17:03Z</time>
      </trkpt>
      <trkpt lat="48.21909" lon="-3.13826">
        <ele>355</ele>
        <time>2016-03-07T10:17:06Z</time>
      </trkpt>
      <trkpt lat="48.2191" lon="-3.13824">
        <ele>355</ele>
        <time>2016-03-07T10:17:09Z</time>
      </trkpt>
      <trkpt lat="48.2191" lon="-3.1382">
        <ele>355</ele>
        <time>2016-03-07T10:17:11Z</time>
      </trkpt>
      <trkpt lat="48.21911" lon="-3.13817">
        <ele>355</ele>
        <time>2016-03-07T10:17:13Z</time>
      </trkpt>
      <trkpt lat="48.21911" lon="-3.13811">
        <ele>355</ele>
        <time>2016-03-07T10:17:16Z</time>
      </trkpt>
      <trkpt lat="48.21913" lon="-3.13805">
        <ele>355</ele>
        <time>2016-03-07T10:17:19Z</time>
      </trkpt>
      <trkpt lat="48.21913" lon="-3.13799">
        <ele>355</ele>
        <time>2016-03-07T10:17:22Z</time>
      </trkpt>
      <trkpt lat="48.21914" lon="-3.13794">
        <ele>356</ele>
        <time>2016-03-07T10:17:25Z</time>
      </trkpt>
      <trkpt lat="48.21915" lon="-3.13789">
        <ele>355</ele>
        <time>2016-03-07T10:17:28Z</time>
      </trkpt>
      <trkpt lat="48.21916" lon="-3.13786">
        <ele>355</ele>
        <time>2016-03-07T10:17:30Z</time>
      </trkpt>
      <trkpt lat="48.21919" lon="-3.13782">
        <ele>356</ele>
        <time>2016-03-07T10:17:33Z</time>
      </trkpt>
      <trkpt lat="48.21921" lon="-3.1378">
        <ele>356</ele>
        <time>2016-03-07T10:17:35Z</time>
      </trkpt>
      <trkpt lat="48.21924" lon="-3.13777">
        <ele>357</ele>
        <time>2016-03-07T10:17:38Z</time>
      </trkpt>
      <trkpt lat="48.21926" lon="-3.13774">
        <ele>357</ele>
        <time>2016-03-07T10:17:41Z</time>
      </trkpt>
      <trkpt lat="48.21927" lon="-3.1377">
        <ele>357</ele>
        <time>2016-03-07T10:17:44Z</time>
      </trkpt>
      <trkpt lat="48.21929" lon="-3.13768">
        <ele>357</ele>
        <time>2016-03-07T10:17:47Z</time>
      </trkpt>
      <trkpt lat="48.2193" lon="-3.13766">
        <ele>358</ele>
        <time>2016-03-07T10:17:49Z</time>
      </trkpt>
      <trkpt lat="48.21932" lon="-3.13764">
        <ele>358</ele>
        <time>2016-03-07T10:17:51Z</time>
      </trkpt>
      <trkpt lat="48.21933" lon="-3.13761">
        <ele>358</ele>
        <time>2016-03-07T10:17:54Z</time>
      </trkpt>
      <trkpt lat="48.21936" lon="-3.13758">
        <ele>358</ele>
        <time>2016-03-07T10:17:57Z</time>
      </trkpt>
      <trkpt lat="48.21939" lon="-3.13756">
        <ele>359</ele>
        <time>2016-03-07T10:18:00Z</time>
      </trkpt>
      <trkpt lat="48.2194" lon="-3.13754">
        <ele>359</ele>
        <time>2016-03-07T10:18:02Z</time>
      </trkpt>
      <trkpt lat="48.21943" lon="-3.13752">
        <ele>359</ele>
        <time>2016-03-07T10:18:05Z</time>
      </trkpt>
      <trkpt lat="48.21944" lon="-3.1375">
        <ele>359</ele>
        <time>2016-03-07T10:18:07Z</time>
      </trkpt>
      <trkpt lat="48.21947" lon="-3.13748">
        <ele>360</ele>
        <time>2016-03-07T10:18:10Z</time>
      </trkpt>
      <trkpt lat="48.21949" lon="-3.13747">
        <ele>361</ele>
        <time>2016-03-07T10:18:12Z</time>
      </trkpt>
      <trkpt lat="48.21951" lon="-3.13745">
        <ele>361</ele>
        <time>2016-03-07T10:18:14Z</time>
      </trkpt>
      <trkpt lat="48.21953" lon="-3.13745">
        <ele>361</ele>
        <time>2016-03-07T10:18:16Z</time>
      </trkpt>
      <trkpt lat="48.21955" lon="-3.13744">
        <ele>361</ele>
        <time>2016-03-07T10:18:19Z</time>
      </trkpt>
      <trkpt lat="48.21957" lon="-3.13743">
        <ele>362</ele>
        <time>2016-03-07T10:18:22Z</time>
      </trkpt>
      <trkpt lat="48.21958" lon="-3.13742">
        <ele>362</ele>
        <time>2016-03-07T10:18:24Z</time>
      </trkpt>
      <trkpt lat="48.2196" lon="-3.1374">
        <ele>362</ele>
        <time>2016-03-07T10:18:27Z</time>
      </trkpt>
      <trkpt lat="48.21961" lon="-3.13738">
        <ele>362</ele>
        <time>2016-03-07T10:18:29Z</time>
      </trkpt>
      <trkpt lat="48.21963" lon="-3.13736">
        <ele>362</ele>
        <time>2016-03-07T10:18:32Z</time>
      </trkpt>
      <trkpt lat="48.21965" lon="-3.13734">
        <ele>362</ele>
        <time>2016-03-07T10:18:35Z</time>
      </trkpt>
      <trkpt lat="48.21967" lon="-3.13733">
        <ele>363</ele>
        <time>2016-03-07T10:18:37Z</time>
      </trkpt>
      <trkpt lat="48.21969" lon="-3.13731">
        <ele>363</ele>
        <time>2016-03-07T10:18:39Z</time>
      </trkpt>
      <trkpt lat="48.2197" lon="-3.13729">
        <ele>363</ele>
        <time>2016-03-07T10:18:41Z</time>
      </trkpt>
      <trkpt lat="48.21972" lon="-3.13727">
        <ele>364</ele>
        <time>2016-03-07T10:18:44Z</time>
      </trkpt>
      <trkpt lat="48.21973" lon="-3.13725">
        <ele>364</ele>
        <time>2016-03-07T10:18:46Z</time>
      </trkpt>
      <trkpt lat="48.21975" lon="-3.13722">
        <ele>364</ele>
        <time>2016-03-07T10:18:49Z</time>
      </trkpt>
      <trkpt lat="48.21976" lon="-3.1372">
        <ele>364</ele>
        <time>2016-03-07T10:18:51Z</time>
      </trkpt>
      <trkpt lat="48.21977" lon="-3.13719">
        <ele>364</ele>
        <time>2016-03-07T10:18:53Z</time>
      </trkpt>
      <trkpt lat="48.21978" lon="-3.13715">
        <ele>365</ele>
        <time>2016-03-07T10:18:56Z</time>
      </trkpt>
      <trkpt lat="48.21978" lon="-3.1371">
        <ele>365</ele>
        <time>2016-03-07T10:18:59Z</time>
      </trkpt>
      <trkpt lat="48.21977" lon="-3.13707">
        <ele>365</ele>
        <time>2016-03-07T10:19:01Z</time>
      </trkpt>
      <trkpt lat="48.21976" lon="-3.13704">
        <ele>365</ele>
        <time>2016-03-07T10:19:03Z</time>
      </trkpt>
      <trkpt lat="48.21977" lon="-3.13701">
        <ele>365</ele>
        <time>2016-03-07T10:19:05Z</time>
      </trkpt>
      <trkpt lat="48.21976" lon="-3.13697">
        <ele>365</ele>
        <time>2016-03-07T10:19:08Z</time>
      </trkpt>
      <trkpt lat="48.21975" lon="-3.13693">
        <ele>365</ele>
        <time>2016-03-07T10:19:10Z</time>
      </trkpt>
      <trkpt lat="48.21975" lon="-3.13691">
        <ele>365</ele>
        <time>2016-03-07T10:19:12Z</time>
      </trkpt>
      <trkpt lat="48.21973" lon="-3.13687">
        <ele>365</ele>
        <time>2016-03-07T10:19:14Z</time>
      </trkpt>
      <trkpt lat="48.21973" lon="-3.13684">
        <ele>365</ele>
        <time>2016-03-07T10:19:16Z</time>
      </trkpt>
      <trkpt lat="48.21972" lon="-3.1368">
        <ele>365</ele>
        <time>2016-03-07T10:19:19Z</time>
      </trkpt>
      <trkpt lat="48.21972" lon="-3.13676">
        <ele>365</ele>
        <time>2016-03-07T10:19:22Z</time>
      </trkpt>
      <trkpt lat="48.21971" lon="-3.13672">
        <ele>365</ele>
        <time>2016-03-07T10:19:24Z</time>
      </trkpt>
      <trkpt lat="48.21972" lon="-3.13668">
        <ele>365</ele>
        <time>2016-03-07T10:19:27Z</time>
      </trkpt>
      <trkpt lat="48.21972" lon="-3.13663">
        <ele>365</ele>
        <time>2016-03-07T10:19:30Z</time>
      </trkpt>
      <trkpt lat="48.21972" lon="-3.13659">
        <ele>365</ele>
        <time>2016-03-07T10:19:32Z</time>
      </trkpt>
      <trkpt lat="48.21971" lon="-3.13656">
        <ele>365</ele>
        <time>2016-03-07T10:19:34Z</time>
      </trkpt>
      <trkpt lat="48.21971" lon="-3.13651">
        <ele>366</ele>
        <time>2016-03-07T10:19:37Z</time>
      </trkpt>
      <trkpt lat="48.21971" lon="-3.13647">
        <ele>366</ele>
        <time>2016-03-07T10:19:40Z</time>
      </trkpt>
      <trkpt lat="48.21971" lon="-3.13644">
        <ele>366</ele>
        <time>2016-03-07T10:19:42Z</time>
      </trkpt>
      <trkpt lat="48.2197" lon="-3.13641">
        <ele>366</ele>
        <time>2016-03-07T10:19:45Z</time>
      </trkpt>
      <trkpt lat="48.2197" lon="-3.13637">
        <ele>366</ele>
        <time>2016-03-07T10:19:47Z</time>
      </trkpt>
      <trkpt lat="48.21968" lon="-3.13634">
        <ele>366</ele>
        <time>2016-03-07T10:19:49Z</time>
      </trkpt>
      <trkpt lat="48.21968" lon="-3.13629">
        <ele>366</ele>
        <time>2016-03-07T10:19:52Z</time>
      </trkpt>
      <trkpt lat="48.21967" lon="-3.13627">
        <ele>366</ele>
        <time>2016-03-07T10:19:54Z</time>
      </trkpt>
      <trkpt lat="48.21966" lon="-3.13623">
        <ele>367</ele>
        <time>2016-03-07T10:19:57Z</time>
      </trkpt>
      <trkpt lat="48.21965" lon="-3.1362">
        <ele>367</ele>
        <time>2016-03-07T10:20:00Z</time>
      </trkpt>
      <trkpt lat="48.21965" lon="-3.13618">
        <ele>367</ele>
        <time>2016-03-07T10:20:02Z</time>
      </trkpt>
      <trkpt lat="48.21965" lon="-3.13618">
        <ele>367</ele>
        <time>2016-03-07T10:20:04Z</time>
      </trkpt>
      <trkpt lat="48.21965" lon="-3.13618">
        <ele>367</ele>
        <time>2016-03-07T10:20:08Z</time>
      </trkpt>
      <trkpt lat="48.21964" lon="-3.13619">
        <ele>368</ele>
        <time>2016-03-07T10:20:11Z</time>
      </trkpt>
      <trkpt lat="48.21963" lon="-3.13615">
        <ele>367</ele>
        <time>2016-03-07T10:20:14Z</time>
      </trkpt>
      <trkpt lat="48.21962" lon="-3.1361">
        <ele>367</ele>
        <time>2016-03-07T10:20:17Z</time>
      </trkpt>
      <trkpt lat="48.21962" lon="-3.13607">
        <ele>367</ele>
        <time>2016-03-07T10:20:19Z</time>
      </trkpt>
      <trkpt lat="48.21962" lon="-3.13604">
        <ele>367</ele>
        <time>2016-03-07T10:20:21Z</time>
      </trkpt>
      <trkpt lat="48.21961" lon="-3.13599">
        <ele>368</ele>
        <time>2016-03-07T10:20:24Z</time>
      </trkpt>
      <trkpt lat="48.21961" lon="-3.13597">
        <ele>368</ele>
        <time>2016-03-07T10:20:26Z</time>
      </trkpt>
      <trkpt lat="48.21961" lon="-3.13592">
        <ele>368</ele>
        <time>2016-03-07T10:20:29Z</time>
      </trkpt>
      <trkpt lat="48.21961" lon="-3.13587">
        <ele>368</ele>
        <time>2016-03-07T10:20:32Z</time>
      </trkpt>
      <trkpt lat="48.2196" lon="-3.13584">
        <ele>368</ele>
        <time>2016-03-07T10:20:34Z</time>
      </trkpt>
      <trkpt lat="48.2196" lon="-3.13581">
        <ele>368</ele>
        <time>2016-03-07T10:20:37Z</time>
      </trkpt>
      <trkpt lat="48.2196" lon="-3.13579">
        <ele>368</ele>
        <time>2016-03-07T10:20:40Z</time>
      </trkpt>
      <trkpt lat="48.21961" lon="-3.13578">
        <ele>368</ele>
        <time>2016-03-07T10:20:43Z</time>
      </trkpt>
      <trkpt lat="48.21961" lon="-3.13576">
        <ele>369</ele>
        <time>2016-03-07T10:20:46Z</time>
      </trkpt>
      <trkpt lat="48.21958" lon="-3.13575">
        <ele>369</ele>
        <time>2016-03-07T10:20:49Z</time>
      </trkpt>
      <trkpt lat="48.21958" lon="-3.13574">
        <ele>369</ele>
        <time>2016-03-07T10:20:53Z</time>
      </trkpt>
      <trkpt lat="48.21959" lon="-3.13573">
        <ele>369</ele>
        <time>2016-03-07T10:20:56Z</time>
      </trkpt>
      <trkpt lat="48.21962" lon="-3.13577">
        <ele>369</ele>
        <time>2016-03-07T10:20:58Z</time>
      </trkpt>
      <trkpt lat="48.21962" lon="-3.13576">
        <ele>369</ele>
        <time>2016-03-07T10:21:00Z</time>
      </trkpt>
      <trkpt lat="48.21962" lon="-3.13575">
        <ele>370</ele>
        <time>2016-03-07T10:21:03Z</time>
      </trkpt>
      <trkpt lat="48.21961" lon="-3.13575">
        <ele>369</ele>
        <time>2016-03-07T10:21:06Z</time>
      </trkpt>
      <trkpt lat="48.21961" lon="-3.13575">
        <ele>369</ele>
        <time>2016-03-07T10:21:08Z</time>
      </trkpt>
      <trkpt lat="48.21961" lon="-3.13575">
        <ele>369</ele>
        <time>2016-03-07T10:21:12Z</time>
      </trkpt>
      <trkpt lat="48.21961" lon="-3.13575">
        <ele>370</ele>
        <time>2016-03-07T10:21:15Z</time>
      </trkpt>
      <trkpt lat="48.2196" lon="-3.13575">
        <ele>369</ele>
        <time>2016-03-07T10:21:18Z</time>
      </trkpt>
      <trkpt lat="48.2196" lon="-3.13575">
        <ele>369</ele>
        <time>2016-03-07T10:21:22Z</time>
      </trkpt>
      <trkpt lat="48.2196" lon="-3.13574">
        <ele>369</ele>
        <time>2016-03-07T10:21:24Z</time>
      </trkpt>
      <trkpt lat="48.2196" lon="-3.13573">
        <ele>369</ele>
        <time>2016-03-07T10:21:27Z</time>
      </trkpt>
      <trkpt lat="48.21961" lon="-3.13573">
        <ele>369</ele>
        <time>2016-03-07T10:21:29Z</time>
      </trkpt>
      <trkpt lat="48.21961" lon="-3.13573">
        <ele>369</ele>
        <time>2016-03-07T10:21:32Z</time>
      </trkpt>
      <trkpt lat="48.21961" lon="-3.13573">
        <ele>369</ele>
        <time>2016-03-07T10:21:34Z</time>
      </trkpt>
      <trkpt lat="48.21962" lon="-3.13572">
        <ele>369</ele>
        <time>2016-03-07T10:21:36Z</time>
      </trkpt>
      <trkpt lat="48.21961" lon="-3.13572">
        <ele>369</ele>
        <time>2016-03-07T10:21:39Z</time>
      </trkpt>
      <trkpt lat="48.2196" lon="-3.13572">
        <ele>369</ele>
        <time>2016-03-07T10:21:42Z</time>
      </trkpt>
      <trkpt lat="48.2196" lon="-3.13572">
        <ele>369</ele>
        <time>2016-03-07T10:21:44Z</time>
      </trkpt>
      <trkpt lat="48.21959" lon="-3.13572">
        <ele>369</ele>
        <time>2016-03-07T10:21:47Z</time>
      </trkpt>
      <trkpt lat="48.21959" lon="-3.13572">
        <ele>369</ele>
        <time>2016-03-07T10:21:49Z</time>
      </trkpt>
      <trkpt lat="48.21959" lon="-3.13573">
        <ele>369</ele>
        <time>2016-03-07T10:21:52Z</time>
      </trkpt>
      <trkpt lat="48.21959" lon="-3.13573">
        <ele>369</ele>
        <time>2016-03-07T10:21:54Z</time>
      </trkpt>
      <trkpt lat="48.21958" lon="-3.13573">
        <ele>369</ele>
        <time>2016-03-07T10:21:57Z</time>
      </trkpt>
      <trkpt lat="48.21958" lon="-3.13573">
        <ele>369</ele>
        <time>2016-03-07T10:22:00Z</time>
      </trkpt>
      <trkpt lat="48.21958" lon="-3.13574">
        <ele>369</ele>
        <time>2016-03-07T10:22:03Z</time>
      </trkpt>
      <trkpt lat="48.21958" lon="-3.13574">
        <ele>369</ele>
        <time>2016-03-07T10:22:05Z</time>
      </trkpt>
      <trkpt lat="48.21958" lon="-3.13573">
        <ele>369</ele>
        <time>2016-03-07T10:22:08Z</time>
      </trkpt>
      <trkpt lat="48.21958" lon="-3.13571">
        <ele>369</ele>
        <time>2016-03-07T10:22:10Z</time>
      </trkpt>
      <trkpt lat="48.21957" lon="-3.13567">
        <ele>368</ele>
        <time>2016-03-07T10:22:13Z</time>
      </trkpt>
      <trkpt lat="48.21957" lon="-3.13567">
        <ele>368</ele>
        <time>2016-03-07T10:22:15Z</time>
      </trkpt>
      <trkpt lat="48.21957" lon="-3.13568">
        <ele>369</ele>
        <time>2016-03-07T10:22:17Z</time>
      </trkpt>
      <trkpt lat="48.21957" lon="-3.13568">
        <ele>369</ele>
        <time>2016-03-07T10:22:20Z</time>
      </trkpt>
      <trkpt lat="48.21957" lon="-3.13568">
        <ele>369</ele>
        <time>2016-03-07T10:22:23Z</time>
      </trkpt>
      <trkpt lat="48.21958" lon="-3.13565">
        <ele>369</ele>
        <time>2016-03-07T10:22:25Z</time>
      </trkpt>
      <trkpt lat="48.21957" lon="-3.13562">
        <ele>369</ele>
        <time>2016-03-07T10:22:27Z</time>
      </trkpt>
      <trkpt lat="48.21957" lon="-3.13559">
        <ele>369</ele>
        <time>2016-03-07T10:22:29Z</time>
      </trkpt>
      <trkpt lat="48.21956" lon="-3.13555">
        <ele>369</ele>
        <time>2016-03-07T10:22:31Z</time>
      </trkpt>
      <trkpt lat="48.21956" lon="-3.13553">
        <ele>370</ele>
        <time>2016-03-07T10:22:33Z</time>
      </trkpt>
      <trkpt lat="48.21955" lon="-3.13549">
        <ele>370</ele>
        <time>2016-03-07T10:22:36Z</time>
      </trkpt>
      <trkpt lat="48.21955" lon="-3.13545">
        <ele>370</ele>
        <time>2016-03-07T10:22:39Z</time>
      </trkpt>
      <trkpt lat="48.21955" lon="-3.13543">
        <ele>370</ele>
        <time>2016-03-07T10:22:41Z</time>
      </trkpt>
      <trkpt lat="48.21954" lon="-3.13539">
        <ele>369</ele>
        <time>2016-03-07T10:22:44Z</time>
      </trkpt>
      <trkpt lat="48.21954" lon="-3.13535">
        <ele>370</ele>
        <time>2016-03-07T10:22:47Z</time>
      </trkpt>
      <trkpt lat="48.21953" lon="-3.13531">
        <ele>370</ele>
        <time>2016-03-07T10:22:50Z</time>
      </trkpt>
      <trkpt lat="48.21952" lon="-3.13527">
        <ele>370</ele>
        <time>2016-03-07T10:22:53Z</time>
      </trkpt>
      <trkpt lat="48.21951" lon="-3.13524">
        <ele>370</ele>
        <time>2016-03-07T10:22:55Z</time>
      </trkpt>
      <trkpt lat="48.2195" lon="-3.13522">
        <ele>370</ele>
        <time>2016-03-07T10:22:57Z</time>
      </trkpt>
      <trkpt lat="48.21949" lon="-3.1352">
        <ele>370</ele>
        <time>2016-03-07T10:23:00Z</time>
      </trkpt>
      <trkpt lat="48.21947" lon="-3.13518">
        <ele>370</ele>
        <time>2016-03-07T10:23:02Z</time>
      </trkpt>
      <trkpt lat="48.21946" lon="-3.13516">
        <ele>370</ele>
        <time>2016-03-07T10:23:04Z</time>
      </trkpt>
      <trkpt lat="48.21944" lon="-3.13514">
        <ele>370</ele>
        <time>2016-03-07T10:23:06Z</time>
      </trkpt>
      <trkpt lat="48.21943" lon="-3.13513">
        <ele>370</ele>
        <time>2016-03-07T10:23:08Z</time>
      </trkpt>
      <trkpt lat="48.21943" lon="-3.13512">
        <ele>370</ele>
        <time>2016-03-07T10:23:10Z</time>
      </trkpt>
      <trkpt lat="48.21941" lon="-3.1351">
        <ele>370</ele>
        <time>2016-03-07T10:23:13Z</time>
      </trkpt>
      <trkpt lat="48.21939" lon="-3.13506">
        <ele>370</ele>
        <time>2016-03-07T10:23:16Z</time>
      </trkpt>
      <trkpt lat="48.21938" lon="-3.13504">
        <ele>369</ele>
        <time>2016-03-07T10:23:18Z</time>
      </trkpt>
      <trkpt lat="48.21937" lon="-3.13502">
        <ele>369</ele>
        <time>2016-03-07T10:23:20Z</time>
      </trkpt>
      <trkpt lat="48.21936" lon="-3.13498">
        <ele>369</ele>
        <time>2016-03-07T10:23:23Z</time>
      </trkpt>
      <trkpt lat="48.21934" lon="-3.13494">
        <ele>369</ele>
        <time>2016-03-07T10:23:26Z</time>
      </trkpt>
      <trkpt lat="48.21933" lon="-3.13491">
        <ele>369</ele>
        <time>2016-03-07T10:23:28Z</time>
      </trkpt>
      <trkpt lat="48.21932" lon="-3.13487">
        <ele>368</ele>
        <time>2016-03-07T10:23:31Z</time>
      </trkpt>
      <trkpt lat="48.21931" lon="-3.13484">
        <ele>368</ele>
        <time>2016-03-07T10:23:33Z</time>
      </trkpt>
      <trkpt lat="48.2193" lon="-3.13482">
        <ele>368</ele>
        <time>2016-03-07T10:23:35Z</time>
      </trkpt>
      <trkpt lat="48.21929" lon="-3.1348">
        <ele>368</ele>
        <time>2016-03-07T10:23:37Z</time>
      </trkpt>
      <trkpt lat="48.21928" lon="-3.13477">
        <ele>368</ele>
        <time>2016-03-07T10:23:39Z</time>
      </trkpt>
      <trkpt lat="48.21927" lon="-3.13474">
        <ele>367</ele>
        <time>2016-03-07T10:23:42Z</time>
      </trkpt>
      <trkpt lat="48.21926" lon="-3.13471">
        <ele>367</ele>
        <time>2016-03-07T10:23:44Z</time>
      </trkpt>
      <trkpt lat="48.21925" lon="-3.13467">
        <ele>367</ele>
        <time>2016-03-07T10:23:47Z</time>
      </trkpt>
      <trkpt lat="48.21925" lon="-3.13464">
        <ele>367</ele>
        <time>2016-03-07T10:23:49Z</time>
      </trkpt>
      <trkpt lat="48.21924" lon="-3.1346">
        <ele>367</ele>
        <time>2016-03-07T10:23:52Z</time>
      </trkpt>
      <trkpt lat="48.21924" lon="-3.13457">
        <ele>366</ele>
        <time>2016-03-07T10:23:55Z</time>
      </trkpt>
      <trkpt lat="48.21924" lon="-3.13454">
        <ele>366</ele>
        <time>2016-03-07T10:23:57Z</time>
      </trkpt>
      <trkpt lat="48.21923" lon="-3.13451">
        <ele>366</ele>
        <time>2016-03-07T10:23:59Z</time>
      </trkpt>
      <trkpt lat="48.21923" lon="-3.13447">
        <ele>366</ele>
        <time>2016-03-07T10:24:02Z</time>
      </trkpt>
      <trkpt lat="48.21923" lon="-3.13444">
        <ele>366</ele>
        <time>2016-03-07T10:24:04Z</time>
      </trkpt>
      <trkpt lat="48.21923" lon="-3.13441">
        <ele>366</ele>
        <time>2016-03-07T10:24:06Z</time>
      </trkpt>
      <trkpt lat="48.21923" lon="-3.13436">
        <ele>366</ele>
        <time>2016-03-07T10:24:09Z</time>
      </trkpt>
      <trkpt lat="48.21923" lon="-3.13432">
        <ele>366</ele>
        <time>2016-03-07T10:24:12Z</time>
      </trkpt>
      <trkpt lat="48.21923" lon="-3.13428">
        <ele>366</ele>
        <time>2016-03-07T10:24:14Z</time>
      </trkpt>
      <trkpt lat="48.21922" lon="-3.13425">
        <ele>366</ele>
        <time>2016-03-07T10:24:16Z</time>
      </trkpt>
      <trkpt lat="48.21922" lon="-3.13421">
        <ele>366</ele>
        <time>2016-03-07T10:24:19Z</time>
      </trkpt>
      <trkpt lat="48.21921" lon="-3.13418">
        <ele>366</ele>
        <time>2016-03-07T10:24:21Z</time>
      </trkpt>
      <trkpt lat="48.21922" lon="-3.13415">
        <ele>366</ele>
        <time>2016-03-07T10:24:23Z</time>
      </trkpt>
      <trkpt lat="48.21922" lon="-3.13412">
        <ele>365</ele>
        <time>2016-03-07T10:24:25Z</time>
      </trkpt>
      <trkpt lat="48.21923" lon="-3.13407">
        <ele>366</ele>
        <time>2016-03-07T10:24:28Z</time>
      </trkpt>
      <trkpt lat="48.21923" lon="-3.13404">
        <ele>366</ele>
        <time>2016-03-07T10:24:30Z</time>
      </trkpt>
      <trkpt lat="48.21924" lon="-3.134">
        <ele>366</ele>
        <time>2016-03-07T10:24:33Z</time>
      </trkpt>
      <trkpt lat="48.21924" lon="-3.13397">
        <ele>366</ele>
        <time>2016-03-07T10:24:36Z</time>
      </trkpt>
      <trkpt lat="48.21923" lon="-3.13394">
        <ele>366</ele>
        <time>2016-03-07T10:24:38Z</time>
      </trkpt>
      <trkpt lat="48.21923" lon="-3.1339">
        <ele>366</ele>
        <time>2016-03-07T10:24:41Z</time>
      </trkpt>
      <trkpt lat="48.21923" lon="-3.13387">
        <ele>366</ele>
        <time>2016-03-07T10:24:43Z</time>
      </trkpt>
      <trkpt lat="48.21923" lon="-3.13384">
        <ele>366</ele>
        <time>2016-03-07T10:24:45Z</time>
      </trkpt>
      <trkpt lat="48.21924" lon="-3.1338">
        <ele>366</ele>
        <time>2016-03-07T10:24:48Z</time>
      </trkpt>
      <trkpt lat="48.21925" lon="-3.13375">
        <ele>367</ele>
        <time>2016-03-07T10:24:51Z</time>
      </trkpt>
      <trkpt lat="48.21925" lon="-3.13372">
        <ele>367</ele>
        <time>2016-03-07T10:24:53Z</time>
      </trkpt>
      <trkpt lat="48.21926" lon="-3.13369">
        <ele>367</ele>
        <time>2016-03-07T10:24:55Z</time>
      </trkpt>
      <trkpt lat="48.21927" lon="-3.13366">
        <ele>367</ele>
        <time>2016-03-07T10:24:58Z</time>
      </trkpt>
      <trkpt lat="48.21928" lon="-3.13363">
        <ele>367</ele>
        <time>2016-03-07T10:25:00Z</time>
      </trkpt>
      <trkpt lat="48.21928" lon="-3.1336">
        <ele>368</ele>
        <time>2016-03-07T10:25:02Z</time>
      </trkpt>
      <trkpt lat="48.21929" lon="-3.13356">
        <ele>368</ele>
        <time>2016-03-07T10:25:05Z</time>
      </trkpt>
      <trkpt lat="48.21929" lon="-3.13353">
        <ele>368</ele>
        <time>2016-03-07T10:25:07Z</time>
      </trkpt>
      <trkpt lat="48.21929" lon="-3.1335">
        <ele>368</ele>
        <time>2016-03-07T10:25:09Z</time>
      </trkpt>
      <trkpt lat="48.21929" lon="-3.13347">
        <ele>368</ele>
        <time>2016-03-07T10:25:11Z</time>
      </trkpt>
      <trkpt lat="48.2193" lon="-3.13344">
        <ele>368</ele>
        <time>2016-03-07T10:25:13Z</time>
      </trkpt>
      <trkpt lat="48.2193" lon="-3.13341">
        <ele>369</ele>
        <time>2016-03-07T10:25:16Z</time>
      </trkpt>
      <trkpt lat="48.21931" lon="-3.13337">
        <ele>369</ele>
        <time>2016-03-07T10:25:19Z</time>
      </trkpt>
      <trkpt lat="48.21931" lon="-3.13335">
        <ele>369</ele>
        <time>2016-03-07T10:25:21Z</time>
      </trkpt>
      <trkpt lat="48.21932" lon="-3.13331">
        <ele>369</ele>
        <time>2016-03-07T10:25:24Z</time>
      </trkpt>
      <trkpt lat="48.21931" lon="-3.13328">
        <ele>369</ele>
        <time>2016-03-07T10:25:26Z</time>
      </trkpt>
      <trkpt lat="48.2193" lon="-3.13324">
        <ele>370</ele>
        <time>2016-03-07T10:25:29Z</time>
      </trkpt>
      <trkpt lat="48.21931" lon="-3.13321">
        <ele>370</ele>
        <time>2016-03-07T10:25:31Z</time>
      </trkpt>
      <trkpt lat="48.21931" lon="-3.13318">
        <ele>370</ele>
        <time>2016-03-07T10:25:33Z</time>
      </trkpt>
      <trkpt lat="48.21931" lon="-3.13315">
        <ele>370</ele>
        <time>2016-03-07T10:25:36Z</time>
      </trkpt>
      <trkpt lat="48.21932" lon="-3.13312">
        <ele>371</ele>
        <time>2016-03-07T10:25:38Z</time>
      </trkpt>
      <trkpt lat="48.21933" lon="-3.13309">
        <ele>371</ele>
        <time>2016-03-07T10:25:41Z</time>
      </trkpt>
      <trkpt lat="48.21934" lon="-3.13306">
        <ele>370</ele>
        <time>2016-03-07T10:25:43Z</time>
      </trkpt>
      <trkpt lat="48.21933" lon="-3.13302">
        <ele>371</ele>
        <time>2016-03-07T10:25:46Z</time>
      </trkpt>
      <trkpt lat="48.21933" lon="-3.133">
        <ele>370</ele>
        <time>2016-03-07T10:25:48Z</time>
      </trkpt>
      <trkpt lat="48.21933" lon="-3.13296">
        <ele>370</ele>
        <time>2016-03-07T10:25:51Z</time>
      </trkpt>
      <trkpt lat="48.21933" lon="-3.13294">
        <ele>370</ele>
        <time>2016-03-07T10:25:53Z</time>
      </trkpt>
      <trkpt lat="48.21933" lon="-3.1329">
        <ele>370</ele>
        <time>2016-03-07T10:25:56Z</time>
      </trkpt>
      <trkpt lat="48.21933" lon="-3.13287">
        <ele>370</ele>
        <time>2016-03-07T10:25:58Z</time>
      </trkpt>
      <trkpt lat="48.21933" lon="-3.13283">
        <ele>370</ele>
        <time>2016-03-07T10:26:01Z</time>
      </trkpt>
      <trkpt lat="48.21932" lon="-3.1328">
        <ele>370</ele>
        <time>2016-03-07T10:26:03Z</time>
      </trkpt>
      <trkpt lat="48.21933" lon="-3.13278">
        <ele>370</ele>
        <time>2016-03-07T10:26:05Z</time>
      </trkpt>
      <trkpt lat="48.21933" lon="-3.13275">
        <ele>370</ele>
        <time>2016-03-07T10:26:08Z</time>
      </trkpt>
      <trkpt lat="48.21932" lon="-3.13272">
        <ele>370</ele>
        <time>2016-03-07T10:26:11Z</time>
      </trkpt>
      <trkpt lat="48.21932" lon="-3.13268">
        <ele>370</ele>
        <time>2016-03-07T10:26:13Z</time>
      </trkpt>
      <trkpt lat="48.21932" lon="-3.13265">
        <ele>370</ele>
        <time>2016-03-07T10:26:15Z</time>
      </trkpt>
      <trkpt lat="48.21931" lon="-3.13262">
        <ele>369</ele>
        <time>2016-03-07T10:26:17Z</time>
      </trkpt>
      <trkpt lat="48.21931" lon="-3.13257">
        <ele>369</ele>
        <time>2016-03-07T10:26:20Z</time>
      </trkpt>
      <trkpt lat="48.21931" lon="-3.13252">
        <ele>369</ele>
        <time>2016-03-07T10:26:23Z</time>
      </trkpt>
      <trkpt lat="48.2193" lon="-3.13246">
        <ele>369</ele>
        <time>2016-03-07T10:26:26Z</time>
      </trkpt>
      <trkpt lat="48.2193" lon="-3.13244">
        <ele>369</ele>
        <time>2016-03-07T10:26:28Z</time>
      </trkpt>
      <trkpt lat="48.21929" lon="-3.13241">
        <ele>369</ele>
        <time>2016-03-07T10:26:30Z</time>
      </trkpt>
      <trkpt lat="48.21928" lon="-3.13236">
        <ele>369</ele>
        <time>2016-03-07T10:26:33Z</time>
      </trkpt>
      <trkpt lat="48.21927" lon="-3.13232">
        <ele>368</ele>
        <time>2016-03-07T10:26:36Z</time>
      </trkpt>
      <trkpt lat="48.21927" lon="-3.13229">
        <ele>368</ele>
        <time>2016-03-07T10:26:38Z</time>
      </trkpt>
      <trkpt lat="48.21926" lon="-3.13225">
        <ele>367</ele>
        <time>2016-03-07T10:26:41Z</time>
      </trkpt>
      <trkpt lat="48.21925" lon="-3.13223">
        <ele>367</ele>
        <time>2016-03-07T10:26:43Z</time>
      </trkpt>
      <trkpt lat="48.21925" lon="-3.1322">
        <ele>367</ele>
        <time>2016-03-07T10:26:45Z</time>
      </trkpt>
      <trkpt lat="48.21926" lon="-3.13216">
        <ele>367</ele>
        <time>2016-03-07T10:26:48Z</time>
      </trkpt>
      <trkpt lat="48.21926" lon="-3.13212">
        <ele>366</ele>
        <time>2016-03-07T10:26:51Z</time>
      </trkpt>
      <trkpt lat="48.21926" lon="-3.13209">
        <ele>366</ele>
        <time>2016-03-07T10:26:53Z</time>
      </trkpt>
      <trkpt lat="48.21926" lon="-3.13205">
        <ele>366</ele>
        <time>2016-03-07T10:26:56Z</time>
      </trkpt>
      <trkpt lat="48.21926" lon="-3.13202">
        <ele>365</ele>
        <time>2016-03-07T10:26:58Z</time>
      </trkpt>
      <trkpt lat="48.21926" lon="-3.13198">
        <ele>365</ele>
        <time>2016-03-07T10:27:00Z</time>
      </trkpt>
      <trkpt lat="48.21927" lon="-3.13193">
        <ele>365</ele>
        <time>2016-03-07T10:27:03Z</time>
      </trkpt>
      <trkpt lat="48.21927" lon="-3.13189">
        <ele>365</ele>
        <time>2016-03-07T10:27:05Z</time>
      </trkpt>
      <trkpt lat="48.21927" lon="-3.13183">
        <ele>365</ele>
        <time>2016-03-07T10:27:08Z</time>
      </trkpt>
      <trkpt lat="48.21927" lon="-3.13178">
        <ele>365</ele>
        <time>2016-03-07T10:27:11Z</time>
      </trkpt>
      <trkpt lat="48.21928" lon="-3.13175">
        <ele>365</ele>
        <time>2016-03-07T10:27:13Z</time>
      </trkpt>
      <trkpt lat="48.21928" lon="-3.13172">
        <ele>365</ele>
        <time>2016-03-07T10:27:15Z</time>
      </trkpt>
      <trkpt lat="48.21927" lon="-3.13167">
        <ele>364</ele>
        <time>2016-03-07T10:27:18Z</time>
      </trkpt>
      <trkpt lat="48.21925" lon="-3.13163">
        <ele>364</ele>
        <time>2016-03-07T10:27:21Z</time>
      </trkpt>
      <trkpt lat="48.21925" lon="-3.1316">
        <ele>364</ele>
        <time>2016-03-07T10:27:23Z</time>
      </trkpt>
      <trkpt lat="48.21925" lon="-3.13157">
        <ele>363</ele>
        <time>2016-03-07T10:27:25Z</time>
      </trkpt>
      <trkpt lat="48.21925" lon="-3.13153">
        <ele>363</ele>
        <time>2016-03-07T10:27:28Z</time>
      </trkpt>
      <trkpt lat="48.21924" lon="-3.13151">
        <ele>364</ele>
        <time>2016-03-07T10:27:30Z</time>
      </trkpt>
      <trkpt lat="48.21923" lon="-3.13147">
        <ele>364</ele>
        <time>2016-03-07T10:27:33Z</time>
      </trkpt>
      <trkpt lat="48.21922" lon="-3.13143">
        <ele>364</ele>
        <time>2016-03-07T10:27:36Z</time>
      </trkpt>
      <trkpt lat="48.21923" lon="-3.13141">
        <ele>364</ele>
        <time>2016-03-07T10:27:38Z</time>
      </trkpt>
      <trkpt lat="48.21924" lon="-3.13137">
        <ele>364</ele>
        <time>2016-03-07T10:27:41Z</time>
      </trkpt>
      <trkpt lat="48.21925" lon="-3.13134">
        <ele>364</ele>
        <time>2016-03-07T10:27:43Z</time>
      </trkpt>
      <trkpt lat="48.21926" lon="-3.1313">
        <ele>365</ele>
        <time>2016-03-07T10:27:46Z</time>
      </trkpt>
      <trkpt lat="48.21927" lon="-3.13126">
        <ele>365</ele>
        <time>2016-03-07T10:27:48Z</time>
      </trkpt>
      <trkpt lat="48.21927" lon="-3.13123">
        <ele>365</ele>
        <time>2016-03-07T10:27:50Z</time>
      </trkpt>
      <trkpt lat="48.21928" lon="-3.1312">
        <ele>365</ele>
        <time>2016-03-07T10:27:52Z</time>
      </trkpt>
      <trkpt lat="48.21928" lon="-3.13116">
        <ele>365</ele>
        <time>2016-03-07T10:27:55Z</time>
      </trkpt>
      <trkpt lat="48.2193" lon="-3.13111">
        <ele>364</ele>
        <time>2016-03-07T10:27:58Z</time>
      </trkpt>
      <trkpt lat="48.21931" lon="-3.13107">
        <ele>364</ele>
        <time>2016-03-07T10:28:01Z</time>
      </trkpt>
      <trkpt lat="48.21933" lon="-3.13104">
        <ele>364</ele>
        <time>2016-03-07T10:28:03Z</time>
      </trkpt>
      <trkpt lat="48.21934" lon="-3.13102">
        <ele>364</ele>
        <time>2016-03-07T10:28:05Z</time>
      </trkpt>
      <trkpt lat="48.21935" lon="-3.131">
        <ele>365</ele>
        <time>2016-03-07T10:28:07Z</time>
      </trkpt>
      <trkpt lat="48.21937" lon="-3.13098">
        <ele>365</ele>
        <time>2016-03-07T10:28:09Z</time>
      </trkpt>
      <trkpt lat="48.21939" lon="-3.13094">
        <ele>365</ele>
        <time>2016-03-07T10:28:12Z</time>
      </trkpt>
      <trkpt lat="48.21941" lon="-3.13092">
        <ele>365</ele>
        <time>2016-03-07T10:28:14Z</time>
      </trkpt>
      <trkpt lat="48.21941" lon="-3.1309">
        <ele>365</ele>
        <time>2016-03-07T10:28:16Z</time>
      </trkpt>
      <trkpt lat="48.21943" lon="-3.13087">
        <ele>365</ele>
        <time>2016-03-07T10:28:19Z</time>
      </trkpt>
      <trkpt lat="48.21944" lon="-3.13085">
        <ele>365</ele>
        <time>2016-03-07T10:28:22Z</time>
      </trkpt>
      <trkpt lat="48.21945" lon="-3.13081">
        <ele>365</ele>
        <time>2016-03-07T10:28:24Z</time>
      </trkpt>
      <trkpt lat="48.21946" lon="-3.13077">
        <ele>366</ele>
        <time>2016-03-07T10:28:27Z</time>
      </trkpt>
      <trkpt lat="48.21947" lon="-3.13074">
        <ele>366</ele>
        <time>2016-03-07T10:28:29Z</time>
      </trkpt>
      <trkpt lat="48.21948" lon="-3.13071">
        <ele>366</ele>
        <time>2016-03-07T10:28:31Z</time>
      </trkpt>
      <trkpt lat="48.21949" lon="-3.13067">
        <ele>366</ele>
        <time>2016-03-07T10:28:34Z</time>
      </trkpt>
      <trkpt lat="48.21951" lon="-3.13064">
        <ele>367</ele>
        <time>2016-03-07T10:28:37Z</time>
      </trkpt>
      <trkpt lat="48.21953" lon="-3.1306">
        <ele>368</ele>
        <time>2016-03-07T10:28:40Z</time>
      </trkpt>
      <trkpt lat="48.21955" lon="-3.13055">
        <ele>368</ele>
        <time>2016-03-07T10:28:43Z</time>
      </trkpt>
      <trkpt lat="48.21956" lon="-3.13053">
        <ele>368</ele>
        <time>2016-03-07T10:28:45Z</time>
      </trkpt>
      <trkpt lat="48.21957" lon="-3.13048">
        <ele>369</ele>
        <time>2016-03-07T10:28:48Z</time>
      </trkpt>
      <trkpt lat="48.21957" lon="-3.13044">
        <ele>369</ele>
        <time>2016-03-07T10:28:51Z</time>
      </trkpt>
      <trkpt lat="48.21957" lon="-3.13041">
        <ele>369</ele>
        <time>2016-03-07T10:28:53Z</time>
      </trkpt>
      <trkpt lat="48.21957" lon="-3.13037">
        <ele>368</ele>
        <time>2016-03-07T10:28:56Z</time>
      </trkpt>
      <trkpt lat="48.21959" lon="-3.13034">
        <ele>368</ele>
        <time>2016-03-07T10:28:59Z</time>
      </trkpt>
      <trkpt lat="48.21961" lon="-3.13032">
        <ele>368</ele>
        <time>2016-03-07T10:29:01Z</time>
      </trkpt>
      <trkpt lat="48.21962" lon="-3.1303">
        <ele>368</ele>
        <time>2016-03-07T10:29:03Z</time>
      </trkpt>
      <trkpt lat="48.21964" lon="-3.13028">
        <ele>368</ele>
        <time>2016-03-07T10:29:05Z</time>
      </trkpt>
      <trkpt lat="48.21966" lon="-3.13024">
        <ele>369</ele>
        <time>2016-03-07T10:29:08Z</time>
      </trkpt>
      <trkpt lat="48.21968" lon="-3.13019">
        <ele>369</ele>
        <time>2016-03-07T10:29:11Z</time>
      </trkpt>
      <trkpt lat="48.2197" lon="-3.13016">
        <ele>369</ele>
        <time>2016-03-07T10:29:14Z</time>
      </trkpt>
      <trkpt lat="48.21973" lon="-3.13013">
        <ele>369</ele>
        <time>2016-03-07T10:29:16Z</time>
      </trkpt>
      <trkpt lat="48.21975" lon="-3.13009">
        <ele>369</ele>
        <time>2016-03-07T10:29:19Z</time>
      </trkpt>
      <trkpt lat="48.21978" lon="-3.13006">
        <ele>369</ele>
        <time>2016-03-07T10:29:22Z</time>
      </trkpt>
      <trkpt lat="48.2198" lon="-3.13003">
        <ele>369</ele>
        <time>2016-03-07T10:29:25Z</time>
      </trkpt>
      <trkpt lat="48.21982" lon="-3.13002">
        <ele>369</ele>
        <time>2016-03-07T10:29:27Z</time>
      </trkpt>
      <trkpt lat="48.21984" lon="-3.13">
        <ele>369</ele>
        <time>2016-03-07T10:29:29Z</time>
      </trkpt>
      <trkpt lat="48.21987" lon="-3.12998">
        <ele>370</ele>
        <time>2016-03-07T10:29:32Z</time>
      </trkpt>
      <trkpt lat="48.21988" lon="-3.12995">
        <ele>370</ele>
        <time>2016-03-07T10:29:34Z</time>
      </trkpt>
      <trkpt lat="48.21988" lon="-3.1299">
        <ele>371</ele>
        <time>2016-03-07T10:29:37Z</time>
      </trkpt>
      <trkpt lat="48.21989" lon="-3.12986">
        <ele>371</ele>
        <time>2016-03-07T10:29:40Z</time>
      </trkpt>
      <trkpt lat="48.21989" lon="-3.12984">
        <ele>371</ele>
        <time>2016-03-07T10:29:42Z</time>
      </trkpt>
      <trkpt lat="48.2199" lon="-3.12981">
        <ele>371</ele>
        <time>2016-03-07T10:29:45Z</time>
      </trkpt>
      <trkpt lat="48.21991" lon="-3.12978">
        <ele>371</ele>
        <time>2016-03-07T10:29:47Z</time>
      </trkpt>
      <trkpt lat="48.21992" lon="-3.12975">
        <ele>372</ele>
        <time>2016-03-07T10:29:50Z</time>
      </trkpt>
      <trkpt lat="48.21994" lon="-3.12972">
        <ele>372</ele>
        <time>2016-03-07T10:29:53Z</time>
      </trkpt>
      <trkpt lat="48.21996" lon="-3.12972">
        <ele>372</ele>
        <time>2016-03-07T10:29:55Z</time>
      </trkpt>
      <trkpt lat="48.21999" lon="-3.12974">
        <ele>372</ele>
        <time>2016-03-07T10:29:58Z</time>
      </trkpt>
      <trkpt lat="48.22001" lon="-3.12976">
        <ele>372</ele>
        <time>2016-03-07T10:30:01Z</time>
      </trkpt>
      <trkpt lat="48.22004" lon="-3.12978">
        <ele>373</ele>
        <time>2016-03-07T10:30:04Z</time>
      </trkpt>
      <trkpt lat="48.22007" lon="-3.12977">
        <ele>373</ele>
        <time>2016-03-07T10:30:06Z</time>
      </trkpt>
      <trkpt lat="48.2201" lon="-3.12976">
        <ele>373</ele>
        <time>2016-03-07T10:30:09Z</time>
      </trkpt>
      <trkpt lat="48.22012" lon="-3.12974">
        <ele>373</ele>
        <time>2016-03-07T10:30:11Z</time>
      </trkpt>
      <trkpt lat="48.22014" lon="-3.12973">
        <ele>373</ele>
        <time>2016-03-07T10:30:13Z</time>
      </trkpt>
      <trkpt lat="48.22016" lon="-3.12971">
        <ele>373</ele>
        <time>2016-03-07T10:30:15Z</time>
      </trkpt>
      <trkpt lat="48.22019" lon="-3.1297">
        <ele>373</ele>
        <time>2016-03-07T10:30:18Z</time>
      </trkpt>
      <trkpt lat="48.22023" lon="-3.12969">
        <ele>373</ele>
        <time>2016-03-07T10:30:21Z</time>
      </trkpt>
      <trkpt lat="48.22026" lon="-3.12968">
        <ele>373</ele>
        <time>2016-03-07T10:30:24Z</time>
      </trkpt>
      <trkpt lat="48.22028" lon="-3.12968">
        <ele>373</ele>
        <time>2016-03-07T10:30:26Z</time>
      </trkpt>
      <trkpt lat="48.22031" lon="-3.12967">
        <ele>373</ele>
        <time>2016-03-07T10:30:28Z</time>
      </trkpt>
      <trkpt lat="48.22034" lon="-3.12966">
        <ele>373</ele>
        <time>2016-03-07T10:30:31Z</time>
      </trkpt>
      <trkpt lat="48.22036" lon="-3.12966">
        <ele>373</ele>
        <time>2016-03-07T10:30:33Z</time>
      </trkpt>
      <trkpt lat="48.22039" lon="-3.12965">
        <ele>374</ele>
        <time>2016-03-07T10:30:36Z</time>
      </trkpt>
      <trkpt lat="48.22043" lon="-3.12965">
        <ele>374</ele>
        <time>2016-03-07T10:30:39Z</time>
      </trkpt>
      <trkpt lat="48.22045" lon="-3.12964">
        <ele>374</ele>
        <time>2016-03-07T10:30:41Z</time>
      </trkpt>
      <trkpt lat="48.22049" lon="-3.12963">
        <ele>374</ele>
        <time>2016-03-07T10:30:44Z</time>
      </trkpt>
      <trkpt lat="48.22051" lon="-3.12962">
        <ele>374</ele>
        <time>2016-03-07T10:30:46Z</time>
      </trkpt>
      <trkpt lat="48.22053" lon="-3.12961">
        <ele>374</ele>
        <time>2016-03-07T10:30:48Z</time>
      </trkpt>
      <trkpt lat="48.22056" lon="-3.1296">
        <ele>374</ele>
        <time>2016-03-07T10:30:51Z</time>
      </trkpt>
      <trkpt lat="48.22058" lon="-3.12959">
        <ele>374</ele>
        <time>2016-03-07T10:30:53Z</time>
      </trkpt>
      <trkpt lat="48.2206" lon="-3.12958">
        <ele>374</ele>
        <time>2016-03-07T10:30:55Z</time>
      </trkpt>
      <trkpt lat="48.2206" lon="-3.12955">
        <ele>374</ele>
        <time>2016-03-07T10:30:57Z</time>
      </trkpt>
      <trkpt lat="48.22061" lon="-3.12952">
        <ele>374</ele>
        <time>2016-03-07T10:30:59Z</time>
      </trkpt>
      <trkpt lat="48.22061" lon="-3.1295">
        <ele>373</ele>
        <time>2016-03-07T10:31:01Z</time>
      </trkpt>
      <trkpt lat="48.22061" lon="-3.1295">
        <ele>373</ele>
        <time>2016-03-07T10:31:04Z</time>
      </trkpt>
      <trkpt lat="48.22062" lon="-3.12948">
        <ele>373</ele>
        <time>2016-03-07T10:31:06Z</time>
      </trkpt>
      <trkpt lat="48.22063" lon="-3.12946">
        <ele>373</ele>
        <time>2016-03-07T10:31:08Z</time>
      </trkpt>
      <trkpt lat="48.22064" lon="-3.12944">
        <ele>374</ele>
        <time>2016-03-07T10:31:11Z</time>
      </trkpt>
      <trkpt lat="48.22066" lon="-3.12941">
        <ele>374</ele>
        <time>2016-03-07T10:31:14Z</time>
      </trkpt>
      <trkpt lat="48.22067" lon="-3.12938">
        <ele>374</ele>
        <time>2016-03-07T10:31:17Z</time>
      </trkpt>
      <trkpt lat="48.22068" lon="-3.12937">
        <ele>374</ele>
        <time>2016-03-07T10:31:20Z</time>
      </trkpt>
      <trkpt lat="48.22068" lon="-3.12936">
        <ele>374</ele>
        <time>2016-03-07T10:31:27Z</time>
      </trkpt>
      <trkpt lat="48.2207" lon="-3.12935">
        <ele>374</ele>
        <time>2016-03-07T10:31:30Z</time>
      </trkpt>
      <trkpt lat="48.22072" lon="-3.12935">
        <ele>374</ele>
        <time>2016-03-07T10:31:32Z</time>
      </trkpt>
      <trkpt lat="48.22074" lon="-3.12936">
        <ele>374</ele>
        <time>2016-03-07T10:31:34Z</time>
      </trkpt>
      <trkpt lat="48.22074" lon="-3.12936">
        <ele>374</ele>
        <time>2016-03-07T10:31:37Z</time>
      </trkpt>
      <trkpt lat="48.22074" lon="-3.12935">
        <ele>375</ele>
        <time>2016-03-07T10:31:39Z</time>
      </trkpt>
      <trkpt lat="48.22073" lon="-3.12935">
        <ele>374</ele>
        <time>2016-03-07T10:31:41Z</time>
      </trkpt>
      <trkpt lat="48.22073" lon="-3.12935">
        <ele>374</ele>
        <time>2016-03-07T10:31:44Z</time>
      </trkpt>
      <trkpt lat="48.22073" lon="-3.12934">
        <ele>373</ele>
        <time>2016-03-07T10:31:46Z</time>
      </trkpt>
      <trkpt lat="48.22073" lon="-3.12935">
        <ele>373</ele>
        <time>2016-03-07T10:31:49Z</time>
      </trkpt>
      <trkpt lat="48.22073" lon="-3.12935">
        <ele>373</ele>
        <time>2016-03-07T10:31:52Z</time>
      </trkpt>
      <trkpt lat="48.22074" lon="-3.12938">
        <ele>373</ele>
        <time>2016-03-07T10:31:55Z</time>
      </trkpt>
      <trkpt lat="48.22074" lon="-3.12939">
        <ele>373</ele>
        <time>2016-03-07T10:31:58Z</time>
      </trkpt>
      <trkpt lat="48.22074" lon="-3.12939">
        <ele>374</ele>
        <time>2016-03-07T10:32:00Z</time>
      </trkpt>
      <trkpt lat="48.22074" lon="-3.12939">
        <ele>374</ele>
        <time>2016-03-07T10:32:03Z</time>
      </trkpt>
      <trkpt lat="48.22074" lon="-3.12938">
        <ele>374</ele>
        <time>2016-03-07T10:32:05Z</time>
      </trkpt>
      <trkpt lat="48.22073" lon="-3.12938">
        <ele>373</ele>
        <time>2016-03-07T10:32:12Z</time>
      </trkpt>
      <trkpt lat="48.22073" lon="-3.12938">
        <ele>374</ele>
        <time>2016-03-07T10:32:16Z</time>
      </trkpt>
      <trkpt lat="48.22073" lon="-3.12937">
        <ele>373</ele>
        <time>2016-03-07T10:32:18Z</time>
      </trkpt>
      <trkpt lat="48.22071" lon="-3.12936">
        <ele>373</ele>
        <time>2016-03-07T10:32:21Z</time>
      </trkpt>
      <trkpt lat="48.2207" lon="-3.12936">
        <ele>373</ele>
        <time>2016-03-07T10:32:23Z</time>
      </trkpt>
      <trkpt lat="48.2207" lon="-3.12937">
        <ele>373</ele>
        <time>2016-03-07T10:32:26Z</time>
      </trkpt>
      <trkpt lat="48.22071" lon="-3.12937">
        <ele>373</ele>
        <time>2016-03-07T10:32:28Z</time>
      </trkpt>
      <trkpt lat="48.22074" lon="-3.12939">
        <ele>373</ele>
        <time>2016-03-07T10:32:31Z</time>
      </trkpt>
      <trkpt lat="48.22076" lon="-3.12942">
        <ele>374</ele>
        <time>2016-03-07T10:32:34Z</time>
      </trkpt>
      <trkpt lat="48.22078" lon="-3.12944">
        <ele>373</ele>
        <time>2016-03-07T10:32:36Z</time>
      </trkpt>
      <trkpt lat="48.22081" lon="-3.12946">
        <ele>373</ele>
        <time>2016-03-07T10:32:39Z</time>
      </trkpt>
      <trkpt lat="48.22084" lon="-3.12947">
        <ele>373</ele>
        <time>2016-03-07T10:32:42Z</time>
      </trkpt>
      <trkpt lat="48.22086" lon="-3.12947">
        <ele>374</ele>
        <time>2016-03-07T10:32:44Z</time>
      </trkpt>
      <trkpt lat="48.22088" lon="-3.12945">
        <ele>373</ele>
        <time>2016-03-07T10:32:46Z</time>
      </trkpt>
      <trkpt lat="48.22091" lon="-3.12943">
        <ele>373</ele>
        <time>2016-03-07T10:32:49Z</time>
      </trkpt>
      <trkpt lat="48.22095" lon="-3.12942">
        <ele>373</ele>
        <time>2016-03-07T10:32:52Z</time>
      </trkpt>
      <trkpt lat="48.22097" lon="-3.1294">
        <ele>373</ele>
        <time>2016-03-07T10:32:54Z</time>
      </trkpt>
      <trkpt lat="48.22099" lon="-3.1294">
        <ele>373</ele>
        <time>2016-03-07T10:32:56Z</time>
      </trkpt>
      <trkpt lat="48.22102" lon="-3.12937">
        <ele>373</ele>
        <time>2016-03-07T10:32:59Z</time>
      </trkpt>
      <trkpt lat="48.22104" lon="-3.12936">
        <ele>373</ele>
        <time>2016-03-07T10:33:01Z</time>
      </trkpt>
      <trkpt lat="48.22107" lon="-3.12934">
        <ele>372</ele>
        <time>2016-03-07T10:33:04Z</time>
      </trkpt>
      <trkpt lat="48.22108" lon="-3.12931">
        <ele>372</ele>
        <time>2016-03-07T10:33:06Z</time>
      </trkpt>
      <trkpt lat="48.22111" lon="-3.12928">
        <ele>372</ele>
        <time>2016-03-07T10:33:09Z</time>
      </trkpt>
      <trkpt lat="48.22112" lon="-3.12926">
        <ele>372</ele>
        <time>2016-03-07T10:33:11Z</time>
      </trkpt>
      <trkpt lat="48.22113" lon="-3.12923">
        <ele>371</ele>
        <time>2016-03-07T10:33:13Z</time>
      </trkpt>
      <trkpt lat="48.22115" lon="-3.1292">
        <ele>371</ele>
        <time>2016-03-07T10:33:15Z</time>
      </trkpt>
      <trkpt lat="48.22118" lon="-3.12917">
        <ele>371</ele>
        <time>2016-03-07T10:33:18Z</time>
      </trkpt>
      <trkpt lat="48.2212" lon="-3.12913">
        <ele>371</ele>
        <time>2016-03-07T10:33:21Z</time>
      </trkpt>
      <trkpt lat="48.22122" lon="-3.12911">
        <ele>371</ele>
        <time>2016-03-07T10:33:23Z</time>
      </trkpt>
      <trkpt lat="48.22124" lon="-3.12907">
        <ele>370</ele>
        <time>2016-03-07T10:33:26Z</time>
      </trkpt>
      <trkpt lat="48.22126" lon="-3.12904">
        <ele>370</ele>
        <time>2016-03-07T10:33:28Z</time>
      </trkpt>
      <trkpt lat="48.22129" lon="-3.129">
        <ele>370</ele>
        <time>2016-03-07T10:33:31Z</time>
      </trkpt>
      <trkpt lat="48.22131" lon="-3.12897">
        <ele>369</ele>
        <time>2016-03-07T10:33:34Z</time>
      </trkpt>
      <trkpt lat="48.22133" lon="-3.12895">
        <ele>369</ele>
        <time>2016-03-07T10:33:36Z</time>
      </trkpt>
      <trkpt lat="48.22136" lon="-3.12892">
        <ele>370</ele>
        <time>2016-03-07T10:33:39Z</time>
      </trkpt>
      <trkpt lat="48.22139" lon="-3.12889">
        <ele>370</ele>
        <time>2016-03-07T10:33:42Z</time>
      </trkpt>
      <trkpt lat="48.22142" lon="-3.12887">
        <ele>370</ele>
        <time>2016-03-07T10:33:44Z</time>
      </trkpt>
      <trkpt lat="48.22144" lon="-3.12888">
        <ele>370</ele>
        <time>2016-03-07T10:33:47Z</time>
      </trkpt>
      <trkpt lat="48.22147" lon="-3.12889">
        <ele>370</ele>
        <time>2016-03-07T10:33:50Z</time>
      </trkpt>
      <trkpt lat="48.22149" lon="-3.1289">
        <ele>369</ele>
        <time>2016-03-07T10:33:52Z</time>
      </trkpt>
      <trkpt lat="48.22152" lon="-3.12891">
        <ele>369</ele>
        <time>2016-03-07T10:33:54Z</time>
      </trkpt>
      <trkpt lat="48.22154" lon="-3.12891">
        <ele>369</ele>
        <time>2016-03-07T10:33:56Z</time>
      </trkpt>
      <trkpt lat="48.22156" lon="-3.1289">
        <ele>369</ele>
        <time>2016-03-07T10:33:59Z</time>
      </trkpt>
      <trkpt lat="48.22157" lon="-3.1289">
        <ele>369</ele>
        <time>2016-03-07T10:34:01Z</time>
      </trkpt>
      <trkpt lat="48.22159" lon="-3.1289">
        <ele>369</ele>
        <time>2016-03-07T10:34:03Z</time>
      </trkpt>
      <trkpt lat="48.22162" lon="-3.1289">
        <ele>369</ele>
        <time>2016-03-07T10:34:06Z</time>
      </trkpt>
      <trkpt lat="48.22166" lon="-3.1289">
        <ele>368</ele>
        <time>2016-03-07T10:34:09Z</time>
      </trkpt>
      <trkpt lat="48.22168" lon="-3.12891">
        <ele>368</ele>
        <time>2016-03-07T10:34:11Z</time>
      </trkpt>
      <trkpt lat="48.22171" lon="-3.12892">
        <ele>368</ele>
        <time>2016-03-07T10:34:13Z</time>
      </trkpt>
      <trkpt lat="48.22173" lon="-3.12895">
        <ele>368</ele>
        <time>2016-03-07T10:34:16Z</time>
      </trkpt>
      <trkpt lat="48.22174" lon="-3.12897">
        <ele>368</ele>
        <time>2016-03-07T10:34:18Z</time>
      </trkpt>
      <trkpt lat="48.22174" lon="-3.12898">
        <ele>369</ele>
        <time>2016-03-07T10:34:20Z</time>
      </trkpt>
      <trkpt lat="48.22174" lon="-3.12899">
        <ele>369</ele>
        <time>2016-03-07T10:34:22Z</time>
      </trkpt>
      <trkpt lat="48.22174" lon="-3.12899">
        <ele>369</ele>
        <time>2016-03-07T10:34:25Z</time>
      </trkpt>
      <trkpt lat="48.22173" lon="-3.12896">
        <ele>368</ele>
        <time>2016-03-07T10:34:28Z</time>
      </trkpt>
      <trkpt lat="48.22172" lon="-3.12894">
        <ele>368</ele>
        <time>2016-03-07T10:34:31Z</time>
      </trkpt>
      <trkpt lat="48.22173" lon="-3.12892">
        <ele>369</ele>
        <time>2016-03-07T10:34:33Z</time>
      </trkpt>
      <trkpt lat="48.22174" lon="-3.12892">
        <ele>369</ele>
        <time>2016-03-07T10:34:36Z</time>
      </trkpt>
      <trkpt lat="48.22174" lon="-3.12893">
        <ele>369</ele>
        <time>2016-03-07T10:34:39Z</time>
      </trkpt>
      <trkpt lat="48.22174" lon="-3.12893">
        <ele>369</ele>
        <time>2016-03-07T10:34:42Z</time>
      </trkpt>
      <trkpt lat="48.22174" lon="-3.12892">
        <ele>368</ele>
        <time>2016-03-07T10:34:45Z</time>
      </trkpt>
      <trkpt lat="48.22174" lon="-3.12892">
        <ele>368</ele>
        <time>2016-03-07T10:34:47Z</time>
      </trkpt>
      <trkpt lat="48.22173" lon="-3.12891">
        <ele>368</ele>
        <time>2016-03-07T10:34:49Z</time>
      </trkpt>
      <trkpt lat="48.22173" lon="-3.12891">
        <ele>368</ele>
        <time>2016-03-07T10:34:51Z</time>
      </trkpt>
      <trkpt lat="48.22173" lon="-3.12891">
        <ele>368</ele>
        <time>2016-03-07T10:34:54Z</time>
      </trkpt>
      <trkpt lat="48.22173" lon="-3.1289">
        <ele>368</ele>
        <time>2016-03-07T10:34:57Z</time>
      </trkpt>
      <trkpt lat="48.22173" lon="-3.1289">
        <ele>369</ele>
        <time>2016-03-07T10:35:00Z</time>
      </trkpt>
      <trkpt lat="48.22172" lon="-3.12889">
        <ele>369</ele>
        <time>2016-03-07T10:35:02Z</time>
      </trkpt>
      <trkpt lat="48.22171" lon="-3.12889">
        <ele>369</ele>
        <time>2016-03-07T10:35:05Z</time>
      </trkpt>
      <trkpt lat="48.2217" lon="-3.12889">
        <ele>369</ele>
        <time>2016-03-07T10:35:08Z</time>
      </trkpt>
      <trkpt lat="48.2217" lon="-3.1289">
        <ele>369</ele>
        <time>2016-03-07T10:35:11Z</time>
      </trkpt>
      <trkpt lat="48.22169" lon="-3.1289">
        <ele>369</ele>
        <time>2016-03-07T10:35:14Z</time>
      </trkpt>
      <trkpt lat="48.22167" lon="-3.1289">
        <ele>369</ele>
        <time>2016-03-07T10:35:17Z</time>
      </trkpt>
      <trkpt lat="48.22166" lon="-3.12891">
        <ele>369</ele>
        <time>2016-03-07T10:35:20Z</time>
      </trkpt>
      <trkpt lat="48.22165" lon="-3.12892">
        <ele>369</ele>
        <time>2016-03-07T10:35:23Z</time>
      </trkpt>
      <trkpt lat="48.22164" lon="-3.12892">
        <ele>369</ele>
        <time>2016-03-07T10:35:26Z</time>
      </trkpt>
      <trkpt lat="48.22162" lon="-3.12894">
        <ele>369</ele>
        <time>2016-03-07T10:35:29Z</time>
      </trkpt>
      <trkpt lat="48.22162" lon="-3.12895">
        <ele>370</ele>
        <time>2016-03-07T10:35:31Z</time>
      </trkpt>
      <trkpt lat="48.22161" lon="-3.12895">
        <ele>370</ele>
        <time>2016-03-07T10:35:33Z</time>
      </trkpt>
      <trkpt lat="48.22161" lon="-3.12895">
        <ele>369</ele>
        <time>2016-03-07T10:35:37Z</time>
      </trkpt>
      <trkpt lat="48.22161" lon="-3.12896">
        <ele>369</ele>
        <time>2016-03-07T10:35:39Z</time>
      </trkpt>
      <trkpt lat="48.2216" lon="-3.12896">
        <ele>369</ele>
        <time>2016-03-07T10:35:42Z</time>
      </trkpt>
      <trkpt lat="48.22159" lon="-3.12897">
        <ele>369</ele>
        <time>2016-03-07T10:35:44Z</time>
      </trkpt>
      <trkpt lat="48.22159" lon="-3.12897">
        <ele>369</ele>
        <time>2016-03-07T10:35:47Z</time>
      </trkpt>
      <trkpt lat="48.22158" lon="-3.12897">
        <ele>369</ele>
        <time>2016-03-07T10:35:49Z</time>
      </trkpt>
      <trkpt lat="48.22157" lon="-3.12896">
        <ele>369</ele>
        <time>2016-03-07T10:35:51Z</time>
      </trkpt>
      <trkpt lat="48.22156" lon="-3.12895">
        <ele>370</ele>
        <time>2016-03-07T10:35:53Z</time>
      </trkpt>
      <trkpt lat="48.22155" lon="-3.12894">
        <ele>370</ele>
        <time>2016-03-07T10:35:55Z</time>
      </trkpt>
      <trkpt lat="48.22154" lon="-3.12892">
        <ele>370</ele>
        <time>2016-03-07T10:35:58Z</time>
      </trkpt>
      <trkpt lat="48.22155" lon="-3.12892">
        <ele>370</ele>
        <time>2016-03-07T10:36:00Z</time>
      </trkpt>
      <trkpt lat="48.22154" lon="-3.12891">
        <ele>370</ele>
        <time>2016-03-07T10:36:02Z</time>
      </trkpt>
      <trkpt lat="48.22152" lon="-3.12891">
        <ele>370</ele>
        <time>2016-03-07T10:36:04Z</time>
      </trkpt>
      <trkpt lat="48.2215" lon="-3.12891">
        <ele>370</ele>
        <time>2016-03-07T10:36:06Z</time>
      </trkpt>
      <trkpt lat="48.22149" lon="-3.12891">
        <ele>370</ele>
        <time>2016-03-07T10:36:08Z</time>
      </trkpt>
      <trkpt lat="48.22147" lon="-3.12892">
        <ele>369</ele>
        <time>2016-03-07T10:36:10Z</time>
      </trkpt>
      <trkpt lat="48.22145" lon="-3.12894">
        <ele>369</ele>
        <time>2016-03-07T10:36:13Z</time>
      </trkpt>
      <trkpt lat="48.22144" lon="-3.12895">
        <ele>369</ele>
        <time>2016-03-07T10:36:16Z</time>
      </trkpt>
      <trkpt lat="48.22143" lon="-3.12895">
        <ele>369</ele>
        <time>2016-03-07T10:36:18Z</time>
      </trkpt>
      <trkpt lat="48.2214" lon="-3.12897">
        <ele>369</ele>
        <time>2016-03-07T10:36:21Z</time>
      </trkpt>
      <trkpt lat="48.22138" lon="-3.12899">
        <ele>369</ele>
        <time>2016-03-07T10:36:23Z</time>
      </trkpt>
      <trkpt lat="48.22136" lon="-3.12902">
        <ele>369</ele>
        <time>2016-03-07T10:36:26Z</time>
      </trkpt>
      <trkpt lat="48.22133" lon="-3.12906">
        <ele>370</ele>
        <time>2016-03-07T10:36:29Z</time>
      </trkpt>
      <trkpt lat="48.22131" lon="-3.12909">
        <ele>370</ele>
        <time>2016-03-07T10:36:31Z</time>
      </trkpt>
      <trkpt lat="48.2213" lon="-3.12912">
        <ele>370</ele>
        <time>2016-03-07T10:36:33Z</time>
      </trkpt>
      <trkpt lat="48.22129" lon="-3.12914">
        <ele>370</ele>
        <time>2016-03-07T10:36:35Z</time>
      </trkpt>
      <trkpt lat="48.22127" lon="-3.12918">
        <ele>370</ele>
        <time>2016-03-07T10:36:38Z</time>
      </trkpt>
      <trkpt lat="48.22124" lon="-3.1292">
        <ele>370</ele>
        <time>2016-03-07T10:36:41Z</time>
      </trkpt>
      <trkpt lat="48.22121" lon="-3.12924">
        <ele>370</ele>
        <time>2016-03-07T10:36:44Z</time>
      </trkpt>
      <trkpt lat="48.22119" lon="-3.12926">
        <ele>371</ele>
        <time>2016-03-07T10:36:46Z</time>
      </trkpt>
      <trkpt lat="48.22118" lon="-3.12929">
        <ele>371</ele>
        <time>2016-03-07T10:36:48Z</time>
      </trkpt>
      <trkpt lat="48.22116" lon="-3.12931">
        <ele>371</ele>
        <time>2016-03-07T10:36:50Z</time>
      </trkpt>
      <trkpt lat="48.22114" lon="-3.12935">
        <ele>371</ele>
        <time>2016-03-07T10:36:53Z</time>
      </trkpt>
      <trkpt lat="48.22112" lon="-3.12937">
        <ele>372</ele>
        <time>2016-03-07T10:36:55Z</time>
      </trkpt>
      <trkpt lat="48.2211" lon="-3.12939">
        <ele>372</ele>
        <time>2016-03-07T10:36:57Z</time>
      </trkpt>
      <trkpt lat="48.22107" lon="-3.12942">
        <ele>372</ele>
        <time>2016-03-07T10:37:00Z</time>
      </trkpt>
      <trkpt lat="48.22104" lon="-3.12944">
        <ele>372</ele>
        <time>2016-03-07T10:37:03Z</time>
      </trkpt>
      <trkpt lat="48.22101" lon="-3.12945">
        <ele>372</ele>
        <time>2016-03-07T10:37:06Z</time>
      </trkpt>
      <trkpt lat="48.22099" lon="-3.12946">
        <ele>373</ele>
        <time>2016-03-07T10:37:08Z</time>
      </trkpt>
      <trkpt lat="48.22098" lon="-3.12947">
        <ele>373</ele>
        <time>2016-03-07T10:37:10Z</time>
      </trkpt>
      <trkpt lat="48.22097" lon="-3.12947">
        <ele>373</ele>
        <time>2016-03-07T10:37:13Z</time>
      </trkpt>
      <trkpt lat="48.22095" lon="-3.12948">
        <ele>373</ele>
        <time>2016-03-07T10:37:15Z</time>
      </trkpt>
      <trkpt lat="48.22094" lon="-3.12948">
        <ele>373</ele>
        <time>2016-03-07T10:37:17Z</time>
      </trkpt>
      <trkpt lat="48.2209" lon="-3.1295">
        <ele>373</ele>
        <time>2016-03-07T10:37:20Z</time>
      </trkpt>
      <trkpt lat="48.22088" lon="-3.12951">
        <ele>373</ele>
        <time>2016-03-07T10:37:22Z</time>
      </trkpt>
      <trkpt lat="48.22085" lon="-3.12952">
        <ele>373</ele>
        <time>2016-03-07T10:37:25Z</time>
      </trkpt>
      <trkpt lat="48.22083" lon="-3.12951">
        <ele>373</ele>
        <time>2016-03-07T10:37:28Z</time>
      </trkpt>
      <trkpt lat="48.22081" lon="-3.12948">
        <ele>373</ele>
        <time>2016-03-07T10:37:30Z</time>
      </trkpt>
      <trkpt lat="48.2208" lon="-3.12945">
        <ele>373</ele>
        <time>2016-03-07T10:37:32Z</time>
      </trkpt>
      <trkpt lat="48.22078" lon="-3.12941">
        <ele>373</ele>
        <time>2016-03-07T10:37:35Z</time>
      </trkpt>
      <trkpt lat="48.22076" lon="-3.12939">
        <ele>373</ele>
        <time>2016-03-07T10:37:37Z</time>
      </trkpt>
      <trkpt lat="48.22074" lon="-3.12938">
        <ele>373</ele>
        <time>2016-03-07T10:37:39Z</time>
      </trkpt>
      <trkpt lat="48.22071" lon="-3.12938">
        <ele>372</ele>
        <time>2016-03-07T10:37:42Z</time>
      </trkpt>
      <trkpt lat="48.22069" lon="-3.12937">
        <ele>373</ele>
        <time>2016-03-07T10:37:44Z</time>
      </trkpt>
      <trkpt lat="48.22067" lon="-3.12935">
        <ele>372</ele>
        <time>2016-03-07T10:37:46Z</time>
      </trkpt>
      <trkpt lat="48.22066" lon="-3.12933">
        <ele>373</ele>
        <time>2016-03-07T10:37:48Z</time>
      </trkpt>
      <trkpt lat="48.22065" lon="-3.12931">
        <ele>373</ele>
        <time>2016-03-07T10:37:50Z</time>
      </trkpt>
      <trkpt lat="48.22063" lon="-3.12926">
        <ele>372</ele>
        <time>2016-03-07T10:37:53Z</time>
      </trkpt>
      <trkpt lat="48.22062" lon="-3.1292">
        <ele>372</ele>
        <time>2016-03-07T10:37:56Z</time>
      </trkpt>
      <trkpt lat="48.22062" lon="-3.12917">
        <ele>372</ele>
        <time>2016-03-07T10:37:58Z</time>
      </trkpt>
      <trkpt lat="48.2206" lon="-3.12911">
        <ele>372</ele>
        <time>2016-03-07T10:38:01Z</time>
      </trkpt>
      <trkpt lat="48.2206" lon="-3.12908">
        <ele>371</ele>
        <time>2016-03-07T10:38:03Z</time>
      </trkpt>
      <trkpt lat="48.2206" lon="-3.12903">
        <ele>371</ele>
        <time>2016-03-07T10:38:06Z</time>
      </trkpt>
      <trkpt lat="48.22059" lon="-3.12898">
        <ele>370</ele>
        <time>2016-03-07T10:38:09Z</time>
      </trkpt>
      <trkpt lat="48.22059" lon="-3.12896">
        <ele>370</ele>
        <time>2016-03-07T10:38:11Z</time>
      </trkpt>
      <trkpt lat="48.22058" lon="-3.12894">
        <ele>370</ele>
        <time>2016-03-07T10:38:14Z</time>
      </trkpt>
      <trkpt lat="48.22058" lon="-3.1289">
        <ele>370</ele>
        <time>2016-03-07T10:38:17Z</time>
      </trkpt>
      <trkpt lat="48.22057" lon="-3.12885">
        <ele>369</ele>
        <time>2016-03-07T10:38:20Z</time>
      </trkpt>
      <trkpt lat="48.22057" lon="-3.1288">
        <ele>369</ele>
        <time>2016-03-07T10:38:23Z</time>
      </trkpt>
      <trkpt lat="48.22057" lon="-3.12875">
        <ele>368</ele>
        <time>2016-03-07T10:38:26Z</time>
      </trkpt>
      <trkpt lat="48.22057" lon="-3.12872">
        <ele>368</ele>
        <time>2016-03-07T10:38:28Z</time>
      </trkpt>
      <trkpt lat="48.22056" lon="-3.12867">
        <ele>368</ele>
        <time>2016-03-07T10:38:31Z</time>
      </trkpt>
      <trkpt lat="48.22056" lon="-3.12863">
        <ele>368</ele>
        <time>2016-03-07T10:38:34Z</time>
      </trkpt>
      <trkpt lat="48.22056" lon="-3.12859">
        <ele>368</ele>
        <time>2016-03-07T10:38:36Z</time>
      </trkpt>
      <trkpt lat="48.22056" lon="-3.12854">
        <ele>368</ele>
        <time>2016-03-07T10:38:39Z</time>
      </trkpt>
      <trkpt lat="48.22056" lon="-3.12849">
        <ele>368</ele>
        <time>2016-03-07T10:38:42Z</time>
      </trkpt>
      <trkpt lat="48.22057" lon="-3.12844">
        <ele>367</ele>
        <time>2016-03-07T10:38:45Z</time>
      </trkpt>
      <trkpt lat="48.22056" lon="-3.12841">
        <ele>367</ele>
        <time>2016-03-07T10:38:47Z</time>
      </trkpt>
      <trkpt lat="48.22057" lon="-3.12836">
        <ele>367</ele>
        <time>2016-03-07T10:38:50Z</time>
      </trkpt>
      <trkpt lat="48.22056" lon="-3.12833">
        <ele>366</ele>
        <time>2016-03-07T10:38:52Z</time>
      </trkpt>
      <trkpt lat="48.22056" lon="-3.12828">
        <ele>366</ele>
        <time>2016-03-07T10:38:55Z</time>
      </trkpt>
      <trkpt lat="48.22057" lon="-3.12824">
        <ele>366</ele>
        <time>2016-03-07T10:38:57Z</time>
      </trkpt>
      <trkpt lat="48.22057" lon="-3.12822">
        <ele>366</ele>
        <time>2016-03-07T10:38:59Z</time>
      </trkpt>
      <trkpt lat="48.22058" lon="-3.12819">
        <ele>366</ele>
        <time>2016-03-07T10:39:01Z</time>
      </trkpt>
      <trkpt lat="48.22058" lon="-3.12816">
        <ele>366</ele>
        <time>2016-03-07T10:39:03Z</time>
      </trkpt>
      <trkpt lat="48.22059" lon="-3.12813">
        <ele>366</ele>
        <time>2016-03-07T10:39:05Z</time>
      </trkpt>
      <trkpt lat="48.2206" lon="-3.12811">
        <ele>366</ele>
        <time>2016-03-07T10:39:07Z</time>
      </trkpt>
      <trkpt lat="48.2206" lon="-3.12807">
        <ele>366</ele>
        <time>2016-03-07T10:39:10Z</time>
      </trkpt>
      <trkpt lat="48.22061" lon="-3.12804">
        <ele>366</ele>
        <time>2016-03-07T10:39:12Z</time>
      </trkpt>
      <trkpt lat="48.22063" lon="-3.128">
        <ele>366</ele>
        <time>2016-03-07T10:39:15Z</time>
      </trkpt>
      <trkpt lat="48.22063" lon="-3.12798">
        <ele>366</ele>
        <time>2016-03-07T10:39:17Z</time>
      </trkpt>
      <trkpt lat="48.22065" lon="-3.12796">
        <ele>366</ele>
        <time>2016-03-07T10:39:19Z</time>
      </trkpt>
      <trkpt lat="48.22065" lon="-3.12794">
        <ele>366</ele>
        <time>2016-03-07T10:39:21Z</time>
      </trkpt>
      <trkpt lat="48.22067" lon="-3.12791">
        <ele>366</ele>
        <time>2016-03-07T10:39:24Z</time>
      </trkpt>
      <trkpt lat="48.22068" lon="-3.12788">
        <ele>365</ele>
        <time>2016-03-07T10:39:26Z</time>
      </trkpt>
      <trkpt lat="48.2207" lon="-3.12784">
        <ele>365</ele>
        <time>2016-03-07T10:39:29Z</time>
      </trkpt>
      <trkpt lat="48.2207" lon="-3.12779">
        <ele>365</ele>
        <time>2016-03-07T10:39:32Z</time>
      </trkpt>
      <trkpt lat="48.22072" lon="-3.12775">
        <ele>364</ele>
        <time>2016-03-07T10:39:35Z</time>
      </trkpt>
      <trkpt lat="48.22074" lon="-3.12774">
        <ele>364</ele>
        <time>2016-03-07T10:39:37Z</time>
      </trkpt>
      <trkpt lat="48.22077" lon="-3.12774">
        <ele>364</ele>
        <time>2016-03-07T10:39:39Z</time>
      </trkpt>
      <trkpt lat="48.2208" lon="-3.12774">
        <ele>364</ele>
        <time>2016-03-07T10:39:42Z</time>
      </trkpt>
      <trkpt lat="48.22083" lon="-3.12775">
        <ele>365</ele>
        <time>2016-03-07T10:39:44Z</time>
      </trkpt>
      <trkpt lat="48.22086" lon="-3.12775">
        <ele>365</ele>
        <time>2016-03-07T10:39:47Z</time>
      </trkpt>
      <trkpt lat="48.22088" lon="-3.12775">
        <ele>365</ele>
        <time>2016-03-07T10:39:49Z</time>
      </trkpt>
      <trkpt lat="48.22091" lon="-3.12774">
        <ele>364</ele>
        <time>2016-03-07T10:39:52Z</time>
      </trkpt>
      <trkpt lat="48.22093" lon="-3.12772">
        <ele>364</ele>
        <time>2016-03-07T10:39:54Z</time>
      </trkpt>
      <trkpt lat="48.22096" lon="-3.1277">
        <ele>364</ele>
        <time>2016-03-07T10:39:57Z</time>
      </trkpt>
      <trkpt lat="48.22098" lon="-3.12766">
        <ele>364</ele>
        <time>2016-03-07T10:40:00Z</time>
      </trkpt>
      <trkpt lat="48.221" lon="-3.12763">
        <ele>364</ele>
        <time>2016-03-07T10:40:02Z</time>
      </trkpt>
      <trkpt lat="48.22102" lon="-3.12761">
        <ele>364</ele>
        <time>2016-03-07T10:40:04Z</time>
      </trkpt>
      <trkpt lat="48.22105" lon="-3.12758">
        <ele>364</ele>
        <time>2016-03-07T10:40:07Z</time>
      </trkpt>
      <trkpt lat="48.22107" lon="-3.12754">
        <ele>363</ele>
        <time>2016-03-07T10:40:10Z</time>
      </trkpt>
      <trkpt lat="48.2211" lon="-3.12751">
        <ele>363</ele>
        <time>2016-03-07T10:40:13Z</time>
      </trkpt>
      <trkpt lat="48.22112" lon="-3.12749">
        <ele>363</ele>
        <time>2016-03-07T10:40:15Z</time>
      </trkpt>
      <trkpt lat="48.22115" lon="-3.12746">
        <ele>363</ele>
        <time>2016-03-07T10:40:18Z</time>
      </trkpt>
      <trkpt lat="48.22119" lon="-3.12744">
        <ele>363</ele>
        <time>2016-03-07T10:40:21Z</time>
      </trkpt>
      <trkpt lat="48.22122" lon="-3.12742">
        <ele>362</ele>
        <time>2016-03-07T10:40:24Z</time>
      </trkpt>
      <trkpt lat="48.22124" lon="-3.12741">
        <ele>363</ele>
        <time>2016-03-07T10:40:26Z</time>
      </trkpt>
      <trkpt lat="48.22126" lon="-3.12741">
        <ele>362</ele>
        <time>2016-03-07T10:40:28Z</time>
      </trkpt>
      <trkpt lat="48.22129" lon="-3.1274">
        <ele>362</ele>
        <time>2016-03-07T10:40:30Z</time>
      </trkpt>
      <trkpt lat="48.22132" lon="-3.12739">
        <ele>363</ele>
        <time>2016-03-07T10:40:33Z</time>
      </trkpt>
      <trkpt lat="48.22136" lon="-3.12738">
        <ele>362</ele>
        <time>2016-03-07T10:40:36Z</time>
      </trkpt>
      <trkpt lat="48.22138" lon="-3.12736">
        <ele>362</ele>
        <time>2016-03-07T10:40:38Z</time>
      </trkpt>
      <trkpt lat="48.22141" lon="-3.12734">
        <ele>362</ele>
        <time>2016-03-07T10:40:41Z</time>
      </trkpt>
      <trkpt lat="48.22144" lon="-3.12733">
        <ele>362</ele>
        <time>2016-03-07T10:40:43Z</time>
      </trkpt>
      <trkpt lat="48.22147" lon="-3.12731">
        <ele>362</ele>
        <time>2016-03-07T10:40:46Z</time>
      </trkpt>
      <trkpt lat="48.2215" lon="-3.1273">
        <ele>363</ele>
        <time>2016-03-07T10:40:49Z</time>
      </trkpt>
      <trkpt lat="48.22152" lon="-3.12727">
        <ele>362</ele>
        <time>2016-03-07T10:40:52Z</time>
      </trkpt>
      <trkpt lat="48.22155" lon="-3.12725">
        <ele>362</ele>
        <time>2016-03-07T10:40:55Z</time>
      </trkpt>
      <trkpt lat="48.22157" lon="-3.12722">
        <ele>362</ele>
        <time>2016-03-07T10:40:58Z</time>
      </trkpt>
      <trkpt lat="48.2216" lon="-3.12721">
        <ele>362</ele>
        <time>2016-03-07T10:41:01Z</time>
      </trkpt>
      <trkpt lat="48.22162" lon="-3.12718">
        <ele>362</ele>
        <time>2016-03-07T10:41:04Z</time>
      </trkpt>
      <trkpt lat="48.22165" lon="-3.12717">
        <ele>362</ele>
        <time>2016-03-07T10:41:06Z</time>
      </trkpt>
      <trkpt lat="48.22166" lon="-3.12716">
        <ele>362</ele>
        <time>2016-03-07T10:41:08Z</time>
      </trkpt>
      <trkpt lat="48.22169" lon="-3.12714">
        <ele>362</ele>
        <time>2016-03-07T10:41:11Z</time>
      </trkpt>
      <trkpt lat="48.2217" lon="-3.12713">
        <ele>362</ele>
        <time>2016-03-07T10:41:13Z</time>
      </trkpt>
      <trkpt lat="48.22172" lon="-3.12709">
        <ele>362</ele>
        <time>2016-03-07T10:41:16Z</time>
      </trkpt>
      <trkpt lat="48.22176" lon="-3.12707">
        <ele>362</ele>
        <time>2016-03-07T10:41:19Z</time>
      </trkpt>
      <trkpt lat="48.22179" lon="-3.12705">
        <ele>362</ele>
        <time>2016-03-07T10:41:22Z</time>
      </trkpt>
      <trkpt lat="48.22181" lon="-3.12704">
        <ele>363</ele>
        <time>2016-03-07T10:41:24Z</time>
      </trkpt>
      <trkpt lat="48.22183" lon="-3.12702">
        <ele>362</ele>
        <time>2016-03-07T10:41:26Z</time>
      </trkpt>
      <trkpt lat="48.22185" lon="-3.12699">
        <ele>363</ele>
        <time>2016-03-07T10:41:29Z</time>
      </trkpt>
      <trkpt lat="48.22187" lon="-3.12697">
        <ele>363</ele>
        <time>2016-03-07T10:41:31Z</time>
      </trkpt>
      <trkpt lat="48.22188" lon="-3.12695">
        <ele>362</ele>
        <time>2016-03-07T10:41:33Z</time>
      </trkpt>
      <trkpt lat="48.22189" lon="-3.12693">
        <ele>362</ele>
        <time>2016-03-07T10:41:35Z</time>
      </trkpt>
      <trkpt lat="48.2219" lon="-3.12691">
        <ele>362</ele>
        <time>2016-03-07T10:41:37Z</time>
      </trkpt>
      <trkpt lat="48.22192" lon="-3.12689">
        <ele>362</ele>
        <time>2016-03-07T10:41:39Z</time>
      </trkpt>
      <trkpt lat="48.22193" lon="-3.12687">
        <ele>362</ele>
        <time>2016-03-07T10:41:41Z</time>
      </trkpt>
      <trkpt lat="48.22194" lon="-3.12685">
        <ele>362</ele>
        <time>2016-03-07T10:41:43Z</time>
      </trkpt>
      <trkpt lat="48.22197" lon="-3.12683">
        <ele>362</ele>
        <time>2016-03-07T10:41:46Z</time>
      </trkpt>
      <trkpt lat="48.22198" lon="-3.12682">
        <ele>362</ele>
        <time>2016-03-07T10:41:48Z</time>
      </trkpt>
      <trkpt lat="48.222" lon="-3.12682">
        <ele>363</ele>
        <time>2016-03-07T10:41:51Z</time>
      </trkpt>
      <trkpt lat="48.222" lon="-3.12682">
        <ele>363</ele>
        <time>2016-03-07T10:41:54Z</time>
      </trkpt>
      <trkpt lat="48.222" lon="-3.12682">
        <ele>363</ele>
        <time>2016-03-07T10:41:57Z</time>
      </trkpt>
      <trkpt lat="48.22201" lon="-3.12681">
        <ele>363</ele>
        <time>2016-03-07T10:41:59Z</time>
      </trkpt>
      <trkpt lat="48.22202" lon="-3.12678">
        <ele>363</ele>
        <time>2016-03-07T10:42:02Z</time>
      </trkpt>
      <trkpt lat="48.22203" lon="-3.12675">
        <ele>363</ele>
        <time>2016-03-07T10:42:05Z</time>
      </trkpt>
      <trkpt lat="48.22205" lon="-3.12675">
        <ele>363</ele>
        <time>2016-03-07T10:42:08Z</time>
      </trkpt>
      <trkpt lat="48.22205" lon="-3.12674">
        <ele>363</ele>
        <time>2016-03-07T10:42:11Z</time>
      </trkpt>
      <trkpt lat="48.22206" lon="-3.12671">
        <ele>363</ele>
        <time>2016-03-07T10:42:14Z</time>
      </trkpt>
      <trkpt lat="48.22208" lon="-3.12668">
        <ele>363</ele>
        <time>2016-03-07T10:42:16Z</time>
      </trkpt>
      <trkpt lat="48.2221" lon="-3.12665">
        <ele>363</ele>
        <time>2016-03-07T10:42:19Z</time>
      </trkpt>
      <trkpt lat="48.22212" lon="-3.12663">
        <ele>363</ele>
        <time>2016-03-07T10:42:21Z</time>
      </trkpt>
      <trkpt lat="48.22214" lon="-3.12661">
        <ele>363</ele>
        <time>2016-03-07T10:42:23Z</time>
      </trkpt>
      <trkpt lat="48.22215" lon="-3.12658">
        <ele>363</ele>
        <time>2016-03-07T10:42:26Z</time>
      </trkpt>
      <trkpt lat="48.22216" lon="-3.12655">
        <ele>363</ele>
        <time>2016-03-07T10:42:28Z</time>
      </trkpt>
      <trkpt lat="48.22222" lon="-3.12653">
        <ele>363</ele>
        <time>2016-03-07T10:42:31Z</time>
      </trkpt>
      <trkpt lat="48.22224" lon="-3.1265">
        <ele>363</ele>
        <time>2016-03-07T10:42:33Z</time>
      </trkpt>
      <trkpt lat="48.22228" lon="-3.12646">
        <ele>363</ele>
        <time>2016-03-07T10:42:36Z</time>
      </trkpt>
      <trkpt lat="48.22231" lon="-3.12644">
        <ele>363</ele>
        <time>2016-03-07T10:42:38Z</time>
      </trkpt>
      <trkpt lat="48.22232" lon="-3.12642">
        <ele>363</ele>
        <time>2016-03-07T10:42:40Z</time>
      </trkpt>
      <trkpt lat="48.22235" lon="-3.12639">
        <ele>363</ele>
        <time>2016-03-07T10:42:43Z</time>
      </trkpt>
      <trkpt lat="48.22236" lon="-3.12636">
        <ele>364</ele>
        <time>2016-03-07T10:42:45Z</time>
      </trkpt>
      <trkpt lat="48.22238" lon="-3.12633">
        <ele>363</ele>
        <time>2016-03-07T10:42:48Z</time>
      </trkpt>
      <trkpt lat="48.2224" lon="-3.1263">
        <ele>364</ele>
        <time>2016-03-07T10:42:51Z</time>
      </trkpt>
      <trkpt lat="48.22242" lon="-3.12628">
        <ele>364</ele>
        <time>2016-03-07T10:42:54Z</time>
      </trkpt>
      <trkpt lat="48.22245" lon="-3.12625">
        <ele>364</ele>
        <time>2016-03-07T10:42:57Z</time>
      </trkpt>
      <trkpt lat="48.22246" lon="-3.12622">
        <ele>364</ele>
        <time>2016-03-07T10:42:59Z</time>
      </trkpt>
      <trkpt lat="48.22247" lon="-3.12619">
        <ele>364</ele>
        <time>2016-03-07T10:43:01Z</time>
      </trkpt>
      <trkpt lat="48.22248" lon="-3.12616">
        <ele>365</ele>
        <time>2016-03-07T10:43:03Z</time>
      </trkpt>
      <trkpt lat="48.2225" lon="-3.12614">
        <ele>365</ele>
        <time>2016-03-07T10:43:06Z</time>
      </trkpt>
      <trkpt lat="48.22253" lon="-3.12609">
        <ele>365</ele>
        <time>2016-03-07T10:43:09Z</time>
      </trkpt>
      <trkpt lat="48.22255" lon="-3.12607">
        <ele>365</ele>
        <time>2016-03-07T10:43:12Z</time>
      </trkpt>
      <trkpt lat="48.22256" lon="-3.12605">
        <ele>365</ele>
        <time>2016-03-07T10:43:14Z</time>
      </trkpt>
      <trkpt lat="48.22258" lon="-3.12603">
        <ele>365</ele>
        <time>2016-03-07T10:43:16Z</time>
      </trkpt>
      <trkpt lat="48.22261" lon="-3.126">
        <ele>365</ele>
        <time>2016-03-07T10:43:19Z</time>
      </trkpt>
      <trkpt lat="48.22262" lon="-3.12598">
        <ele>365</ele>
        <time>2016-03-07T10:43:22Z</time>
      </trkpt>
      <trkpt lat="48.22264" lon="-3.12597">
        <ele>365</ele>
        <time>2016-03-07T10:43:24Z</time>
      </trkpt>
      <trkpt lat="48.22266" lon="-3.12595">
        <ele>365</ele>
        <time>2016-03-07T10:43:27Z</time>
      </trkpt>
      <trkpt lat="48.22268" lon="-3.12593">
        <ele>366</ele>
        <time>2016-03-07T10:43:29Z</time>
      </trkpt>
      <trkpt lat="48.2227" lon="-3.12591">
        <ele>366</ele>
        <time>2016-03-07T10:43:31Z</time>
      </trkpt>
      <trkpt lat="48.22271" lon="-3.12589">
        <ele>366</ele>
        <time>2016-03-07T10:43:33Z</time>
      </trkpt>
      <trkpt lat="48.22273" lon="-3.12586">
        <ele>366</ele>
        <time>2016-03-07T10:43:36Z</time>
      </trkpt>
      <trkpt lat="48.22275" lon="-3.12584">
        <ele>366</ele>
        <time>2016-03-07T10:43:38Z</time>
      </trkpt>
      <trkpt lat="48.22278" lon="-3.12582">
        <ele>366</ele>
        <time>2016-03-07T10:43:41Z</time>
      </trkpt>
      <trkpt lat="48.2228" lon="-3.12581">
        <ele>366</ele>
        <time>2016-03-07T10:43:44Z</time>
      </trkpt>
      <trkpt lat="48.22282" lon="-3.12579">
        <ele>366</ele>
        <time>2016-03-07T10:43:47Z</time>
      </trkpt>
      <trkpt lat="48.22285" lon="-3.12578">
        <ele>366</ele>
        <time>2016-03-07T10:43:50Z</time>
      </trkpt>
      <trkpt lat="48.22287" lon="-3.12576">
        <ele>366</ele>
        <time>2016-03-07T10:43:53Z</time>
      </trkpt>
      <trkpt lat="48.2229" lon="-3.12574">
        <ele>366</ele>
        <time>2016-03-07T10:43:56Z</time>
      </trkpt>
      <trkpt lat="48.22292" lon="-3.12572">
        <ele>367</ele>
        <time>2016-03-07T10:43:58Z</time>
      </trkpt>
      <trkpt lat="48.22295" lon="-3.1257">
        <ele>367</ele>
        <time>2016-03-07T10:44:01Z</time>
      </trkpt>
      <trkpt lat="48.22298" lon="-3.12568">
        <ele>367</ele>
        <time>2016-03-07T10:44:04Z</time>
      </trkpt>
      <trkpt lat="48.22301" lon="-3.12568">
        <ele>367</ele>
        <time>2016-03-07T10:44:06Z</time>
      </trkpt>
      <trkpt lat="48.22304" lon="-3.12565">
        <ele>367</ele>
        <time>2016-03-07T10:44:09Z</time>
      </trkpt>
      <trkpt lat="48.22306" lon="-3.12564">
        <ele>367</ele>
        <time>2016-03-07T10:44:11Z</time>
      </trkpt>
      <trkpt lat="48.22309" lon="-3.12563">
        <ele>367</ele>
        <time>2016-03-07T10:44:14Z</time>
      </trkpt>
      <trkpt lat="48.22311" lon="-3.12562">
        <ele>367</ele>
        <time>2016-03-07T10:44:16Z</time>
      </trkpt>
      <trkpt lat="48.22314" lon="-3.12561">
        <ele>367</ele>
        <time>2016-03-07T10:44:18Z</time>
      </trkpt>
      <trkpt lat="48.22317" lon="-3.12558">
        <ele>367</ele>
        <time>2016-03-07T10:44:21Z</time>
      </trkpt>
      <trkpt lat="48.22321" lon="-3.12556">
        <ele>368</ele>
        <time>2016-03-07T10:44:24Z</time>
      </trkpt>
      <trkpt lat="48.22323" lon="-3.12555">
        <ele>368</ele>
        <time>2016-03-07T10:44:26Z</time>
      </trkpt>
      <trkpt lat="48.22327" lon="-3.12554">
        <ele>368</ele>
        <time>2016-03-07T10:44:29Z</time>
      </trkpt>
      <trkpt lat="48.2233" lon="-3.12553">
        <ele>368</ele>
        <time>2016-03-07T10:44:32Z</time>
      </trkpt>
      <trkpt lat="48.22332" lon="-3.12553">
        <ele>368</ele>
        <time>2016-03-07T10:44:34Z</time>
      </trkpt>
      <trkpt lat="48.22334" lon="-3.12552">
        <ele>368</ele>
        <time>2016-03-07T10:44:36Z</time>
      </trkpt>
      <trkpt lat="48.22335" lon="-3.12549">
        <ele>368</ele>
        <time>2016-03-07T10:44:39Z</time>
      </trkpt>
      <trkpt lat="48.22338" lon="-3.12546">
        <ele>369</ele>
        <time>2016-03-07T10:44:42Z</time>
      </trkpt>
      <trkpt lat="48.22341" lon="-3.12543">
        <ele>369</ele>
        <time>2016-03-07T10:44:45Z</time>
      </trkpt>
      <trkpt lat="48.22342" lon="-3.12541">
        <ele>369</ele>
        <time>2016-03-07T10:44:47Z</time>
      </trkpt>
      <trkpt lat="48.22343" lon="-3.12538">
        <ele>369</ele>
        <time>2016-03-07T10:44:49Z</time>
      </trkpt>
      <trkpt lat="48.22344" lon="-3.12533">
        <ele>369</ele>
        <time>2016-03-07T10:44:52Z</time>
      </trkpt>
      <trkpt lat="48.22345" lon="-3.1253">
        <ele>369</ele>
        <time>2016-03-07T10:44:54Z</time>
      </trkpt>
      <trkpt lat="48.22348" lon="-3.12526">
        <ele>369</ele>
        <time>2016-03-07T10:44:57Z</time>
      </trkpt>
      <trkpt lat="48.22349" lon="-3.12524">
        <ele>369</ele>
        <time>2016-03-07T10:44:59Z</time>
      </trkpt>
      <trkpt lat="48.2235" lon="-3.1252">
        <ele>369</ele>
        <time>2016-03-07T10:45:02Z</time>
      </trkpt>
      <trkpt lat="48.22351" lon="-3.12518">
        <ele>369</ele>
        <time>2016-03-07T10:45:04Z</time>
      </trkpt>
      <trkpt lat="48.22352" lon="-3.12516">
        <ele>369</ele>
        <time>2016-03-07T10:45:06Z</time>
      </trkpt>
      <trkpt lat="48.22353" lon="-3.12512">
        <ele>369</ele>
        <time>2016-03-07T10:45:09Z</time>
      </trkpt>
      <trkpt lat="48.22353" lon="-3.12508">
        <ele>369</ele>
        <time>2016-03-07T10:45:12Z</time>
      </trkpt>
      <trkpt lat="48.22353" lon="-3.12505">
        <ele>369</ele>
        <time>2016-03-07T10:45:14Z</time>
      </trkpt>
      <trkpt lat="48.22354" lon="-3.12501">
        <ele>369</ele>
        <time>2016-03-07T10:45:17Z</time>
      </trkpt>
      <trkpt lat="48.22354" lon="-3.12497">
        <ele>369</ele>
        <time>2016-03-07T10:45:19Z</time>
      </trkpt>
      <trkpt lat="48.22353" lon="-3.12492">
        <ele>369</ele>
        <time>2016-03-07T10:45:22Z</time>
      </trkpt>
      <trkpt lat="48.22353" lon="-3.12487">
        <ele>369</ele>
        <time>2016-03-07T10:45:25Z</time>
      </trkpt>
      <trkpt lat="48.22354" lon="-3.12485">
        <ele>369</ele>
        <time>2016-03-07T10:45:27Z</time>
      </trkpt>
      <trkpt lat="48.22356" lon="-3.12479">
        <ele>369</ele>
        <time>2016-03-07T10:45:30Z</time>
      </trkpt>
      <trkpt lat="48.22358" lon="-3.12474">
        <ele>369</ele>
        <time>2016-03-07T10:45:33Z</time>
      </trkpt>
      <trkpt lat="48.22359" lon="-3.1247">
        <ele>369</ele>
        <time>2016-03-07T10:45:36Z</time>
      </trkpt>
      <trkpt lat="48.2236" lon="-3.12466">
        <ele>369</ele>
        <time>2016-03-07T10:45:39Z</time>
      </trkpt>
      <trkpt lat="48.22362" lon="-3.12463">
        <ele>369</ele>
        <time>2016-03-07T10:45:42Z</time>
      </trkpt>
      <trkpt lat="48.22363" lon="-3.12461">
        <ele>369</ele>
        <time>2016-03-07T10:45:44Z</time>
      </trkpt>
      <trkpt lat="48.22364" lon="-3.12458">
        <ele>369</ele>
        <time>2016-03-07T10:45:47Z</time>
      </trkpt>
      <trkpt lat="48.22366" lon="-3.12456">
        <ele>370</ele>
        <time>2016-03-07T10:45:49Z</time>
      </trkpt>
      <trkpt lat="48.22366" lon="-3.12453">
        <ele>370</ele>
        <time>2016-03-07T10:45:51Z</time>
      </trkpt>
      <trkpt lat="48.22367" lon="-3.12449">
        <ele>371</ele>
        <time>2016-03-07T10:45:54Z</time>
      </trkpt>
      <trkpt lat="48.22369" lon="-3.12446">
        <ele>372</ele>
        <time>2016-03-07T10:45:57Z</time>
      </trkpt>
      <trkpt lat="48.2237" lon="-3.12444">
        <ele>372</ele>
        <time>2016-03-07T10:45:59Z</time>
      </trkpt>
      <trkpt lat="48.22371" lon="-3.1244">
        <ele>373</ele>
        <time>2016-03-07T10:46:02Z</time>
      </trkpt>
      <trkpt lat="48.22372" lon="-3.12437">
        <ele>373</ele>
        <time>2016-03-07T10:46:05Z</time>
      </trkpt>
      <trkpt lat="48.22372" lon="-3.12433">
        <ele>374</ele>
        <time>2016-03-07T10:46:08Z</time>
      </trkpt>
      <trkpt lat="48.22373" lon="-3.12431">
        <ele>374</ele>
        <time>2016-03-07T10:46:10Z</time>
      </trkpt>
      <trkpt lat="48.22373" lon="-3.12428">
        <ele>375</ele>
        <time>2016-03-07T10:46:12Z</time>
      </trkpt>
      <trkpt lat="48.22374" lon="-3.12424">
        <ele>374</ele>
        <time>2016-03-07T10:46:14Z</time>
      </trkpt>
      <trkpt lat="48.22375" lon="-3.12419">
        <ele>374</ele>
        <time>2016-03-07T10:46:17Z</time>
      </trkpt>
      <trkpt lat="48.22375" lon="-3.12416">
        <ele>374</ele>
        <time>2016-03-07T10:46:19Z</time>
      </trkpt>
      <trkpt lat="48.22377" lon="-3.12411">
        <ele>374</ele>
        <time>2016-03-07T10:46:22Z</time>
      </trkpt>
      <trkpt lat="48.22377" lon="-3.12408">
        <ele>374</ele>
        <time>2016-03-07T10:46:24Z</time>
      </trkpt>
      <trkpt lat="48.22379" lon="-3.12405">
        <ele>374</ele>
        <time>2016-03-07T10:46:26Z</time>
      </trkpt>
      <trkpt lat="48.2238" lon="-3.124">
        <ele>374</ele>
        <time>2016-03-07T10:46:29Z</time>
      </trkpt>
      <trkpt lat="48.22381" lon="-3.12397">
        <ele>374</ele>
        <time>2016-03-07T10:46:31Z</time>
      </trkpt>
      <trkpt lat="48.22382" lon="-3.12393">
        <ele>374</ele>
        <time>2016-03-07T10:46:34Z</time>
      </trkpt>
      <trkpt lat="48.22383" lon="-3.12389">
        <ele>373</ele>
        <time>2016-03-07T10:46:37Z</time>
      </trkpt>
      <trkpt lat="48.22383" lon="-3.12385">
        <ele>373</ele>
        <time>2016-03-07T10:46:40Z</time>
      </trkpt>
      <trkpt lat="48.22384" lon="-3.12382">
        <ele>373</ele>
        <time>2016-03-07T10:46:42Z</time>
      </trkpt>
      <trkpt lat="48.22385" lon="-3.12378">
        <ele>373</ele>
        <time>2016-03-07T10:46:45Z</time>
      </trkpt>
      <trkpt lat="48.22385" lon="-3.12376">
        <ele>373</ele>
        <time>2016-03-07T10:46:47Z</time>
      </trkpt>
      <trkpt lat="48.22387" lon="-3.12374">
        <ele>372</ele>
        <time>2016-03-07T10:46:49Z</time>
      </trkpt>
      <trkpt lat="48.22387" lon="-3.12372">
        <ele>373</ele>
        <time>2016-03-07T10:46:51Z</time>
      </trkpt>
      <trkpt lat="48.22389" lon="-3.12369">
        <ele>373</ele>
        <time>2016-03-07T10:46:54Z</time>
      </trkpt>
      <trkpt lat="48.2239" lon="-3.12364">
        <ele>373</ele>
        <time>2016-03-07T10:46:57Z</time>
      </trkpt>
      <trkpt lat="48.2239" lon="-3.12362">
        <ele>374</ele>
        <time>2016-03-07T10:46:59Z</time>
      </trkpt>
      <trkpt lat="48.22391" lon="-3.12356">
        <ele>374</ele>
        <time>2016-03-07T10:47:02Z</time>
      </trkpt>
      <trkpt lat="48.22392" lon="-3.12354">
        <ele>374</ele>
        <time>2016-03-07T10:47:04Z</time>
      </trkpt>
      <trkpt lat="48.22392" lon="-3.12349">
        <ele>373</ele>
        <time>2016-03-07T10:47:07Z</time>
      </trkpt>
      <trkpt lat="48.22391" lon="-3.12345">
        <ele>373</ele>
        <time>2016-03-07T10:47:10Z</time>
      </trkpt>
      <trkpt lat="48.22392" lon="-3.1234">
        <ele>373</ele>
        <time>2016-03-07T10:47:13Z</time>
      </trkpt>
      <trkpt lat="48.22394" lon="-3.12338">
        <ele>373</ele>
        <time>2016-03-07T10:47:16Z</time>
      </trkpt>
      <trkpt lat="48.22394" lon="-3.12334">
        <ele>373</ele>
        <time>2016-03-07T10:47:19Z</time>
      </trkpt>
      <trkpt lat="48.22395" lon="-3.12332">
        <ele>373</ele>
        <time>2016-03-07T10:47:22Z</time>
      </trkpt>
      <trkpt lat="48.22396" lon="-3.12331">
        <ele>373</ele>
        <time>2016-03-07T10:47:25Z</time>
      </trkpt>
      <trkpt lat="48.22396" lon="-3.1233">
        <ele>372</ele>
        <time>2016-03-07T10:47:27Z</time>
      </trkpt>
      <trkpt lat="48.22398" lon="-3.12327">
        <ele>372</ele>
        <time>2016-03-07T10:47:30Z</time>
      </trkpt>
      <trkpt lat="48.22397" lon="-3.12325">
        <ele>372</ele>
        <time>2016-03-07T10:47:32Z</time>
      </trkpt>
      <trkpt lat="48.22398" lon="-3.12322">
        <ele>372</ele>
        <time>2016-03-07T10:47:35Z</time>
      </trkpt>
      <trkpt lat="48.22398" lon="-3.1232">
        <ele>373</ele>
        <time>2016-03-07T10:47:38Z</time>
      </trkpt>
      <trkpt lat="48.22399" lon="-3.1232">
        <ele>373</ele>
        <time>2016-03-07T10:47:41Z</time>
      </trkpt>
      <trkpt lat="48.22399" lon="-3.1232">
        <ele>373</ele>
        <time>2016-03-07T10:47:44Z</time>
      </trkpt>
      <trkpt lat="48.224" lon="-3.12318">
        <ele>372</ele>
        <time>2016-03-07T10:47:48Z</time>
      </trkpt>
      <trkpt lat="48.224" lon="-3.12318">
        <ele>372</ele>
        <time>2016-03-07T10:47:50Z</time>
      </trkpt>
      <trkpt lat="48.224" lon="-3.12317">
        <ele>371</ele>
        <time>2016-03-07T10:47:54Z</time>
      </trkpt>
      <trkpt lat="48.224" lon="-3.12317">
        <ele>372</ele>
        <time>2016-03-07T10:47:58Z</time>
      </trkpt>
      <trkpt lat="48.224" lon="-3.12317">
        <ele>372</ele>
        <time>2016-03-07T10:48:01Z</time>
      </trkpt>
      <trkpt lat="48.224" lon="-3.12317">
        <ele>372</ele>
        <time>2016-03-07T10:48:04Z</time>
      </trkpt>
      <trkpt lat="48.224" lon="-3.12317">
        <ele>372</ele>
        <time>2016-03-07T10:48:07Z</time>
      </trkpt>
      <trkpt lat="48.22401" lon="-3.12317">
        <ele>372</ele>
        <time>2016-03-07T10:48:09Z</time>
      </trkpt>
      <trkpt lat="48.22401" lon="-3.12317">
        <ele>372</ele>
        <time>2016-03-07T10:48:11Z</time>
      </trkpt>
      <trkpt lat="48.22401" lon="-3.12316">
        <ele>373</ele>
        <time>2016-03-07T10:48:16Z</time>
      </trkpt>
      <trkpt lat="48.22401" lon="-3.12316">
        <ele>372</ele>
        <time>2016-03-07T10:48:20Z</time>
      </trkpt>
      <trkpt lat="48.22401" lon="-3.12316">
        <ele>372</ele>
        <time>2016-03-07T10:48:22Z</time>
      </trkpt>
      <trkpt lat="48.22401" lon="-3.12316">
        <ele>372</ele>
        <time>2016-03-07T10:48:25Z</time>
      </trkpt>
      <trkpt lat="48.22401" lon="-3.12316">
        <ele>372</ele>
        <time>2016-03-07T10:48:27Z</time>
      </trkpt>
      <trkpt lat="48.22401" lon="-3.12316">
        <ele>372</ele>
        <time>2016-03-07T10:48:31Z</time>
      </trkpt>
      <trkpt lat="48.22401" lon="-3.12316">
        <ele>372</ele>
        <time>2016-03-07T10:48:34Z</time>
      </trkpt>
      <trkpt lat="48.22401" lon="-3.12316">
        <ele>372</ele>
        <time>2016-03-07T10:48:37Z</time>
      </trkpt>
      <trkpt lat="48.22401" lon="-3.12316">
        <ele>372</ele>
        <time>2016-03-07T10:48:40Z</time>
      </trkpt>
      <trkpt lat="48.22402" lon="-3.12316">
        <ele>372</ele>
        <time>2016-03-07T10:48:43Z</time>
      </trkpt>
      <trkpt lat="48.22403" lon="-3.12316">
        <ele>372</ele>
        <time>2016-03-07T10:48:47Z</time>
      </trkpt>
      <trkpt lat="48.22403" lon="-3.12315">
        <ele>372</ele>
        <time>2016-03-07T10:48:51Z</time>
      </trkpt>
      <trkpt lat="48.22403" lon="-3.12312">
        <ele>372</ele>
        <time>2016-03-07T10:48:54Z</time>
      </trkpt>
      <trkpt lat="48.22403" lon="-3.1231">
        <ele>372</ele>
        <time>2016-03-07T10:48:57Z</time>
      </trkpt>
      <trkpt lat="48.22403" lon="-3.12308">
        <ele>372</ele>
        <time>2016-03-07T10:49:00Z</time>
      </trkpt>
      <trkpt lat="48.22404" lon="-3.12304">
        <ele>371</ele>
        <time>2016-03-07T10:49:03Z</time>
      </trkpt>
      <trkpt lat="48.22405" lon="-3.12302">
        <ele>371</ele>
        <time>2016-03-07T10:49:05Z</time>
      </trkpt>
      <trkpt lat="48.22405" lon="-3.12299">
        <ele>371</ele>
        <time>2016-03-07T10:49:08Z</time>
      </trkpt>
      <trkpt lat="48.22405" lon="-3.12298">
        <ele>371</ele>
        <time>2016-03-07T10:49:10Z</time>
      </trkpt>
      <trkpt lat="48.22405" lon="-3.12297">
        <ele>371</ele>
        <time>2016-03-07T10:49:12Z</time>
      </trkpt>
      <trkpt lat="48.22406" lon="-3.12296">
        <ele>371</ele>
        <time>2016-03-07T10:49:15Z</time>
      </trkpt>
      <trkpt lat="48.22405" lon="-3.12296">
        <ele>371</ele>
        <time>2016-03-07T10:49:18Z</time>
      </trkpt>
      <trkpt lat="48.22405" lon="-3.12296">
        <ele>371</ele>
        <time>2016-03-07T10:49:22Z</time>
      </trkpt>
      <trkpt lat="48.22405" lon="-3.12295">
        <ele>371</ele>
        <time>2016-03-07T10:49:25Z</time>
      </trkpt>
      <trkpt lat="48.22405" lon="-3.12294">
        <ele>371</ele>
        <time>2016-03-07T10:49:27Z</time>
      </trkpt>
      <trkpt lat="48.22405" lon="-3.12294">
        <ele>371</ele>
        <time>2016-03-07T10:49:30Z</time>
      </trkpt>
      <trkpt lat="48.22405" lon="-3.12293">
        <ele>371</ele>
        <time>2016-03-07T10:49:32Z</time>
      </trkpt>
      <trkpt lat="48.22405" lon="-3.12292">
        <ele>371</ele>
        <time>2016-03-07T10:49:34Z</time>
      </trkpt>
      <trkpt lat="48.22406" lon="-3.12292">
        <ele>371</ele>
        <time>2016-03-07T10:49:37Z</time>
      </trkpt>
      <trkpt lat="48.22406" lon="-3.12292">
        <ele>371</ele>
        <time>2016-03-07T10:49:40Z</time>
      </trkpt>
      <trkpt lat="48.22406" lon="-3.12291">
        <ele>371</ele>
        <time>2016-03-07T10:49:42Z</time>
      </trkpt>
      <trkpt lat="48.22405" lon="-3.12289">
        <ele>371</ele>
        <time>2016-03-07T10:49:45Z</time>
      </trkpt>
      <trkpt lat="48.22405" lon="-3.12289">
        <ele>371</ele>
        <time>2016-03-07T10:49:48Z</time>
      </trkpt>
      <trkpt lat="48.22405" lon="-3.12289">
        <ele>371</ele>
        <time>2016-03-07T10:49:51Z</time>
      </trkpt>
      <trkpt lat="48.22405" lon="-3.1229">
        <ele>371</ele>
        <time>2016-03-07T10:49:53Z</time>
      </trkpt>
      <trkpt lat="48.22405" lon="-3.12289">
        <ele>371</ele>
        <time>2016-03-07T10:49:55Z</time>
      </trkpt>
      <trkpt lat="48.22405" lon="-3.12289">
        <ele>370</ele>
        <time>2016-03-07T10:50:00Z</time>
      </trkpt>
      <trkpt lat="48.22406" lon="-3.12289">
        <ele>370</ele>
        <time>2016-03-07T10:50:02Z</time>
      </trkpt>
      <trkpt lat="48.22407" lon="-3.12287">
        <ele>370</ele>
        <time>2016-03-07T10:50:05Z</time>
      </trkpt>
      <trkpt lat="48.22408" lon="-3.12287">
        <ele>369</ele>
        <time>2016-03-07T10:50:08Z</time>
      </trkpt>
      <trkpt lat="48.22409" lon="-3.12285">
        <ele>369</ele>
        <time>2016-03-07T10:50:11Z</time>
      </trkpt>
      <trkpt lat="48.22409" lon="-3.12284">
        <ele>368</ele>
        <time>2016-03-07T10:50:14Z</time>
      </trkpt>
      <trkpt lat="48.2241" lon="-3.12282">
        <ele>368</ele>
        <time>2016-03-07T10:50:16Z</time>
      </trkpt>
      <trkpt lat="48.22412" lon="-3.1228">
        <ele>368</ele>
        <time>2016-03-07T10:50:19Z</time>
      </trkpt>
      <trkpt lat="48.22415" lon="-3.1228">
        <ele>367</ele>
        <time>2016-03-07T10:50:22Z</time>
      </trkpt>
      <trkpt lat="48.22416" lon="-3.12278">
        <ele>367</ele>
        <time>2016-03-07T10:50:24Z</time>
      </trkpt>
      <trkpt lat="48.22418" lon="-3.12276">
        <ele>366</ele>
        <time>2016-03-07T10:50:27Z</time>
      </trkpt>
      <trkpt lat="48.2242" lon="-3.12274">
        <ele>366</ele>
        <time>2016-03-07T10:50:30Z</time>
      </trkpt>
      <trkpt lat="48.22421" lon="-3.1227">
        <ele>366</ele>
        <time>2016-03-07T10:50:33Z</time>
      </trkpt>
      <trkpt lat="48.22423" lon="-3.12265">
        <ele>366</ele>
        <time>2016-03-07T10:50:36Z</time>
      </trkpt>
      <trkpt lat="48.22424" lon="-3.12263">
        <ele>366</ele>
        <time>2016-03-07T10:50:38Z</time>
      </trkpt>
      <trkpt lat="48.22426" lon="-3.12258">
        <ele>366</ele>
        <time>2016-03-07T10:50:41Z</time>
      </trkpt>
      <trkpt lat="48.22427" lon="-3.12253">
        <ele>365</ele>
        <time>2016-03-07T10:50:44Z</time>
      </trkpt>
      <trkpt lat="48.22428" lon="-3.12249">
        <ele>365</ele>
        <time>2016-03-07T10:50:47Z</time>
      </trkpt>
      <trkpt lat="48.22429" lon="-3.12245">
        <ele>365</ele>
        <time>2016-03-07T10:50:49Z</time>
      </trkpt>
      <trkpt lat="48.2243" lon="-3.1224">
        <ele>365</ele>
        <time>2016-03-07T10:50:52Z</time>
      </trkpt>
      <trkpt lat="48.2243" lon="-3.12237">
        <ele>364</ele>
        <time>2016-03-07T10:50:54Z</time>
      </trkpt>
      <trkpt lat="48.2243" lon="-3.1223">
        <ele>364</ele>
        <time>2016-03-07T10:50:57Z</time>
      </trkpt>
      <trkpt lat="48.2243" lon="-3.12225">
        <ele>364</ele>
        <time>2016-03-07T10:51:00Z</time>
      </trkpt>
      <trkpt lat="48.2243" lon="-3.12222">
        <ele>364</ele>
        <time>2016-03-07T10:51:02Z</time>
      </trkpt>
      <trkpt lat="48.22431" lon="-3.12216">
        <ele>364</ele>
        <time>2016-03-07T10:51:05Z</time>
      </trkpt>
      <trkpt lat="48.22432" lon="-3.12212">
        <ele>363</ele>
        <time>2016-03-07T10:51:08Z</time>
      </trkpt>
      <trkpt lat="48.22432" lon="-3.1221">
        <ele>363</ele>
        <time>2016-03-07T10:51:11Z</time>
      </trkpt>
      <trkpt lat="48.22433" lon="-3.12207">
        <ele>363</ele>
        <time>2016-03-07T10:51:14Z</time>
      </trkpt>
      <trkpt lat="48.22433" lon="-3.12205">
        <ele>363</ele>
        <time>2016-03-07T10:51:17Z</time>
      </trkpt>
      <trkpt lat="48.22433" lon="-3.12204">
        <ele>363</ele>
        <time>2016-03-07T10:51:19Z</time>
      </trkpt>
      <trkpt lat="48.22433" lon="-3.12202">
        <ele>363</ele>
        <time>2016-03-07T10:51:22Z</time>
      </trkpt>
      <trkpt lat="48.22433" lon="-3.12201">
        <ele>362</ele>
        <time>2016-03-07T10:51:24Z</time>
      </trkpt>
      <trkpt lat="48.22434" lon="-3.12197">
        <ele>361</ele>
        <time>2016-03-07T10:51:27Z</time>
      </trkpt>
      <trkpt lat="48.22433" lon="-3.12194">
        <ele>361</ele>
        <time>2016-03-07T10:51:29Z</time>
      </trkpt>
      <trkpt lat="48.22433" lon="-3.1219">
        <ele>360</ele>
        <time>2016-03-07T10:51:32Z</time>
      </trkpt>
      <trkpt lat="48.22433" lon="-3.12186">
        <ele>360</ele>
        <time>2016-03-07T10:51:34Z</time>
      </trkpt>
      <trkpt lat="48.22432" lon="-3.12181">
        <ele>360</ele>
        <time>2016-03-07T10:51:37Z</time>
      </trkpt>
      <trkpt lat="48.22431" lon="-3.12178">
        <ele>359</ele>
        <time>2016-03-07T10:51:39Z</time>
      </trkpt>
      <trkpt lat="48.2243" lon="-3.12174">
        <ele>359</ele>
        <time>2016-03-07T10:51:42Z</time>
      </trkpt>
      <trkpt lat="48.2243" lon="-3.12171">
        <ele>359</ele>
        <time>2016-03-07T10:51:45Z</time>
      </trkpt>
      <trkpt lat="48.2243" lon="-3.12168">
        <ele>358</ele>
        <time>2016-03-07T10:51:47Z</time>
      </trkpt>
      <trkpt lat="48.2243" lon="-3.12166">
        <ele>358</ele>
        <time>2016-03-07T10:51:50Z</time>
      </trkpt>
      <trkpt lat="48.2243" lon="-3.12164">
        <ele>358</ele>
        <time>2016-03-07T10:51:52Z</time>
      </trkpt>
      <trkpt lat="48.2243" lon="-3.12161">
        <ele>359</ele>
        <time>2016-03-07T10:51:55Z</time>
      </trkpt>
      <trkpt lat="48.22431" lon="-3.12159">
        <ele>359</ele>
        <time>2016-03-07T10:51:57Z</time>
      </trkpt>
      <trkpt lat="48.22431" lon="-3.12156">
        <ele>359</ele>
        <time>2016-03-07T10:52:00Z</time>
      </trkpt>
      <trkpt lat="48.22431" lon="-3.12154">
        <ele>359</ele>
        <time>2016-03-07T10:52:03Z</time>
      </trkpt>
      <trkpt lat="48.22432" lon="-3.12151">
        <ele>359</ele>
        <time>2016-03-07T10:52:06Z</time>
      </trkpt>
      <trkpt lat="48.22432" lon="-3.1215">
        <ele>359</ele>
        <time>2016-03-07T10:52:08Z</time>
      </trkpt>
      <trkpt lat="48.22432" lon="-3.12149">
        <ele>359</ele>
        <time>2016-03-07T10:52:11Z</time>
      </trkpt>
      <trkpt lat="48.22432" lon="-3.12147">
        <ele>359</ele>
        <time>2016-03-07T10:52:14Z</time>
      </trkpt>
      <trkpt lat="48.22432" lon="-3.12144">
        <ele>358</ele>
        <time>2016-03-07T10:52:17Z</time>
      </trkpt>
      <trkpt lat="48.22432" lon="-3.12138">
        <ele>358</ele>
        <time>2016-03-07T10:52:20Z</time>
      </trkpt>
      <trkpt lat="48.22432" lon="-3.12136">
        <ele>358</ele>
        <time>2016-03-07T10:52:22Z</time>
      </trkpt>
      <trkpt lat="48.22434" lon="-3.12135">
        <ele>358</ele>
        <time>2016-03-07T10:52:24Z</time>
      </trkpt>
      <trkpt lat="48.22434" lon="-3.12133">
        <ele>359</ele>
        <time>2016-03-07T10:52:26Z</time>
      </trkpt>
      <trkpt lat="48.22434" lon="-3.12131">
        <ele>359</ele>
        <time>2016-03-07T10:52:29Z</time>
      </trkpt>
      <trkpt lat="48.22434" lon="-3.1213">
        <ele>360</ele>
        <time>2016-03-07T10:52:32Z</time>
      </trkpt>
      <trkpt lat="48.22435" lon="-3.1213">
        <ele>360</ele>
        <time>2016-03-07T10:52:34Z</time>
      </trkpt>
      <trkpt lat="48.22437" lon="-3.12128">
        <ele>360</ele>
        <time>2016-03-07T10:52:37Z</time>
      </trkpt>
      <trkpt lat="48.22439" lon="-3.12125">
        <ele>360</ele>
        <time>2016-03-07T10:52:40Z</time>
      </trkpt>
      <trkpt lat="48.22439" lon="-3.12123">
        <ele>360</ele>
        <time>2016-03-07T10:52:42Z</time>
      </trkpt>
      <trkpt lat="48.22438" lon="-3.12119">
        <ele>359</ele>
        <time>2016-03-07T10:52:45Z</time>
      </trkpt>
      <trkpt lat="48.22439" lon="-3.12113">
        <ele>359</ele>
        <time>2016-03-07T10:52:48Z</time>
      </trkpt>
      <trkpt lat="48.22439" lon="-3.12109">
        <ele>359</ele>
        <time>2016-03-07T10:52:51Z</time>
      </trkpt>
      <trkpt lat="48.22439" lon="-3.12105">
        <ele>358</ele>
        <time>2016-03-07T10:52:53Z</time>
      </trkpt>
      <trkpt lat="48.22438" lon="-3.12102">
        <ele>358</ele>
        <time>2016-03-07T10:52:55Z</time>
      </trkpt>
      <trkpt lat="48.22438" lon="-3.12098">
        <ele>358</ele>
        <time>2016-03-07T10:52:58Z</time>
      </trkpt>
      <trkpt lat="48.22439" lon="-3.12094">
        <ele>358</ele>
        <time>2016-03-07T10:53:00Z</time>
      </trkpt>
      <trkpt lat="48.22439" lon="-3.1209">
        <ele>358</ele>
        <time>2016-03-07T10:53:03Z</time>
      </trkpt>
      <trkpt lat="48.22438" lon="-3.12086">
        <ele>358</ele>
        <time>2016-03-07T10:53:06Z</time>
      </trkpt>
      <trkpt lat="48.22437" lon="-3.12082">
        <ele>359</ele>
        <time>2016-03-07T10:53:09Z</time>
      </trkpt>
      <trkpt lat="48.22436" lon="-3.1208">
        <ele>359</ele>
        <time>2016-03-07T10:53:11Z</time>
      </trkpt>
      <trkpt lat="48.22435" lon="-3.12076">
        <ele>360</ele>
        <time>2016-03-07T10:53:14Z</time>
      </trkpt>
      <trkpt lat="48.22435" lon="-3.12073">
        <ele>361</ele>
        <time>2016-03-07T10:53:17Z</time>
      </trkpt>
      <trkpt lat="48.22435" lon="-3.12071">
        <ele>361</ele>
        <time>2016-03-07T10:53:19Z</time>
      </trkpt>
      <trkpt lat="48.22435" lon="-3.12068">
        <ele>361</ele>
        <time>2016-03-07T10:53:21Z</time>
      </trkpt>
      <trkpt lat="48.22435" lon="-3.12065">
        <ele>361</ele>
        <time>2016-03-07T10:53:23Z</time>
      </trkpt>
      <trkpt lat="48.22434" lon="-3.12061">
        <ele>361</ele>
        <time>2016-03-07T10:53:26Z</time>
      </trkpt>
      <trkpt lat="48.22434" lon="-3.12059">
        <ele>362</ele>
        <time>2016-03-07T10:53:28Z</time>
      </trkpt>
      <trkpt lat="48.22435" lon="-3.12056">
        <ele>362</ele>
        <time>2016-03-07T10:53:30Z</time>
      </trkpt>
      <trkpt lat="48.22436" lon="-3.12051">
        <ele>362</ele>
        <time>2016-03-07T10:53:33Z</time>
      </trkpt>
      <trkpt lat="48.22436" lon="-3.12049">
        <ele>362</ele>
        <time>2016-03-07T10:53:35Z</time>
      </trkpt>
      <trkpt lat="48.22436" lon="-3.12044">
        <ele>362</ele>
        <time>2016-03-07T10:53:38Z</time>
      </trkpt>
      <trkpt lat="48.22435" lon="-3.12041">
        <ele>362</ele>
        <time>2016-03-07T10:53:41Z</time>
      </trkpt>
      <trkpt lat="48.22435" lon="-3.12038">
        <ele>361</ele>
        <time>2016-03-07T10:53:43Z</time>
      </trkpt>
      <trkpt lat="48.22435" lon="-3.12034">
        <ele>361</ele>
        <time>2016-03-07T10:53:46Z</time>
      </trkpt>
      <trkpt lat="48.22435" lon="-3.1203">
        <ele>361</ele>
        <time>2016-03-07T10:53:49Z</time>
      </trkpt>
      <trkpt lat="48.22435" lon="-3.12029">
        <ele>362</ele>
        <time>2016-03-07T10:53:51Z</time>
      </trkpt>
      <trkpt lat="48.22434" lon="-3.12027">
        <ele>362</ele>
        <time>2016-03-07T10:53:54Z</time>
      </trkpt>
      <trkpt lat="48.22433" lon="-3.12024">
        <ele>361</ele>
        <time>2016-03-07T10:53:57Z</time>
      </trkpt>
      <trkpt lat="48.22432" lon="-3.12021">
        <ele>360</ele>
        <time>2016-03-07T10:53:59Z</time>
      </trkpt>
      <trkpt lat="48.22431" lon="-3.12018">
        <ele>359</ele>
        <time>2016-03-07T10:54:02Z</time>
      </trkpt>
      <trkpt lat="48.22431" lon="-3.12015">
        <ele>359</ele>
        <time>2016-03-07T10:54:04Z</time>
      </trkpt>
      <trkpt lat="48.2243" lon="-3.12011">
        <ele>358</ele>
        <time>2016-03-07T10:54:06Z</time>
      </trkpt>
      <trkpt lat="48.22429" lon="-3.12008">
        <ele>358</ele>
        <time>2016-03-07T10:54:09Z</time>
      </trkpt>
      <trkpt lat="48.22427" lon="-3.12004">
        <ele>358</ele>
        <time>2016-03-07T10:54:12Z</time>
      </trkpt>
      <trkpt lat="48.22427" lon="-3.11999">
        <ele>357</ele>
        <time>2016-03-07T10:54:15Z</time>
      </trkpt>
      <trkpt lat="48.22426" lon="-3.11995">
        <ele>357</ele>
        <time>2016-03-07T10:54:17Z</time>
      </trkpt>
      <trkpt lat="48.22427" lon="-3.1199">
        <ele>357</ele>
        <time>2016-03-07T10:54:20Z</time>
      </trkpt>
      <trkpt lat="48.22427" lon="-3.11986">
        <ele>357</ele>
        <time>2016-03-07T10:54:23Z</time>
      </trkpt>
      <trkpt lat="48.22427" lon="-3.11984">
        <ele>356</ele>
        <time>2016-03-07T10:54:25Z</time>
      </trkpt>
      <trkpt lat="48.22427" lon="-3.11981">
        <ele>356</ele>
        <time>2016-03-07T10:54:27Z</time>
      </trkpt>
      <trkpt lat="48.22427" lon="-3.11977">
        <ele>356</ele>
        <time>2016-03-07T10:54:30Z</time>
      </trkpt>
      <trkpt lat="48.22427" lon="-3.11974">
        <ele>356</ele>
        <time>2016-03-07T10:54:32Z</time>
      </trkpt>
      <trkpt lat="48.22428" lon="-3.1197">
        <ele>356</ele>
        <time>2016-03-07T10:54:35Z</time>
      </trkpt>
      <trkpt lat="48.22429" lon="-3.11968">
        <ele>356</ele>
        <time>2016-03-07T10:54:37Z</time>
      </trkpt>
      <trkpt lat="48.22429" lon="-3.11965">
        <ele>355</ele>
        <time>2016-03-07T10:54:40Z</time>
      </trkpt>
      <trkpt lat="48.22428" lon="-3.11962">
        <ele>355</ele>
        <time>2016-03-07T10:54:43Z</time>
      </trkpt>
      <trkpt lat="48.22428" lon="-3.1196">
        <ele>354</ele>
        <time>2016-03-07T10:54:46Z</time>
      </trkpt>
      <trkpt lat="48.22428" lon="-3.1196">
        <ele>354</ele>
        <time>2016-03-07T10:54:48Z</time>
      </trkpt>
      <trkpt lat="48.22427" lon="-3.11959">
        <ele>354</ele>
        <time>2016-03-07T10:54:51Z</time>
      </trkpt>
      <trkpt lat="48.22426" lon="-3.11958">
        <ele>354</ele>
        <time>2016-03-07T10:54:54Z</time>
      </trkpt>
      <trkpt lat="48.22426" lon="-3.11956">
        <ele>354</ele>
        <time>2016-03-07T10:54:57Z</time>
      </trkpt>
      <trkpt lat="48.22426" lon="-3.11955">
        <ele>353</ele>
        <time>2016-03-07T10:54:59Z</time>
      </trkpt>
      <trkpt lat="48.22424" lon="-3.11953">
        <ele>352</ele>
        <time>2016-03-07T10:55:02Z</time>
      </trkpt>
      <trkpt lat="48.22423" lon="-3.11952">
        <ele>352</ele>
        <time>2016-03-07T10:55:05Z</time>
      </trkpt>
      <trkpt lat="48.22422" lon="-3.11949">
        <ele>351</ele>
        <time>2016-03-07T10:55:08Z</time>
      </trkpt>
      <trkpt lat="48.22421" lon="-3.11948">
        <ele>351</ele>
        <time>2016-03-07T10:55:10Z</time>
      </trkpt>
      <trkpt lat="48.2242" lon="-3.11947">
        <ele>350</ele>
        <time>2016-03-07T10:55:12Z</time>
      </trkpt>
      <trkpt lat="48.22418" lon="-3.11943">
        <ele>350</ele>
        <time>2016-03-07T10:55:15Z</time>
      </trkpt>
      <trkpt lat="48.22417" lon="-3.1194">
        <ele>350</ele>
        <time>2016-03-07T10:55:17Z</time>
      </trkpt>
      <trkpt lat="48.22416" lon="-3.11937">
        <ele>350</ele>
        <time>2016-03-07T10:55:19Z</time>
      </trkpt>
      <trkpt lat="48.22414" lon="-3.11935">
        <ele>350</ele>
        <time>2016-03-07T10:55:21Z</time>
      </trkpt>
      <trkpt lat="48.22412" lon="-3.11931">
        <ele>350</ele>
        <time>2016-03-07T10:55:24Z</time>
      </trkpt>
      <trkpt lat="48.22411" lon="-3.11928">
        <ele>350</ele>
        <time>2016-03-07T10:55:26Z</time>
      </trkpt>
      <trkpt lat="48.22409" lon="-3.11926">
        <ele>350</ele>
        <time>2016-03-07T10:55:28Z</time>
      </trkpt>
      <trkpt lat="48.22408" lon="-3.11922">
        <ele>349</ele>
        <time>2016-03-07T10:55:31Z</time>
      </trkpt>
      <trkpt lat="48.22407" lon="-3.11919">
        <ele>349</ele>
        <time>2016-03-07T10:55:33Z</time>
      </trkpt>
      <trkpt lat="48.22406" lon="-3.11915">
        <ele>349</ele>
        <time>2016-03-07T10:55:36Z</time>
      </trkpt>
      <trkpt lat="48.22404" lon="-3.11912">
        <ele>349</ele>
        <time>2016-03-07T10:55:38Z</time>
      </trkpt>
      <trkpt lat="48.22403" lon="-3.1191">
        <ele>349</ele>
        <time>2016-03-07T10:55:40Z</time>
      </trkpt>
      <trkpt lat="48.22403" lon="-3.11906">
        <ele>349</ele>
        <time>2016-03-07T10:55:43Z</time>
      </trkpt>
      <trkpt lat="48.22403" lon="-3.11901">
        <ele>349</ele>
        <time>2016-03-07T10:55:46Z</time>
      </trkpt>
      <trkpt lat="48.22403" lon="-3.11899">
        <ele>350</ele>
        <time>2016-03-07T10:55:48Z</time>
      </trkpt>
      <trkpt lat="48.22402" lon="-3.11895">
        <ele>350</ele>
        <time>2016-03-07T10:55:51Z</time>
      </trkpt>
      <trkpt lat="48.22401" lon="-3.11893">
        <ele>350</ele>
        <time>2016-03-07T10:55:53Z</time>
      </trkpt>
      <trkpt lat="48.22403" lon="-3.1189">
        <ele>350</ele>
        <time>2016-03-07T10:55:55Z</time>
      </trkpt>
      <trkpt lat="48.22403" lon="-3.11887">
        <ele>349</ele>
        <time>2016-03-07T10:55:57Z</time>
      </trkpt>
      <trkpt lat="48.22403" lon="-3.11883">
        <ele>349</ele>
        <time>2016-03-07T10:56:00Z</time>
      </trkpt>
      <trkpt lat="48.22403" lon="-3.11881">
        <ele>349</ele>
        <time>2016-03-07T10:56:02Z</time>
      </trkpt>
      <trkpt lat="48.22403" lon="-3.11881">
        <ele>349</ele>
        <time>2016-03-07T10:56:04Z</time>
      </trkpt>
      <trkpt lat="48.22403" lon="-3.11879">
        <ele>349</ele>
        <time>2016-03-07T10:56:07Z</time>
      </trkpt>
      <trkpt lat="48.22403" lon="-3.11878">
        <ele>349</ele>
        <time>2016-03-07T10:56:09Z</time>
      </trkpt>
      <trkpt lat="48.22403" lon="-3.11877">
        <ele>349</ele>
        <time>2016-03-07T10:56:11Z</time>
      </trkpt>
      <trkpt lat="48.22402" lon="-3.11875">
        <ele>349</ele>
        <time>2016-03-07T10:56:13Z</time>
      </trkpt>
      <trkpt lat="48.22401" lon="-3.11872">
        <ele>348</ele>
        <time>2016-03-07T10:56:16Z</time>
      </trkpt>
      <trkpt lat="48.22401" lon="-3.11868">
        <ele>348</ele>
        <time>2016-03-07T10:56:19Z</time>
      </trkpt>
      <trkpt lat="48.224" lon="-3.11866">
        <ele>348</ele>
        <time>2016-03-07T10:56:21Z</time>
      </trkpt>
      <trkpt lat="48.22399" lon="-3.11864">
        <ele>348</ele>
        <time>2016-03-07T10:56:23Z</time>
      </trkpt>
      <trkpt lat="48.22397" lon="-3.11861">
        <ele>347</ele>
        <time>2016-03-07T10:56:25Z</time>
      </trkpt>
      <trkpt lat="48.22396" lon="-3.11859">
        <ele>347</ele>
        <time>2016-03-07T10:56:27Z</time>
      </trkpt>
      <trkpt lat="48.22394" lon="-3.11855">
        <ele>347</ele>
        <time>2016-03-07T10:56:30Z</time>
      </trkpt>
      <trkpt lat="48.22393" lon="-3.1185">
        <ele>347</ele>
        <time>2016-03-07T10:56:33Z</time>
      </trkpt>
      <trkpt lat="48.2239" lon="-3.11846">
        <ele>347</ele>
        <time>2016-03-07T10:56:36Z</time>
      </trkpt>
      <trkpt lat="48.22388" lon="-3.11843">
        <ele>346</ele>
        <time>2016-03-07T10:56:39Z</time>
      </trkpt>
      <trkpt lat="48.22386" lon="-3.11841">
        <ele>346</ele>
        <time>2016-03-07T10:56:42Z</time>
      </trkpt>
      <trkpt lat="48.22384" lon="-3.1184">
        <ele>345</ele>
        <time>2016-03-07T10:56:44Z</time>
      </trkpt>
      <trkpt lat="48.22382" lon="-3.11839">
        <ele>345</ele>
        <time>2016-03-07T10:56:46Z</time>
      </trkpt>
      <trkpt lat="48.22381" lon="-3.11837">
        <ele>345</ele>
        <time>2016-03-07T10:56:48Z</time>
      </trkpt>
      <trkpt lat="48.22379" lon="-3.11834">
        <ele>345</ele>
        <time>2016-03-07T10:56:51Z</time>
      </trkpt>
      <trkpt lat="48.22377" lon="-3.11832">
        <ele>345</ele>
        <time>2016-03-07T10:56:53Z</time>
      </trkpt>
      <trkpt lat="48.22375" lon="-3.1183">
        <ele>344</ele>
        <time>2016-03-07T10:56:55Z</time>
      </trkpt>
      <trkpt lat="48.22372" lon="-3.11828">
        <ele>344</ele>
        <time>2016-03-07T10:56:58Z</time>
      </trkpt>
      <trkpt lat="48.22369" lon="-3.11827">
        <ele>344</ele>
        <time>2016-03-07T10:57:01Z</time>
      </trkpt>
      <trkpt lat="48.22367" lon="-3.11826">
        <ele>344</ele>
        <time>2016-03-07T10:57:03Z</time>
      </trkpt>
      <trkpt lat="48.22365" lon="-3.11824">
        <ele>344</ele>
        <time>2016-03-07T10:57:05Z</time>
      </trkpt>
      <trkpt lat="48.22363" lon="-3.11823">
        <ele>344</ele>
        <time>2016-03-07T10:57:08Z</time>
      </trkpt>
      <trkpt lat="48.2236" lon="-3.11822">
        <ele>345</ele>
        <time>2016-03-07T10:57:10Z</time>
      </trkpt>
      <trkpt lat="48.22358" lon="-3.11821">
        <ele>345</ele>
        <time>2016-03-07T10:57:12Z</time>
      </trkpt>
      <trkpt lat="48.22356" lon="-3.11821">
        <ele>346</ele>
        <time>2016-03-07T10:57:14Z</time>
      </trkpt>
      <trkpt lat="48.22353" lon="-3.1182">
        <ele>346</ele>
        <time>2016-03-07T10:57:17Z</time>
      </trkpt>
      <trkpt lat="48.22351" lon="-3.1182">
        <ele>346</ele>
        <time>2016-03-07T10:57:19Z</time>
      </trkpt>
      <trkpt lat="48.22349" lon="-3.1182">
        <ele>346</ele>
        <time>2016-03-07T10:57:21Z</time>
      </trkpt>
      <trkpt lat="48.22348" lon="-3.1182">
        <ele>346</ele>
        <time>2016-03-07T10:57:23Z</time>
      </trkpt>
      <trkpt lat="48.22348" lon="-3.1182">
        <ele>347</ele>
        <time>2016-03-07T10:57:26Z</time>
      </trkpt>
      <trkpt lat="48.22348" lon="-3.1182">
        <ele>347</ele>
        <time>2016-03-07T10:57:28Z</time>
      </trkpt>
      <trkpt lat="48.22347" lon="-3.1182">
        <ele>347</ele>
        <time>2016-03-07T10:57:31Z</time>
      </trkpt>
      <trkpt lat="48.22346" lon="-3.1182">
        <ele>347</ele>
        <time>2016-03-07T10:57:34Z</time>
      </trkpt>
      <trkpt lat="48.22345" lon="-3.1182">
        <ele>347</ele>
        <time>2016-03-07T10:57:36Z</time>
      </trkpt>
      <trkpt lat="48.22344" lon="-3.11819">
        <ele>347</ele>
        <time>2016-03-07T10:57:38Z</time>
      </trkpt>
      <trkpt lat="48.22343" lon="-3.11818">
        <ele>347</ele>
        <time>2016-03-07T10:57:40Z</time>
      </trkpt>
      <trkpt lat="48.22343" lon="-3.11816">
        <ele>347</ele>
        <time>2016-03-07T10:57:42Z</time>
      </trkpt>
      <trkpt lat="48.22342" lon="-3.11812">
        <ele>347</ele>
        <time>2016-03-07T10:57:45Z</time>
      </trkpt>
      <trkpt lat="48.22342" lon="-3.1181">
        <ele>348</ele>
        <time>2016-03-07T10:57:47Z</time>
      </trkpt>
      <trkpt lat="48.2234" lon="-3.11807">
        <ele>348</ele>
        <time>2016-03-07T10:57:50Z</time>
      </trkpt>
      <trkpt lat="48.2234" lon="-3.11805">
        <ele>348</ele>
        <time>2016-03-07T10:57:52Z</time>
      </trkpt>
      <trkpt lat="48.22339" lon="-3.11804">
        <ele>349</ele>
        <time>2016-03-07T10:57:54Z</time>
      </trkpt>
      <trkpt lat="48.22339" lon="-3.11803">
        <ele>349</ele>
        <time>2016-03-07T10:57:57Z</time>
      </trkpt>
      <trkpt lat="48.22339" lon="-3.11802">
        <ele>349</ele>
        <time>2016-03-07T10:57:59Z</time>
      </trkpt>
      <trkpt lat="48.22338" lon="-3.11801">
        <ele>350</ele>
        <time>2016-03-07T10:58:02Z</time>
      </trkpt>
      <trkpt lat="48.22337" lon="-3.118">
        <ele>350</ele>
        <time>2016-03-07T10:58:04Z</time>
      </trkpt>
      <trkpt lat="48.22336" lon="-3.118">
        <ele>350</ele>
        <time>2016-03-07T10:58:06Z</time>
      </trkpt>
      <trkpt lat="48.22335" lon="-3.118">
        <ele>350</ele>
        <time>2016-03-07T10:58:08Z</time>
      </trkpt>
      <trkpt lat="48.22334" lon="-3.11799">
        <ele>350</ele>
        <time>2016-03-07T10:58:11Z</time>
      </trkpt>
      <trkpt lat="48.22333" lon="-3.11799">
        <ele>351</ele>
        <time>2016-03-07T10:58:14Z</time>
      </trkpt>
      <trkpt lat="48.22332" lon="-3.118">
        <ele>351</ele>
        <time>2016-03-07T10:58:16Z</time>
      </trkpt>
      <trkpt lat="48.2233" lon="-3.11801">
        <ele>352</ele>
        <time>2016-03-07T10:58:19Z</time>
      </trkpt>
      <trkpt lat="48.2233" lon="-3.11801">
        <ele>352</ele>
        <time>2016-03-07T10:58:21Z</time>
      </trkpt>
      <trkpt lat="48.22329" lon="-3.11802">
        <ele>352</ele>
        <time>2016-03-07T10:58:24Z</time>
      </trkpt>
      <trkpt lat="48.22329" lon="-3.11802">
        <ele>352</ele>
        <time>2016-03-07T10:58:26Z</time>
      </trkpt>
      <trkpt lat="48.22329" lon="-3.11802">
        <ele>352</ele>
        <time>2016-03-07T10:58:30Z</time>
      </trkpt>
      <trkpt lat="48.22329" lon="-3.11802">
        <ele>352</ele>
        <time>2016-03-07T10:58:32Z</time>
      </trkpt>
      <trkpt lat="48.22328" lon="-3.118">
        <ele>352</ele>
        <time>2016-03-07T10:58:34Z</time>
      </trkpt>
      <trkpt lat="48.22326" lon="-3.11799">
        <ele>352</ele>
        <time>2016-03-07T10:58:37Z</time>
      </trkpt>
      <trkpt lat="48.22323" lon="-3.11797">
        <ele>352</ele>
        <time>2016-03-07T10:58:40Z</time>
      </trkpt>
      <trkpt lat="48.22322" lon="-3.11798">
        <ele>352</ele>
        <time>2016-03-07T10:58:42Z</time>
      </trkpt>
      <trkpt lat="48.22321" lon="-3.11798">
        <ele>352</ele>
        <time>2016-03-07T10:58:44Z</time>
      </trkpt>
      <trkpt lat="48.22321" lon="-3.11798">
        <ele>352</ele>
        <time>2016-03-07T10:58:47Z</time>
      </trkpt>
      <trkpt lat="48.22321" lon="-3.11798">
        <ele>352</ele>
        <time>2016-03-07T10:58:50Z</time>
      </trkpt>
      <trkpt lat="48.2232" lon="-3.11798">
        <ele>351</ele>
        <time>2016-03-07T10:58:54Z</time>
      </trkpt>
      <trkpt lat="48.2232" lon="-3.11799">
        <ele>351</ele>
        <time>2016-03-07T10:58:56Z</time>
      </trkpt>
      <trkpt lat="48.2232" lon="-3.11798">
        <ele>351</ele>
        <time>2016-03-07T10:58:59Z</time>
      </trkpt>
      <trkpt lat="48.2232" lon="-3.11798">
        <ele>351</ele>
        <time>2016-03-07T10:59:02Z</time>
      </trkpt>
      <trkpt lat="48.22319" lon="-3.11798">
        <ele>351</ele>
        <time>2016-03-07T10:59:06Z</time>
      </trkpt>
      <trkpt lat="48.22319" lon="-3.11799">
        <ele>351</ele>
        <time>2016-03-07T10:59:10Z</time>
      </trkpt>
      <trkpt lat="48.22319" lon="-3.11799">
        <ele>351</ele>
        <time>2016-03-07T10:59:13Z</time>
      </trkpt>
      <trkpt lat="48.2232" lon="-3.11798">
        <ele>352</ele>
        <time>2016-03-07T10:59:16Z</time>
      </trkpt>
      <trkpt lat="48.22321" lon="-3.11798">
        <ele>352</ele>
        <time>2016-03-07T10:59:19Z</time>
      </trkpt>
      <trkpt lat="48.22321" lon="-3.11798">
        <ele>352</ele>
        <time>2016-03-07T10:59:22Z</time>
      </trkpt>
      <trkpt lat="48.22321" lon="-3.11798">
        <ele>352</ele>
        <time>2016-03-07T10:59:24Z</time>
      </trkpt>
      <trkpt lat="48.22322" lon="-3.11798">
        <ele>352</ele>
        <time>2016-03-07T10:59:27Z</time>
      </trkpt>
      <trkpt lat="48.22321" lon="-3.11798">
        <ele>351</ele>
        <time>2016-03-07T10:59:30Z</time>
      </trkpt>
      <trkpt lat="48.22321" lon="-3.11798">
        <ele>352</ele>
        <time>2016-03-07T10:59:34Z</time>
      </trkpt>
      <trkpt lat="48.22321" lon="-3.11798">
        <ele>352</ele>
        <time>2016-03-07T10:59:36Z</time>
      </trkpt>
      <trkpt lat="48.22321" lon="-3.11798">
        <ele>352</ele>
        <time>2016-03-07T10:59:40Z</time>
      </trkpt>
      <trkpt lat="48.22322" lon="-3.11798">
        <ele>353</ele>
        <time>2016-03-07T10:59:43Z</time>
      </trkpt>
      <trkpt lat="48.22322" lon="-3.11798">
        <ele>353</ele>
        <time>2016-03-07T10:59:46Z</time>
      </trkpt>
      <trkpt lat="48.22321" lon="-3.11798">
        <ele>353</ele>
        <time>2016-03-07T10:59:50Z</time>
      </trkpt>
      <trkpt lat="48.22322" lon="-3.11798">
        <ele>353</ele>
        <time>2016-03-07T10:59:53Z</time>
      </trkpt>
      <trkpt lat="48.22322" lon="-3.11798">
        <ele>352</ele>
        <time>2016-03-07T10:59:56Z</time>
      </trkpt>
      <trkpt lat="48.22321" lon="-3.11798">
        <ele>352</ele>
        <time>2016-03-07T11:00:01Z</time>
      </trkpt>
      <trkpt lat="48.22321" lon="-3.11799">
        <ele>351</ele>
        <time>2016-03-07T11:00:04Z</time>
      </trkpt>
      <trkpt lat="48.22321" lon="-3.11799">
        <ele>351</ele>
        <time>2016-03-07T11:00:06Z</time>
      </trkpt>
      <trkpt lat="48.22322" lon="-3.11798">
        <ele>351</ele>
        <time>2016-03-07T11:00:09Z</time>
      </trkpt>
      <trkpt lat="48.22322" lon="-3.11798">
        <ele>351</ele>
        <time>2016-03-07T11:00:11Z</time>
      </trkpt>
      <trkpt lat="48.22322" lon="-3.11798">
        <ele>351</ele>
        <time>2016-03-07T11:00:13Z</time>
      </trkpt>
      <trkpt lat="48.22324" lon="-3.11796">
        <ele>351</ele>
        <time>2016-03-07T11:00:16Z</time>
      </trkpt>
      <trkpt lat="48.22324" lon="-3.11794">
        <ele>351</ele>
        <time>2016-03-07T11:00:18Z</time>
      </trkpt>
      <trkpt lat="48.22323" lon="-3.11792">
        <ele>351</ele>
        <time>2016-03-07T11:00:21Z</time>
      </trkpt>
      <trkpt lat="48.22322" lon="-3.11789">
        <ele>351</ele>
        <time>2016-03-07T11:00:24Z</time>
      </trkpt>
      <trkpt lat="48.22322" lon="-3.11788">
        <ele>352</ele>
        <time>2016-03-07T11:00:26Z</time>
      </trkpt>
      <trkpt lat="48.22322" lon="-3.11785">
        <ele>351</ele>
        <time>2016-03-07T11:00:29Z</time>
      </trkpt>
      <trkpt lat="48.22322" lon="-3.11781">
        <ele>351</ele>
        <time>2016-03-07T11:00:32Z</time>
      </trkpt>
      <trkpt lat="48.22322" lon="-3.11777">
        <ele>351</ele>
        <time>2016-03-07T11:00:35Z</time>
      </trkpt>
      <trkpt lat="48.22321" lon="-3.11773">
        <ele>351</ele>
        <time>2016-03-07T11:00:38Z</time>
      </trkpt>
      <trkpt lat="48.2232" lon="-3.11773">
        <ele>351</ele>
        <time>2016-03-07T11:00:40Z</time>
      </trkpt>
      <trkpt lat="48.2232" lon="-3.11772">
        <ele>352</ele>
        <time>2016-03-07T11:00:42Z</time>
      </trkpt>
      <trkpt lat="48.22321" lon="-3.1177">
        <ele>352</ele>
        <time>2016-03-07T11:00:45Z</time>
      </trkpt>
      <trkpt lat="48.2232" lon="-3.11767">
        <ele>351</ele>
        <time>2016-03-07T11:00:48Z</time>
      </trkpt>
      <trkpt lat="48.22319" lon="-3.11764">
        <ele>351</ele>
        <time>2016-03-07T11:00:50Z</time>
      </trkpt>
      <trkpt lat="48.22318" lon="-3.11761">
        <ele>351</ele>
        <time>2016-03-07T11:00:53Z</time>
      </trkpt>
      <trkpt lat="48.22318" lon="-3.11759">
        <ele>350</ele>
        <time>2016-03-07T11:00:55Z</time>
      </trkpt>
      <trkpt lat="48.22317" lon="-3.11757">
        <ele>350</ele>
        <time>2016-03-07T11:00:57Z</time>
      </trkpt>
      <trkpt lat="48.22317" lon="-3.11753">
        <ele>350</ele>
        <time>2016-03-07T11:01:00Z</time>
      </trkpt>
      <trkpt lat="48.22316" lon="-3.1175">
        <ele>349</ele>
        <time>2016-03-07T11:01:02Z</time>
      </trkpt>
      <trkpt lat="48.22315" lon="-3.11748">
        <ele>349</ele>
        <time>2016-03-07T11:01:04Z</time>
      </trkpt>
      <trkpt lat="48.22313" lon="-3.11745">
        <ele>349</ele>
        <time>2016-03-07T11:01:07Z</time>
      </trkpt>
      <trkpt lat="48.22311" lon="-3.11742">
        <ele>349</ele>
        <time>2016-03-07T11:01:09Z</time>
      </trkpt>
      <trkpt lat="48.2231" lon="-3.11737">
        <ele>348</ele>
        <time>2016-03-07T11:01:12Z</time>
      </trkpt>
      <trkpt lat="48.22309" lon="-3.11733">
        <ele>348</ele>
        <time>2016-03-07T11:01:15Z</time>
      </trkpt>
      <trkpt lat="48.22308" lon="-3.1173">
        <ele>348</ele>
        <time>2016-03-07T11:01:17Z</time>
      </trkpt>
      <trkpt lat="48.22307" lon="-3.11726">
        <ele>348</ele>
        <time>2016-03-07T11:01:20Z</time>
      </trkpt>
      <trkpt lat="48.22305" lon="-3.11723">
        <ele>347</ele>
        <time>2016-03-07T11:01:23Z</time>
      </trkpt>
      <trkpt lat="48.22303" lon="-3.11721">
        <ele>347</ele>
        <time>2016-03-07T11:01:25Z</time>
      </trkpt>
      <trkpt lat="48.22302" lon="-3.11719">
        <ele>347</ele>
        <time>2016-03-07T11:01:27Z</time>
      </trkpt>
      <trkpt lat="48.223" lon="-3.11716">
        <ele>347</ele>
        <time>2016-03-07T11:01:29Z</time>
      </trkpt>
      <trkpt lat="48.22299" lon="-3.11714">
        <ele>347</ele>
        <time>2016-03-07T11:01:31Z</time>
      </trkpt>
      <trkpt lat="48.22297" lon="-3.11712">
        <ele>346</ele>
        <time>2016-03-07T11:01:33Z</time>
      </trkpt>
      <trkpt lat="48.22295" lon="-3.11708">
        <ele>347</ele>
        <time>2016-03-07T11:01:36Z</time>
      </trkpt>
      <trkpt lat="48.22293" lon="-3.11706">
        <ele>346</ele>
        <time>2016-03-07T11:01:38Z</time>
      </trkpt>
      <trkpt lat="48.22292" lon="-3.11703">
        <ele>346</ele>
        <time>2016-03-07T11:01:40Z</time>
      </trkpt>
      <trkpt lat="48.2229" lon="-3.11701">
        <ele>346</ele>
        <time>2016-03-07T11:01:42Z</time>
      </trkpt>
      <trkpt lat="48.22289" lon="-3.11698">
        <ele>346</ele>
        <time>2016-03-07T11:01:44Z</time>
      </trkpt>
      <trkpt lat="48.22287" lon="-3.11696">
        <ele>346</ele>
        <time>2016-03-07T11:01:47Z</time>
      </trkpt>
      <trkpt lat="48.22285" lon="-3.11695">
        <ele>346</ele>
        <time>2016-03-07T11:01:49Z</time>
      </trkpt>
      <trkpt lat="48.22284" lon="-3.11694">
        <ele>346</ele>
        <time>2016-03-07T11:01:51Z</time>
      </trkpt>
      <trkpt lat="48.22282" lon="-3.11693">
        <ele>346</ele>
        <time>2016-03-07T11:01:53Z</time>
      </trkpt>
      <trkpt lat="48.22281" lon="-3.11691">
        <ele>345</ele>
        <time>2016-03-07T11:01:55Z</time>
      </trkpt>
      <trkpt lat="48.22281" lon="-3.11687">
        <ele>345</ele>
        <time>2016-03-07T11:01:58Z</time>
      </trkpt>
      <trkpt lat="48.22279" lon="-3.11683">
        <ele>345</ele>
        <time>2016-03-07T11:02:01Z</time>
      </trkpt>
      <trkpt lat="48.22279" lon="-3.1168">
        <ele>345</ele>
        <time>2016-03-07T11:02:04Z</time>
      </trkpt>
      <trkpt lat="48.22279" lon="-3.11677">
        <ele>345</ele>
        <time>2016-03-07T11:02:06Z</time>
      </trkpt>
      <trkpt lat="48.22278" lon="-3.11673">
        <ele>345</ele>
        <time>2016-03-07T11:02:09Z</time>
      </trkpt>
      <trkpt lat="48.22279" lon="-3.1167">
        <ele>345</ele>
        <time>2016-03-07T11:02:11Z</time>
      </trkpt>
      <trkpt lat="48.22281" lon="-3.11667">
        <ele>345</ele>
        <time>2016-03-07T11:02:14Z</time>
      </trkpt>
      <trkpt lat="48.22282" lon="-3.11665">
        <ele>345</ele>
        <time>2016-03-07T11:02:16Z</time>
      </trkpt>
      <trkpt lat="48.22283" lon="-3.11661">
        <ele>344</ele>
        <time>2016-03-07T11:02:19Z</time>
      </trkpt>
      <trkpt lat="48.22284" lon="-3.11659">
        <ele>344</ele>
        <time>2016-03-07T11:02:21Z</time>
      </trkpt>
      <trkpt lat="48.22285" lon="-3.11656">
        <ele>344</ele>
        <time>2016-03-07T11:02:23Z</time>
      </trkpt>
      <trkpt lat="48.22286" lon="-3.11652">
        <ele>344</ele>
        <time>2016-03-07T11:02:26Z</time>
      </trkpt>
      <trkpt lat="48.22287" lon="-3.11649">
        <ele>344</ele>
        <time>2016-03-07T11:02:28Z</time>
      </trkpt>
      <trkpt lat="48.22289" lon="-3.11646">
        <ele>343</ele>
        <time>2016-03-07T11:02:31Z</time>
      </trkpt>
      <trkpt lat="48.2229" lon="-3.11643">
        <ele>343</ele>
        <time>2016-03-07T11:02:33Z</time>
      </trkpt>
      <trkpt lat="48.22291" lon="-3.11639">
        <ele>342</ele>
        <time>2016-03-07T11:02:36Z</time>
      </trkpt>
      <trkpt lat="48.2229" lon="-3.11636">
        <ele>342</ele>
        <time>2016-03-07T11:02:38Z</time>
      </trkpt>
      <trkpt lat="48.2229" lon="-3.11634">
        <ele>342</ele>
        <time>2016-03-07T11:02:40Z</time>
      </trkpt>
      <trkpt lat="48.22289" lon="-3.11632">
        <ele>341</ele>
        <time>2016-03-07T11:02:42Z</time>
      </trkpt>
      <trkpt lat="48.22289" lon="-3.11629">
        <ele>340</ele>
        <time>2016-03-07T11:02:44Z</time>
      </trkpt>
      <trkpt lat="48.22289" lon="-3.11625">
        <ele>340</ele>
        <time>2016-03-07T11:02:47Z</time>
      </trkpt>
      <trkpt lat="48.22289" lon="-3.11622">
        <ele>340</ele>
        <time>2016-03-07T11:02:49Z</time>
      </trkpt>
      <trkpt lat="48.22288" lon="-3.11618">
        <ele>340</ele>
        <time>2016-03-07T11:02:52Z</time>
      </trkpt>
      <trkpt lat="48.22287" lon="-3.11614">
        <ele>340</ele>
        <time>2016-03-07T11:02:55Z</time>
      </trkpt>
      <trkpt lat="48.22287" lon="-3.11612">
        <ele>340</ele>
        <time>2016-03-07T11:02:57Z</time>
      </trkpt>
      <trkpt lat="48.22288" lon="-3.11608">
        <ele>340</ele>
        <time>2016-03-07T11:03:00Z</time>
      </trkpt>
      <trkpt lat="48.22287" lon="-3.11604">
        <ele>339</ele>
        <time>2016-03-07T11:03:03Z</time>
      </trkpt>
      <trkpt lat="48.22288" lon="-3.11601">
        <ele>338</ele>
        <time>2016-03-07T11:03:05Z</time>
      </trkpt>
      <trkpt lat="48.22287" lon="-3.11597">
        <ele>337</ele>
        <time>2016-03-07T11:03:08Z</time>
      </trkpt>
      <trkpt lat="48.22287" lon="-3.11594">
        <ele>337</ele>
        <time>2016-03-07T11:03:10Z</time>
      </trkpt>
      <trkpt lat="48.22287" lon="-3.11591">
        <ele>337</ele>
        <time>2016-03-07T11:03:13Z</time>
      </trkpt>
      <trkpt lat="48.22287" lon="-3.11589">
        <ele>336</ele>
        <time>2016-03-07T11:03:15Z</time>
      </trkpt>
      <trkpt lat="48.22286" lon="-3.11586">
        <ele>336</ele>
        <time>2016-03-07T11:03:18Z</time>
      </trkpt>
      <trkpt lat="48.22284" lon="-3.11584">
        <ele>335</ele>
        <time>2016-03-07T11:03:21Z</time>
      </trkpt>
      <trkpt lat="48.22283" lon="-3.11583">
        <ele>334</ele>
        <time>2016-03-07T11:03:24Z</time>
      </trkpt>
      <trkpt lat="48.22282" lon="-3.11581">
        <ele>333</ele>
        <time>2016-03-07T11:03:27Z</time>
      </trkpt>
      <trkpt lat="48.2228" lon="-3.1158">
        <ele>333</ele>
        <time>2016-03-07T11:03:30Z</time>
      </trkpt>
      <trkpt lat="48.22279" lon="-3.11579">
        <ele>332</ele>
        <time>2016-03-07T11:03:32Z</time>
      </trkpt>
      <trkpt lat="48.22277" lon="-3.11578">
        <ele>332</ele>
        <time>2016-03-07T11:03:34Z</time>
      </trkpt>
      <trkpt lat="48.22275" lon="-3.11577">
        <ele>331</ele>
        <time>2016-03-07T11:03:37Z</time>
      </trkpt>
      <trkpt lat="48.22274" lon="-3.11576">
        <ele>331</ele>
        <time>2016-03-07T11:03:39Z</time>
      </trkpt>
      <trkpt lat="48.22272" lon="-3.11575">
        <ele>330</ele>
        <time>2016-03-07T11:03:41Z</time>
      </trkpt>
      <trkpt lat="48.22271" lon="-3.11574">
        <ele>330</ele>
        <time>2016-03-07T11:03:43Z</time>
      </trkpt>
      <trkpt lat="48.22269" lon="-3.11572">
        <ele>330</ele>
        <time>2016-03-07T11:03:46Z</time>
      </trkpt>
      <trkpt lat="48.22267" lon="-3.11571">
        <ele>329</ele>
        <time>2016-03-07T11:03:49Z</time>
      </trkpt>
      <trkpt lat="48.22266" lon="-3.11569">
        <ele>329</ele>
        <time>2016-03-07T11:03:51Z</time>
      </trkpt>
      <trkpt lat="48.22264" lon="-3.11567">
        <ele>328</ele>
        <time>2016-03-07T11:03:54Z</time>
      </trkpt>
      <trkpt lat="48.22263" lon="-3.11565">
        <ele>328</ele>
        <time>2016-03-07T11:03:56Z</time>
      </trkpt>
      <trkpt lat="48.22263" lon="-3.11564">
        <ele>327</ele>
        <time>2016-03-07T11:03:58Z</time>
      </trkpt>
      <trkpt lat="48.22262" lon="-3.11562">
        <ele>327</ele>
        <time>2016-03-07T11:04:00Z</time>
      </trkpt>
      <trkpt lat="48.22261" lon="-3.11559">
        <ele>326</ele>
        <time>2016-03-07T11:04:03Z</time>
      </trkpt>
      <trkpt lat="48.22261" lon="-3.11554">
        <ele>325</ele>
        <time>2016-03-07T11:04:06Z</time>
      </trkpt>
      <trkpt lat="48.22261" lon="-3.11551">
        <ele>325</ele>
        <time>2016-03-07T11:04:09Z</time>
      </trkpt>
      <trkpt lat="48.22261" lon="-3.11548">
        <ele>325</ele>
        <time>2016-03-07T11:04:11Z</time>
      </trkpt>
      <trkpt lat="48.22262" lon="-3.11545">
        <ele>324</ele>
        <time>2016-03-07T11:04:14Z</time>
      </trkpt>
      <trkpt lat="48.22262" lon="-3.1154">
        <ele>324</ele>
        <time>2016-03-07T11:04:17Z</time>
      </trkpt>
      <trkpt lat="48.22262" lon="-3.11536">
        <ele>324</ele>
        <time>2016-03-07T11:04:20Z</time>
      </trkpt>
      <trkpt lat="48.22263" lon="-3.11532">
        <ele>323</ele>
        <time>2016-03-07T11:04:23Z</time>
      </trkpt>
      <trkpt lat="48.22265" lon="-3.11529">
        <ele>323</ele>
        <time>2016-03-07T11:04:25Z</time>
      </trkpt>
      <trkpt lat="48.22266" lon="-3.11525">
        <ele>322</ele>
        <time>2016-03-07T11:04:28Z</time>
      </trkpt>
      <trkpt lat="48.22267" lon="-3.11521">
        <ele>322</ele>
        <time>2016-03-07T11:04:31Z</time>
      </trkpt>
      <trkpt lat="48.22268" lon="-3.11517">
        <ele>322</ele>
        <time>2016-03-07T11:04:34Z</time>
      </trkpt>
      <trkpt lat="48.22269" lon="-3.11512">
        <ele>321</ele>
        <time>2016-03-07T11:04:37Z</time>
      </trkpt>
      <trkpt lat="48.22269" lon="-3.11508">
        <ele>321</ele>
        <time>2016-03-07T11:04:40Z</time>
      </trkpt>
      <trkpt lat="48.22271" lon="-3.11504">
        <ele>320</ele>
        <time>2016-03-07T11:04:43Z</time>
      </trkpt>
      <trkpt lat="48.22272" lon="-3.11501">
        <ele>320</ele>
        <time>2016-03-07T11:04:45Z</time>
      </trkpt>
      <trkpt lat="48.22273" lon="-3.11498">
        <ele>320</ele>
        <time>2016-03-07T11:04:47Z</time>
      </trkpt>
      <trkpt lat="48.22274" lon="-3.11495">
        <ele>320</ele>
        <time>2016-03-07T11:04:49Z</time>
      </trkpt>
      <trkpt lat="48.22274" lon="-3.11491">
        <ele>320</ele>
        <time>2016-03-07T11:04:51Z</time>
      </trkpt>
      <trkpt lat="48.22274" lon="-3.11488">
        <ele>320</ele>
        <time>2016-03-07T11:04:53Z</time>
      </trkpt>
      <trkpt lat="48.22274" lon="-3.11485">
        <ele>320</ele>
        <time>2016-03-07T11:04:55Z</time>
      </trkpt>
      <trkpt lat="48.22273" lon="-3.11482">
        <ele>319</ele>
        <time>2016-03-07T11:04:58Z</time>
      </trkpt>
      <trkpt lat="48.22271" lon="-3.11481">
        <ele>318</ele>
        <time>2016-03-07T11:05:01Z</time>
      </trkpt>
      <trkpt lat="48.2227" lon="-3.11481">
        <ele>318</ele>
        <time>2016-03-07T11:05:03Z</time>
      </trkpt>
      <trkpt lat="48.22268" lon="-3.11483">
        <ele>317</ele>
        <time>2016-03-07T11:05:05Z</time>
      </trkpt>
      <trkpt lat="48.22266" lon="-3.11485">
        <ele>316</ele>
        <time>2016-03-07T11:05:08Z</time>
      </trkpt>
      <trkpt lat="48.22265" lon="-3.11486">
        <ele>316</ele>
        <time>2016-03-07T11:05:10Z</time>
      </trkpt>
      <trkpt lat="48.22264" lon="-3.11485">
        <ele>316</ele>
        <time>2016-03-07T11:05:12Z</time>
      </trkpt>
      <trkpt lat="48.22263" lon="-3.11484">
        <ele>315</ele>
        <time>2016-03-07T11:05:15Z</time>
      </trkpt>
      <trkpt lat="48.22262" lon="-3.11482">
        <ele>315</ele>
        <time>2016-03-07T11:05:17Z</time>
      </trkpt>
      <trkpt lat="48.2226" lon="-3.11478">
        <ele>313</ele>
        <time>2016-03-07T11:05:20Z</time>
      </trkpt>
      <trkpt lat="48.22258" lon="-3.11474">
        <ele>313</ele>
        <time>2016-03-07T11:05:23Z</time>
      </trkpt>
      <trkpt lat="48.22256" lon="-3.11473">
        <ele>313</ele>
        <time>2016-03-07T11:05:25Z</time>
      </trkpt>
      <trkpt lat="48.22255" lon="-3.11472">
        <ele>312</ele>
        <time>2016-03-07T11:05:27Z</time>
      </trkpt>
      <trkpt lat="48.22253" lon="-3.11474">
        <ele>312</ele>
        <time>2016-03-07T11:05:29Z</time>
      </trkpt>
      <trkpt lat="48.22253" lon="-3.11476">
        <ele>311</ele>
        <time>2016-03-07T11:05:31Z</time>
      </trkpt>
      <trkpt lat="48.22252" lon="-3.1148">
        <ele>311</ele>
        <time>2016-03-07T11:05:34Z</time>
      </trkpt>
      <trkpt lat="48.22251" lon="-3.11483">
        <ele>310</ele>
        <time>2016-03-07T11:05:36Z</time>
      </trkpt>
      <trkpt lat="48.22251" lon="-3.11484">
        <ele>310</ele>
        <time>2016-03-07T11:05:38Z</time>
      </trkpt>
      <trkpt lat="48.2225" lon="-3.11484">
        <ele>309</ele>
        <time>2016-03-07T11:05:40Z</time>
      </trkpt>
      <trkpt lat="48.22248" lon="-3.11484">
        <ele>309</ele>
        <time>2016-03-07T11:05:42Z</time>
      </trkpt>
      <trkpt lat="48.22247" lon="-3.11484">
        <ele>309</ele>
        <time>2016-03-07T11:05:44Z</time>
      </trkpt>
      <trkpt lat="48.22245" lon="-3.11485">
        <ele>308</ele>
        <time>2016-03-07T11:05:47Z</time>
      </trkpt>
      <trkpt lat="48.22244" lon="-3.11486">
        <ele>308</ele>
        <time>2016-03-07T11:05:49Z</time>
      </trkpt>
      <trkpt lat="48.22243" lon="-3.11486">
        <ele>307</ele>
        <time>2016-03-07T11:05:51Z</time>
      </trkpt>
      <trkpt lat="48.22242" lon="-3.11486">
        <ele>307</ele>
        <time>2016-03-07T11:05:54Z</time>
      </trkpt>
      <trkpt lat="48.2224" lon="-3.11487">
        <ele>306</ele>
        <time>2016-03-07T11:05:56Z</time>
      </trkpt>
      <trkpt lat="48.22239" lon="-3.11487">
        <ele>306</ele>
        <time>2016-03-07T11:05:59Z</time>
      </trkpt>
      <trkpt lat="48.22238" lon="-3.11486">
        <ele>306</ele>
        <time>2016-03-07T11:06:01Z</time>
      </trkpt>
      <trkpt lat="48.22237" lon="-3.11487">
        <ele>305</ele>
        <time>2016-03-07T11:06:03Z</time>
      </trkpt>
      <trkpt lat="48.22236" lon="-3.11488">
        <ele>305</ele>
        <time>2016-03-07T11:06:06Z</time>
      </trkpt>
      <trkpt lat="48.22235" lon="-3.11489">
        <ele>304</ele>
        <time>2016-03-07T11:06:09Z</time>
      </trkpt>
      <trkpt lat="48.22234" lon="-3.11491">
        <ele>303</ele>
        <time>2016-03-07T11:06:12Z</time>
      </trkpt>
      <trkpt lat="48.22234" lon="-3.11491">
        <ele>303</ele>
        <time>2016-03-07T11:06:14Z</time>
      </trkpt>
      <trkpt lat="48.22232" lon="-3.11491">
        <ele>302</ele>
        <time>2016-03-07T11:06:17Z</time>
      </trkpt>
      <trkpt lat="48.22231" lon="-3.11492">
        <ele>302</ele>
        <time>2016-03-07T11:06:19Z</time>
      </trkpt>
      <trkpt lat="48.22229" lon="-3.11493">
        <ele>302</ele>
        <time>2016-03-07T11:06:21Z</time>
      </trkpt>
      <trkpt lat="48.22227" lon="-3.11496">
        <ele>301</ele>
        <time>2016-03-07T11:06:24Z</time>
      </trkpt>
      <trkpt lat="48.22225" lon="-3.11498">
        <ele>300</ele>
        <time>2016-03-07T11:06:26Z</time>
      </trkpt>
      <trkpt lat="48.22223" lon="-3.11499">
        <ele>300</ele>
        <time>2016-03-07T11:06:28Z</time>
      </trkpt>
      <trkpt lat="48.22222" lon="-3.115">
        <ele>300</ele>
        <time>2016-03-07T11:06:30Z</time>
      </trkpt>
      <trkpt lat="48.2222" lon="-3.11501">
        <ele>300</ele>
        <time>2016-03-07T11:06:32Z</time>
      </trkpt>
      <trkpt lat="48.22218" lon="-3.11502">
        <ele>299</ele>
        <time>2016-03-07T11:06:34Z</time>
      </trkpt>
      <trkpt lat="48.22217" lon="-3.11503">
        <ele>299</ele>
        <time>2016-03-07T11:06:36Z</time>
      </trkpt>
      <trkpt lat="48.22215" lon="-3.11504">
        <ele>299</ele>
        <time>2016-03-07T11:06:38Z</time>
      </trkpt>
      <trkpt lat="48.22214" lon="-3.11506">
        <ele>298</ele>
        <time>2016-03-07T11:06:41Z</time>
      </trkpt>
      <trkpt lat="48.22213" lon="-3.11506">
        <ele>298</ele>
        <time>2016-03-07T11:06:44Z</time>
      </trkpt>
      <trkpt lat="48.22212" lon="-3.11507">
        <ele>298</ele>
        <time>2016-03-07T11:06:47Z</time>
      </trkpt>
      <trkpt lat="48.22211" lon="-3.11508">
        <ele>297</ele>
        <time>2016-03-07T11:06:50Z</time>
      </trkpt>
      <trkpt lat="48.2221" lon="-3.11509">
        <ele>297</ele>
        <time>2016-03-07T11:06:53Z</time>
      </trkpt>
      <trkpt lat="48.2221" lon="-3.11509">
        <ele>297</ele>
        <time>2016-03-07T11:06:55Z</time>
      </trkpt>
      <trkpt lat="48.22209" lon="-3.1151">
        <ele>297</ele>
        <time>2016-03-07T11:06:57Z</time>
      </trkpt>
      <trkpt lat="48.22208" lon="-3.1151">
        <ele>296</ele>
        <time>2016-03-07T11:07:00Z</time>
      </trkpt>
      <trkpt lat="48.22207" lon="-3.11511">
        <ele>296</ele>
        <time>2016-03-07T11:07:02Z</time>
      </trkpt>
      <trkpt lat="48.22207" lon="-3.11512">
        <ele>295</ele>
        <time>2016-03-07T11:07:04Z</time>
      </trkpt>
      <trkpt lat="48.22205" lon="-3.11512">
        <ele>294</ele>
        <time>2016-03-07T11:07:07Z</time>
      </trkpt>
      <trkpt lat="48.22205" lon="-3.11514">
        <ele>294</ele>
        <time>2016-03-07T11:07:10Z</time>
      </trkpt>
      <trkpt lat="48.22203" lon="-3.11515">
        <ele>293</ele>
        <time>2016-03-07T11:07:13Z</time>
      </trkpt>
      <trkpt lat="48.22202" lon="-3.11516">
        <ele>292</ele>
        <time>2016-03-07T11:07:15Z</time>
      </trkpt>
      <trkpt lat="48.222" lon="-3.11517">
        <ele>292</ele>
        <time>2016-03-07T11:07:17Z</time>
      </trkpt>
      <trkpt lat="48.222" lon="-3.11519">
        <ele>292</ele>
        <time>2016-03-07T11:07:19Z</time>
      </trkpt>
      <trkpt lat="48.22198" lon="-3.1152">
        <ele>291</ele>
        <time>2016-03-07T11:07:22Z</time>
      </trkpt>
      <trkpt lat="48.22198" lon="-3.11522">
        <ele>290</ele>
        <time>2016-03-07T11:07:25Z</time>
      </trkpt>
      <trkpt lat="48.22196" lon="-3.11525">
        <ele>290</ele>
        <time>2016-03-07T11:07:28Z</time>
      </trkpt>
      <trkpt lat="48.22195" lon="-3.11527">
        <ele>290</ele>
        <time>2016-03-07T11:07:30Z</time>
      </trkpt>
      <trkpt lat="48.22192" lon="-3.11532">
        <ele>289</ele>
        <time>2016-03-07T11:07:33Z</time>
      </trkpt>
      <trkpt lat="48.2219" lon="-3.11534">
        <ele>289</ele>
        <time>2016-03-07T11:07:35Z</time>
      </trkpt>
      <trkpt lat="48.22189" lon="-3.11535">
        <ele>289</ele>
        <time>2016-03-07T11:07:37Z</time>
      </trkpt>
      <trkpt lat="48.22189" lon="-3.11536">
        <ele>289</ele>
        <time>2016-03-07T11:07:40Z</time>
      </trkpt>
      <trkpt lat="48.22189" lon="-3.11537">
        <ele>289</ele>
        <time>2016-03-07T11:07:42Z</time>
      </trkpt>
      <trkpt lat="48.22189" lon="-3.11538">
        <ele>289</ele>
        <time>2016-03-07T11:07:44Z</time>
      </trkpt>
      <trkpt lat="48.22187" lon="-3.1154">
        <ele>289</ele>
        <time>2016-03-07T11:07:47Z</time>
      </trkpt>
      <trkpt lat="48.22186" lon="-3.11543">
        <ele>289</ele>
        <time>2016-03-07T11:07:49Z</time>
      </trkpt>
      <trkpt lat="48.22184" lon="-3.11544">
        <ele>289</ele>
        <time>2016-03-07T11:07:51Z</time>
      </trkpt>
      <trkpt lat="48.22182" lon="-3.11547">
        <ele>289</ele>
        <time>2016-03-07T11:07:54Z</time>
      </trkpt>
      <trkpt lat="48.22181" lon="-3.11549">
        <ele>289</ele>
        <time>2016-03-07T11:07:57Z</time>
      </trkpt>
      <trkpt lat="48.2218" lon="-3.11552">
        <ele>288</ele>
        <time>2016-03-07T11:07:59Z</time>
      </trkpt>
      <trkpt lat="48.2218" lon="-3.11556">
        <ele>288</ele>
        <time>2016-03-07T11:08:02Z</time>
      </trkpt>
      <trkpt lat="48.22179" lon="-3.11557">
        <ele>288</ele>
        <time>2016-03-07T11:08:04Z</time>
      </trkpt>
      <trkpt lat="48.2218" lon="-3.11559">
        <ele>288</ele>
        <time>2016-03-07T11:08:06Z</time>
      </trkpt>
      <trkpt lat="48.22179" lon="-3.1156">
        <ele>288</ele>
        <time>2016-03-07T11:08:08Z</time>
      </trkpt>
      <trkpt lat="48.22178" lon="-3.11561">
        <ele>287</ele>
        <time>2016-03-07T11:08:11Z</time>
      </trkpt>
      <trkpt lat="48.22178" lon="-3.11563">
        <ele>286</ele>
        <time>2016-03-07T11:08:14Z</time>
      </trkpt>
      <trkpt lat="48.22177" lon="-3.11567">
        <ele>285</ele>
        <time>2016-03-07T11:08:17Z</time>
      </trkpt>
      <trkpt lat="48.22177" lon="-3.1157">
        <ele>285</ele>
        <time>2016-03-07T11:08:20Z</time>
      </trkpt>
      <trkpt lat="48.22178" lon="-3.11572">
        <ele>285</ele>
        <time>2016-03-07T11:08:22Z</time>
      </trkpt>
      <trkpt lat="48.22178" lon="-3.11574">
        <ele>285</ele>
        <time>2016-03-07T11:08:24Z</time>
      </trkpt>
      <trkpt lat="48.22178" lon="-3.11576">
        <ele>285</ele>
        <time>2016-03-07T11:08:27Z</time>
      </trkpt>
      <trkpt lat="48.22177" lon="-3.11579">
        <ele>286</ele>
        <time>2016-03-07T11:08:29Z</time>
      </trkpt>
      <trkpt lat="48.22175" lon="-3.11583">
        <ele>286</ele>
        <time>2016-03-07T11:08:32Z</time>
      </trkpt>
      <trkpt lat="48.22174" lon="-3.11585">
        <ele>286</ele>
        <time>2016-03-07T11:08:34Z</time>
      </trkpt>
      <trkpt lat="48.22173" lon="-3.11588">
        <ele>286</ele>
        <time>2016-03-07T11:08:36Z</time>
      </trkpt>
      <trkpt lat="48.22171" lon="-3.1159">
        <ele>285</ele>
        <time>2016-03-07T11:08:38Z</time>
      </trkpt>
      <trkpt lat="48.2217" lon="-3.11596">
        <ele>285</ele>
        <time>2016-03-07T11:08:41Z</time>
      </trkpt>
      <trkpt lat="48.22169" lon="-3.116">
        <ele>284</ele>
        <time>2016-03-07T11:08:44Z</time>
      </trkpt>
      <trkpt lat="48.22169" lon="-3.11604">
        <ele>284</ele>
        <time>2016-03-07T11:08:46Z</time>
      </trkpt>
      <trkpt lat="48.22168" lon="-3.11607">
        <ele>284</ele>
        <time>2016-03-07T11:08:48Z</time>
      </trkpt>
      <trkpt lat="48.22166" lon="-3.1161">
        <ele>284</ele>
        <time>2016-03-07T11:08:50Z</time>
      </trkpt>
      <trkpt lat="48.22166" lon="-3.11614">
        <ele>284</ele>
        <time>2016-03-07T11:08:52Z</time>
      </trkpt>
      <trkpt lat="48.22166" lon="-3.11618">
        <ele>284</ele>
        <time>2016-03-07T11:08:55Z</time>
      </trkpt>
      <trkpt lat="48.22167" lon="-3.11622">
        <ele>284</ele>
        <time>2016-03-07T11:08:58Z</time>
      </trkpt>
      <trkpt lat="48.22168" lon="-3.11626">
        <ele>285</ele>
        <time>2016-03-07T11:09:01Z</time>
      </trkpt>
      <trkpt lat="48.22168" lon="-3.11629">
        <ele>285</ele>
        <time>2016-03-07T11:09:03Z</time>
      </trkpt>
      <trkpt lat="48.22169" lon="-3.11631">
        <ele>285</ele>
        <time>2016-03-07T11:09:05Z</time>
      </trkpt>
      <trkpt lat="48.2217" lon="-3.11636">
        <ele>285</ele>
        <time>2016-03-07T11:09:08Z</time>
      </trkpt>
      <trkpt lat="48.22171" lon="-3.11639">
        <ele>286</ele>
        <time>2016-03-07T11:09:10Z</time>
      </trkpt>
      <trkpt lat="48.22171" lon="-3.11643">
        <ele>286</ele>
        <time>2016-03-07T11:09:13Z</time>
      </trkpt>
      <trkpt lat="48.22171" lon="-3.11646">
        <ele>286</ele>
        <time>2016-03-07T11:09:15Z</time>
      </trkpt>
      <trkpt lat="48.2217" lon="-3.11649">
        <ele>286</ele>
        <time>2016-03-07T11:09:17Z</time>
      </trkpt>
      <trkpt lat="48.22169" lon="-3.1165">
        <ele>285</ele>
        <time>2016-03-07T11:09:19Z</time>
      </trkpt>
      <trkpt lat="48.22168" lon="-3.11655">
        <ele>285</ele>
        <time>2016-03-07T11:09:22Z</time>
      </trkpt>
      <trkpt lat="48.22167" lon="-3.11658">
        <ele>284</ele>
        <time>2016-03-07T11:09:24Z</time>
      </trkpt>
      <trkpt lat="48.22166" lon="-3.11661">
        <ele>284</ele>
        <time>2016-03-07T11:09:26Z</time>
      </trkpt>
      <trkpt lat="48.22165" lon="-3.11664">
        <ele>284</ele>
        <time>2016-03-07T11:09:28Z</time>
      </trkpt>
      <trkpt lat="48.22163" lon="-3.11669">
        <ele>284</ele>
        <time>2016-03-07T11:09:31Z</time>
      </trkpt>
      <trkpt lat="48.22162" lon="-3.11673">
        <ele>283</ele>
        <time>2016-03-07T11:09:33Z</time>
      </trkpt>
      <trkpt lat="48.22161" lon="-3.11677">
        <ele>283</ele>
        <time>2016-03-07T11:09:35Z</time>
      </trkpt>
      <trkpt lat="48.22162" lon="-3.11681">
        <ele>283</ele>
        <time>2016-03-07T11:09:38Z</time>
      </trkpt>
      <trkpt lat="48.22163" lon="-3.11684">
        <ele>283</ele>
        <time>2016-03-07T11:09:40Z</time>
      </trkpt>
      <trkpt lat="48.22162" lon="-3.11688">
        <ele>284</ele>
        <time>2016-03-07T11:09:43Z</time>
      </trkpt>
      <trkpt lat="48.22161" lon="-3.1169">
        <ele>284</ele>
        <time>2016-03-07T11:09:45Z</time>
      </trkpt>
      <trkpt lat="48.22161" lon="-3.11692">
        <ele>284</ele>
        <time>2016-03-07T11:09:48Z</time>
      </trkpt>
      <trkpt lat="48.22162" lon="-3.11696">
        <ele>284</ele>
        <time>2016-03-07T11:09:51Z</time>
      </trkpt>
      <trkpt lat="48.22164" lon="-3.11701">
        <ele>284</ele>
        <time>2016-03-07T11:09:54Z</time>
      </trkpt>
      <trkpt lat="48.22166" lon="-3.11705">
        <ele>284</ele>
        <time>2016-03-07T11:09:57Z</time>
      </trkpt>
      <trkpt lat="48.22166" lon="-3.11708">
        <ele>284</ele>
        <time>2016-03-07T11:10:00Z</time>
      </trkpt>
      <trkpt lat="48.22166" lon="-3.11712">
        <ele>284</ele>
        <time>2016-03-07T11:10:03Z</time>
      </trkpt>
      <trkpt lat="48.22165" lon="-3.11714">
        <ele>284</ele>
        <time>2016-03-07T11:10:05Z</time>
      </trkpt>
      <trkpt lat="48.22164" lon="-3.11716">
        <ele>283</ele>
        <time>2016-03-07T11:10:08Z</time>
      </trkpt>
      <trkpt lat="48.22164" lon="-3.11721">
        <ele>282</ele>
        <time>2016-03-07T11:10:11Z</time>
      </trkpt>
      <trkpt lat="48.22165" lon="-3.11726">
        <ele>282</ele>
        <time>2016-03-07T11:10:14Z</time>
      </trkpt>
      <trkpt lat="48.22166" lon="-3.11731">
        <ele>282</ele>
        <time>2016-03-07T11:10:17Z</time>
      </trkpt>
      <trkpt lat="48.22167" lon="-3.11733">
        <ele>282</ele>
        <time>2016-03-07T11:10:19Z</time>
      </trkpt>
      <trkpt lat="48.22167" lon="-3.11736">
        <ele>281</ele>
        <time>2016-03-07T11:10:21Z</time>
      </trkpt>
      <trkpt lat="48.22168" lon="-3.11741">
        <ele>281</ele>
        <time>2016-03-07T11:10:24Z</time>
      </trkpt>
      <trkpt lat="48.22169" lon="-3.11744">
        <ele>281</ele>
        <time>2016-03-07T11:10:26Z</time>
      </trkpt>
      <trkpt lat="48.22171" lon="-3.11746">
        <ele>281</ele>
        <time>2016-03-07T11:10:29Z</time>
      </trkpt>
      <trkpt lat="48.22172" lon="-3.11748">
        <ele>282</ele>
        <time>2016-03-07T11:10:32Z</time>
      </trkpt>
      <trkpt lat="48.22173" lon="-3.11752">
        <ele>281</ele>
        <time>2016-03-07T11:10:35Z</time>
      </trkpt>
      <trkpt lat="48.22173" lon="-3.11756">
        <ele>281</ele>
        <time>2016-03-07T11:10:38Z</time>
      </trkpt>
      <trkpt lat="48.22176" lon="-3.11761">
        <ele>281</ele>
        <time>2016-03-07T11:10:41Z</time>
      </trkpt>
      <trkpt lat="48.22176" lon="-3.11764">
        <ele>280</ele>
        <time>2016-03-07T11:10:44Z</time>
      </trkpt>
      <trkpt lat="48.22178" lon="-3.11766">
        <ele>280</ele>
        <time>2016-03-07T11:10:47Z</time>
      </trkpt>
      <trkpt lat="48.22179" lon="-3.11769">
        <ele>280</ele>
        <time>2016-03-07T11:10:50Z</time>
      </trkpt>
      <trkpt lat="48.2218" lon="-3.11774">
        <ele>280</ele>
        <time>2016-03-07T11:10:53Z</time>
      </trkpt>
      <trkpt lat="48.22181" lon="-3.11777">
        <ele>280</ele>
        <time>2016-03-07T11:10:55Z</time>
      </trkpt>
      <trkpt lat="48.22182" lon="-3.11781">
        <ele>279</ele>
        <time>2016-03-07T11:10:58Z</time>
      </trkpt>
      <trkpt lat="48.22182" lon="-3.11783">
        <ele>279</ele>
        <time>2016-03-07T11:11:00Z</time>
      </trkpt>
      <trkpt lat="48.22184" lon="-3.11787">
        <ele>279</ele>
        <time>2016-03-07T11:11:03Z</time>
      </trkpt>
      <trkpt lat="48.22184" lon="-3.1179">
        <ele>279</ele>
        <time>2016-03-07T11:11:06Z</time>
      </trkpt>
      <trkpt lat="48.22185" lon="-3.11793">
        <ele>279</ele>
        <time>2016-03-07T11:11:08Z</time>
      </trkpt>
      <trkpt lat="48.22186" lon="-3.11796">
        <ele>279</ele>
        <time>2016-03-07T11:11:10Z</time>
      </trkpt>
      <trkpt lat="48.22188" lon="-3.11799">
        <ele>278</ele>
        <time>2016-03-07T11:11:13Z</time>
      </trkpt>
      <trkpt lat="48.2219" lon="-3.11802">
        <ele>278</ele>
        <time>2016-03-07T11:11:16Z</time>
      </trkpt>
      <trkpt lat="48.22192" lon="-3.11806">
        <ele>279</ele>
        <time>2016-03-07T11:11:19Z</time>
      </trkpt>
      <trkpt lat="48.22192" lon="-3.11809">
        <ele>279</ele>
        <time>2016-03-07T11:11:21Z</time>
      </trkpt>
      <trkpt lat="48.22194" lon="-3.11813">
        <ele>279</ele>
        <time>2016-03-07T11:11:24Z</time>
      </trkpt>
      <trkpt lat="48.22194" lon="-3.11815">
        <ele>279</ele>
        <time>2016-03-07T11:11:26Z</time>
      </trkpt>
      <trkpt lat="48.22194" lon="-3.11818">
        <ele>280</ele>
        <time>2016-03-07T11:11:29Z</time>
      </trkpt>
      <trkpt lat="48.22194" lon="-3.11819">
        <ele>280</ele>
        <time>2016-03-07T11:11:32Z</time>
      </trkpt>
      <trkpt lat="48.22194" lon="-3.1182">
        <ele>280</ele>
        <time>2016-03-07T11:11:35Z</time>
      </trkpt>
      <trkpt lat="48.22195" lon="-3.11821">
        <ele>280</ele>
        <time>2016-03-07T11:11:37Z</time>
      </trkpt>
      <trkpt lat="48.22196" lon="-3.11822">
        <ele>280</ele>
        <time>2016-03-07T11:11:40Z</time>
      </trkpt>
      <trkpt lat="48.22197" lon="-3.11821">
        <ele>280</ele>
        <time>2016-03-07T11:11:42Z</time>
      </trkpt>
      <trkpt lat="48.22197" lon="-3.11822">
        <ele>281</ele>
        <time>2016-03-07T11:11:44Z</time>
      </trkpt>
      <trkpt lat="48.22199" lon="-3.11822">
        <ele>281</ele>
        <time>2016-03-07T11:11:47Z</time>
      </trkpt>
      <trkpt lat="48.222" lon="-3.11822">
        <ele>281</ele>
        <time>2016-03-07T11:11:49Z</time>
      </trkpt>
      <trkpt lat="48.22201" lon="-3.11824">
        <ele>282</ele>
        <time>2016-03-07T11:11:52Z</time>
      </trkpt>
      <trkpt lat="48.22202" lon="-3.11824">
        <ele>283</ele>
        <time>2016-03-07T11:11:55Z</time>
      </trkpt>
      <trkpt lat="48.22203" lon="-3.11826">
        <ele>284</ele>
        <time>2016-03-07T11:11:58Z</time>
      </trkpt>
      <trkpt lat="48.22204" lon="-3.11827">
        <ele>284</ele>
        <time>2016-03-07T11:12:00Z</time>
      </trkpt>
      <trkpt lat="48.22206" lon="-3.11829">
        <ele>285</ele>
        <time>2016-03-07T11:12:03Z</time>
      </trkpt>
      <trkpt lat="48.22208" lon="-3.1183">
        <ele>285</ele>
        <time>2016-03-07T11:12:05Z</time>
      </trkpt>
      <trkpt lat="48.22209" lon="-3.11832">
        <ele>285</ele>
        <time>2016-03-07T11:12:07Z</time>
      </trkpt>
      <trkpt lat="48.2221" lon="-3.11834">
        <ele>286</ele>
        <time>2016-03-07T11:12:10Z</time>
      </trkpt>
      <trkpt lat="48.22212" lon="-3.11836">
        <ele>286</ele>
        <time>2016-03-07T11:12:12Z</time>
      </trkpt>
      <trkpt lat="48.22213" lon="-3.11836">
        <ele>287</ele>
        <time>2016-03-07T11:12:14Z</time>
      </trkpt>
      <trkpt lat="48.22215" lon="-3.11839">
        <ele>287</ele>
        <time>2016-03-07T11:12:17Z</time>
      </trkpt>
      <trkpt lat="48.22217" lon="-3.11841">
        <ele>287</ele>
        <time>2016-03-07T11:12:19Z</time>
      </trkpt>
      <trkpt lat="48.22218" lon="-3.11842">
        <ele>288</ele>
        <time>2016-03-07T11:12:22Z</time>
      </trkpt>
      <trkpt lat="48.22218" lon="-3.11843">
        <ele>288</ele>
        <time>2016-03-07T11:12:24Z</time>
      </trkpt>
      <trkpt lat="48.22218" lon="-3.11846">
        <ele>287</ele>
        <time>2016-03-07T11:12:27Z</time>
      </trkpt>
      <trkpt lat="48.22219" lon="-3.11848">
        <ele>287</ele>
        <time>2016-03-07T11:12:29Z</time>
      </trkpt>
      <trkpt lat="48.22221" lon="-3.11851">
        <ele>287</ele>
        <time>2016-03-07T11:12:32Z</time>
      </trkpt>
      <trkpt lat="48.22223" lon="-3.11853">
        <ele>287</ele>
        <time>2016-03-07T11:12:34Z</time>
      </trkpt>
      <trkpt lat="48.22224" lon="-3.11855">
        <ele>287</ele>
        <time>2016-03-07T11:12:36Z</time>
      </trkpt>
      <trkpt lat="48.22224" lon="-3.11857">
        <ele>286</ele>
        <time>2016-03-07T11:12:39Z</time>
      </trkpt>
      <trkpt lat="48.22224" lon="-3.11859">
        <ele>286</ele>
        <time>2016-03-07T11:12:41Z</time>
      </trkpt>
      <trkpt lat="48.22224" lon="-3.11861">
        <ele>285</ele>
        <time>2016-03-07T11:12:43Z</time>
      </trkpt>
      <trkpt lat="48.22224" lon="-3.11864">
        <ele>285</ele>
        <time>2016-03-07T11:12:46Z</time>
      </trkpt>
      <trkpt lat="48.22224" lon="-3.11867">
        <ele>285</ele>
        <time>2016-03-07T11:12:48Z</time>
      </trkpt>
      <trkpt lat="48.22224" lon="-3.11868">
        <ele>284</ele>
        <time>2016-03-07T11:12:50Z</time>
      </trkpt>
      <trkpt lat="48.22225" lon="-3.11871">
        <ele>283</ele>
        <time>2016-03-07T11:12:53Z</time>
      </trkpt>
      <trkpt lat="48.22227" lon="-3.11874">
        <ele>283</ele>
        <time>2016-03-07T11:12:56Z</time>
      </trkpt>
      <trkpt lat="48.22228" lon="-3.11876">
        <ele>282</ele>
        <time>2016-03-07T11:12:59Z</time>
      </trkpt>
      <trkpt lat="48.2223" lon="-3.11879">
        <ele>281</ele>
        <time>2016-03-07T11:13:02Z</time>
      </trkpt>
      <trkpt lat="48.22231" lon="-3.11882">
        <ele>281</ele>
        <time>2016-03-07T11:13:04Z</time>
      </trkpt>
      <trkpt lat="48.22231" lon="-3.11885">
        <ele>281</ele>
        <time>2016-03-07T11:13:07Z</time>
      </trkpt>
      <trkpt lat="48.22232" lon="-3.11888">
        <ele>280</ele>
        <time>2016-03-07T11:13:10Z</time>
      </trkpt>
      <trkpt lat="48.22231" lon="-3.1189">
        <ele>280</ele>
        <time>2016-03-07T11:13:12Z</time>
      </trkpt>
      <trkpt lat="48.22231" lon="-3.11893">
        <ele>279</ele>
        <time>2016-03-07T11:13:15Z</time>
      </trkpt>
      <trkpt lat="48.22231" lon="-3.11895">
        <ele>279</ele>
        <time>2016-03-07T11:13:17Z</time>
      </trkpt>
      <trkpt lat="48.22232" lon="-3.11898">
        <ele>278</ele>
        <time>2016-03-07T11:13:20Z</time>
      </trkpt>
      <trkpt lat="48.22234" lon="-3.119">
        <ele>277</ele>
        <time>2016-03-07T11:13:22Z</time>
      </trkpt>
      <trkpt lat="48.22236" lon="-3.11902">
        <ele>277</ele>
        <time>2016-03-07T11:13:25Z</time>
      </trkpt>
      <trkpt lat="48.22237" lon="-3.11904">
        <ele>278</ele>
        <time>2016-03-07T11:13:28Z</time>
      </trkpt>
      <trkpt lat="48.22238" lon="-3.11906">
        <ele>278</ele>
        <time>2016-03-07T11:13:30Z</time>
      </trkpt>
      <trkpt lat="48.2224" lon="-3.11909">
        <ele>278</ele>
        <time>2016-03-07T11:13:33Z</time>
      </trkpt>
      <trkpt lat="48.22241" lon="-3.11911">
        <ele>278</ele>
        <time>2016-03-07T11:13:36Z</time>
      </trkpt>
      <trkpt lat="48.22242" lon="-3.11913">
        <ele>278</ele>
        <time>2016-03-07T11:13:38Z</time>
      </trkpt>
      <trkpt lat="48.22242" lon="-3.11916">
        <ele>278</ele>
        <time>2016-03-07T11:13:40Z</time>
      </trkpt>
      <trkpt lat="48.22242" lon="-3.11918">
        <ele>278</ele>
        <time>2016-03-07T11:13:42Z</time>
      </trkpt>
      <trkpt lat="48.22242" lon="-3.1192">
        <ele>278</ele>
        <time>2016-03-07T11:13:44Z</time>
      </trkpt>
      <trkpt lat="48.22244" lon="-3.11923">
        <ele>278</ele>
        <time>2016-03-07T11:13:47Z</time>
      </trkpt>
      <trkpt lat="48.22245" lon="-3.11926">
        <ele>277</ele>
        <time>2016-03-07T11:13:50Z</time>
      </trkpt>
      <trkpt lat="48.22246" lon="-3.1193">
        <ele>276</ele>
        <time>2016-03-07T11:13:53Z</time>
      </trkpt>
      <trkpt lat="48.22247" lon="-3.11933">
        <ele>276</ele>
        <time>2016-03-07T11:13:56Z</time>
      </trkpt>
      <trkpt lat="48.22249" lon="-3.11935">
        <ele>276</ele>
        <time>2016-03-07T11:13:58Z</time>
      </trkpt>
      <trkpt lat="48.2225" lon="-3.11938">
        <ele>276</ele>
        <time>2016-03-07T11:14:01Z</time>
      </trkpt>
      <trkpt lat="48.22251" lon="-3.11941">
        <ele>276</ele>
        <time>2016-03-07T11:14:04Z</time>
      </trkpt>
      <trkpt lat="48.22253" lon="-3.11943">
        <ele>276</ele>
        <time>2016-03-07T11:14:07Z</time>
      </trkpt>
      <trkpt lat="48.22254" lon="-3.11946">
        <ele>276</ele>
        <time>2016-03-07T11:14:10Z</time>
      </trkpt>
      <trkpt lat="48.22256" lon="-3.11949">
        <ele>277</ele>
        <time>2016-03-07T11:14:13Z</time>
      </trkpt>
      <trkpt lat="48.22257" lon="-3.11951">
        <ele>277</ele>
        <time>2016-03-07T11:14:15Z</time>
      </trkpt>
      <trkpt lat="48.22259" lon="-3.11954">
        <ele>277</ele>
        <time>2016-03-07T11:14:18Z</time>
      </trkpt>
      <trkpt lat="48.2226" lon="-3.11957">
        <ele>278</ele>
        <time>2016-03-07T11:14:20Z</time>
      </trkpt>
      <trkpt lat="48.2226" lon="-3.1196">
        <ele>278</ele>
        <time>2016-03-07T11:14:23Z</time>
      </trkpt>
      <trkpt lat="48.2226" lon="-3.11964">
        <ele>277</ele>
        <time>2016-03-07T11:14:26Z</time>
      </trkpt>
      <trkpt lat="48.22262" lon="-3.11967">
        <ele>277</ele>
        <time>2016-03-07T11:14:29Z</time>
      </trkpt>
      <trkpt lat="48.22263" lon="-3.1197">
        <ele>278</ele>
        <time>2016-03-07T11:14:32Z</time>
      </trkpt>
      <trkpt lat="48.22264" lon="-3.11972">
        <ele>278</ele>
        <time>2016-03-07T11:14:34Z</time>
      </trkpt>
      <trkpt lat="48.22265" lon="-3.11976">
        <ele>279</ele>
        <time>2016-03-07T11:14:37Z</time>
      </trkpt>
      <trkpt lat="48.22266" lon="-3.11979">
        <ele>279</ele>
        <time>2016-03-07T11:14:40Z</time>
      </trkpt>
      <trkpt lat="48.22267" lon="-3.11982">
        <ele>280</ele>
        <time>2016-03-07T11:14:43Z</time>
      </trkpt>
      <trkpt lat="48.22268" lon="-3.11984">
        <ele>280</ele>
        <time>2016-03-07T11:14:45Z</time>
      </trkpt>
      <trkpt lat="48.2227" lon="-3.11988">
        <ele>280</ele>
        <time>2016-03-07T11:14:48Z</time>
      </trkpt>
      <trkpt lat="48.22271" lon="-3.11991">
        <ele>280</ele>
        <time>2016-03-07T11:14:51Z</time>
      </trkpt>
      <trkpt lat="48.22273" lon="-3.11994">
        <ele>280</ele>
        <time>2016-03-07T11:14:53Z</time>
      </trkpt>
      <trkpt lat="48.22274" lon="-3.11996">
        <ele>281</ele>
        <time>2016-03-07T11:14:55Z</time>
      </trkpt>
      <trkpt lat="48.22275" lon="-3.12">
        <ele>281</ele>
        <time>2016-03-07T11:14:58Z</time>
      </trkpt>
      <trkpt lat="48.22275" lon="-3.12002">
        <ele>281</ele>
        <time>2016-03-07T11:15:00Z</time>
      </trkpt>
      <trkpt lat="48.22276" lon="-3.12006">
        <ele>282</ele>
        <time>2016-03-07T11:15:03Z</time>
      </trkpt>
      <trkpt lat="48.22276" lon="-3.12008">
        <ele>282</ele>
        <time>2016-03-07T11:15:05Z</time>
      </trkpt>
      <trkpt lat="48.22276" lon="-3.12011">
        <ele>282</ele>
        <time>2016-03-07T11:15:07Z</time>
      </trkpt>
      <trkpt lat="48.22276" lon="-3.12015">
        <ele>281</ele>
        <time>2016-03-07T11:15:10Z</time>
      </trkpt>
      <trkpt lat="48.22276" lon="-3.12018">
        <ele>281</ele>
        <time>2016-03-07T11:15:12Z</time>
      </trkpt>
      <trkpt lat="48.22277" lon="-3.12022">
        <ele>280</ele>
        <time>2016-03-07T11:15:15Z</time>
      </trkpt>
      <trkpt lat="48.22278" lon="-3.12025">
        <ele>280</ele>
        <time>2016-03-07T11:15:17Z</time>
      </trkpt>
      <trkpt lat="48.22279" lon="-3.12029">
        <ele>280</ele>
        <time>2016-03-07T11:15:20Z</time>
      </trkpt>
      <trkpt lat="48.22279" lon="-3.12034">
        <ele>281</ele>
        <time>2016-03-07T11:15:23Z</time>
      </trkpt>
      <trkpt lat="48.22279" lon="-3.12037">
        <ele>281</ele>
        <time>2016-03-07T11:15:25Z</time>
      </trkpt>
      <trkpt lat="48.22279" lon="-3.12042">
        <ele>281</ele>
        <time>2016-03-07T11:15:28Z</time>
      </trkpt>
      <trkpt lat="48.22278" lon="-3.12047">
        <ele>281</ele>
        <time>2016-03-07T11:15:31Z</time>
      </trkpt>
      <trkpt lat="48.22277" lon="-3.12051">
        <ele>281</ele>
        <time>2016-03-07T11:15:34Z</time>
      </trkpt>
      <trkpt lat="48.22276" lon="-3.12054">
        <ele>281</ele>
        <time>2016-03-07T11:15:36Z</time>
      </trkpt>
      <trkpt lat="48.22275" lon="-3.12057">
        <ele>280</ele>
        <time>2016-03-07T11:15:38Z</time>
      </trkpt>
      <trkpt lat="48.22274" lon="-3.12062">
        <ele>280</ele>
        <time>2016-03-07T11:15:41Z</time>
      </trkpt>
      <trkpt lat="48.22272" lon="-3.12066">
        <ele>280</ele>
        <time>2016-03-07T11:15:44Z</time>
      </trkpt>
      <trkpt lat="48.22271" lon="-3.1207">
        <ele>279</ele>
        <time>2016-03-07T11:15:47Z</time>
      </trkpt>
      <trkpt lat="48.2227" lon="-3.12075">
        <ele>279</ele>
        <time>2016-03-07T11:15:50Z</time>
      </trkpt>
      <trkpt lat="48.22269" lon="-3.12078">
        <ele>279</ele>
        <time>2016-03-07T11:15:52Z</time>
      </trkpt>
      <trkpt lat="48.22266" lon="-3.12082">
        <ele>279</ele>
        <time>2016-03-07T11:15:55Z</time>
      </trkpt>
      <trkpt lat="48.22265" lon="-3.12085">
        <ele>279</ele>
        <time>2016-03-07T11:15:57Z</time>
      </trkpt>
      <trkpt lat="48.22263" lon="-3.12087">
        <ele>279</ele>
        <time>2016-03-07T11:15:59Z</time>
      </trkpt>
      <trkpt lat="48.22262" lon="-3.1209">
        <ele>279</ele>
        <time>2016-03-07T11:16:01Z</time>
      </trkpt>
      <trkpt lat="48.22261" lon="-3.12092">
        <ele>279</ele>
        <time>2016-03-07T11:16:03Z</time>
      </trkpt>
      <trkpt lat="48.22259" lon="-3.12095">
        <ele>279</ele>
        <time>2016-03-07T11:16:05Z</time>
      </trkpt>
      <trkpt lat="48.22258" lon="-3.12097">
        <ele>279</ele>
        <time>2016-03-07T11:16:07Z</time>
      </trkpt>
      <trkpt lat="48.22255" lon="-3.12098">
        <ele>279</ele>
        <time>2016-03-07T11:16:10Z</time>
      </trkpt>
      <trkpt lat="48.22253" lon="-3.12099">
        <ele>279</ele>
        <time>2016-03-07T11:16:12Z</time>
      </trkpt>
      <trkpt lat="48.22251" lon="-3.121">
        <ele>278</ele>
        <time>2016-03-07T11:16:14Z</time>
      </trkpt>
      <trkpt lat="48.22249" lon="-3.12102">
        <ele>278</ele>
        <time>2016-03-07T11:16:16Z</time>
      </trkpt>
      <trkpt lat="48.22246" lon="-3.12104">
        <ele>277</ele>
        <time>2016-03-07T11:16:19Z</time>
      </trkpt>
      <trkpt lat="48.22243" lon="-3.12107">
        <ele>277</ele>
        <time>2016-03-07T11:16:22Z</time>
      </trkpt>
      <trkpt lat="48.22242" lon="-3.12108">
        <ele>276</ele>
        <time>2016-03-07T11:16:24Z</time>
      </trkpt>
      <trkpt lat="48.2224" lon="-3.12112">
        <ele>276</ele>
        <time>2016-03-07T11:16:27Z</time>
      </trkpt>
      <trkpt lat="48.22238" lon="-3.12114">
        <ele>275</ele>
        <time>2016-03-07T11:16:29Z</time>
      </trkpt>
      <trkpt lat="48.22235" lon="-3.12117">
        <ele>275</ele>
        <time>2016-03-07T11:16:32Z</time>
      </trkpt>
      <trkpt lat="48.22233" lon="-3.12118">
        <ele>275</ele>
        <time>2016-03-07T11:16:34Z</time>
      </trkpt>
      <trkpt lat="48.22231" lon="-3.12121">
        <ele>274</ele>
        <time>2016-03-07T11:16:37Z</time>
      </trkpt>
      <trkpt lat="48.22229" lon="-3.12124">
        <ele>274</ele>
        <time>2016-03-07T11:16:40Z</time>
      </trkpt>
      <trkpt lat="48.22229" lon="-3.12125">
        <ele>274</ele>
        <time>2016-03-07T11:16:42Z</time>
      </trkpt>
      <trkpt lat="48.22227" lon="-3.12127">
        <ele>273</ele>
        <time>2016-03-07T11:16:44Z</time>
      </trkpt>
      <trkpt lat="48.22226" lon="-3.1213">
        <ele>273</ele>
        <time>2016-03-07T11:16:47Z</time>
      </trkpt>
      <trkpt lat="48.22225" lon="-3.12132">
        <ele>273</ele>
        <time>2016-03-07T11:16:49Z</time>
      </trkpt>
      <trkpt lat="48.22223" lon="-3.12134">
        <ele>273</ele>
        <time>2016-03-07T11:16:51Z</time>
      </trkpt>
      <trkpt lat="48.22221" lon="-3.12136">
        <ele>273</ele>
        <time>2016-03-07T11:16:54Z</time>
      </trkpt>
      <trkpt lat="48.22221" lon="-3.12138">
        <ele>274</ele>
        <time>2016-03-07T11:16:56Z</time>
      </trkpt>
      <trkpt lat="48.2222" lon="-3.1214">
        <ele>274</ele>
        <time>2016-03-07T11:16:59Z</time>
      </trkpt>
      <trkpt lat="48.2222" lon="-3.12142">
        <ele>275</ele>
        <time>2016-03-07T11:17:01Z</time>
      </trkpt>
      <trkpt lat="48.22219" lon="-3.12143">
        <ele>275</ele>
        <time>2016-03-07T11:17:03Z</time>
      </trkpt>
      <trkpt lat="48.22218" lon="-3.12146">
        <ele>275</ele>
        <time>2016-03-07T11:17:06Z</time>
      </trkpt>
      <trkpt lat="48.22216" lon="-3.1215">
        <ele>275</ele>
        <time>2016-03-07T11:17:09Z</time>
      </trkpt>
      <trkpt lat="48.22215" lon="-3.12153">
        <ele>275</ele>
        <time>2016-03-07T11:17:12Z</time>
      </trkpt>
      <trkpt lat="48.22212" lon="-3.12156">
        <ele>276</ele>
        <time>2016-03-07T11:17:15Z</time>
      </trkpt>
      <trkpt lat="48.22211" lon="-3.12158">
        <ele>276</ele>
        <time>2016-03-07T11:17:17Z</time>
      </trkpt>
      <trkpt lat="48.22209" lon="-3.12162">
        <ele>276</ele>
        <time>2016-03-07T11:17:20Z</time>
      </trkpt>
      <trkpt lat="48.22208" lon="-3.12164">
        <ele>276</ele>
        <time>2016-03-07T11:17:22Z</time>
      </trkpt>
      <trkpt lat="48.22206" lon="-3.12168">
        <ele>276</ele>
        <time>2016-03-07T11:17:25Z</time>
      </trkpt>
      <trkpt lat="48.22204" lon="-3.1217">
        <ele>276</ele>
        <time>2016-03-07T11:17:27Z</time>
      </trkpt>
      <trkpt lat="48.22202" lon="-3.12172">
        <ele>276</ele>
        <time>2016-03-07T11:17:30Z</time>
      </trkpt>
      <trkpt lat="48.222" lon="-3.12176">
        <ele>276</ele>
        <time>2016-03-07T11:17:33Z</time>
      </trkpt>
      <trkpt lat="48.22198" lon="-3.12178">
        <ele>277</ele>
        <time>2016-03-07T11:17:35Z</time>
      </trkpt>
      <trkpt lat="48.22197" lon="-3.12181">
        <ele>277</ele>
        <time>2016-03-07T11:17:38Z</time>
      </trkpt>
      <trkpt lat="48.22195" lon="-3.12184">
        <ele>277</ele>
        <time>2016-03-07T11:17:40Z</time>
      </trkpt>
      <trkpt lat="48.22195" lon="-3.12186">
        <ele>277</ele>
        <time>2016-03-07T11:17:42Z</time>
      </trkpt>
      <trkpt lat="48.22194" lon="-3.12187">
        <ele>277</ele>
        <time>2016-03-07T11:17:44Z</time>
      </trkpt>
      <trkpt lat="48.22194" lon="-3.1219">
        <ele>278</ele>
        <time>2016-03-07T11:17:47Z</time>
      </trkpt>
      <trkpt lat="48.22193" lon="-3.12192">
        <ele>278</ele>
        <time>2016-03-07T11:17:49Z</time>
      </trkpt>
      <trkpt lat="48.22192" lon="-3.12194">
        <ele>278</ele>
        <time>2016-03-07T11:17:51Z</time>
      </trkpt>
      <trkpt lat="48.22192" lon="-3.12197">
        <ele>279</ele>
        <time>2016-03-07T11:17:53Z</time>
      </trkpt>
      <trkpt lat="48.2219" lon="-3.122">
        <ele>279</ele>
        <time>2016-03-07T11:17:55Z</time>
      </trkpt>
      <trkpt lat="48.2219" lon="-3.12204">
        <ele>280</ele>
        <time>2016-03-07T11:17:58Z</time>
      </trkpt>
      <trkpt lat="48.2219" lon="-3.12207">
        <ele>280</ele>
        <time>2016-03-07T11:18:00Z</time>
      </trkpt>
      <trkpt lat="48.22189" lon="-3.1221">
        <ele>281</ele>
        <time>2016-03-07T11:18:03Z</time>
      </trkpt>
      <trkpt lat="48.22187" lon="-3.12213">
        <ele>281</ele>
        <time>2016-03-07T11:18:06Z</time>
      </trkpt>
      <trkpt lat="48.22185" lon="-3.12215">
        <ele>281</ele>
        <time>2016-03-07T11:18:08Z</time>
      </trkpt>
      <trkpt lat="48.22184" lon="-3.12216">
        <ele>281</ele>
        <time>2016-03-07T11:18:10Z</time>
      </trkpt>
      <trkpt lat="48.22184" lon="-3.12216">
        <ele>281</ele>
        <time>2016-03-07T11:18:12Z</time>
      </trkpt>
      <trkpt lat="48.22182" lon="-3.12217">
        <ele>281</ele>
        <time>2016-03-07T11:18:14Z</time>
      </trkpt>
      <trkpt lat="48.2218" lon="-3.12219">
        <ele>281</ele>
        <time>2016-03-07T11:18:17Z</time>
      </trkpt>
      <trkpt lat="48.22179" lon="-3.12221">
        <ele>282</ele>
        <time>2016-03-07T11:18:20Z</time>
      </trkpt>
      <trkpt lat="48.22178" lon="-3.12223">
        <ele>282</ele>
        <time>2016-03-07T11:18:23Z</time>
      </trkpt>
      <trkpt lat="48.22175" lon="-3.12225">
        <ele>283</ele>
        <time>2016-03-07T11:18:26Z</time>
      </trkpt>
      <trkpt lat="48.22173" lon="-3.12227">
        <ele>283</ele>
        <time>2016-03-07T11:18:28Z</time>
      </trkpt>
      <trkpt lat="48.22171" lon="-3.1223">
        <ele>283</ele>
        <time>2016-03-07T11:18:31Z</time>
      </trkpt>
      <trkpt lat="48.22169" lon="-3.12232">
        <ele>284</ele>
        <time>2016-03-07T11:18:33Z</time>
      </trkpt>
      <trkpt lat="48.22168" lon="-3.12236">
        <ele>284</ele>
        <time>2016-03-07T11:18:36Z</time>
      </trkpt>
      <trkpt lat="48.22167" lon="-3.12238">
        <ele>283</ele>
        <time>2016-03-07T11:18:39Z</time>
      </trkpt>
      <trkpt lat="48.22167" lon="-3.12239">
        <ele>284</ele>
        <time>2016-03-07T11:18:41Z</time>
      </trkpt>
      <trkpt lat="48.22166" lon="-3.12242">
        <ele>284</ele>
        <time>2016-03-07T11:18:44Z</time>
      </trkpt>
      <trkpt lat="48.22165" lon="-3.12245">
        <ele>284</ele>
        <time>2016-03-07T11:18:47Z</time>
      </trkpt>
      <trkpt lat="48.22164" lon="-3.12245">
        <ele>284</ele>
        <time>2016-03-07T11:18:49Z</time>
      </trkpt>
      <trkpt lat="48.22163" lon="-3.12245">
        <ele>283</ele>
        <time>2016-03-07T11:18:51Z</time>
      </trkpt>
      <trkpt lat="48.22161" lon="-3.12246">
        <ele>283</ele>
        <time>2016-03-07T11:18:54Z</time>
      </trkpt>
      <trkpt lat="48.22159" lon="-3.12247">
        <ele>282</ele>
        <time>2016-03-07T11:18:57Z</time>
      </trkpt>
      <trkpt lat="48.22157" lon="-3.1225">
        <ele>282</ele>
        <time>2016-03-07T11:18:59Z</time>
      </trkpt>
      <trkpt lat="48.22154" lon="-3.12252">
        <ele>282</ele>
        <time>2016-03-07T11:19:02Z</time>
      </trkpt>
      <trkpt lat="48.22152" lon="-3.12255">
        <ele>281</ele>
        <time>2016-03-07T11:19:05Z</time>
      </trkpt>
      <trkpt lat="48.22151" lon="-3.12258">
        <ele>281</ele>
        <time>2016-03-07T11:19:07Z</time>
      </trkpt>
      <trkpt lat="48.2215" lon="-3.12261">
        <ele>281</ele>
        <time>2016-03-07T11:19:10Z</time>
      </trkpt>
      <trkpt lat="48.22149" lon="-3.12264">
        <ele>282</ele>
        <time>2016-03-07T11:19:13Z</time>
      </trkpt>
      <trkpt lat="48.22148" lon="-3.12267">
        <ele>282</ele>
        <time>2016-03-07T11:19:15Z</time>
      </trkpt>
      <trkpt lat="48.22147" lon="-3.1227">
        <ele>282</ele>
        <time>2016-03-07T11:19:18Z</time>
      </trkpt>
      <trkpt lat="48.22146" lon="-3.12273">
        <ele>282</ele>
        <time>2016-03-07T11:19:21Z</time>
      </trkpt>
      <trkpt lat="48.22145" lon="-3.12275">
        <ele>282</ele>
        <time>2016-03-07T11:19:23Z</time>
      </trkpt>
      <trkpt lat="48.22144" lon="-3.12279">
        <ele>283</ele>
        <time>2016-03-07T11:19:26Z</time>
      </trkpt>
      <trkpt lat="48.22144" lon="-3.12281">
        <ele>284</ele>
        <time>2016-03-07T11:19:28Z</time>
      </trkpt>
      <trkpt lat="48.22142" lon="-3.12285">
        <ele>284</ele>
        <time>2016-03-07T11:19:31Z</time>
      </trkpt>
      <trkpt lat="48.22141" lon="-3.12287">
        <ele>284</ele>
        <time>2016-03-07T11:19:33Z</time>
      </trkpt>
      <trkpt lat="48.22141" lon="-3.12289">
        <ele>285</ele>
        <time>2016-03-07T11:19:35Z</time>
      </trkpt>
      <trkpt lat="48.2214" lon="-3.12292">
        <ele>285</ele>
        <time>2016-03-07T11:19:38Z</time>
      </trkpt>
      <trkpt lat="48.22139" lon="-3.12294">
        <ele>286</ele>
        <time>2016-03-07T11:19:40Z</time>
      </trkpt>
      <trkpt lat="48.22139" lon="-3.12295">
        <ele>286</ele>
        <time>2016-03-07T11:19:42Z</time>
      </trkpt>
      <trkpt lat="48.22139" lon="-3.12297">
        <ele>286</ele>
        <time>2016-03-07T11:19:45Z</time>
      </trkpt>
      <trkpt lat="48.22139" lon="-3.12299">
        <ele>287</ele>
        <time>2016-03-07T11:19:48Z</time>
      </trkpt>
      <trkpt lat="48.22139" lon="-3.12301">
        <ele>287</ele>
        <time>2016-03-07T11:19:50Z</time>
      </trkpt>
      <trkpt lat="48.22138" lon="-3.12303">
        <ele>286</ele>
        <time>2016-03-07T11:19:52Z</time>
      </trkpt>
      <trkpt lat="48.22137" lon="-3.12306">
        <ele>286</ele>
        <time>2016-03-07T11:19:55Z</time>
      </trkpt>
      <trkpt lat="48.22135" lon="-3.12308">
        <ele>285</ele>
        <time>2016-03-07T11:19:57Z</time>
      </trkpt>
      <trkpt lat="48.22133" lon="-3.12311">
        <ele>285</ele>
        <time>2016-03-07T11:20:00Z</time>
      </trkpt>
      <trkpt lat="48.22131" lon="-3.12313">
        <ele>284</ele>
        <time>2016-03-07T11:20:02Z</time>
      </trkpt>
      <trkpt lat="48.2213" lon="-3.12314">
        <ele>285</ele>
        <time>2016-03-07T11:20:04Z</time>
      </trkpt>
      <trkpt lat="48.22127" lon="-3.12315">
        <ele>285</ele>
        <time>2016-03-07T11:20:07Z</time>
      </trkpt>
      <trkpt lat="48.22126" lon="-3.12316">
        <ele>285</ele>
        <time>2016-03-07T11:20:10Z</time>
      </trkpt>
      <trkpt lat="48.22124" lon="-3.12317">
        <ele>285</ele>
        <time>2016-03-07T11:20:12Z</time>
      </trkpt>
      <trkpt lat="48.22123" lon="-3.12318">
        <ele>286</ele>
        <time>2016-03-07T11:20:14Z</time>
      </trkpt>
      <trkpt lat="48.22121" lon="-3.12319">
        <ele>286</ele>
        <time>2016-03-07T11:20:16Z</time>
      </trkpt>
      <trkpt lat="48.2212" lon="-3.1232">
        <ele>286</ele>
        <time>2016-03-07T11:20:18Z</time>
      </trkpt>
      <trkpt lat="48.22119" lon="-3.12321">
        <ele>286</ele>
        <time>2016-03-07T11:20:21Z</time>
      </trkpt>
      <trkpt lat="48.22118" lon="-3.12322">
        <ele>286</ele>
        <time>2016-03-07T11:20:23Z</time>
      </trkpt>
      <trkpt lat="48.22117" lon="-3.12325">
        <ele>286</ele>
        <time>2016-03-07T11:20:26Z</time>
      </trkpt>
      <trkpt lat="48.22116" lon="-3.12327">
        <ele>287</ele>
        <time>2016-03-07T11:20:29Z</time>
      </trkpt>
      <trkpt lat="48.22115" lon="-3.12329">
        <ele>287</ele>
        <time>2016-03-07T11:20:31Z</time>
      </trkpt>
      <trkpt lat="48.22114" lon="-3.1233">
        <ele>288</ele>
        <time>2016-03-07T11:20:33Z</time>
      </trkpt>
      <trkpt lat="48.22111" lon="-3.12333">
        <ele>288</ele>
        <time>2016-03-07T11:20:36Z</time>
      </trkpt>
      <trkpt lat="48.22109" lon="-3.12337">
        <ele>288</ele>
        <time>2016-03-07T11:20:39Z</time>
      </trkpt>
      <trkpt lat="48.22107" lon="-3.12342">
        <ele>288</ele>
        <time>2016-03-07T11:20:42Z</time>
      </trkpt>
      <trkpt lat="48.22107" lon="-3.12346">
        <ele>288</ele>
        <time>2016-03-07T11:20:45Z</time>
      </trkpt>
      <trkpt lat="48.22107" lon="-3.12348">
        <ele>288</ele>
        <time>2016-03-07T11:20:47Z</time>
      </trkpt>
      <trkpt lat="48.22107" lon="-3.12351">
        <ele>288</ele>
        <time>2016-03-07T11:20:50Z</time>
      </trkpt>
      <trkpt lat="48.22106" lon="-3.12354">
        <ele>288</ele>
        <time>2016-03-07T11:20:53Z</time>
      </trkpt>
      <trkpt lat="48.22106" lon="-3.12358">
        <ele>288</ele>
        <time>2016-03-07T11:20:56Z</time>
      </trkpt>
      <trkpt lat="48.22105" lon="-3.12359">
        <ele>288</ele>
        <time>2016-03-07T11:20:58Z</time>
      </trkpt>
      <trkpt lat="48.22105" lon="-3.12361">
        <ele>287</ele>
        <time>2016-03-07T11:21:00Z</time>
      </trkpt>
      <trkpt lat="48.22103" lon="-3.12363">
        <ele>287</ele>
        <time>2016-03-07T11:21:03Z</time>
      </trkpt>
      <trkpt lat="48.22102" lon="-3.12365">
        <ele>287</ele>
        <time>2016-03-07T11:21:05Z</time>
      </trkpt>
      <trkpt lat="48.22101" lon="-3.12366">
        <ele>287</ele>
        <time>2016-03-07T11:21:08Z</time>
      </trkpt>
      <trkpt lat="48.221" lon="-3.12366">
        <ele>287</ele>
        <time>2016-03-07T11:21:10Z</time>
      </trkpt>
      <trkpt lat="48.22099" lon="-3.12367">
        <ele>287</ele>
        <time>2016-03-07T11:21:12Z</time>
      </trkpt>
      <trkpt lat="48.22097" lon="-3.12367">
        <ele>287</ele>
        <time>2016-03-07T11:21:15Z</time>
      </trkpt>
      <trkpt lat="48.22094" lon="-3.12367">
        <ele>287</ele>
        <time>2016-03-07T11:21:18Z</time>
      </trkpt>
      <trkpt lat="48.22093" lon="-3.12367">
        <ele>287</ele>
        <time>2016-03-07T11:21:20Z</time>
      </trkpt>
      <trkpt lat="48.22091" lon="-3.12368">
        <ele>287</ele>
        <time>2016-03-07T11:21:23Z</time>
      </trkpt>
      <trkpt lat="48.22089" lon="-3.12369">
        <ele>287</ele>
        <time>2016-03-07T11:21:26Z</time>
      </trkpt>
      <trkpt lat="48.22086" lon="-3.12371">
        <ele>287</ele>
        <time>2016-03-07T11:21:29Z</time>
      </trkpt>
      <trkpt lat="48.22086" lon="-3.12373">
        <ele>287</ele>
        <time>2016-03-07T11:21:32Z</time>
      </trkpt>
      <trkpt lat="48.22085" lon="-3.12375">
        <ele>287</ele>
        <time>2016-03-07T11:21:35Z</time>
      </trkpt>
      <trkpt lat="48.22084" lon="-3.12375">
        <ele>288</ele>
        <time>2016-03-07T11:21:38Z</time>
      </trkpt>
      <trkpt lat="48.22083" lon="-3.12376">
        <ele>288</ele>
        <time>2016-03-07T11:21:41Z</time>
      </trkpt>
      <trkpt lat="48.2208" lon="-3.12377">
        <ele>287</ele>
        <time>2016-03-07T11:21:44Z</time>
      </trkpt>
      <trkpt lat="48.22079" lon="-3.12377">
        <ele>287</ele>
        <time>2016-03-07T11:21:47Z</time>
      </trkpt>
      <trkpt lat="48.22077" lon="-3.12378">
        <ele>288</ele>
        <time>2016-03-07T11:21:50Z</time>
      </trkpt>
      <trkpt lat="48.22075" lon="-3.12378">
        <ele>288</ele>
        <time>2016-03-07T11:21:52Z</time>
      </trkpt>
      <trkpt lat="48.22073" lon="-3.12379">
        <ele>288</ele>
        <time>2016-03-07T11:21:54Z</time>
      </trkpt>
      <trkpt lat="48.22071" lon="-3.12379">
        <ele>289</ele>
        <time>2016-03-07T11:21:56Z</time>
      </trkpt>
      <trkpt lat="48.22069" lon="-3.12379">
        <ele>289</ele>
        <time>2016-03-07T11:21:58Z</time>
      </trkpt>
      <trkpt lat="48.22068" lon="-3.12379">
        <ele>289</ele>
        <time>2016-03-07T11:22:00Z</time>
      </trkpt>
      <trkpt lat="48.22066" lon="-3.1238">
        <ele>289</ele>
        <time>2016-03-07T11:22:03Z</time>
      </trkpt>
      <trkpt lat="48.22065" lon="-3.12382">
        <ele>289</ele>
        <time>2016-03-07T11:22:06Z</time>
      </trkpt>
      <trkpt lat="48.22063" lon="-3.12384">
        <ele>289</ele>
        <time>2016-03-07T11:22:09Z</time>
      </trkpt>
      <trkpt lat="48.22062" lon="-3.12384">
        <ele>290</ele>
        <time>2016-03-07T11:22:12Z</time>
      </trkpt>
      <trkpt lat="48.22061" lon="-3.12386">
        <ele>291</ele>
        <time>2016-03-07T11:22:14Z</time>
      </trkpt>
      <trkpt lat="48.2206" lon="-3.12387">
        <ele>291</ele>
        <time>2016-03-07T11:22:17Z</time>
      </trkpt>
      <trkpt lat="48.2206" lon="-3.12388">
        <ele>292</ele>
        <time>2016-03-07T11:22:19Z</time>
      </trkpt>
      <trkpt lat="48.22059" lon="-3.12389">
        <ele>292</ele>
        <time>2016-03-07T11:22:22Z</time>
      </trkpt>
      <trkpt lat="48.22059" lon="-3.12389">
        <ele>293</ele>
        <time>2016-03-07T11:22:25Z</time>
      </trkpt>
      <trkpt lat="48.22058" lon="-3.12392">
        <ele>294</ele>
        <time>2016-03-07T11:22:28Z</time>
      </trkpt>
      <trkpt lat="48.22057" lon="-3.12392">
        <ele>294</ele>
        <time>2016-03-07T11:22:30Z</time>
      </trkpt>
      <trkpt lat="48.22057" lon="-3.12394">
        <ele>295</ele>
        <time>2016-03-07T11:22:33Z</time>
      </trkpt>
      <trkpt lat="48.22056" lon="-3.12396">
        <ele>296</ele>
        <time>2016-03-07T11:22:35Z</time>
      </trkpt>
      <trkpt lat="48.22056" lon="-3.12398">
        <ele>296</ele>
        <time>2016-03-07T11:22:37Z</time>
      </trkpt>
      <trkpt lat="48.22056" lon="-3.12399">
        <ele>296</ele>
        <time>2016-03-07T11:22:39Z</time>
      </trkpt>
      <trkpt lat="48.22055" lon="-3.12401">
        <ele>296</ele>
        <time>2016-03-07T11:22:42Z</time>
      </trkpt>
      <trkpt lat="48.22054" lon="-3.12402">
        <ele>296</ele>
        <time>2016-03-07T11:22:44Z</time>
      </trkpt>
      <trkpt lat="48.22052" lon="-3.12403">
        <ele>297</ele>
        <time>2016-03-07T11:22:47Z</time>
      </trkpt>
      <trkpt lat="48.22051" lon="-3.12403">
        <ele>297</ele>
        <time>2016-03-07T11:22:49Z</time>
      </trkpt>
      <trkpt lat="48.2205" lon="-3.12403">
        <ele>297</ele>
        <time>2016-03-07T11:22:51Z</time>
      </trkpt>
      <trkpt lat="48.22049" lon="-3.12405">
        <ele>298</ele>
        <time>2016-03-07T11:22:54Z</time>
      </trkpt>
      <trkpt lat="48.22048" lon="-3.12406">
        <ele>298</ele>
        <time>2016-03-07T11:22:57Z</time>
      </trkpt>
      <trkpt lat="48.22047" lon="-3.12407">
        <ele>298</ele>
        <time>2016-03-07T11:23:00Z</time>
      </trkpt>
      <trkpt lat="48.22047" lon="-3.12408">
        <ele>298</ele>
        <time>2016-03-07T11:23:02Z</time>
      </trkpt>
      <trkpt lat="48.22046" lon="-3.12409">
        <ele>299</ele>
        <time>2016-03-07T11:23:05Z</time>
      </trkpt>
      <trkpt lat="48.22045" lon="-3.12411">
        <ele>299</ele>
        <time>2016-03-07T11:23:07Z</time>
      </trkpt>
      <trkpt lat="48.22045" lon="-3.12412">
        <ele>299</ele>
        <time>2016-03-07T11:23:09Z</time>
      </trkpt>
      <trkpt lat="48.22044" lon="-3.12414">
        <ele>299</ele>
        <time>2016-03-07T11:23:12Z</time>
      </trkpt>
      <trkpt lat="48.22043" lon="-3.12415">
        <ele>300</ele>
        <time>2016-03-07T11:23:15Z</time>
      </trkpt>
      <trkpt lat="48.22043" lon="-3.12417">
        <ele>300</ele>
        <time>2016-03-07T11:23:17Z</time>
      </trkpt>
      <trkpt lat="48.22042" lon="-3.12417">
        <ele>301</ele>
        <time>2016-03-07T11:23:20Z</time>
      </trkpt>
      <trkpt lat="48.22041" lon="-3.12417">
        <ele>301</ele>
        <time>2016-03-07T11:23:22Z</time>
      </trkpt>
      <trkpt lat="48.22041" lon="-3.12419">
        <ele>302</ele>
        <time>2016-03-07T11:23:25Z</time>
      </trkpt>
      <trkpt lat="48.2204" lon="-3.1242">
        <ele>302</ele>
        <time>2016-03-07T11:23:28Z</time>
      </trkpt>
      <trkpt lat="48.22039" lon="-3.12421">
        <ele>303</ele>
        <time>2016-03-07T11:23:31Z</time>
      </trkpt>
      <trkpt lat="48.22038" lon="-3.12421">
        <ele>303</ele>
        <time>2016-03-07T11:23:34Z</time>
      </trkpt>
      <trkpt lat="48.22036" lon="-3.12421">
        <ele>303</ele>
        <time>2016-03-07T11:23:37Z</time>
      </trkpt>
      <trkpt lat="48.22036" lon="-3.12422">
        <ele>304</ele>
        <time>2016-03-07T11:23:39Z</time>
      </trkpt>
      <trkpt lat="48.22035" lon="-3.12423">
        <ele>304</ele>
        <time>2016-03-07T11:23:42Z</time>
      </trkpt>
      <trkpt lat="48.22034" lon="-3.12423">
        <ele>304</ele>
        <time>2016-03-07T11:23:44Z</time>
      </trkpt>
      <trkpt lat="48.22034" lon="-3.12424">
        <ele>304</ele>
        <time>2016-03-07T11:23:47Z</time>
      </trkpt>
      <trkpt lat="48.22033" lon="-3.12424">
        <ele>305</ele>
        <time>2016-03-07T11:23:50Z</time>
      </trkpt>
      <trkpt lat="48.22033" lon="-3.12424">
        <ele>305</ele>
        <time>2016-03-07T11:23:52Z</time>
      </trkpt>
      <trkpt lat="48.22032" lon="-3.12424">
        <ele>305</ele>
        <time>2016-03-07T11:23:55Z</time>
      </trkpt>
      <trkpt lat="48.22032" lon="-3.12424">
        <ele>305</ele>
        <time>2016-03-07T11:23:57Z</time>
      </trkpt>
      <trkpt lat="48.22032" lon="-3.12425">
        <ele>306</ele>
        <time>2016-03-07T11:23:59Z</time>
      </trkpt>
      <trkpt lat="48.22032" lon="-3.12426">
        <ele>306</ele>
        <time>2016-03-07T11:24:01Z</time>
      </trkpt>
      <trkpt lat="48.22032" lon="-3.12428">
        <ele>307</ele>
        <time>2016-03-07T11:24:04Z</time>
      </trkpt>
      <trkpt lat="48.22031" lon="-3.1243">
        <ele>307</ele>
        <time>2016-03-07T11:24:06Z</time>
      </trkpt>
      <trkpt lat="48.2203" lon="-3.12432">
        <ele>309</ele>
        <time>2016-03-07T11:24:09Z</time>
      </trkpt>
      <trkpt lat="48.22029" lon="-3.12433">
        <ele>309</ele>
        <time>2016-03-07T11:24:11Z</time>
      </trkpt>
      <trkpt lat="48.22028" lon="-3.12435">
        <ele>310</ele>
        <time>2016-03-07T11:24:13Z</time>
      </trkpt>
      <trkpt lat="48.22027" lon="-3.12438">
        <ele>311</ele>
        <time>2016-03-07T11:24:16Z</time>
      </trkpt>
      <trkpt lat="48.22028" lon="-3.12439">
        <ele>312</ele>
        <time>2016-03-07T11:24:18Z</time>
      </trkpt>
      <trkpt lat="48.22029" lon="-3.1244">
        <ele>312</ele>
        <time>2016-03-07T11:24:21Z</time>
      </trkpt>
      <trkpt lat="48.22029" lon="-3.1244">
        <ele>312</ele>
        <time>2016-03-07T11:24:23Z</time>
      </trkpt>
      <trkpt lat="48.22026" lon="-3.12441">
        <ele>312</ele>
        <time>2016-03-07T11:24:25Z</time>
      </trkpt>
      <trkpt lat="48.22025" lon="-3.12442">
        <ele>312</ele>
        <time>2016-03-07T11:24:27Z</time>
      </trkpt>
      <trkpt lat="48.22023" lon="-3.12444">
        <ele>313</ele>
        <time>2016-03-07T11:24:30Z</time>
      </trkpt>
      <trkpt lat="48.22023" lon="-3.12445">
        <ele>314</ele>
        <time>2016-03-07T11:24:32Z</time>
      </trkpt>
      <trkpt lat="48.22023" lon="-3.12446">
        <ele>314</ele>
        <time>2016-03-07T11:24:35Z</time>
      </trkpt>
      <trkpt lat="48.22023" lon="-3.12446">
        <ele>314</ele>
        <time>2016-03-07T11:24:38Z</time>
      </trkpt>
      <trkpt lat="48.22023" lon="-3.12446">
        <ele>314</ele>
        <time>2016-03-07T11:24:41Z</time>
      </trkpt>
      <trkpt lat="48.22022" lon="-3.12447">
        <ele>313</ele>
        <time>2016-03-07T11:24:45Z</time>
      </trkpt>
      <trkpt lat="48.22023" lon="-3.12448">
        <ele>313</ele>
        <time>2016-03-07T11:24:48Z</time>
      </trkpt>
      <trkpt lat="48.22023" lon="-3.12448">
        <ele>313</ele>
        <time>2016-03-07T11:24:51Z</time>
      </trkpt>
      <trkpt lat="48.22023" lon="-3.12449">
        <ele>313</ele>
        <time>2016-03-07T11:24:53Z</time>
      </trkpt>
      <trkpt lat="48.22023" lon="-3.1245">
        <ele>313</ele>
        <time>2016-03-07T11:24:56Z</time>
      </trkpt>
      <trkpt lat="48.22023" lon="-3.1245">
        <ele>313</ele>
        <time>2016-03-07T11:24:59Z</time>
      </trkpt>
      <trkpt lat="48.22023" lon="-3.1245">
        <ele>314</ele>
        <time>2016-03-07T11:25:02Z</time>
      </trkpt>
      <trkpt lat="48.22022" lon="-3.12451">
        <ele>313</ele>
        <time>2016-03-07T11:25:05Z</time>
      </trkpt>
      <trkpt lat="48.22021" lon="-3.12454">
        <ele>313</ele>
        <time>2016-03-07T11:25:08Z</time>
      </trkpt>
      <trkpt lat="48.2202" lon="-3.12455">
        <ele>313</ele>
        <time>2016-03-07T11:25:10Z</time>
      </trkpt>
      <trkpt lat="48.2202" lon="-3.12456">
        <ele>313</ele>
        <time>2016-03-07T11:25:13Z</time>
      </trkpt>
      <trkpt lat="48.22019" lon="-3.12456">
        <ele>313</ele>
        <time>2016-03-07T11:25:16Z</time>
      </trkpt>
      <trkpt lat="48.22018" lon="-3.12458">
        <ele>313</ele>
        <time>2016-03-07T11:25:18Z</time>
      </trkpt>
      <trkpt lat="48.22016" lon="-3.1246">
        <ele>312</ele>
        <time>2016-03-07T11:25:21Z</time>
      </trkpt>
      <trkpt lat="48.22014" lon="-3.12464">
        <ele>311</ele>
        <time>2016-03-07T11:25:24Z</time>
      </trkpt>
      <trkpt lat="48.22012" lon="-3.12468">
        <ele>311</ele>
        <time>2016-03-07T11:25:27Z</time>
      </trkpt>
      <trkpt lat="48.2201" lon="-3.12468">
        <ele>310</ele>
        <time>2016-03-07T11:25:29Z</time>
      </trkpt>
      <trkpt lat="48.22008" lon="-3.12469">
        <ele>310</ele>
        <time>2016-03-07T11:25:32Z</time>
      </trkpt>
      <trkpt lat="48.22006" lon="-3.12471">
        <ele>309</ele>
        <time>2016-03-07T11:25:34Z</time>
      </trkpt>
      <trkpt lat="48.22004" lon="-3.12471">
        <ele>308</ele>
        <time>2016-03-07T11:25:36Z</time>
      </trkpt>
      <trkpt lat="48.22004" lon="-3.12472">
        <ele>308</ele>
        <time>2016-03-07T11:25:38Z</time>
      </trkpt>
      <trkpt lat="48.22002" lon="-3.12472">
        <ele>308</ele>
        <time>2016-03-07T11:25:40Z</time>
      </trkpt>
      <trkpt lat="48.22" lon="-3.12473">
        <ele>308</ele>
        <time>2016-03-07T11:25:42Z</time>
      </trkpt>
      <trkpt lat="48.21998" lon="-3.12474">
        <ele>308</ele>
        <time>2016-03-07T11:25:45Z</time>
      </trkpt>
      <trkpt lat="48.21996" lon="-3.12474">
        <ele>308</ele>
        <time>2016-03-07T11:25:48Z</time>
      </trkpt>
      <trkpt lat="48.21993" lon="-3.12475">
        <ele>308</ele>
        <time>2016-03-07T11:25:50Z</time>
      </trkpt>
      <trkpt lat="48.21991" lon="-3.12476">
        <ele>309</ele>
        <time>2016-03-07T11:25:53Z</time>
      </trkpt>
      <trkpt lat="48.21989" lon="-3.12476">
        <ele>309</ele>
        <time>2016-03-07T11:25:55Z</time>
      </trkpt>
      <trkpt lat="48.21986" lon="-3.12476">
        <ele>309</ele>
        <time>2016-03-07T11:25:57Z</time>
      </trkpt>
      <trkpt lat="48.21984" lon="-3.12475">
        <ele>310</ele>
        <time>2016-03-07T11:25:59Z</time>
      </trkpt>
      <trkpt lat="48.21983" lon="-3.12475">
        <ele>310</ele>
        <time>2016-03-07T11:26:02Z</time>
      </trkpt>
      <trkpt lat="48.21982" lon="-3.12475">
        <ele>309</ele>
        <time>2016-03-07T11:26:05Z</time>
      </trkpt>
      <trkpt lat="48.21979" lon="-3.12475">
        <ele>309</ele>
        <time>2016-03-07T11:26:08Z</time>
      </trkpt>
      <trkpt lat="48.21979" lon="-3.12476">
        <ele>309</ele>
        <time>2016-03-07T11:26:12Z</time>
      </trkpt>
      <trkpt lat="48.21979" lon="-3.12477">
        <ele>308</ele>
        <time>2016-03-07T11:26:15Z</time>
      </trkpt>
      <trkpt lat="48.21978" lon="-3.12477">
        <ele>308</ele>
        <time>2016-03-07T11:26:17Z</time>
      </trkpt>
      <trkpt lat="48.21978" lon="-3.12478">
        <ele>308</ele>
        <time>2016-03-07T11:26:19Z</time>
      </trkpt>
      <trkpt lat="48.21978" lon="-3.12479">
        <ele>308</ele>
        <time>2016-03-07T11:26:22Z</time>
      </trkpt>
      <trkpt lat="48.21978" lon="-3.12481">
        <ele>309</ele>
        <time>2016-03-07T11:26:25Z</time>
      </trkpt>
      <trkpt lat="48.21978" lon="-3.12481">
        <ele>309</ele>
        <time>2016-03-07T11:26:27Z</time>
      </trkpt>
      <trkpt lat="48.21977" lon="-3.12483">
        <ele>309</ele>
        <time>2016-03-07T11:26:29Z</time>
      </trkpt>
      <trkpt lat="48.21977" lon="-3.12484">
        <ele>309</ele>
        <time>2016-03-07T11:26:31Z</time>
      </trkpt>
      <trkpt lat="48.21976" lon="-3.12484">
        <ele>309</ele>
        <time>2016-03-07T11:26:33Z</time>
      </trkpt>
      <trkpt lat="48.21978" lon="-3.12485">
        <ele>309</ele>
        <time>2016-03-07T11:26:36Z</time>
      </trkpt>
      <trkpt lat="48.21979" lon="-3.12485">
        <ele>309</ele>
        <time>2016-03-07T11:26:38Z</time>
      </trkpt>
      <trkpt lat="48.21981" lon="-3.12484">
        <ele>310</ele>
        <time>2016-03-07T11:26:40Z</time>
      </trkpt>
      <trkpt lat="48.21981" lon="-3.12484">
        <ele>310</ele>
        <time>2016-03-07T11:26:43Z</time>
      </trkpt>
      <trkpt lat="48.21981" lon="-3.12484">
        <ele>310</ele>
        <time>2016-03-07T11:26:45Z</time>
      </trkpt>
      <trkpt lat="48.21982" lon="-3.12484">
        <ele>310</ele>
        <time>2016-03-07T11:26:47Z</time>
      </trkpt>
      <trkpt lat="48.21983" lon="-3.12484">
        <ele>309</ele>
        <time>2016-03-07T11:26:50Z</time>
      </trkpt>
      <trkpt lat="48.21983" lon="-3.12484">
        <ele>309</ele>
        <time>2016-03-07T11:26:52Z</time>
      </trkpt>
      <trkpt lat="48.21985" lon="-3.12484">
        <ele>309</ele>
        <time>2016-03-07T11:26:55Z</time>
      </trkpt>
      <trkpt lat="48.21986" lon="-3.12484">
        <ele>309</ele>
        <time>2016-03-07T11:26:57Z</time>
      </trkpt>
      <trkpt lat="48.21986" lon="-3.12483">
        <ele>309</ele>
        <time>2016-03-07T11:27:00Z</time>
      </trkpt>
      <trkpt lat="48.21987" lon="-3.12484">
        <ele>310</ele>
        <time>2016-03-07T11:27:03Z</time>
      </trkpt>
      <trkpt lat="48.21987" lon="-3.12483">
        <ele>310</ele>
        <time>2016-03-07T11:27:06Z</time>
      </trkpt>
      <trkpt lat="48.21988" lon="-3.12483">
        <ele>309</ele>
        <time>2016-03-07T11:27:10Z</time>
      </trkpt>
      <trkpt lat="48.21987" lon="-3.12483">
        <ele>309</ele>
        <time>2016-03-07T11:27:12Z</time>
      </trkpt>
      <trkpt lat="48.21985" lon="-3.12483">
        <ele>309</ele>
        <time>2016-03-07T11:27:15Z</time>
      </trkpt>
      <trkpt lat="48.21982" lon="-3.12483">
        <ele>309</ele>
        <time>2016-03-07T11:27:18Z</time>
      </trkpt>
      <trkpt lat="48.21978" lon="-3.12483">
        <ele>309</ele>
        <time>2016-03-07T11:27:21Z</time>
      </trkpt>
      <trkpt lat="48.21976" lon="-3.12483">
        <ele>309</ele>
        <time>2016-03-07T11:27:23Z</time>
      </trkpt>
      <trkpt lat="48.21974" lon="-3.12482">
        <ele>310</ele>
        <time>2016-03-07T11:27:25Z</time>
      </trkpt>
      <trkpt lat="48.21972" lon="-3.12482">
        <ele>310</ele>
        <time>2016-03-07T11:27:27Z</time>
      </trkpt>
      <trkpt lat="48.21971" lon="-3.12481">
        <ele>311</ele>
        <time>2016-03-07T11:27:29Z</time>
      </trkpt>
      <trkpt lat="48.21969" lon="-3.1248">
        <ele>311</ele>
        <time>2016-03-07T11:27:32Z</time>
      </trkpt>
      <trkpt lat="48.21966" lon="-3.12479">
        <ele>311</ele>
        <time>2016-03-07T11:27:35Z</time>
      </trkpt>
      <trkpt lat="48.21964" lon="-3.12478">
        <ele>311</ele>
        <time>2016-03-07T11:27:38Z</time>
      </trkpt>
      <trkpt lat="48.21961" lon="-3.12477">
        <ele>312</ele>
        <time>2016-03-07T11:27:41Z</time>
      </trkpt>
      <trkpt lat="48.21959" lon="-3.12475">
        <ele>312</ele>
        <time>2016-03-07T11:27:43Z</time>
      </trkpt>
      <trkpt lat="48.21956" lon="-3.12474">
        <ele>311</ele>
        <time>2016-03-07T11:27:46Z</time>
      </trkpt>
      <trkpt lat="48.21952" lon="-3.12472">
        <ele>311</ele>
        <time>2016-03-07T11:27:49Z</time>
      </trkpt>
      <trkpt lat="48.21949" lon="-3.12471">
        <ele>310</ele>
        <time>2016-03-07T11:27:52Z</time>
      </trkpt>
      <trkpt lat="48.21948" lon="-3.12471">
        <ele>310</ele>
        <time>2016-03-07T11:27:54Z</time>
      </trkpt>
      <trkpt lat="48.21945" lon="-3.12471">
        <ele>311</ele>
        <time>2016-03-07T11:27:57Z</time>
      </trkpt>
      <trkpt lat="48.21941" lon="-3.12469">
        <ele>312</ele>
        <time>2016-03-07T11:28:00Z</time>
      </trkpt>
      <trkpt lat="48.21939" lon="-3.12467">
        <ele>312</ele>
        <time>2016-03-07T11:28:03Z</time>
      </trkpt>
      <trkpt lat="48.21937" lon="-3.12466">
        <ele>312</ele>
        <time>2016-03-07T11:28:05Z</time>
      </trkpt>
      <trkpt lat="48.21934" lon="-3.12466">
        <ele>312</ele>
        <time>2016-03-07T11:28:08Z</time>
      </trkpt>
      <trkpt lat="48.21932" lon="-3.12465">
        <ele>311</ele>
        <time>2016-03-07T11:28:10Z</time>
      </trkpt>
      <trkpt lat="48.2193" lon="-3.12464">
        <ele>311</ele>
        <time>2016-03-07T11:28:12Z</time>
      </trkpt>
      <trkpt lat="48.21928" lon="-3.12463">
        <ele>311</ele>
        <time>2016-03-07T11:28:14Z</time>
      </trkpt>
      <trkpt lat="48.21926" lon="-3.12463">
        <ele>310</ele>
        <time>2016-03-07T11:28:16Z</time>
      </trkpt>
      <trkpt lat="48.21923" lon="-3.12462">
        <ele>309</ele>
        <time>2016-03-07T11:28:19Z</time>
      </trkpt>
      <trkpt lat="48.2192" lon="-3.12461">
        <ele>309</ele>
        <time>2016-03-07T11:28:21Z</time>
      </trkpt>
      <trkpt lat="48.21918" lon="-3.1246">
        <ele>308</ele>
        <time>2016-03-07T11:28:23Z</time>
      </trkpt>
      <trkpt lat="48.21914" lon="-3.12459">
        <ele>307</ele>
        <time>2016-03-07T11:28:26Z</time>
      </trkpt>
      <trkpt lat="48.21912" lon="-3.12457">
        <ele>306</ele>
        <time>2016-03-07T11:28:29Z</time>
      </trkpt>
      <trkpt lat="48.2191" lon="-3.12456">
        <ele>305</ele>
        <time>2016-03-07T11:28:31Z</time>
      </trkpt>
      <trkpt lat="48.21909" lon="-3.12456">
        <ele>305</ele>
        <time>2016-03-07T11:28:33Z</time>
      </trkpt>
      <trkpt lat="48.21907" lon="-3.12454">
        <ele>304</ele>
        <time>2016-03-07T11:28:36Z</time>
      </trkpt>
      <trkpt lat="48.21905" lon="-3.12454">
        <ele>303</ele>
        <time>2016-03-07T11:28:39Z</time>
      </trkpt>
      <trkpt lat="48.21904" lon="-3.12454">
        <ele>303</ele>
        <time>2016-03-07T11:28:41Z</time>
      </trkpt>
      <trkpt lat="48.21904" lon="-3.12454">
        <ele>303</ele>
        <time>2016-03-07T11:28:44Z</time>
      </trkpt>
      <trkpt lat="48.21903" lon="-3.12454">
        <ele>303</ele>
        <time>2016-03-07T11:28:46Z</time>
      </trkpt>
      <trkpt lat="48.21902" lon="-3.12455">
        <ele>303</ele>
        <time>2016-03-07T11:28:49Z</time>
      </trkpt>
      <trkpt lat="48.219" lon="-3.12457">
        <ele>303</ele>
        <time>2016-03-07T11:28:51Z</time>
      </trkpt>
      <trkpt lat="48.21898" lon="-3.1246">
        <ele>303</ele>
        <time>2016-03-07T11:28:54Z</time>
      </trkpt>
      <trkpt lat="48.21897" lon="-3.12462">
        <ele>303</ele>
        <time>2016-03-07T11:28:56Z</time>
      </trkpt>
      <trkpt lat="48.21894" lon="-3.12465">
        <ele>303</ele>
        <time>2016-03-07T11:28:59Z</time>
      </trkpt>
      <trkpt lat="48.21891" lon="-3.12467">
        <ele>304</ele>
        <time>2016-03-07T11:29:02Z</time>
      </trkpt>
      <trkpt lat="48.21888" lon="-3.1247">
        <ele>304</ele>
        <time>2016-03-07T11:29:05Z</time>
      </trkpt>
      <trkpt lat="48.21886" lon="-3.12472">
        <ele>304</ele>
        <time>2016-03-07T11:29:07Z</time>
      </trkpt>
      <trkpt lat="48.21883" lon="-3.12473">
        <ele>304</ele>
        <time>2016-03-07T11:29:09Z</time>
      </trkpt>
      <trkpt lat="48.21881" lon="-3.12475">
        <ele>304</ele>
        <time>2016-03-07T11:29:12Z</time>
      </trkpt>
      <trkpt lat="48.21879" lon="-3.12478">
        <ele>304</ele>
        <time>2016-03-07T11:29:15Z</time>
      </trkpt>
      <trkpt lat="48.21877" lon="-3.12479">
        <ele>304</ele>
        <time>2016-03-07T11:29:17Z</time>
      </trkpt>
      <trkpt lat="48.21875" lon="-3.12481">
        <ele>303</ele>
        <time>2016-03-07T11:29:19Z</time>
      </trkpt>
      <trkpt lat="48.21875" lon="-3.12483">
        <ele>303</ele>
        <time>2016-03-07T11:29:21Z</time>
      </trkpt>
      <trkpt lat="48.21873" lon="-3.12484">
        <ele>302</ele>
        <time>2016-03-07T11:29:24Z</time>
      </trkpt>
      <trkpt lat="48.21872" lon="-3.12485">
        <ele>302</ele>
        <time>2016-03-07T11:29:26Z</time>
      </trkpt>
      <trkpt lat="48.21871" lon="-3.12486">
        <ele>302</ele>
        <time>2016-03-07T11:29:28Z</time>
      </trkpt>
      <trkpt lat="48.2187" lon="-3.12486">
        <ele>301</ele>
        <time>2016-03-07T11:29:31Z</time>
      </trkpt>
      <trkpt lat="48.2187" lon="-3.12486">
        <ele>301</ele>
        <time>2016-03-07T11:29:33Z</time>
      </trkpt>
      <trkpt lat="48.21869" lon="-3.12485">
        <ele>301</ele>
        <time>2016-03-07T11:29:36Z</time>
      </trkpt>
      <trkpt lat="48.21868" lon="-3.12484">
        <ele>300</ele>
        <time>2016-03-07T11:29:39Z</time>
      </trkpt>
      <trkpt lat="48.21867" lon="-3.12486">
        <ele>300</ele>
        <time>2016-03-07T11:29:41Z</time>
      </trkpt>
      <trkpt lat="48.21866" lon="-3.12487">
        <ele>299</ele>
        <time>2016-03-07T11:29:44Z</time>
      </trkpt>
      <trkpt lat="48.21865" lon="-3.12489">
        <ele>299</ele>
        <time>2016-03-07T11:29:47Z</time>
      </trkpt>
      <trkpt lat="48.21863" lon="-3.12489">
        <ele>298</ele>
        <time>2016-03-07T11:29:50Z</time>
      </trkpt>
      <trkpt lat="48.21862" lon="-3.12489">
        <ele>298</ele>
        <time>2016-03-07T11:29:52Z</time>
      </trkpt>
      <trkpt lat="48.21859" lon="-3.12489">
        <ele>297</ele>
        <time>2016-03-07T11:29:55Z</time>
      </trkpt>
      <trkpt lat="48.21858" lon="-3.12489">
        <ele>296</ele>
        <time>2016-03-07T11:29:57Z</time>
      </trkpt>
      <trkpt lat="48.21856" lon="-3.12488">
        <ele>296</ele>
        <time>2016-03-07T11:30:00Z</time>
      </trkpt>
      <trkpt lat="48.21855" lon="-3.12487">
        <ele>295</ele>
        <time>2016-03-07T11:30:02Z</time>
      </trkpt>
      <trkpt lat="48.21854" lon="-3.12486">
        <ele>294</ele>
        <time>2016-03-07T11:30:04Z</time>
      </trkpt>
      <trkpt lat="48.21853" lon="-3.12484">
        <ele>294</ele>
        <time>2016-03-07T11:30:06Z</time>
      </trkpt>
      <trkpt lat="48.21852" lon="-3.12482">
        <ele>293</ele>
        <time>2016-03-07T11:30:08Z</time>
      </trkpt>
      <trkpt lat="48.21851" lon="-3.12479">
        <ele>292</ele>
        <time>2016-03-07T11:30:11Z</time>
      </trkpt>
      <trkpt lat="48.2185" lon="-3.12478">
        <ele>292</ele>
        <time>2016-03-07T11:30:13Z</time>
      </trkpt>
      <trkpt lat="48.21851" lon="-3.12476">
        <ele>291</ele>
        <time>2016-03-07T11:30:16Z</time>
      </trkpt>
      <trkpt lat="48.21851" lon="-3.12474">
        <ele>291</ele>
        <time>2016-03-07T11:30:19Z</time>
      </trkpt>
      <trkpt lat="48.21851" lon="-3.12473">
        <ele>290</ele>
        <time>2016-03-07T11:30:21Z</time>
      </trkpt>
      <trkpt lat="48.21851" lon="-3.12471">
        <ele>290</ele>
        <time>2016-03-07T11:30:24Z</time>
      </trkpt>
      <trkpt lat="48.21851" lon="-3.1247">
        <ele>290</ele>
        <time>2016-03-07T11:30:26Z</time>
      </trkpt>
      <trkpt lat="48.21851" lon="-3.12469">
        <ele>290</ele>
        <time>2016-03-07T11:30:28Z</time>
      </trkpt>
      <trkpt lat="48.21851" lon="-3.12468">
        <ele>289</ele>
        <time>2016-03-07T11:30:30Z</time>
      </trkpt>
      <trkpt lat="48.21852" lon="-3.12466">
        <ele>289</ele>
        <time>2016-03-07T11:30:32Z</time>
      </trkpt>
      <trkpt lat="48.21852" lon="-3.12463">
        <ele>288</ele>
        <time>2016-03-07T11:30:35Z</time>
      </trkpt>
      <trkpt lat="48.21852" lon="-3.12461">
        <ele>287</ele>
        <time>2016-03-07T11:30:38Z</time>
      </trkpt>
      <trkpt lat="48.21852" lon="-3.12459">
        <ele>286</ele>
        <time>2016-03-07T11:30:40Z</time>
      </trkpt>
      <trkpt lat="48.21851" lon="-3.12458">
        <ele>286</ele>
        <time>2016-03-07T11:30:43Z</time>
      </trkpt>
      <trkpt lat="48.21849" lon="-3.12457">
        <ele>285</ele>
        <time>2016-03-07T11:30:46Z</time>
      </trkpt>
      <trkpt lat="48.21849" lon="-3.12455">
        <ele>285</ele>
        <time>2016-03-07T11:30:48Z</time>
      </trkpt>
      <trkpt lat="48.21849" lon="-3.12453">
        <ele>284</ele>
        <time>2016-03-07T11:30:50Z</time>
      </trkpt>
      <trkpt lat="48.2185" lon="-3.12451">
        <ele>284</ele>
        <time>2016-03-07T11:30:53Z</time>
      </trkpt>
      <trkpt lat="48.2185" lon="-3.1245">
        <ele>283</ele>
        <time>2016-03-07T11:30:56Z</time>
      </trkpt>
      <trkpt lat="48.2185" lon="-3.12448">
        <ele>282</ele>
        <time>2016-03-07T11:30:58Z</time>
      </trkpt>
      <trkpt lat="48.21849" lon="-3.12446">
        <ele>281</ele>
        <time>2016-03-07T11:31:01Z</time>
      </trkpt>
      <trkpt lat="48.21849" lon="-3.12444">
        <ele>281</ele>
        <time>2016-03-07T11:31:03Z</time>
      </trkpt>
      <trkpt lat="48.21849" lon="-3.12442">
        <ele>280</ele>
        <time>2016-03-07T11:31:05Z</time>
      </trkpt>
      <trkpt lat="48.2185" lon="-3.1244">
        <ele>279</ele>
        <time>2016-03-07T11:31:07Z</time>
      </trkpt>
      <trkpt lat="48.21849" lon="-3.12437">
        <ele>278</ele>
        <time>2016-03-07T11:31:10Z</time>
      </trkpt>
      <trkpt lat="48.21849" lon="-3.12436">
        <ele>278</ele>
        <time>2016-03-07T11:31:12Z</time>
      </trkpt>
      <trkpt lat="48.21848" lon="-3.12434">
        <ele>276</ele>
        <time>2016-03-07T11:31:15Z</time>
      </trkpt>
      <trkpt lat="48.21847" lon="-3.12432">
        <ele>276</ele>
        <time>2016-03-07T11:31:18Z</time>
      </trkpt>
      <trkpt lat="48.21847" lon="-3.12428">
        <ele>275</ele>
        <time>2016-03-07T11:31:20Z</time>
      </trkpt>
      <trkpt lat="48.21847" lon="-3.12426">
        <ele>274</ele>
        <time>2016-03-07T11:31:22Z</time>
      </trkpt>
      <trkpt lat="48.21847" lon="-3.12425">
        <ele>274</ele>
        <time>2016-03-07T11:31:24Z</time>
      </trkpt>
      <trkpt lat="48.21845" lon="-3.12422">
        <ele>273</ele>
        <time>2016-03-07T11:31:27Z</time>
      </trkpt>
      <trkpt lat="48.21843" lon="-3.12418">
        <ele>272</ele>
        <time>2016-03-07T11:31:30Z</time>
      </trkpt>
      <trkpt lat="48.21842" lon="-3.12415">
        <ele>272</ele>
        <time>2016-03-07T11:31:32Z</time>
      </trkpt>
      <trkpt lat="48.21841" lon="-3.12413">
        <ele>271</ele>
        <time>2016-03-07T11:31:34Z</time>
      </trkpt>
      <trkpt lat="48.21839" lon="-3.1241">
        <ele>271</ele>
        <time>2016-03-07T11:31:37Z</time>
      </trkpt>
      <trkpt lat="48.21838" lon="-3.12407">
        <ele>271</ele>
        <time>2016-03-07T11:31:39Z</time>
      </trkpt>
      <trkpt lat="48.21839" lon="-3.12405">
        <ele>270</ele>
        <time>2016-03-07T11:31:41Z</time>
      </trkpt>
      <trkpt lat="48.21839" lon="-3.12401">
        <ele>270</ele>
        <time>2016-03-07T11:31:44Z</time>
      </trkpt>
      <trkpt lat="48.21839" lon="-3.12398">
        <ele>270</ele>
        <time>2016-03-07T11:31:46Z</time>
      </trkpt>
      <trkpt lat="48.2184" lon="-3.12396">
        <ele>271</ele>
        <time>2016-03-07T11:31:48Z</time>
      </trkpt>
      <trkpt lat="48.21841" lon="-3.12393">
        <ele>271</ele>
        <time>2016-03-07T11:31:51Z</time>
      </trkpt>
      <trkpt lat="48.2184" lon="-3.12391">
        <ele>271</ele>
        <time>2016-03-07T11:31:53Z</time>
      </trkpt>
      <trkpt lat="48.2184" lon="-3.12389">
        <ele>271</ele>
        <time>2016-03-07T11:31:55Z</time>
      </trkpt>
      <trkpt lat="48.21839" lon="-3.12387">
        <ele>271</ele>
        <time>2016-03-07T11:31:58Z</time>
      </trkpt>
      <trkpt lat="48.21838" lon="-3.12387">
        <ele>271</ele>
        <time>2016-03-07T11:32:01Z</time>
      </trkpt>
      <trkpt lat="48.21838" lon="-3.12387">
        <ele>271</ele>
        <time>2016-03-07T11:32:04Z</time>
      </trkpt>
      <trkpt lat="48.21838" lon="-3.12388">
        <ele>270</ele>
        <time>2016-03-07T11:32:06Z</time>
      </trkpt>
      <trkpt lat="48.21836" lon="-3.1239">
        <ele>270</ele>
        <time>2016-03-07T11:32:09Z</time>
      </trkpt>
      <trkpt lat="48.21835" lon="-3.12392">
        <ele>270</ele>
        <time>2016-03-07T11:32:11Z</time>
      </trkpt>
      <trkpt lat="48.21834" lon="-3.12394">
        <ele>270</ele>
        <time>2016-03-07T11:32:14Z</time>
      </trkpt>
      <trkpt lat="48.21833" lon="-3.12396">
        <ele>270</ele>
        <time>2016-03-07T11:32:17Z</time>
      </trkpt>
      <trkpt lat="48.21832" lon="-3.12397">
        <ele>270</ele>
        <time>2016-03-07T11:32:20Z</time>
      </trkpt>
      <trkpt lat="48.21832" lon="-3.12398">
        <ele>270</ele>
        <time>2016-03-07T11:32:22Z</time>
      </trkpt>
      <trkpt lat="48.21831" lon="-3.12399">
        <ele>270</ele>
        <time>2016-03-07T11:32:24Z</time>
      </trkpt>
      <trkpt lat="48.21831" lon="-3.12401">
        <ele>271</ele>
        <time>2016-03-07T11:32:26Z</time>
      </trkpt>
      <trkpt lat="48.2183" lon="-3.12401">
        <ele>271</ele>
        <time>2016-03-07T11:32:28Z</time>
      </trkpt>
      <trkpt lat="48.2183" lon="-3.12403">
        <ele>271</ele>
        <time>2016-03-07T11:32:31Z</time>
      </trkpt>
      <trkpt lat="48.2183" lon="-3.12403">
        <ele>271</ele>
        <time>2016-03-07T11:32:33Z</time>
      </trkpt>
      <trkpt lat="48.2183" lon="-3.12404">
        <ele>270</ele>
        <time>2016-03-07T11:32:35Z</time>
      </trkpt>
      <trkpt lat="48.2183" lon="-3.12405">
        <ele>270</ele>
        <time>2016-03-07T11:32:37Z</time>
      </trkpt>
      <trkpt lat="48.2183" lon="-3.12406">
        <ele>271</ele>
        <time>2016-03-07T11:32:39Z</time>
      </trkpt>
      <trkpt lat="48.21831" lon="-3.12406">
        <ele>271</ele>
        <time>2016-03-07T11:32:41Z</time>
      </trkpt>
      <trkpt lat="48.2183" lon="-3.12407">
        <ele>271</ele>
        <time>2016-03-07T11:32:44Z</time>
      </trkpt>
      <trkpt lat="48.2183" lon="-3.12408">
        <ele>271</ele>
        <time>2016-03-07T11:32:46Z</time>
      </trkpt>
      <trkpt lat="48.2183" lon="-3.12409">
        <ele>270</ele>
        <time>2016-03-07T11:32:49Z</time>
      </trkpt>
      <trkpt lat="48.21831" lon="-3.12409">
        <ele>270</ele>
        <time>2016-03-07T11:32:51Z</time>
      </trkpt>
      <trkpt lat="48.2183" lon="-3.12409">
        <ele>270</ele>
        <time>2016-03-07T11:32:54Z</time>
      </trkpt>
      <trkpt lat="48.2183" lon="-3.12409">
        <ele>271</ele>
        <time>2016-03-07T11:32:56Z</time>
      </trkpt>
      <trkpt lat="48.21829" lon="-3.12409">
        <ele>271</ele>
        <time>2016-03-07T11:32:59Z</time>
      </trkpt>
      <trkpt lat="48.2183" lon="-3.12409">
        <ele>270</ele>
        <time>2016-03-07T11:33:03Z</time>
      </trkpt>
      <trkpt lat="48.2183" lon="-3.12409">
        <ele>270</ele>
        <time>2016-03-07T11:33:06Z</time>
      </trkpt>
      <trkpt lat="48.2183" lon="-3.12409">
        <ele>270</ele>
        <time>2016-03-07T11:33:08Z</time>
      </trkpt>
      <trkpt lat="48.2183" lon="-3.1241">
        <ele>270</ele>
        <time>2016-03-07T11:33:11Z</time>
      </trkpt>
      <trkpt lat="48.2183" lon="-3.1241">
        <ele>270</ele>
        <time>2016-03-07T11:33:14Z</time>
      </trkpt>
      <trkpt lat="48.2183" lon="-3.12411">
        <ele>271</ele>
        <time>2016-03-07T11:33:16Z</time>
      </trkpt>
      <trkpt lat="48.2183" lon="-3.12411">
        <ele>271</ele>
        <time>2016-03-07T11:33:18Z</time>
      </trkpt>
      <trkpt lat="48.2183" lon="-3.12412">
        <ele>271</ele>
        <time>2016-03-07T11:33:21Z</time>
      </trkpt>
      <trkpt lat="48.2183" lon="-3.12413">
        <ele>271</ele>
        <time>2016-03-07T11:33:24Z</time>
      </trkpt>
      <trkpt lat="48.21829" lon="-3.12414">
        <ele>270</ele>
        <time>2016-03-07T11:33:27Z</time>
      </trkpt>
      <trkpt lat="48.21829" lon="-3.12414">
        <ele>270</ele>
        <time>2016-03-07T11:33:29Z</time>
      </trkpt>
      <trkpt lat="48.21829" lon="-3.12415">
        <ele>270</ele>
        <time>2016-03-07T11:33:31Z</time>
      </trkpt>
      <trkpt lat="48.21829" lon="-3.12415">
        <ele>270</ele>
        <time>2016-03-07T11:33:33Z</time>
      </trkpt>
      <trkpt lat="48.21831" lon="-3.12415">
        <ele>270</ele>
        <time>2016-03-07T11:33:36Z</time>
      </trkpt>
      <trkpt lat="48.21831" lon="-3.12415">
        <ele>269</ele>
        <time>2016-03-07T11:33:38Z</time>
      </trkpt>
      <trkpt lat="48.21832" lon="-3.12416">
        <ele>269</ele>
        <time>2016-03-07T11:33:41Z</time>
      </trkpt>
      <trkpt lat="48.21832" lon="-3.12416">
        <ele>270</ele>
        <time>2016-03-07T11:33:44Z</time>
      </trkpt>
      <trkpt lat="48.21832" lon="-3.12416">
        <ele>270</ele>
        <time>2016-03-07T11:33:46Z</time>
      </trkpt>
      <trkpt lat="48.21832" lon="-3.12416">
        <ele>270</ele>
        <time>2016-03-07T11:33:50Z</time>
      </trkpt>
      <trkpt lat="48.21832" lon="-3.12417">
        <ele>270</ele>
        <time>2016-03-07T11:33:53Z</time>
      </trkpt>
      <trkpt lat="48.21832" lon="-3.12417">
        <ele>270</ele>
        <time>2016-03-07T11:33:56Z</time>
      </trkpt>
      <trkpt lat="48.21831" lon="-3.12417">
        <ele>270</ele>
        <time>2016-03-07T11:33:58Z</time>
      </trkpt>
      <trkpt lat="48.2183" lon="-3.12418">
        <ele>270</ele>
        <time>2016-03-07T11:34:01Z</time>
      </trkpt>
      <trkpt lat="48.2183" lon="-3.12418">
        <ele>270</ele>
        <time>2016-03-07T11:34:03Z</time>
      </trkpt>
      <trkpt lat="48.2183" lon="-3.12418">
        <ele>270</ele>
        <time>2016-03-07T11:34:06Z</time>
      </trkpt>
      <trkpt lat="48.2183" lon="-3.12418">
        <ele>270</ele>
        <time>2016-03-07T11:34:08Z</time>
      </trkpt>
      <trkpt lat="48.2183" lon="-3.12418">
        <ele>270</ele>
        <time>2016-03-07T11:34:10Z</time>
      </trkpt>
      <trkpt lat="48.2183" lon="-3.12418">
        <ele>270</ele>
        <time>2016-03-07T11:34:13Z</time>
      </trkpt>
      <trkpt lat="48.2183" lon="-3.12418">
        <ele>270</ele>
        <time>2016-03-07T11:34:15Z</time>
      </trkpt>
      <trkpt lat="48.2183" lon="-3.12418">
        <ele>270</ele>
        <time>2016-03-07T11:34:18Z</time>
      </trkpt>
      <trkpt lat="48.2183" lon="-3.12421">
        <ele>270</ele>
        <time>2016-03-07T11:34:21Z</time>
      </trkpt>
      <trkpt lat="48.21831" lon="-3.1242">
        <ele>270</ele>
        <time>2016-03-07T11:34:24Z</time>
      </trkpt>
      <trkpt lat="48.21831" lon="-3.1242">
        <ele>271</ele>
        <time>2016-03-07T11:34:26Z</time>
      </trkpt>
      <trkpt lat="48.21831" lon="-3.12419">
        <ele>271</ele>
        <time>2016-03-07T11:34:29Z</time>
      </trkpt>
      <trkpt lat="48.2183" lon="-3.12421">
        <ele>271</ele>
        <time>2016-03-07T11:34:32Z</time>
      </trkpt>
      <trkpt lat="48.21829" lon="-3.12423">
        <ele>271</ele>
        <time>2016-03-07T11:34:34Z</time>
      </trkpt>
      <trkpt lat="48.21828" lon="-3.12425">
        <ele>271</ele>
        <time>2016-03-07T11:34:37Z</time>
      </trkpt>
      <trkpt lat="48.21826" lon="-3.12429">
        <ele>271</ele>
        <time>2016-03-07T11:34:40Z</time>
      </trkpt>
      <trkpt lat="48.21825" lon="-3.12432">
        <ele>271</ele>
        <time>2016-03-07T11:34:42Z</time>
      </trkpt>
      <trkpt lat="48.21824" lon="-3.12436">
        <ele>270</ele>
        <time>2016-03-07T11:34:45Z</time>
      </trkpt>
      <trkpt lat="48.21822" lon="-3.12438">
        <ele>270</ele>
        <time>2016-03-07T11:34:47Z</time>
      </trkpt>
      <trkpt lat="48.21821" lon="-3.1244">
        <ele>270</ele>
        <time>2016-03-07T11:34:49Z</time>
      </trkpt>
      <trkpt lat="48.21819" lon="-3.12445">
        <ele>270</ele>
        <time>2016-03-07T11:34:52Z</time>
      </trkpt>
      <trkpt lat="48.21817" lon="-3.12449">
        <ele>270</ele>
        <time>2016-03-07T11:34:54Z</time>
      </trkpt>
      <trkpt lat="48.21816" lon="-3.12452">
        <ele>270</ele>
        <time>2016-03-07T11:34:56Z</time>
      </trkpt>
      <trkpt lat="48.21813" lon="-3.12456">
        <ele>270</ele>
        <time>2016-03-07T11:34:59Z</time>
      </trkpt>
      <trkpt lat="48.21812" lon="-3.1246">
        <ele>270</ele>
        <time>2016-03-07T11:35:01Z</time>
      </trkpt>
      <trkpt lat="48.21812" lon="-3.12464">
        <ele>270</ele>
        <time>2016-03-07T11:35:03Z</time>
      </trkpt>
      <trkpt lat="48.2181" lon="-3.12471">
        <ele>270</ele>
        <time>2016-03-07T11:35:06Z</time>
      </trkpt>
      <trkpt lat="48.21806" lon="-3.12479">
        <ele>269</ele>
        <time>2016-03-07T11:35:09Z</time>
      </trkpt>
      <trkpt lat="48.21804" lon="-3.12487">
        <ele>269</ele>
        <time>2016-03-07T11:35:12Z</time>
      </trkpt>
      <trkpt lat="48.218" lon="-3.12493">
        <ele>269</ele>
        <time>2016-03-07T11:35:14Z</time>
      </trkpt>
      <trkpt lat="48.21794" lon="-3.12501">
        <ele>270</ele>
        <time>2016-03-07T11:35:17Z</time>
      </trkpt>
      <trkpt lat="48.21788" lon="-3.12509">
        <ele>269</ele>
        <time>2016-03-07T11:35:20Z</time>
      </trkpt>
      <trkpt lat="48.21784" lon="-3.12516">
        <ele>269</ele>
        <time>2016-03-07T11:35:22Z</time>
      </trkpt>
      <trkpt lat="48.2178" lon="-3.1252">
        <ele>269</ele>
        <time>2016-03-07T11:35:24Z</time>
      </trkpt>
      <trkpt lat="48.21776" lon="-3.12526">
        <ele>269</ele>
        <time>2016-03-07T11:35:27Z</time>
      </trkpt>
      <trkpt lat="48.21773" lon="-3.1253">
        <ele>269</ele>
        <time>2016-03-07T11:35:30Z</time>
      </trkpt>
      <trkpt lat="48.21771" lon="-3.12534">
        <ele>269</ele>
        <time>2016-03-07T11:35:33Z</time>
      </trkpt>
      <trkpt lat="48.21768" lon="-3.1254">
        <ele>269</ele>
        <time>2016-03-07T11:35:36Z</time>
      </trkpt>
      <trkpt lat="48.21766" lon="-3.12543">
        <ele>268</ele>
        <time>2016-03-07T11:35:38Z</time>
      </trkpt>
      <trkpt lat="48.21764" lon="-3.12547">
        <ele>268</ele>
        <time>2016-03-07T11:35:40Z</time>
      </trkpt>
      <trkpt lat="48.21761" lon="-3.12551">
        <ele>268</ele>
        <time>2016-03-07T11:35:43Z</time>
      </trkpt>
      <trkpt lat="48.21761" lon="-3.12551">
        <ele>269</ele>
        <time>2016-03-07T11:35:46Z</time>
      </trkpt>
      <trkpt lat="48.21762" lon="-3.12553">
        <ele>269</ele>
        <time>2016-03-07T11:35:49Z</time>
      </trkpt>
      <trkpt lat="48.21763" lon="-3.12554">
        <ele>269</ele>
        <time>2016-03-07T11:35:51Z</time>
      </trkpt>
      <trkpt lat="48.21763" lon="-3.12554">
        <ele>270</ele>
        <time>2016-03-07T11:35:53Z</time>
      </trkpt>
      <trkpt lat="48.21764" lon="-3.12555">
        <ele>270</ele>
        <time>2016-03-07T11:35:55Z</time>
      </trkpt>
      <trkpt lat="48.21765" lon="-3.12556">
        <ele>270</ele>
        <time>2016-03-07T11:35:57Z</time>
      </trkpt>
      <trkpt lat="48.21766" lon="-3.12557">
        <ele>270</ele>
        <time>2016-03-07T11:36:00Z</time>
      </trkpt>
      <trkpt lat="48.21767" lon="-3.1256">
        <ele>270</ele>
        <time>2016-03-07T11:36:03Z</time>
      </trkpt>
      <trkpt lat="48.21767" lon="-3.12563">
        <ele>270</ele>
        <time>2016-03-07T11:36:06Z</time>
      </trkpt>
      <trkpt lat="48.21767" lon="-3.12564">
        <ele>269</ele>
        <time>2016-03-07T11:36:09Z</time>
      </trkpt>
      <trkpt lat="48.21767" lon="-3.12565">
        <ele>269</ele>
        <time>2016-03-07T11:36:11Z</time>
      </trkpt>
      <trkpt lat="48.21766" lon="-3.12567">
        <ele>269</ele>
        <time>2016-03-07T11:36:13Z</time>
      </trkpt>
      <trkpt lat="48.21764" lon="-3.1257">
        <ele>269</ele>
        <time>2016-03-07T11:36:15Z</time>
      </trkpt>
      <trkpt lat="48.21763" lon="-3.12573">
        <ele>269</ele>
        <time>2016-03-07T11:36:18Z</time>
      </trkpt>
      <trkpt lat="48.21761" lon="-3.12575">
        <ele>269</ele>
        <time>2016-03-07T11:36:20Z</time>
      </trkpt>
      <trkpt lat="48.2176" lon="-3.12577">
        <ele>269</ele>
        <time>2016-03-07T11:36:22Z</time>
      </trkpt>
      <trkpt lat="48.21758" lon="-3.12579">
        <ele>269</ele>
        <time>2016-03-07T11:36:24Z</time>
      </trkpt>
      <trkpt lat="48.21756" lon="-3.12581">
        <ele>268</ele>
        <time>2016-03-07T11:36:26Z</time>
      </trkpt>
      <trkpt lat="48.21754" lon="-3.12583">
        <ele>268</ele>
        <time>2016-03-07T11:36:28Z</time>
      </trkpt>
      <trkpt lat="48.21753" lon="-3.12585">
        <ele>268</ele>
        <time>2016-03-07T11:36:30Z</time>
      </trkpt>
      <trkpt lat="48.21751" lon="-3.12587">
        <ele>268</ele>
        <time>2016-03-07T11:36:32Z</time>
      </trkpt>
      <trkpt lat="48.21749" lon="-3.1259">
        <ele>268</ele>
        <time>2016-03-07T11:36:35Z</time>
      </trkpt>
      <trkpt lat="48.21747" lon="-3.12593">
        <ele>268</ele>
        <time>2016-03-07T11:36:38Z</time>
      </trkpt>
      <trkpt lat="48.21746" lon="-3.12596">
        <ele>268</ele>
        <time>2016-03-07T11:36:41Z</time>
      </trkpt>
      <trkpt lat="48.21743" lon="-3.12601">
        <ele>268</ele>
        <time>2016-03-07T11:36:44Z</time>
      </trkpt>
      <trkpt lat="48.21741" lon="-3.12604">
        <ele>268</ele>
        <time>2016-03-07T11:36:46Z</time>
      </trkpt>
      <trkpt lat="48.21738" lon="-3.12609">
        <ele>268</ele>
        <time>2016-03-07T11:36:49Z</time>
      </trkpt>
      <trkpt lat="48.21737" lon="-3.12611">
        <ele>268</ele>
        <time>2016-03-07T11:36:51Z</time>
      </trkpt>
      <trkpt lat="48.21734" lon="-3.12615">
        <ele>268</ele>
        <time>2016-03-07T11:36:54Z</time>
      </trkpt>
      <trkpt lat="48.21733" lon="-3.12618">
        <ele>268</ele>
        <time>2016-03-07T11:36:56Z</time>
      </trkpt>
      <trkpt lat="48.21731" lon="-3.12623">
        <ele>268</ele>
        <time>2016-03-07T11:36:59Z</time>
      </trkpt>
      <trkpt lat="48.21729" lon="-3.12626">
        <ele>268</ele>
        <time>2016-03-07T11:37:01Z</time>
      </trkpt>
      <trkpt lat="48.21727" lon="-3.1263">
        <ele>268</ele>
        <time>2016-03-07T11:37:04Z</time>
      </trkpt>
      <trkpt lat="48.21725" lon="-3.12632">
        <ele>268</ele>
        <time>2016-03-07T11:37:06Z</time>
      </trkpt>
      <trkpt lat="48.21724" lon="-3.12634">
        <ele>268</ele>
        <time>2016-03-07T11:37:08Z</time>
      </trkpt>
      <trkpt lat="48.21723" lon="-3.12639">
        <ele>268</ele>
        <time>2016-03-07T11:37:11Z</time>
      </trkpt>
      <trkpt lat="48.21721" lon="-3.12643">
        <ele>268</ele>
        <time>2016-03-07T11:37:14Z</time>
      </trkpt>
      <trkpt lat="48.21718" lon="-3.12647">
        <ele>268</ele>
        <time>2016-03-07T11:37:17Z</time>
      </trkpt>
      <trkpt lat="48.21716" lon="-3.1265">
        <ele>268</ele>
        <time>2016-03-07T11:37:19Z</time>
      </trkpt>
      <trkpt lat="48.21715" lon="-3.12653">
        <ele>268</ele>
        <time>2016-03-07T11:37:21Z</time>
      </trkpt>
      <trkpt lat="48.21713" lon="-3.12657">
        <ele>268</ele>
        <time>2016-03-07T11:37:24Z</time>
      </trkpt>
      <trkpt lat="48.21712" lon="-3.1266">
        <ele>268</ele>
        <time>2016-03-07T11:37:26Z</time>
      </trkpt>
      <trkpt lat="48.21711" lon="-3.12664">
        <ele>267</ele>
        <time>2016-03-07T11:37:29Z</time>
      </trkpt>
      <trkpt lat="48.2171" lon="-3.12667">
        <ele>267</ele>
        <time>2016-03-07T11:37:31Z</time>
      </trkpt>
      <trkpt lat="48.21709" lon="-3.1267">
        <ele>268</ele>
        <time>2016-03-07T11:37:33Z</time>
      </trkpt>
      <trkpt lat="48.21706" lon="-3.12675">
        <ele>268</ele>
        <time>2016-03-07T11:37:36Z</time>
      </trkpt>
      <trkpt lat="48.21705" lon="-3.12678">
        <ele>268</ele>
        <time>2016-03-07T11:37:38Z</time>
      </trkpt>
      <trkpt lat="48.21704" lon="-3.12683">
        <ele>267</ele>
        <time>2016-03-07T11:37:41Z</time>
      </trkpt>
      <trkpt lat="48.21703" lon="-3.12686">
        <ele>267</ele>
        <time>2016-03-07T11:37:43Z</time>
      </trkpt>
      <trkpt lat="48.21701" lon="-3.12691">
        <ele>267</ele>
        <time>2016-03-07T11:37:46Z</time>
      </trkpt>
      <trkpt lat="48.217" lon="-3.12695">
        <ele>267</ele>
        <time>2016-03-07T11:37:48Z</time>
      </trkpt>
      <trkpt lat="48.21699" lon="-3.12698">
        <ele>267</ele>
        <time>2016-03-07T11:37:50Z</time>
      </trkpt>
      <trkpt lat="48.21698" lon="-3.12701">
        <ele>267</ele>
        <time>2016-03-07T11:37:52Z</time>
      </trkpt>
      <trkpt lat="48.21695" lon="-3.12706">
        <ele>267</ele>
        <time>2016-03-07T11:37:55Z</time>
      </trkpt>
      <trkpt lat="48.21693" lon="-3.12711">
        <ele>267</ele>
        <time>2016-03-07T11:37:58Z</time>
      </trkpt>
      <trkpt lat="48.21693" lon="-3.12714">
        <ele>267</ele>
        <time>2016-03-07T11:38:00Z</time>
      </trkpt>
      <trkpt lat="48.21691" lon="-3.1272">
        <ele>267</ele>
        <time>2016-03-07T11:38:03Z</time>
      </trkpt>
      <trkpt lat="48.21689" lon="-3.12725">
        <ele>266</ele>
        <time>2016-03-07T11:38:06Z</time>
      </trkpt>
      <trkpt lat="48.21687" lon="-3.12729">
        <ele>266</ele>
        <time>2016-03-07T11:38:09Z</time>
      </trkpt>
      <trkpt lat="48.21685" lon="-3.12735">
        <ele>266</ele>
        <time>2016-03-07T11:38:12Z</time>
      </trkpt>
      <trkpt lat="48.21684" lon="-3.12738">
        <ele>266</ele>
        <time>2016-03-07T11:38:14Z</time>
      </trkpt>
      <trkpt lat="48.21683" lon="-3.12741">
        <ele>266</ele>
        <time>2016-03-07T11:38:16Z</time>
      </trkpt>
      <trkpt lat="48.21682" lon="-3.12745">
        <ele>266</ele>
        <time>2016-03-07T11:38:18Z</time>
      </trkpt>
      <trkpt lat="48.21679" lon="-3.12749">
        <ele>266</ele>
        <time>2016-03-07T11:38:21Z</time>
      </trkpt>
      <trkpt lat="48.21677" lon="-3.12754">
        <ele>266</ele>
        <time>2016-03-07T11:38:24Z</time>
      </trkpt>
      <trkpt lat="48.21675" lon="-3.12757">
        <ele>266</ele>
        <time>2016-03-07T11:38:26Z</time>
      </trkpt>
      <trkpt lat="48.21674" lon="-3.12762">
        <ele>266</ele>
        <time>2016-03-07T11:38:29Z</time>
      </trkpt>
      <trkpt lat="48.21673" lon="-3.12765">
        <ele>266</ele>
        <time>2016-03-07T11:38:31Z</time>
      </trkpt>
      <trkpt lat="48.21672" lon="-3.12768">
        <ele>266</ele>
        <time>2016-03-07T11:38:33Z</time>
      </trkpt>
      <trkpt lat="48.21671" lon="-3.1277">
        <ele>266</ele>
        <time>2016-03-07T11:38:35Z</time>
      </trkpt>
      <trkpt lat="48.2167" lon="-3.12774">
        <ele>266</ele>
        <time>2016-03-07T11:38:38Z</time>
      </trkpt>
      <trkpt lat="48.21669" lon="-3.12778">
        <ele>266</ele>
        <time>2016-03-07T11:38:40Z</time>
      </trkpt>
      <trkpt lat="48.21666" lon="-3.12783">
        <ele>266</ele>
        <time>2016-03-07T11:38:43Z</time>
      </trkpt>
      <trkpt lat="48.21665" lon="-3.12786">
        <ele>266</ele>
        <time>2016-03-07T11:38:45Z</time>
      </trkpt>
      <trkpt lat="48.21664" lon="-3.12789">
        <ele>266</ele>
        <time>2016-03-07T11:38:47Z</time>
      </trkpt>
      <trkpt lat="48.21663" lon="-3.12791">
        <ele>266</ele>
        <time>2016-03-07T11:38:49Z</time>
      </trkpt>
      <trkpt lat="48.21661" lon="-3.12796">
        <ele>266</ele>
        <time>2016-03-07T11:38:52Z</time>
      </trkpt>
      <trkpt lat="48.2166" lon="-3.12799">
        <ele>266</ele>
        <time>2016-03-07T11:38:54Z</time>
      </trkpt>
      <trkpt lat="48.21658" lon="-3.12801">
        <ele>265</ele>
        <time>2016-03-07T11:38:56Z</time>
      </trkpt>
      <trkpt lat="48.21656" lon="-3.12806">
        <ele>265</ele>
        <time>2016-03-07T11:38:59Z</time>
      </trkpt>
      <trkpt lat="48.21655" lon="-3.12808">
        <ele>265</ele>
        <time>2016-03-07T11:39:01Z</time>
      </trkpt>
      <trkpt lat="48.21653" lon="-3.12812">
        <ele>264</ele>
        <time>2016-03-07T11:39:04Z</time>
      </trkpt>
      <trkpt lat="48.2165" lon="-3.12815">
        <ele>264</ele>
        <time>2016-03-07T11:39:07Z</time>
      </trkpt>
      <trkpt lat="48.21648" lon="-3.12819">
        <ele>264</ele>
        <time>2016-03-07T11:39:10Z</time>
      </trkpt>
      <trkpt lat="48.21645" lon="-3.12824">
        <ele>264</ele>
        <time>2016-03-07T11:39:13Z</time>
      </trkpt>
      <trkpt lat="48.21642" lon="-3.12827">
        <ele>264</ele>
        <time>2016-03-07T11:39:16Z</time>
      </trkpt>
      <trkpt lat="48.21639" lon="-3.12831">
        <ele>264</ele>
        <time>2016-03-07T11:39:19Z</time>
      </trkpt>
      <trkpt lat="48.21637" lon="-3.12833">
        <ele>264</ele>
        <time>2016-03-07T11:39:21Z</time>
      </trkpt>
      <trkpt lat="48.21636" lon="-3.12836">
        <ele>264</ele>
        <time>2016-03-07T11:39:23Z</time>
      </trkpt>
      <trkpt lat="48.21635" lon="-3.12838">
        <ele>264</ele>
        <time>2016-03-07T11:39:25Z</time>
      </trkpt>
      <trkpt lat="48.21632" lon="-3.12842">
        <ele>264</ele>
        <time>2016-03-07T11:39:28Z</time>
      </trkpt>
      <trkpt lat="48.21631" lon="-3.12844">
        <ele>264</ele>
        <time>2016-03-07T11:39:30Z</time>
      </trkpt>
      <trkpt lat="48.21628" lon="-3.12848">
        <ele>264</ele>
        <time>2016-03-07T11:39:33Z</time>
      </trkpt>
      <trkpt lat="48.21626" lon="-3.1285">
        <ele>265</ele>
        <time>2016-03-07T11:39:35Z</time>
      </trkpt>
      <trkpt lat="48.21623" lon="-3.12854">
        <ele>265</ele>
        <time>2016-03-07T11:39:38Z</time>
      </trkpt>
      <trkpt lat="48.21621" lon="-3.12857">
        <ele>265</ele>
        <time>2016-03-07T11:39:40Z</time>
      </trkpt>
      <trkpt lat="48.21618" lon="-3.12861">
        <ele>265</ele>
        <time>2016-03-07T11:39:43Z</time>
      </trkpt>
      <trkpt lat="48.21616" lon="-3.12863">
        <ele>265</ele>
        <time>2016-03-07T11:39:45Z</time>
      </trkpt>
      <trkpt lat="48.21614" lon="-3.12866">
        <ele>264</ele>
        <time>2016-03-07T11:39:48Z</time>
      </trkpt>
      <trkpt lat="48.21611" lon="-3.12869">
        <ele>265</ele>
        <time>2016-03-07T11:39:51Z</time>
      </trkpt>
      <trkpt lat="48.21609" lon="-3.12871">
        <ele>264</ele>
        <time>2016-03-07T11:39:53Z</time>
      </trkpt>
      <trkpt lat="48.21608" lon="-3.12873">
        <ele>265</ele>
        <time>2016-03-07T11:39:55Z</time>
      </trkpt>
      <trkpt lat="48.21606" lon="-3.12874">
        <ele>265</ele>
        <time>2016-03-07T11:39:57Z</time>
      </trkpt>
      <trkpt lat="48.21603" lon="-3.12873">
        <ele>264</ele>
        <time>2016-03-07T11:40:00Z</time>
      </trkpt>
      <trkpt lat="48.21601" lon="-3.12873">
        <ele>264</ele>
        <time>2016-03-07T11:40:03Z</time>
      </trkpt>
      <trkpt lat="48.216" lon="-3.12871">
        <ele>264</ele>
        <time>2016-03-07T11:40:06Z</time>
      </trkpt>
      <trkpt lat="48.21598" lon="-3.12869">
        <ele>263</ele>
        <time>2016-03-07T11:40:08Z</time>
      </trkpt>
      <trkpt lat="48.21598" lon="-3.12865">
        <ele>263</ele>
        <time>2016-03-07T11:40:11Z</time>
      </trkpt>
      <trkpt lat="48.21598" lon="-3.12862">
        <ele>263</ele>
        <time>2016-03-07T11:40:13Z</time>
      </trkpt>
      <trkpt lat="48.21599" lon="-3.12857">
        <ele>263</ele>
        <time>2016-03-07T11:40:16Z</time>
      </trkpt>
      <trkpt lat="48.216" lon="-3.12853">
        <ele>263</ele>
        <time>2016-03-07T11:40:18Z</time>
      </trkpt>
      <trkpt lat="48.21602" lon="-3.12849">
        <ele>262</ele>
        <time>2016-03-07T11:40:21Z</time>
      </trkpt>
      <trkpt lat="48.21603" lon="-3.12847">
        <ele>261</ele>
        <time>2016-03-07T11:40:23Z</time>
      </trkpt>
      <trkpt lat="48.21604" lon="-3.12843">
        <ele>261</ele>
        <time>2016-03-07T11:40:26Z</time>
      </trkpt>
      <trkpt lat="48.21605" lon="-3.12838">
        <ele>261</ele>
        <time>2016-03-07T11:40:29Z</time>
      </trkpt>
      <trkpt lat="48.21606" lon="-3.12834">
        <ele>261</ele>
        <time>2016-03-07T11:40:32Z</time>
      </trkpt>
      <trkpt lat="48.21606" lon="-3.12831">
        <ele>261</ele>
        <time>2016-03-07T11:40:34Z</time>
      </trkpt>
      <trkpt lat="48.21606" lon="-3.12827">
        <ele>261</ele>
        <time>2016-03-07T11:40:36Z</time>
      </trkpt>
      <trkpt lat="48.21606" lon="-3.12822">
        <ele>260</ele>
        <time>2016-03-07T11:40:39Z</time>
      </trkpt>
      <trkpt lat="48.21605" lon="-3.12819">
        <ele>259</ele>
        <time>2016-03-07T11:40:41Z</time>
      </trkpt>
      <trkpt lat="48.21604" lon="-3.12815">
        <ele>258</ele>
        <time>2016-03-07T11:40:44Z</time>
      </trkpt>
      <trkpt lat="48.21602" lon="-3.1281">
        <ele>258</ele>
        <time>2016-03-07T11:40:47Z</time>
      </trkpt>
      <trkpt lat="48.216" lon="-3.12807">
        <ele>258</ele>
        <time>2016-03-07T11:40:50Z</time>
      </trkpt>
      <trkpt lat="48.21598" lon="-3.12805">
        <ele>258</ele>
        <time>2016-03-07T11:40:52Z</time>
      </trkpt>
      <trkpt lat="48.21596" lon="-3.12802">
        <ele>257</ele>
        <time>2016-03-07T11:40:54Z</time>
      </trkpt>
      <trkpt lat="48.21592" lon="-3.128">
        <ele>256</ele>
        <time>2016-03-07T11:40:57Z</time>
      </trkpt>
      <trkpt lat="48.21589" lon="-3.12797">
        <ele>255</ele>
        <time>2016-03-07T11:41:00Z</time>
      </trkpt>
      <trkpt lat="48.21587" lon="-3.12796">
        <ele>255</ele>
        <time>2016-03-07T11:41:02Z</time>
      </trkpt>
      <trkpt lat="48.21584" lon="-3.12795">
        <ele>254</ele>
        <time>2016-03-07T11:41:04Z</time>
      </trkpt>
      <trkpt lat="48.21581" lon="-3.12794">
        <ele>254</ele>
        <time>2016-03-07T11:41:07Z</time>
      </trkpt>
      <trkpt lat="48.21578" lon="-3.12793">
        <ele>254</ele>
        <time>2016-03-07T11:41:09Z</time>
      </trkpt>
      <trkpt lat="48.21575" lon="-3.12792">
        <ele>253</ele>
        <time>2016-03-07T11:41:11Z</time>
      </trkpt>
      <trkpt lat="48.21571" lon="-3.12792">
        <ele>253</ele>
        <time>2016-03-07T11:41:14Z</time>
      </trkpt>
      <trkpt lat="48.21569" lon="-3.12793">
        <ele>253</ele>
        <time>2016-03-07T11:41:16Z</time>
      </trkpt>
      <trkpt lat="48.21566" lon="-3.12793">
        <ele>253</ele>
        <time>2016-03-07T11:41:19Z</time>
      </trkpt>
      <trkpt lat="48.21563" lon="-3.12792">
        <ele>252</ele>
        <time>2016-03-07T11:41:21Z</time>
      </trkpt>
      <trkpt lat="48.21561" lon="-3.12792">
        <ele>252</ele>
        <time>2016-03-07T11:41:23Z</time>
      </trkpt>
      <trkpt lat="48.21557" lon="-3.12791">
        <ele>252</ele>
        <time>2016-03-07T11:41:26Z</time>
      </trkpt>
      <trkpt lat="48.21555" lon="-3.12791">
        <ele>252</ele>
        <time>2016-03-07T11:41:28Z</time>
      </trkpt>
      <trkpt lat="48.21551" lon="-3.12791">
        <ele>251</ele>
        <time>2016-03-07T11:41:31Z</time>
      </trkpt>
      <trkpt lat="48.21548" lon="-3.12791">
        <ele>251</ele>
        <time>2016-03-07T11:41:33Z</time>
      </trkpt>
      <trkpt lat="48.21545" lon="-3.12791">
        <ele>252</ele>
        <time>2016-03-07T11:41:36Z</time>
      </trkpt>
      <trkpt lat="48.21543" lon="-3.1279">
        <ele>252</ele>
        <time>2016-03-07T11:41:38Z</time>
      </trkpt>
      <trkpt lat="48.21539" lon="-3.1279">
        <ele>252</ele>
        <time>2016-03-07T11:41:41Z</time>
      </trkpt>
      <trkpt lat="48.21537" lon="-3.1279">
        <ele>251</ele>
        <time>2016-03-07T11:41:43Z</time>
      </trkpt>
      <trkpt lat="48.21533" lon="-3.1279">
        <ele>250</ele>
        <time>2016-03-07T11:41:46Z</time>
      </trkpt>
      <trkpt lat="48.21531" lon="-3.1279">
        <ele>250</ele>
        <time>2016-03-07T11:41:48Z</time>
      </trkpt>
      <trkpt lat="48.21527" lon="-3.1279">
        <ele>250</ele>
        <time>2016-03-07T11:41:51Z</time>
      </trkpt>
      <trkpt lat="48.21524" lon="-3.1279">
        <ele>251</ele>
        <time>2016-03-07T11:41:54Z</time>
      </trkpt>
      <trkpt lat="48.2152" lon="-3.12791">
        <ele>251</ele>
        <time>2016-03-07T11:41:56Z</time>
      </trkpt>
      <trkpt lat="48.21517" lon="-3.12791">
        <ele>250</ele>
        <time>2016-03-07T11:42:00Z</time>
      </trkpt>
      <trkpt lat="48.21513" lon="-3.12791">
        <ele>250</ele>
        <time>2016-03-07T11:42:03Z</time>
      </trkpt>
      <trkpt lat="48.21511" lon="-3.12792">
        <ele>250</ele>
        <time>2016-03-07T11:42:05Z</time>
      </trkpt>
      <trkpt lat="48.21509" lon="-3.12792">
        <ele>250</ele>
        <time>2016-03-07T11:42:07Z</time>
      </trkpt>
      <trkpt lat="48.21507" lon="-3.12794">
        <ele>250</ele>
        <time>2016-03-07T11:42:09Z</time>
      </trkpt>
      <trkpt lat="48.21504" lon="-3.12795">
        <ele>250</ele>
        <time>2016-03-07T11:42:11Z</time>
      </trkpt>
      <trkpt lat="48.21502" lon="-3.12796">
        <ele>249</ele>
        <time>2016-03-07T11:42:13Z</time>
      </trkpt>
      <trkpt lat="48.21499" lon="-3.12795">
        <ele>250</ele>
        <time>2016-03-07T11:42:16Z</time>
      </trkpt>
      <trkpt lat="48.21496" lon="-3.12794">
        <ele>249</ele>
        <time>2016-03-07T11:42:18Z</time>
      </trkpt>
      <trkpt lat="48.21494" lon="-3.12794">
        <ele>249</ele>
        <time>2016-03-07T11:42:21Z</time>
      </trkpt>
      <trkpt lat="48.2149" lon="-3.12793">
        <ele>249</ele>
        <time>2016-03-07T11:42:23Z</time>
      </trkpt>
      <trkpt lat="48.21488" lon="-3.12792">
        <ele>249</ele>
        <time>2016-03-07T11:42:25Z</time>
      </trkpt>
      <trkpt lat="48.21486" lon="-3.12791">
        <ele>249</ele>
        <time>2016-03-07T11:42:27Z</time>
      </trkpt>
      <trkpt lat="48.21484" lon="-3.12791">
        <ele>249</ele>
        <time>2016-03-07T11:42:30Z</time>
      </trkpt>
      <trkpt lat="48.2148" lon="-3.1279">
        <ele>248</ele>
        <time>2016-03-07T11:42:33Z</time>
      </trkpt>
      <trkpt lat="48.21478" lon="-3.1279">
        <ele>248</ele>
        <time>2016-03-07T11:42:35Z</time>
      </trkpt>
      <trkpt lat="48.21476" lon="-3.1279">
        <ele>248</ele>
        <time>2016-03-07T11:42:38Z</time>
      </trkpt>
      <trkpt lat="48.21474" lon="-3.1279">
        <ele>248</ele>
        <time>2016-03-07T11:42:40Z</time>
      </trkpt>
      <trkpt lat="48.21471" lon="-3.12791">
        <ele>248</ele>
        <time>2016-03-07T11:42:43Z</time>
      </trkpt>
      <trkpt lat="48.21468" lon="-3.12791">
        <ele>247</ele>
        <time>2016-03-07T11:42:45Z</time>
      </trkpt>
      <trkpt lat="48.21465" lon="-3.12793">
        <ele>247</ele>
        <time>2016-03-07T11:42:48Z</time>
      </trkpt>
      <trkpt lat="48.21463" lon="-3.12793">
        <ele>247</ele>
        <time>2016-03-07T11:42:50Z</time>
      </trkpt>
      <trkpt lat="48.2146" lon="-3.12794">
        <ele>247</ele>
        <time>2016-03-07T11:42:53Z</time>
      </trkpt>
      <trkpt lat="48.21458" lon="-3.12794">
        <ele>247</ele>
        <time>2016-03-07T11:42:55Z</time>
      </trkpt>
      <trkpt lat="48.21456" lon="-3.12794">
        <ele>247</ele>
        <time>2016-03-07T11:42:57Z</time>
      </trkpt>
      <trkpt lat="48.21452" lon="-3.12795">
        <ele>246</ele>
        <time>2016-03-07T11:43:00Z</time>
      </trkpt>
      <trkpt lat="48.21449" lon="-3.12798">
        <ele>246</ele>
        <time>2016-03-07T11:43:02Z</time>
      </trkpt>
      <trkpt lat="48.21445" lon="-3.12799">
        <ele>246</ele>
        <time>2016-03-07T11:43:06Z</time>
      </trkpt>
      <trkpt lat="48.21442" lon="-3.12799">
        <ele>246</ele>
        <time>2016-03-07T11:43:09Z</time>
      </trkpt>
      <trkpt lat="48.21441" lon="-3.12799">
        <ele>246</ele>
        <time>2016-03-07T11:43:11Z</time>
      </trkpt>
      <trkpt lat="48.21437" lon="-3.12797">
        <ele>246</ele>
        <time>2016-03-07T11:43:13Z</time>
      </trkpt>
      <trkpt lat="48.21436" lon="-3.12795">
        <ele>246</ele>
        <time>2016-03-07T11:43:16Z</time>
      </trkpt>
      <trkpt lat="48.21432" lon="-3.12794">
        <ele>246</ele>
        <time>2016-03-07T11:43:19Z</time>
      </trkpt>
      <trkpt lat="48.21429" lon="-3.12794">
        <ele>246</ele>
        <time>2016-03-07T11:43:21Z</time>
      </trkpt>
      <trkpt lat="48.21426" lon="-3.12795">
        <ele>246</ele>
        <time>2016-03-07T11:43:23Z</time>
      </trkpt>
      <trkpt lat="48.21424" lon="-3.12796">
        <ele>245</ele>
        <time>2016-03-07T11:43:25Z</time>
      </trkpt>
      <trkpt lat="48.21422" lon="-3.12796">
        <ele>245</ele>
        <time>2016-03-07T11:43:28Z</time>
      </trkpt>
      <trkpt lat="48.21421" lon="-3.12796">
        <ele>245</ele>
        <time>2016-03-07T11:43:30Z</time>
      </trkpt>
      <trkpt lat="48.21418" lon="-3.12797">
        <ele>246</ele>
        <time>2016-03-07T11:43:32Z</time>
      </trkpt>
      <trkpt lat="48.21415" lon="-3.12798">
        <ele>246</ele>
        <time>2016-03-07T11:43:35Z</time>
      </trkpt>
      <trkpt lat="48.21412" lon="-3.12799">
        <ele>245</ele>
        <time>2016-03-07T11:43:37Z</time>
      </trkpt>
      <trkpt lat="48.21409" lon="-3.12799">
        <ele>245</ele>
        <time>2016-03-07T11:43:39Z</time>
      </trkpt>
      <trkpt lat="48.21407" lon="-3.128">
        <ele>245</ele>
        <time>2016-03-07T11:43:41Z</time>
      </trkpt>
      <trkpt lat="48.21405" lon="-3.128">
        <ele>245</ele>
        <time>2016-03-07T11:43:44Z</time>
      </trkpt>
      <trkpt lat="48.214" lon="-3.12801">
        <ele>245</ele>
        <time>2016-03-07T11:43:47Z</time>
      </trkpt>
      <trkpt lat="48.21396" lon="-3.12801">
        <ele>245</ele>
        <time>2016-03-07T11:43:50Z</time>
      </trkpt>
      <trkpt lat="48.21394" lon="-3.12802">
        <ele>245</ele>
        <time>2016-03-07T11:43:53Z</time>
      </trkpt>
      <trkpt lat="48.2139" lon="-3.12803">
        <ele>244</ele>
        <time>2016-03-07T11:43:56Z</time>
      </trkpt>
      <trkpt lat="48.21386" lon="-3.12804">
        <ele>244</ele>
        <time>2016-03-07T11:43:59Z</time>
      </trkpt>
      <trkpt lat="48.21383" lon="-3.12806">
        <ele>245</ele>
        <time>2016-03-07T11:44:02Z</time>
      </trkpt>
      <trkpt lat="48.21379" lon="-3.12807">
        <ele>245</ele>
        <time>2016-03-07T11:44:04Z</time>
      </trkpt>
      <trkpt lat="48.21377" lon="-3.12807">
        <ele>245</ele>
        <time>2016-03-07T11:44:07Z</time>
      </trkpt>
      <trkpt lat="48.21373" lon="-3.12808">
        <ele>245</ele>
        <time>2016-03-07T11:44:10Z</time>
      </trkpt>
      <trkpt lat="48.2137" lon="-3.12809">
        <ele>245</ele>
        <time>2016-03-07T11:44:12Z</time>
      </trkpt>
      <trkpt lat="48.21368" lon="-3.12809">
        <ele>245</ele>
        <time>2016-03-07T11:44:15Z</time>
      </trkpt>
      <trkpt lat="48.21363" lon="-3.12811">
        <ele>245</ele>
        <time>2016-03-07T11:44:18Z</time>
      </trkpt>
      <trkpt lat="48.2136" lon="-3.12814">
        <ele>245</ele>
        <time>2016-03-07T11:44:21Z</time>
      </trkpt>
      <trkpt lat="48.21356" lon="-3.12817">
        <ele>245</ele>
        <time>2016-03-07T11:44:23Z</time>
      </trkpt>
      <trkpt lat="48.21354" lon="-3.1282">
        <ele>245</ele>
        <time>2016-03-07T11:44:26Z</time>
      </trkpt>
      <trkpt lat="48.21352" lon="-3.12822">
        <ele>245</ele>
        <time>2016-03-07T11:44:28Z</time>
      </trkpt>
      <trkpt lat="48.21349" lon="-3.12825">
        <ele>245</ele>
        <time>2016-03-07T11:44:30Z</time>
      </trkpt>
      <trkpt lat="48.21346" lon="-3.12828">
        <ele>245</ele>
        <time>2016-03-07T11:44:33Z</time>
      </trkpt>
      <trkpt lat="48.21342" lon="-3.1283">
        <ele>245</ele>
        <time>2016-03-07T11:44:36Z</time>
      </trkpt>
      <trkpt lat="48.21339" lon="-3.12833">
        <ele>245</ele>
        <time>2016-03-07T11:44:38Z</time>
      </trkpt>
      <trkpt lat="48.21338" lon="-3.12836">
        <ele>245</ele>
        <time>2016-03-07T11:44:41Z</time>
      </trkpt>
      <trkpt lat="48.21336" lon="-3.12838">
        <ele>245</ele>
        <time>2016-03-07T11:44:43Z</time>
      </trkpt>
      <trkpt lat="48.21335" lon="-3.1284">
        <ele>245</ele>
        <time>2016-03-07T11:44:45Z</time>
      </trkpt>
      <trkpt lat="48.21332" lon="-3.12842">
        <ele>245</ele>
        <time>2016-03-07T11:44:47Z</time>
      </trkpt>
      <trkpt lat="48.2133" lon="-3.12844">
        <ele>245</ele>
        <time>2016-03-07T11:44:49Z</time>
      </trkpt>
      <trkpt lat="48.21328" lon="-3.12846">
        <ele>245</ele>
        <time>2016-03-07T11:44:52Z</time>
      </trkpt>
      <trkpt lat="48.21326" lon="-3.12847">
        <ele>245</ele>
        <time>2016-03-07T11:44:54Z</time>
      </trkpt>
      <trkpt lat="48.21324" lon="-3.12846">
        <ele>245</ele>
        <time>2016-03-07T11:44:57Z</time>
      </trkpt>
      <trkpt lat="48.21323" lon="-3.12845">
        <ele>245</ele>
        <time>2016-03-07T11:45:00Z</time>
      </trkpt>
      <trkpt lat="48.21321" lon="-3.12842">
        <ele>245</ele>
        <time>2016-03-07T11:45:03Z</time>
      </trkpt>
      <trkpt lat="48.2132" lon="-3.1284">
        <ele>246</ele>
        <time>2016-03-07T11:45:05Z</time>
      </trkpt>
      <trkpt lat="48.2132" lon="-3.12837">
        <ele>246</ele>
        <time>2016-03-07T11:45:07Z</time>
      </trkpt>
      <trkpt lat="48.21322" lon="-3.12835">
        <ele>246</ele>
        <time>2016-03-07T11:45:10Z</time>
      </trkpt>
      <trkpt lat="48.21324" lon="-3.12832">
        <ele>246</ele>
        <time>2016-03-07T11:45:12Z</time>
      </trkpt>
      <trkpt lat="48.21327" lon="-3.1283">
        <ele>246</ele>
        <time>2016-03-07T11:45:14Z</time>
      </trkpt>
      <trkpt lat="48.21329" lon="-3.12828">
        <ele>246</ele>
        <time>2016-03-07T11:45:16Z</time>
      </trkpt>
      <trkpt lat="48.21333" lon="-3.12826">
        <ele>246</ele>
        <time>2016-03-07T11:45:19Z</time>
      </trkpt>
      <trkpt lat="48.21335" lon="-3.12824">
        <ele>246</ele>
        <time>2016-03-07T11:45:21Z</time>
      </trkpt>
      <trkpt lat="48.21337" lon="-3.12822">
        <ele>246</ele>
        <time>2016-03-07T11:45:23Z</time>
      </trkpt>
      <trkpt lat="48.21337" lon="-3.12821">
        <ele>246</ele>
        <time>2016-03-07T11:45:26Z</time>
      </trkpt>
      <trkpt lat="48.21337" lon="-3.1282">
        <ele>246</ele>
        <time>2016-03-07T11:45:29Z</time>
      </trkpt>
      <trkpt lat="48.21339" lon="-3.12818">
        <ele>246</ele>
        <time>2016-03-07T11:45:31Z</time>
      </trkpt>
      <trkpt lat="48.2134" lon="-3.12815">
        <ele>246</ele>
        <time>2016-03-07T11:45:33Z</time>
      </trkpt>
      <trkpt lat="48.21341" lon="-3.12813">
        <ele>246</ele>
        <time>2016-03-07T11:45:35Z</time>
      </trkpt>
      <trkpt lat="48.21343" lon="-3.1281">
        <ele>246</ele>
        <time>2016-03-07T11:45:37Z</time>
      </trkpt>
      <trkpt lat="48.21344" lon="-3.12808">
        <ele>246</ele>
        <time>2016-03-07T11:45:40Z</time>
      </trkpt>
      <trkpt lat="48.21347" lon="-3.12806">
        <ele>246</ele>
        <time>2016-03-07T11:45:43Z</time>
      </trkpt>
      <trkpt lat="48.21348" lon="-3.12804">
        <ele>246</ele>
        <time>2016-03-07T11:45:45Z</time>
      </trkpt>
      <trkpt lat="48.21349" lon="-3.12802">
        <ele>246</ele>
        <time>2016-03-07T11:45:48Z</time>
      </trkpt>
      <trkpt lat="48.21352" lon="-3.128">
        <ele>245</ele>
        <time>2016-03-07T11:45:50Z</time>
      </trkpt>
      <trkpt lat="48.21353" lon="-3.12799">
        <ele>246</ele>
        <time>2016-03-07T11:45:53Z</time>
      </trkpt>
      <trkpt lat="48.21353" lon="-3.12798">
        <ele>246</ele>
        <time>2016-03-07T11:45:57Z</time>
      </trkpt>
      <trkpt lat="48.21354" lon="-3.12798">
        <ele>246</ele>
        <time>2016-03-07T11:45:59Z</time>
      </trkpt>
      <trkpt lat="48.21354" lon="-3.12798">
        <ele>246</ele>
        <time>2016-03-07T11:46:02Z</time>
      </trkpt>
      <trkpt lat="48.21352" lon="-3.12798">
        <ele>247</ele>
        <time>2016-03-07T11:46:04Z</time>
      </trkpt>
      <trkpt lat="48.21352" lon="-3.12797">
        <ele>247</ele>
        <time>2016-03-07T11:46:07Z</time>
      </trkpt>
      <trkpt lat="48.2135" lon="-3.12796">
        <ele>247</ele>
        <time>2016-03-07T11:46:09Z</time>
      </trkpt>
      <trkpt lat="48.2135" lon="-3.12796">
        <ele>247</ele>
        <time>2016-03-07T11:46:12Z</time>
      </trkpt>
      <trkpt lat="48.2135" lon="-3.12795">
        <ele>247</ele>
        <time>2016-03-07T11:46:14Z</time>
      </trkpt>
      <trkpt lat="48.2135" lon="-3.12795">
        <ele>246</ele>
        <time>2016-03-07T11:46:16Z</time>
      </trkpt>
      <trkpt lat="48.21349" lon="-3.12794">
        <ele>246</ele>
        <time>2016-03-07T11:46:18Z</time>
      </trkpt>
      <trkpt lat="48.21349" lon="-3.12794">
        <ele>246</ele>
        <time>2016-03-07T11:46:21Z</time>
      </trkpt>
      <trkpt lat="48.21349" lon="-3.12793">
        <ele>246</ele>
        <time>2016-03-07T11:46:23Z</time>
      </trkpt>
      <trkpt lat="48.2135" lon="-3.1279">
        <ele>247</ele>
        <time>2016-03-07T11:46:26Z</time>
      </trkpt>
      <trkpt lat="48.2135" lon="-3.12791">
        <ele>247</ele>
        <time>2016-03-07T11:46:28Z</time>
      </trkpt>
      <trkpt lat="48.2135" lon="-3.12791">
        <ele>247</ele>
        <time>2016-03-07T11:46:32Z</time>
      </trkpt>
      <trkpt lat="48.21351" lon="-3.12792">
        <ele>246</ele>
        <time>2016-03-07T11:46:35Z</time>
      </trkpt>
      <trkpt lat="48.21352" lon="-3.12793">
        <ele>246</ele>
        <time>2016-03-07T11:46:37Z</time>
      </trkpt>
      <trkpt lat="48.21352" lon="-3.12794">
        <ele>246</ele>
        <time>2016-03-07T11:46:40Z</time>
      </trkpt>
      <trkpt lat="48.21352" lon="-3.12795">
        <ele>246</ele>
        <time>2016-03-07T11:46:43Z</time>
      </trkpt>
      <trkpt lat="48.21352" lon="-3.12795">
        <ele>246</ele>
        <time>2016-03-07T11:46:45Z</time>
      </trkpt>
      <trkpt lat="48.21353" lon="-3.12796">
        <ele>247</ele>
        <time>2016-03-07T11:46:47Z</time>
      </trkpt>
      <trkpt lat="48.21353" lon="-3.12796">
        <ele>247</ele>
        <time>2016-03-07T11:46:50Z</time>
      </trkpt>
      <trkpt lat="48.21352" lon="-3.12796">
        <ele>246</ele>
        <time>2016-03-07T11:46:52Z</time>
      </trkpt>
      <trkpt lat="48.21352" lon="-3.12796">
        <ele>246</ele>
        <time>2016-03-07T11:46:55Z</time>
      </trkpt>
      <trkpt lat="48.21353" lon="-3.12797">
        <ele>246</ele>
        <time>2016-03-07T11:46:57Z</time>
      </trkpt>
      <trkpt lat="48.21354" lon="-3.12798">
        <ele>246</ele>
        <time>2016-03-07T11:46:59Z</time>
      </trkpt>
      <trkpt lat="48.21354" lon="-3.12798">
        <ele>246</ele>
        <time>2016-03-07T11:47:03Z</time>
      </trkpt>
      <trkpt lat="48.21354" lon="-3.12798">
        <ele>247</ele>
        <time>2016-03-07T11:47:05Z</time>
      </trkpt>
      <trkpt lat="48.21354" lon="-3.12797">
        <ele>247</ele>
        <time>2016-03-07T11:47:08Z</time>
      </trkpt>
      <trkpt lat="48.21354" lon="-3.12797">
        <ele>247</ele>
        <time>2016-03-07T11:47:10Z</time>
      </trkpt>
      <trkpt lat="48.21354" lon="-3.12798">
        <ele>247</ele>
        <time>2016-03-07T11:47:13Z</time>
      </trkpt>
      <trkpt lat="48.21354" lon="-3.12798">
        <ele>247</ele>
        <time>2016-03-07T11:47:16Z</time>
      </trkpt>
      <trkpt lat="48.21353" lon="-3.12796">
        <ele>247</ele>
        <time>2016-03-07T11:47:19Z</time>
      </trkpt>
      <trkpt lat="48.21352" lon="-3.12796">
        <ele>247</ele>
        <time>2016-03-07T11:47:21Z</time>
      </trkpt>
      <trkpt lat="48.21352" lon="-3.12796">
        <ele>247</ele>
        <time>2016-03-07T11:47:23Z</time>
      </trkpt>
      <trkpt lat="48.21351" lon="-3.12797">
        <ele>247</ele>
        <time>2016-03-07T11:47:26Z</time>
      </trkpt>
      <trkpt lat="48.2135" lon="-3.12797">
        <ele>248</ele>
        <time>2016-03-07T11:47:28Z</time>
      </trkpt>
      <trkpt lat="48.2135" lon="-3.12797">
        <ele>248</ele>
        <time>2016-03-07T11:47:31Z</time>
      </trkpt>
      <trkpt lat="48.21351" lon="-3.12798">
        <ele>248</ele>
        <time>2016-03-07T11:47:34Z</time>
      </trkpt>
      <trkpt lat="48.21351" lon="-3.12799">
        <ele>248</ele>
        <time>2016-03-07T11:47:36Z</time>
      </trkpt>
      <trkpt lat="48.21354" lon="-3.12802">
        <ele>247</ele>
        <time>2016-03-07T11:47:38Z</time>
      </trkpt>
      <trkpt lat="48.21353" lon="-3.12802">
        <ele>247</ele>
        <time>2016-03-07T11:47:40Z</time>
      </trkpt>
      <trkpt lat="48.21352" lon="-3.12803">
        <ele>247</ele>
        <time>2016-03-07T11:47:42Z</time>
      </trkpt>
      <trkpt lat="48.21351" lon="-3.12804">
        <ele>246</ele>
        <time>2016-03-07T11:47:45Z</time>
      </trkpt>
      <trkpt lat="48.21351" lon="-3.12803">
        <ele>246</ele>
        <time>2016-03-07T11:47:50Z</time>
      </trkpt>
      <trkpt lat="48.21352" lon="-3.12804">
        <ele>246</ele>
        <time>2016-03-07T11:47:52Z</time>
      </trkpt>
      <trkpt lat="48.21351" lon="-3.12804">
        <ele>246</ele>
        <time>2016-03-07T11:47:55Z</time>
      </trkpt>
      <trkpt lat="48.21351" lon="-3.12804">
        <ele>246</ele>
        <time>2016-03-07T11:47:57Z</time>
      </trkpt>
      <trkpt lat="48.21351" lon="-3.12804">
        <ele>246</ele>
        <time>2016-03-07T11:48:00Z</time>
      </trkpt>
      <trkpt lat="48.21352" lon="-3.12804">
        <ele>246</ele>
        <time>2016-03-07T11:48:04Z</time>
      </trkpt>
      <trkpt lat="48.21351" lon="-3.12804">
        <ele>246</ele>
        <time>2016-03-07T11:48:06Z</time>
      </trkpt>
      <trkpt lat="48.21351" lon="-3.12804">
        <ele>245</ele>
        <time>2016-03-07T11:48:08Z</time>
      </trkpt>
      <trkpt lat="48.21352" lon="-3.12804">
        <ele>245</ele>
        <time>2016-03-07T11:48:12Z</time>
      </trkpt>
      <trkpt lat="48.21352" lon="-3.12803">
        <ele>245</ele>
        <time>2016-03-07T11:48:14Z</time>
      </trkpt>
      <trkpt lat="48.21351" lon="-3.12804">
        <ele>246</ele>
        <time>2016-03-07T11:48:18Z</time>
      </trkpt>
      <trkpt lat="48.21351" lon="-3.12804">
        <ele>246</ele>
        <time>2016-03-07T11:48:21Z</time>
      </trkpt>
      <trkpt lat="48.21351" lon="-3.12804">
        <ele>246</ele>
        <time>2016-03-07T11:48:24Z</time>
      </trkpt>
      <trkpt lat="48.21351" lon="-3.12803">
        <ele>245</ele>
        <time>2016-03-07T11:48:27Z</time>
      </trkpt>
      <trkpt lat="48.2135" lon="-3.12801">
        <ele>245</ele>
        <time>2016-03-07T11:48:29Z</time>
      </trkpt>
      <trkpt lat="48.21348" lon="-3.12799">
        <ele>245</ele>
        <time>2016-03-07T11:48:32Z</time>
      </trkpt>
      <trkpt lat="48.21346" lon="-3.12798">
        <ele>245</ele>
        <time>2016-03-07T11:48:35Z</time>
      </trkpt>
      <trkpt lat="48.21346" lon="-3.12798">
        <ele>245</ele>
        <time>2016-03-07T11:48:37Z</time>
      </trkpt>
      <trkpt lat="48.21346" lon="-3.12798">
        <ele>245</ele>
        <time>2016-03-07T11:48:41Z</time>
      </trkpt>
      <trkpt lat="48.21345" lon="-3.12799">
        <ele>246</ele>
        <time>2016-03-07T11:48:43Z</time>
      </trkpt>
      <trkpt lat="48.21345" lon="-3.12799">
        <ele>246</ele>
        <time>2016-03-07T11:48:46Z</time>
      </trkpt>
      <trkpt lat="48.21345" lon="-3.12799">
        <ele>246</ele>
        <time>2016-03-07T11:48:48Z</time>
      </trkpt>
      <trkpt lat="48.21345" lon="-3.12799">
        <ele>246</ele>
        <time>2016-03-07T11:48:51Z</time>
      </trkpt>
      <trkpt lat="48.21345" lon="-3.12799">
        <ele>245</ele>
        <time>2016-03-07T11:48:54Z</time>
      </trkpt>
      <trkpt lat="48.21344" lon="-3.12799">
        <ele>245</ele>
        <time>2016-03-07T11:48:57Z</time>
      </trkpt>
      <trkpt lat="48.21344" lon="-3.12799">
        <ele>245</ele>
        <time>2016-03-07T11:48:58Z</time>
      </trkpt>
    </trkseg>
  </trk>
</gpx>